<?xml version='1.0' encoding='UTF-8'?><gpx version="1.1" creator="JPX - https://github.com/jenetics/jpx" xmlns="http://www.topografix.com/GPX/1/1"><trk><trkseg><trkpt lat="44.9012017" lon="10.59402"><ele>22.0</ele><time>2026-03-23T10:43:44.38Z</time></trkpt><trkpt lat="44.90112" lon="10.5941033"><ele>22.0</ele><time>2026-03-23T10:43:45.379Z</time></trkpt><trkpt lat="44.9007083" lon="10.5943617"><ele>22.0</ele><time>2026-03-23T10:43:47.38Z</time></trkpt><trkpt lat="44.9008483" lon="10.594425"><ele>22.0</ele><time>2026-03-23T10:43:49.38Z</time></trkpt><trkpt lat="44.90072" lon="10.59446"><ele>22.0</ele><time>2026-03-23T10:45:20.964Z</time></trkpt><trkpt lat="44.9007283" lon="10.5945617"><ele>22.0</ele><time>2026-03-23T10:45:36.965Z</time></trkpt><trkpt lat="44.9007283" lon="10.5946567"><ele>22.0</ele><time>2026-03-23T10:45:39.965Z</time></trkpt><trkpt lat="44.9007917" lon="10.5947033"><ele>22.0</ele><time>2026-03-23T10:45:42.964Z</time></trkpt><trkpt lat="44.9008683" lon="10.5947167"><ele>22.0</ele><time>2026-03-23T10:45:44.964Z</time></trkpt><trkpt lat="44.9009633" lon="10.5947483"><ele>22.0</ele><time>2026-03-23T10:45:47.964Z</time></trkpt><trkpt lat="44.9010417" lon="10.5947583"><ele>22.0</ele><time>2026-03-23T10:45:49.964Z</time></trkpt><trkpt lat="44.9011133" lon="10.5947667"><ele>22.0</ele><time>2026-03-23T10:45:51.964Z</time></trkpt><trkpt lat="44.9011883" lon="10.5947583"><ele>22.0</ele><time>2026-03-23T10:45:53.965Z</time></trkpt><trkpt lat="44.9012617" lon="10.5947383"><ele>22.0</ele><time>2026-03-23T10:45:55.964Z</time></trkpt><trkpt lat="44.9013383" lon="10.5947133"><ele>22.0</ele><time>2026-03-23T10:45:57.964Z</time></trkpt><trkpt lat="44.9014133" lon="10.5946983"><ele>22.0</ele><time>2026-03-23T10:45:59.965Z</time></trkpt><trkpt lat="44.9015" lon="10.5946617"><ele>22.0</ele><time>2026-03-23T10:46:01.965Z</time></trkpt><trkpt lat="44.9015833" lon="10.5946233"><ele>22.0</ele><time>2026-03-23T10:46:03.965Z</time></trkpt><trkpt lat="44.9016583" lon="10.5945883"><ele>22.0</ele><time>2026-03-23T10:46:05.964Z</time></trkpt><trkpt lat="44.9017283" lon="10.5945617"><ele>22.0</ele><time>2026-03-23T10:46:07.965Z</time></trkpt><trkpt lat="44.9018" lon="10.5945233"><ele>22.0</ele><time>2026-03-23T10:46:09.965Z</time></trkpt><trkpt lat="44.901855" lon="10.5944633"><ele>22.0</ele><time>2026-03-23T10:46:11.964Z</time></trkpt><trkpt lat="44.9018867" lon="10.5943783"><ele>22.0</ele><time>2026-03-23T10:46:13.964Z</time></trkpt><trkpt lat="44.9019083" lon="10.5942767"><ele>22.0</ele><time>2026-03-23T10:46:15.964Z</time></trkpt><trkpt lat="44.9019317" lon="10.5941783"><ele>22.0</ele><time>2026-03-23T10:46:17.964Z</time></trkpt><trkpt lat="44.9019667" lon="10.594065"><ele>22.0</ele><time>2026-03-23T10:46:20.964Z</time></trkpt><trkpt lat="44.90201" lon="10.5939567"><ele>22.0</ele><time>2026-03-23T10:46:23.964Z</time></trkpt><trkpt lat="44.9020517" lon="10.5938467"><ele>22.0</ele><time>2026-03-23T10:46:26.965Z</time></trkpt><trkpt lat="44.9021" lon="10.5937367"><ele>22.0</ele><time>2026-03-23T10:46:29.965Z</time></trkpt><trkpt lat="44.9021483" lon="10.59364"><ele>22.0</ele><time>2026-03-23T10:46:32.964Z</time></trkpt><trkpt lat="44.9022" lon="10.59353"><ele>22.0</ele><time>2026-03-23T10:46:35.964Z</time></trkpt><trkpt lat="44.90225" lon="10.59342"><ele>22.0</ele><time>2026-03-23T10:46:38.964Z</time></trkpt><trkpt lat="44.9022917" lon="10.5933133"><ele>22.0</ele><time>2026-03-23T10:46:41.965Z</time></trkpt><trkpt lat="44.9023333" lon="10.5931967"><ele>22.0</ele><time>2026-03-23T10:46:44.964Z</time></trkpt><trkpt lat="44.9023667" lon="10.5931083"><ele>22.0</ele><time>2026-03-23T10:46:47.965Z</time></trkpt><trkpt lat="44.9024" lon="10.5931933"><ele>22.0</ele><time>2026-03-23T10:46:56.964Z</time></trkpt><trkpt lat="44.9023633" lon="10.5933033"><ele>22.0</ele><time>2026-03-23T10:46:58.964Z</time></trkpt><trkpt lat="44.9023467" lon="10.5934283"><ele>22.0</ele><time>2026-03-23T10:47:00.965Z</time></trkpt><trkpt lat="44.9023217" lon="10.5935617"><ele>22.0</ele><time>2026-03-23T10:47:02.965Z</time></trkpt><trkpt lat="44.9022883" lon="10.5936983"><ele>22.0</ele><time>2026-03-23T10:47:04.965Z</time></trkpt><trkpt lat="44.9022717" lon="10.593835"><ele>22.0</ele><time>2026-03-23T10:47:06.964Z</time></trkpt><trkpt lat="44.9022533" lon="10.5939483"><ele>22.0</ele><time>2026-03-23T10:47:08.964Z</time></trkpt><trkpt lat="44.9022483" lon="10.594045"><ele>22.0</ele><time>2026-03-23T10:47:11.965Z</time></trkpt><trkpt lat="44.9022433" lon="10.594145"><ele>22.0</ele><time>2026-03-23T10:47:14.965Z</time></trkpt><trkpt lat="44.9022333" lon="10.59429"><ele>22.0</ele><time>2026-03-23T10:47:17.965Z</time></trkpt><trkpt lat="44.90222" lon="10.59442"><ele>22.0</ele><time>2026-03-23T10:47:19.965Z</time></trkpt><trkpt lat="44.90222" lon="10.5945633"><ele>22.0</ele><time>2026-03-23T10:47:21.965Z</time></trkpt><trkpt lat="44.9022833" lon="10.59469"><ele>22.0</ele><time>2026-03-23T10:47:23.964Z</time></trkpt><trkpt lat="44.9023833" lon="10.5947667"><ele>22.25</ele><time>2026-03-23T10:47:25.964Z</time></trkpt><trkpt lat="44.9024983" lon="10.5948083"><ele>22.5</ele><time>2026-03-23T10:47:27.964Z</time></trkpt><trkpt lat="44.9026133" lon="10.5948367"><ele>22.75</ele><time>2026-03-23T10:47:29.964Z</time></trkpt><trkpt lat="44.902725" lon="10.5948683"><ele>23.0</ele><time>2026-03-23T10:47:31.965Z</time></trkpt><trkpt lat="44.902835" lon="10.5949033"><ele>23.0</ele><time>2026-03-23T10:47:33.964Z</time></trkpt><trkpt lat="44.9029433" lon="10.5949267"><ele>23.0</ele><time>2026-03-23T10:47:35.964Z</time></trkpt><trkpt lat="44.9030383" lon="10.59495"><ele>23.0</ele><time>2026-03-23T10:47:37.964Z</time></trkpt><trkpt lat="44.9031317" lon="10.59498"><ele>23.0</ele><time>2026-03-23T10:47:39.965Z</time></trkpt><trkpt lat="44.9032283" lon="10.595005"><ele>23.0</ele><time>2026-03-23T10:47:41.964Z</time></trkpt><trkpt lat="44.9033183" lon="10.595035"><ele>23.0</ele><time>2026-03-23T10:47:43.965Z</time></trkpt><trkpt lat="44.9034067" lon="10.5950567"><ele>23.0</ele><time>2026-03-23T10:47:45.965Z</time></trkpt><trkpt lat="44.90349" lon="10.5950817"><ele>23.0</ele><time>2026-03-23T10:47:47.964Z</time></trkpt><trkpt lat="44.9035733" lon="10.5951133"><ele>23.0</ele><time>2026-03-23T10:47:49.964Z</time></trkpt><trkpt lat="44.9036617" lon="10.5951467"><ele>23.0</ele><time>2026-03-23T10:47:51.965Z</time></trkpt><trkpt lat="44.903745" lon="10.5951767"><ele>23.0</ele><time>2026-03-23T10:47:53.964Z</time></trkpt><trkpt lat="44.9038233" lon="10.5952017"><ele>23.166666666666668</ele><time>2026-03-23T10:47:55.964Z</time></trkpt><trkpt lat="44.9039033" lon="10.59523"><ele>23.333333333333336</ele><time>2026-03-23T10:47:57.964Z</time></trkpt><trkpt lat="44.9039817" lon="10.5952533"><ele>23.5</ele><time>2026-03-23T10:47:59.964Z</time></trkpt><trkpt lat="44.90406" lon="10.5952817"><ele>23.666666666666668</ele><time>2026-03-23T10:48:01.965Z</time></trkpt><trkpt lat="44.9041433" lon="10.5953067"><ele>23.833333333333332</ele><time>2026-03-23T10:48:03.964Z</time></trkpt><trkpt lat="44.9042283" lon="10.5953317"><ele>24.0</ele><time>2026-03-23T10:48:05.965Z</time></trkpt><trkpt lat="44.9043183" lon="10.5953617"><ele>24.166666666666668</ele><time>2026-03-23T10:48:07.964Z</time></trkpt><trkpt lat="44.9044083" lon="10.59539"><ele>24.333333333333336</ele><time>2026-03-23T10:48:09.964Z</time></trkpt><trkpt lat="44.9045" lon="10.5954217"><ele>24.5</ele><time>2026-03-23T10:48:11.964Z</time></trkpt><trkpt lat="44.9045833" lon="10.5954517"><ele>24.666666666666668</ele><time>2026-03-23T10:48:13.965Z</time></trkpt><trkpt lat="44.9046617" lon="10.5954783"><ele>24.833333333333336</ele><time>2026-03-23T10:48:15.964Z</time></trkpt><trkpt lat="44.9047333" lon="10.5955033"><ele>25.0</ele><time>2026-03-23T10:48:17.964Z</time></trkpt><trkpt lat="44.9048017" lon="10.59553"><ele>25.000000000000004</ele><time>2026-03-23T10:48:19.965Z</time></trkpt><trkpt lat="44.9048783" lon="10.5955533"><ele>25.0</ele><time>2026-03-23T10:48:21.965Z</time></trkpt><trkpt lat="44.9049567" lon="10.5955817"><ele>25.0</ele><time>2026-03-23T10:48:23.965Z</time></trkpt><trkpt lat="44.9050367" lon="10.5956117"><ele>25.0</ele><time>2026-03-23T10:48:25.964Z</time></trkpt><trkpt lat="44.9051133" lon="10.5956433"><ele>25.000000000000004</ele><time>2026-03-23T10:48:27.965Z</time></trkpt><trkpt lat="44.9051883" lon="10.5956667"><ele>25.0</ele><time>2026-03-23T10:48:29.965Z</time></trkpt><trkpt lat="44.9052633" lon="10.59567"><ele>25.142857142857146</ele><time>2026-03-23T10:48:31.965Z</time></trkpt><trkpt lat="44.905335" lon="10.5956783"><ele>25.285714285714285</ele><time>2026-03-23T10:48:33.964Z</time></trkpt><trkpt lat="44.9054033" lon="10.59568"><ele>25.42857142857143</ele><time>2026-03-23T10:48:35.964Z</time></trkpt><trkpt lat="44.90547" lon="10.5957"><ele>25.571428571428573</ele><time>2026-03-23T10:48:37.965Z</time></trkpt><trkpt lat="44.9055433" lon="10.5957383"><ele>25.714285714285715</ele><time>2026-03-23T10:48:39.965Z</time></trkpt><trkpt lat="44.9056217" lon="10.5957717"><ele>25.857142857142858</ele><time>2026-03-23T10:48:41.965Z</time></trkpt><trkpt lat="44.9056983" lon="10.5957983"><ele>26.0</ele><time>2026-03-23T10:48:43.964Z</time></trkpt><trkpt lat="44.9057733" lon="10.5958217"><ele>25.999999999999996</ele><time>2026-03-23T10:48:45.964Z</time></trkpt><trkpt lat="44.90585" lon="10.5958483"><ele>26.0</ele><time>2026-03-23T10:48:47.965Z</time></trkpt><trkpt lat="44.9059233" lon="10.59587"><ele>26.0</ele><time>2026-03-23T10:48:49.964Z</time></trkpt><trkpt lat="44.90599" lon="10.5958917"><ele>26.0</ele><time>2026-03-23T10:48:51.965Z</time></trkpt><trkpt lat="44.9060767" lon="10.5959267"><ele>25.999999999999996</ele><time>2026-03-23T10:48:54.965Z</time></trkpt><trkpt lat="44.906155" lon="10.5959433"><ele>26.0</ele><time>2026-03-23T10:48:57.964Z</time></trkpt><trkpt lat="44.9062167" lon="10.595985"><ele>25.666666666666664</ele><time>2026-03-23T10:49:00.964Z</time></trkpt><trkpt lat="44.906235" lon="10.596115"><ele>25.333333333333332</ele><time>2026-03-23T10:49:03.964Z</time></trkpt><trkpt lat="44.906235" lon="10.596245"><ele>25.0</ele><time>2026-03-23T10:49:06.964Z</time></trkpt><trkpt lat="44.906235" lon="10.5963383"><ele>24.666666666666664</ele><time>2026-03-23T10:49:08.964Z</time></trkpt><trkpt lat="44.9062367" lon="10.59643"><ele>24.333333333333332</ele><time>2026-03-23T10:49:10.964Z</time></trkpt><trkpt lat="44.90624" lon="10.5965233"><ele>24.0</ele><time>2026-03-23T10:49:12.964Z</time></trkpt><trkpt lat="44.9062417" lon="10.5966183"><ele>23.833333333333332</ele><time>2026-03-23T10:49:14.964Z</time></trkpt><trkpt lat="44.9062433" lon="10.5967183"><ele>23.666666666666668</ele><time>2026-03-23T10:49:16.965Z</time></trkpt><trkpt lat="44.9062417" lon="10.5968167"><ele>23.5</ele><time>2026-03-23T10:49:18.965Z</time></trkpt><trkpt lat="44.9062433" lon="10.59695"><ele>23.333333333333336</ele><time>2026-03-23T10:49:21.964Z</time></trkpt><trkpt lat="44.9062483" lon="10.5970817"><ele>23.166666666666668</ele><time>2026-03-23T10:49:24.964Z</time></trkpt><trkpt lat="44.9062833" lon="10.5972067"><ele>23.0</ele><time>2026-03-23T10:49:27.965Z</time></trkpt><trkpt lat="44.9063167" lon="10.5973"><ele>23.0</ele><time>2026-03-23T10:49:30.964Z</time></trkpt><trkpt lat="44.90636" lon="10.5973833"><ele>23.0</ele><time>2026-03-23T10:49:33.964Z</time></trkpt><trkpt lat="44.9063917" lon="10.5974917"><ele>23.0</ele><time>2026-03-23T10:49:36.964Z</time></trkpt><trkpt lat="44.906415" lon="10.5976167"><ele>23.0</ele><time>2026-03-23T10:49:39.965Z</time></trkpt><trkpt lat="44.9064167" lon="10.59774"><ele>23.0</ele><time>2026-03-23T10:49:42.965Z</time></trkpt><trkpt lat="44.906415" lon="10.5978517"><ele>23.0</ele><time>2026-03-23T10:49:45.966Z</time></trkpt><trkpt lat="44.90642" lon="10.5977483"><ele>23.0</ele><time>2026-03-23T10:49:54.965Z</time></trkpt><trkpt lat="44.906415" lon="10.59763"><ele>23.0</ele><time>2026-03-23T10:49:57.966Z</time></trkpt><trkpt lat="44.9063983" lon="10.597515"><ele>23.0</ele><time>2026-03-23T10:50:00.965Z</time></trkpt><trkpt lat="44.9063633" lon="10.5974067"><ele>23.0</ele><time>2026-03-23T10:50:03.965Z</time></trkpt><trkpt lat="44.9063383" lon="10.5972867"><ele>23.0</ele><time>2026-03-23T10:50:06.965Z</time></trkpt><trkpt lat="44.9063633" lon="10.5971967"><ele>23.0</ele><time>2026-03-23T10:50:09.965Z</time></trkpt><trkpt lat="44.9063917" lon="10.5971167"><ele>23.0</ele><time>2026-03-23T10:50:21.965Z</time></trkpt><trkpt lat="44.9064033" lon="10.5970183"><ele>23.0</ele><time>2026-03-23T10:50:26.966Z</time></trkpt><trkpt lat="44.9063983" lon="10.5969217"><ele>23.0</ele><time>2026-03-23T10:50:34.966Z</time></trkpt><trkpt lat="44.9063683" lon="10.5968417"><ele>23.0</ele><time>2026-03-23T10:50:37.965Z</time></trkpt><trkpt lat="44.9063433" lon="10.5967317"><ele>23.0</ele><time>2026-03-23T10:50:40.965Z</time></trkpt><trkpt lat="44.9063317" lon="10.5966417"><ele>23.0</ele><time>2026-03-23T10:50:42.965Z</time></trkpt><trkpt lat="44.9063267" lon="10.596545"><ele>23.0</ele><time>2026-03-23T10:50:44.965Z</time></trkpt><trkpt lat="44.9063217" lon="10.596445"><ele>23.0</ele><time>2026-03-23T10:50:46.965Z</time></trkpt><trkpt lat="44.9063167" lon="10.5963417"><ele>23.0</ele><time>2026-03-23T10:50:48.966Z</time></trkpt><trkpt lat="44.906315" lon="10.59624"><ele>23.0</ele><time>2026-03-23T10:50:50.965Z</time></trkpt><trkpt lat="44.906315" lon="10.5961367"><ele>23.0</ele><time>2026-03-23T10:50:52.966Z</time></trkpt><trkpt lat="44.9063133" lon="10.59603"><ele>23.0</ele><time>2026-03-23T10:50:54.966Z</time></trkpt><trkpt lat="44.9063117" lon="10.5959233"><ele>23.0</ele><time>2026-03-23T10:50:56.966Z</time></trkpt><trkpt lat="44.9063083" lon="10.5958183"><ele>23.0</ele><time>2026-03-23T10:50:58.966Z</time></trkpt><trkpt lat="44.9063117" lon="10.5957217"><ele>23.142857142857142</ele><time>2026-03-23T10:51:00.965Z</time></trkpt><trkpt lat="44.9063067" lon="10.59562"><ele>23.285714285714285</ele><time>2026-03-23T10:51:02.965Z</time></trkpt><trkpt lat="44.9063083" lon="10.595515"><ele>23.428571428571427</ele><time>2026-03-23T10:51:04.966Z</time></trkpt><trkpt lat="44.9063" lon="10.595415"><ele>23.57142857142857</ele><time>2026-03-23T10:51:06.965Z</time></trkpt><trkpt lat="44.9062867" lon="10.595315"><ele>23.714285714285715</ele><time>2026-03-23T10:51:08.966Z</time></trkpt><trkpt lat="44.906265" lon="10.595225"><ele>23.857142857142854</ele><time>2026-03-23T10:51:10.966Z</time></trkpt><trkpt lat="44.9062367" lon="10.595145"><ele>24.0</ele><time>2026-03-23T10:51:12.965Z</time></trkpt><trkpt lat="44.9061983" lon="10.59506"><ele>24.142857142857142</ele><time>2026-03-23T10:51:14.966Z</time></trkpt><trkpt lat="44.906155" lon="10.5949833"><ele>24.285714285714285</ele><time>2026-03-23T10:51:16.965Z</time></trkpt><trkpt lat="44.9061133" lon="10.5949017"><ele>24.42857142857143</ele><time>2026-03-23T10:51:18.966Z</time></trkpt><trkpt lat="44.9060767" lon="10.5948267"><ele>24.57142857142857</ele><time>2026-03-23T10:51:20.965Z</time></trkpt><trkpt lat="44.906035" lon="10.5947467"><ele>24.714285714285715</ele><time>2026-03-23T10:51:22.966Z</time></trkpt><trkpt lat="44.9059867" lon="10.5946633"><ele>24.857142857142858</ele><time>2026-03-23T10:51:24.965Z</time></trkpt><trkpt lat="44.9059433" lon="10.59457"><ele>25.0</ele><time>2026-03-23T10:51:26.965Z</time></trkpt><trkpt lat="44.9059033" lon="10.5944833"><ele>25.000000000000004</ele><time>2026-03-23T10:51:28.965Z</time></trkpt><trkpt lat="44.9058667" lon="10.5943933"><ele>25.0</ele><time>2026-03-23T10:51:30.965Z</time></trkpt><trkpt lat="44.9058383" lon="10.5943017"><ele>25.0</ele><time>2026-03-23T10:51:32.966Z</time></trkpt><trkpt lat="44.9057867" lon="10.5942317"><ele>25.0</ele><time>2026-03-23T10:51:34.966Z</time></trkpt><trkpt lat="44.9057267" lon="10.5941717"><ele>25.0</ele><time>2026-03-23T10:51:36.965Z</time></trkpt><trkpt lat="44.905665" lon="10.5941117"><ele>25.000000000000004</ele><time>2026-03-23T10:51:38.966Z</time></trkpt><trkpt lat="44.9055967" lon="10.5940533"><ele>25.0</ele><time>2026-03-23T10:51:40.966Z</time></trkpt><trkpt lat="44.9055267" lon="10.593985"><ele>25.000000000000004</ele><time>2026-03-23T10:51:42.965Z</time></trkpt><trkpt lat="44.9054617" lon="10.5939133"><ele>25.0</ele><time>2026-03-23T10:51:44.966Z</time></trkpt><trkpt lat="44.9053933" lon="10.5938467"><ele>25.0</ele><time>2026-03-23T10:51:46.965Z</time></trkpt><trkpt lat="44.905325" lon="10.593775"><ele>25.0</ele><time>2026-03-23T10:51:48.966Z</time></trkpt><trkpt lat="44.9052567" lon="10.5937133"><ele>25.000000000000004</ele><time>2026-03-23T10:51:50.965Z</time></trkpt><trkpt lat="44.9051883" lon="10.5936383"><ele>25.0</ele><time>2026-03-23T10:51:52.966Z</time></trkpt><trkpt lat="44.905115" lon="10.59357"><ele>24.500000000000004</ele><time>2026-03-23T10:51:54.966Z</time></trkpt><trkpt lat="44.905045" lon="10.5935033"><ele>24.0</ele><time>2026-03-23T10:51:56.966Z</time></trkpt><trkpt lat="44.9049733" lon="10.5934283"><ele>23.5</ele><time>2026-03-23T10:51:58.965Z</time></trkpt><trkpt lat="44.9049067" lon="10.5933533"><ele>23.0</ele><time>2026-03-23T10:52:00.965Z</time></trkpt><trkpt lat="44.9048317" lon="10.5932883"><ele>22.5</ele><time>2026-03-23T10:52:02.965Z</time></trkpt><trkpt lat="44.9047483" lon="10.5932483"><ele>22.0</ele><time>2026-03-23T10:52:04.966Z</time></trkpt><trkpt lat="44.904665" lon="10.5932267"><ele>22.0</ele><time>2026-03-23T10:52:06.966Z</time></trkpt><trkpt lat="44.9045833" lon="10.5932067"><ele>22.0</ele><time>2026-03-23T10:52:08.965Z</time></trkpt><trkpt lat="44.9045017" lon="10.5931883"><ele>22.0</ele><time>2026-03-23T10:52:10.966Z</time></trkpt><trkpt lat="44.9044167" lon="10.5931683"><ele>22.0</ele><time>2026-03-23T10:52:12.966Z</time></trkpt><trkpt lat="44.90433" lon="10.5931483"><ele>22.0</ele><time>2026-03-23T10:52:14.965Z</time></trkpt><trkpt lat="44.9042467" lon="10.5931267"><ele>22.0</ele><time>2026-03-23T10:52:16.965Z</time></trkpt><trkpt lat="44.9041617" lon="10.5931067"><ele>22.200000000000003</ele><time>2026-03-23T10:52:18.966Z</time></trkpt><trkpt lat="44.9040767" lon="10.5930817"><ele>22.4</ele><time>2026-03-23T10:52:20.966Z</time></trkpt><trkpt lat="44.903985" lon="10.5930583"><ele>22.6</ele><time>2026-03-23T10:52:22.965Z</time></trkpt><trkpt lat="44.903895" lon="10.5930433"><ele>22.799999999999997</ele><time>2026-03-23T10:52:24.965Z</time></trkpt><trkpt lat="44.9038083" lon="10.5930233"><ele>23.0</ele><time>2026-03-23T10:52:26.966Z</time></trkpt><trkpt lat="44.9037183" lon="10.5930017"><ele>23.0</ele><time>2026-03-23T10:52:28.966Z</time></trkpt><trkpt lat="44.9036267" lon="10.5929767"><ele>23.0</ele><time>2026-03-23T10:52:30.966Z</time></trkpt><trkpt lat="44.9035333" lon="10.5929533"><ele>23.0</ele><time>2026-03-23T10:52:32.966Z</time></trkpt><trkpt lat="44.9034433" lon="10.59294"><ele>23.0</ele><time>2026-03-23T10:52:34.965Z</time></trkpt><trkpt lat="44.9033567" lon="10.5929167"><ele>23.0</ele><time>2026-03-23T10:52:36.966Z</time></trkpt><trkpt lat="44.9032683" lon="10.592895"><ele>23.0</ele><time>2026-03-23T10:52:38.965Z</time></trkpt><trkpt lat="44.903185" lon="10.5928883"><ele>23.0</ele><time>2026-03-23T10:52:40.965Z</time></trkpt><trkpt lat="44.9030983" lon="10.5928733"><ele>23.0</ele><time>2026-03-23T10:52:42.966Z</time></trkpt><trkpt lat="44.9030167" lon="10.5928633"><ele>23.0</ele><time>2026-03-23T10:52:44.965Z</time></trkpt><trkpt lat="44.9029333" lon="10.5928433"><ele>23.0</ele><time>2026-03-23T10:52:46.965Z</time></trkpt><trkpt lat="44.9028467" lon="10.5928183"><ele>23.0</ele><time>2026-03-23T10:52:48.965Z</time></trkpt><trkpt lat="44.90279" lon="10.5927533"><ele>23.166666666666668</ele><time>2026-03-23T10:52:50.966Z</time></trkpt><trkpt lat="44.90276" lon="10.592655"><ele>23.333333333333336</ele><time>2026-03-23T10:52:52.966Z</time></trkpt><trkpt lat="44.9027733" lon="10.5925567"><ele>23.5</ele><time>2026-03-23T10:52:54.966Z</time></trkpt><trkpt lat="44.902805" lon="10.5924567"><ele>23.666666666666668</ele><time>2026-03-23T10:52:56.966Z</time></trkpt><trkpt lat="44.9028383" lon="10.5923583"><ele>23.833333333333332</ele><time>2026-03-23T10:52:58.965Z</time></trkpt><trkpt lat="44.9028667" lon="10.5922517"><ele>24.0</ele><time>2026-03-23T10:53:00.966Z</time></trkpt><trkpt lat="44.9028933" lon="10.5921483"><ele>24.0</ele><time>2026-03-23T10:53:02.965Z</time></trkpt><trkpt lat="44.9029267" lon="10.59205"><ele>24.0</ele><time>2026-03-23T10:53:04.965Z</time></trkpt><trkpt lat="44.9029583" lon="10.591935"><ele>24.0</ele><time>2026-03-23T10:53:06.965Z</time></trkpt><trkpt lat="44.902985" lon="10.5918267"><ele>24.0</ele><time>2026-03-23T10:53:08.965Z</time></trkpt><trkpt lat="44.903005" lon="10.5917117"><ele>24.0</ele><time>2026-03-23T10:53:10.966Z</time></trkpt><trkpt lat="44.9030133" lon="10.5915967"><ele>24.0</ele><time>2026-03-23T10:53:12.965Z</time></trkpt><trkpt lat="44.90302" lon="10.591485"><ele>24.0</ele><time>2026-03-23T10:53:14.966Z</time></trkpt><trkpt lat="44.903025" lon="10.591365"><ele>24.0</ele><time>2026-03-23T10:53:16.966Z</time></trkpt><trkpt lat="44.9030333" lon="10.5912467"><ele>24.0</ele><time>2026-03-23T10:53:18.965Z</time></trkpt><trkpt lat="44.90304" lon="10.591135"><ele>24.0</ele><time>2026-03-23T10:53:20.965Z</time></trkpt><trkpt lat="44.9030433" lon="10.5910217"><ele>24.0</ele><time>2026-03-23T10:53:22.965Z</time></trkpt><trkpt lat="44.90305" lon="10.590905"><ele>24.0</ele><time>2026-03-23T10:53:24.965Z</time></trkpt><trkpt lat="44.9030617" lon="10.5907867"><ele>24.166666666666668</ele><time>2026-03-23T10:53:26.965Z</time></trkpt><trkpt lat="44.90309" lon="10.5906833"><ele>24.333333333333336</ele><time>2026-03-23T10:53:28.965Z</time></trkpt><trkpt lat="44.9031267" lon="10.5905783"><ele>24.5</ele><time>2026-03-23T10:53:30.966Z</time></trkpt><trkpt lat="44.9031467" lon="10.5904617"><ele>24.666666666666668</ele><time>2026-03-23T10:53:32.965Z</time></trkpt><trkpt lat="44.903135" lon="10.5903483"><ele>24.833333333333336</ele><time>2026-03-23T10:53:34.966Z</time></trkpt><trkpt lat="44.90314" lon="10.5902183"><ele>25.0</ele><time>2026-03-23T10:53:36.966Z</time></trkpt><trkpt lat="44.9031467" lon="10.5900833"><ele>25.166666666666668</ele><time>2026-03-23T10:53:38.965Z</time></trkpt><trkpt lat="44.9031433" lon="10.5899483"><ele>25.333333333333336</ele><time>2026-03-23T10:53:40.965Z</time></trkpt><trkpt lat="44.9031433" lon="10.5898167"><ele>25.5</ele><time>2026-03-23T10:53:42.965Z</time></trkpt><trkpt lat="44.90314" lon="10.58971"><ele>25.666666666666664</ele><time>2026-03-23T10:53:44.965Z</time></trkpt><trkpt lat="44.9031567" lon="10.5896117"><ele>25.833333333333332</ele><time>2026-03-23T10:53:48.965Z</time></trkpt><trkpt lat="44.9031233" lon="10.589695"><ele>26.0</ele><time>2026-03-23T10:53:54.966Z</time></trkpt><trkpt lat="44.90312" lon="10.5897933"><ele>25.999999999999996</ele><time>2026-03-23T10:53:56.966Z</time></trkpt><trkpt lat="44.9031233" lon="10.5899"><ele>26.0</ele><time>2026-03-23T10:53:58.965Z</time></trkpt><trkpt lat="44.9031367" lon="10.5900217"><ele>26.0</ele><time>2026-03-23T10:54:00.966Z</time></trkpt><trkpt lat="44.903145" lon="10.59014"><ele>26.0</ele><time>2026-03-23T10:54:02.966Z</time></trkpt><trkpt lat="44.903145" lon="10.5902617"><ele>25.999999999999996</ele><time>2026-03-23T10:54:04.966Z</time></trkpt><trkpt lat="44.9031317" lon="10.5903683"><ele>26.0</ele><time>2026-03-23T10:54:06.965Z</time></trkpt><trkpt lat="44.903135" lon="10.590465"><ele>26.0</ele><time>2026-03-23T10:54:08.965Z</time></trkpt><trkpt lat="44.90312" lon="10.5905567"><ele>26.0</ele><time>2026-03-23T10:54:10.966Z</time></trkpt><trkpt lat="44.9030467" lon="10.5905633"><ele>26.0</ele><time>2026-03-23T10:54:13.966Z</time></trkpt><trkpt lat="44.9030433" lon="10.5904733"><ele>26.0</ele><time>2026-03-23T10:54:15.965Z</time></trkpt><trkpt lat="44.9030433" lon="10.5903717"><ele>26.0</ele><time>2026-03-23T10:54:17.965Z</time></trkpt><trkpt lat="44.903045" lon="10.5902617"><ele>26.0</ele><time>2026-03-23T10:54:19.965Z</time></trkpt><trkpt lat="44.903045" lon="10.59015"><ele>26.0</ele><time>2026-03-23T10:54:21.966Z</time></trkpt><trkpt lat="44.9030433" lon="10.5900367"><ele>25.999999999999996</ele><time>2026-03-23T10:54:23.965Z</time></trkpt><trkpt lat="44.9030433" lon="10.5899217"><ele>26.0</ele><time>2026-03-23T10:54:25.965Z</time></trkpt><trkpt lat="44.9030417" lon="10.5898083"><ele>26.0</ele><time>2026-03-23T10:54:27.966Z</time></trkpt><trkpt lat="44.9030367" lon="10.5896933"><ele>26.0</ele><time>2026-03-23T10:54:29.966Z</time></trkpt><trkpt lat="44.903035" lon="10.5895817"><ele>25.999999999999996</ele><time>2026-03-23T10:54:31.965Z</time></trkpt><trkpt lat="44.9030317" lon="10.5894683"><ele>26.0</ele><time>2026-03-23T10:54:33.966Z</time></trkpt><trkpt lat="44.9030317" lon="10.5893633"><ele>26.333333333333332</ele><time>2026-03-23T10:54:35.966Z</time></trkpt><trkpt lat="44.903035" lon="10.5892633"><ele>26.666666666666664</ele><time>2026-03-23T10:54:37.965Z</time></trkpt><trkpt lat="44.90303" lon="10.58916"><ele>27.0</ele><time>2026-03-23T10:54:39.966Z</time></trkpt><trkpt lat="44.9030233" lon="10.5890483"><ele>27.333333333333336</ele><time>2026-03-23T10:54:41.965Z</time></trkpt><trkpt lat="44.9030167" lon="10.588935"><ele>27.666666666666668</ele><time>2026-03-23T10:54:43.965Z</time></trkpt><trkpt lat="44.9030067" lon="10.588815"><ele>28.0</ele><time>2026-03-23T10:54:45.966Z</time></trkpt><trkpt lat="44.902995" lon="10.5886967"><ele>27.666666666666668</ele><time>2026-03-23T10:54:47.965Z</time></trkpt><trkpt lat="44.902985" lon="10.5885767"><ele>27.333333333333336</ele><time>2026-03-23T10:54:49.965Z</time></trkpt><trkpt lat="44.902975" lon="10.5884667"><ele>27.0</ele><time>2026-03-23T10:54:51.966Z</time></trkpt><trkpt lat="44.902965" lon="10.588355"><ele>26.666666666666664</ele><time>2026-03-23T10:54:53.965Z</time></trkpt><trkpt lat="44.902955" lon="10.588245"><ele>26.333333333333332</ele><time>2026-03-23T10:54:55.965Z</time></trkpt><trkpt lat="44.90294" lon="10.588135"><ele>26.0</ele><time>2026-03-23T10:54:57.965Z</time></trkpt><trkpt lat="44.9029217" lon="10.5880333"><ele>25.999999999999996</ele><time>2026-03-23T10:54:59.965Z</time></trkpt><trkpt lat="44.9029" lon="10.58793"><ele>26.0</ele><time>2026-03-23T10:55:01.965Z</time></trkpt><trkpt lat="44.90288" lon="10.5878217"><ele>26.0</ele><time>2026-03-23T10:55:03.966Z</time></trkpt><trkpt lat="44.9028633" lon="10.5877067"><ele>26.0</ele><time>2026-03-23T10:55:05.965Z</time></trkpt><trkpt lat="44.9028383" lon="10.587585"><ele>25.999999999999996</ele><time>2026-03-23T10:55:07.966Z</time></trkpt><trkpt lat="44.90282" lon="10.5874533"><ele>26.0</ele><time>2026-03-23T10:55:09.965Z</time></trkpt><trkpt lat="44.9028033" lon="10.5873317"><ele>25.999999999999996</ele><time>2026-03-23T10:55:11.965Z</time></trkpt><trkpt lat="44.9027867" lon="10.58722"><ele>26.0</ele><time>2026-03-23T10:55:13.965Z</time></trkpt><trkpt lat="44.9027633" lon="10.587105"><ele>26.0</ele><time>2026-03-23T10:55:15.965Z</time></trkpt><trkpt lat="44.9027417" lon="10.5869933"><ele>26.0</ele><time>2026-03-23T10:55:17.965Z</time></trkpt><trkpt lat="44.9027167" lon="10.5868767"><ele>25.999999999999996</ele><time>2026-03-23T10:55:19.966Z</time></trkpt><trkpt lat="44.9026883" lon="10.58677"><ele>26.0</ele><time>2026-03-23T10:55:21.965Z</time></trkpt><trkpt lat="44.9026717" lon="10.5866533"><ele>25.999999999999996</ele><time>2026-03-23T10:55:23.966Z</time></trkpt><trkpt lat="44.90265" lon="10.58654"><ele>26.0</ele><time>2026-03-23T10:55:25.965Z</time></trkpt><trkpt lat="44.9026267" lon="10.5864383"><ele>26.0</ele><time>2026-03-23T10:55:27.966Z</time></trkpt><trkpt lat="44.9025967" lon="10.5863367"><ele>26.0</ele><time>2026-03-23T10:55:29.965Z</time></trkpt><trkpt lat="44.9025733" lon="10.586235"><ele>25.999999999999996</ele><time>2026-03-23T10:55:31.965Z</time></trkpt><trkpt lat="44.90255" lon="10.5861217"><ele>26.0</ele><time>2026-03-23T10:55:33.966Z</time></trkpt><trkpt lat="44.9025233" lon="10.5860117"><ele>25.833333333333332</ele><time>2026-03-23T10:55:35.966Z</time></trkpt><trkpt lat="44.9025" lon="10.585905"><ele>25.666666666666664</ele><time>2026-03-23T10:55:37.966Z</time></trkpt><trkpt lat="44.90249" lon="10.5857933"><ele>25.5</ele><time>2026-03-23T10:55:39.965Z</time></trkpt><trkpt lat="44.9024817" lon="10.5856767"><ele>25.333333333333336</ele><time>2026-03-23T10:55:41.965Z</time></trkpt><trkpt lat="44.9024717" lon="10.5855567"><ele>25.166666666666668</ele><time>2026-03-23T10:55:43.966Z</time></trkpt><trkpt lat="44.902465" lon="10.5854383"><ele>25.0</ele><time>2026-03-23T10:55:45.966Z</time></trkpt><trkpt lat="44.9024617" lon="10.5853267"><ele>24.833333333333336</ele><time>2026-03-23T10:55:47.965Z</time></trkpt><trkpt lat="44.902455" lon="10.5852117"><ele>24.666666666666668</ele><time>2026-03-23T10:55:49.965Z</time></trkpt><trkpt lat="44.9024467" lon="10.585095"><ele>24.5</ele><time>2026-03-23T10:55:51.965Z</time></trkpt><trkpt lat="44.9024433" lon="10.5849817"><ele>24.333333333333336</ele><time>2026-03-23T10:55:53.966Z</time></trkpt><trkpt lat="44.9024433" lon="10.5848667"><ele>24.166666666666668</ele><time>2026-03-23T10:55:55.965Z</time></trkpt><trkpt lat="44.90244" lon="10.584755"><ele>24.0</ele><time>2026-03-23T10:55:57.966Z</time></trkpt><trkpt lat="44.9024383" lon="10.5846483"><ele>24.0</ele><time>2026-03-23T10:55:59.966Z</time></trkpt><trkpt lat="44.9024333" lon="10.58454"><ele>24.0</ele><time>2026-03-23T10:56:01.965Z</time></trkpt><trkpt lat="44.9024417" lon="10.5844367"><ele>24.0</ele><time>2026-03-23T10:56:03.965Z</time></trkpt><trkpt lat="44.9024883" lon="10.5843467"><ele>24.0</ele><time>2026-03-23T10:56:05.965Z</time></trkpt><trkpt lat="44.902555" lon="10.5842683"><ele>24.0</ele><time>2026-03-23T10:56:07.965Z</time></trkpt><trkpt lat="44.9026017" lon="10.5841667"><ele>24.0</ele><time>2026-03-23T10:56:09.965Z</time></trkpt><trkpt lat="44.9026167" lon="10.584055"><ele>23.833333333333332</ele><time>2026-03-23T10:56:11.966Z</time></trkpt><trkpt lat="44.902655" lon="10.58397"><ele>23.666666666666668</ele><time>2026-03-23T10:56:13.966Z</time></trkpt><trkpt lat="44.90273" lon="10.5839183"><ele>23.5</ele><time>2026-03-23T10:56:15.965Z</time></trkpt><trkpt lat="44.9027917" lon="10.5838567"><ele>23.333333333333336</ele><time>2026-03-23T10:56:17.965Z</time></trkpt><trkpt lat="44.9028717" lon="10.5838233"><ele>23.166666666666668</ele><time>2026-03-23T10:56:19.966Z</time></trkpt><trkpt lat="44.9029583" lon="10.58379"><ele>23.0</ele><time>2026-03-23T10:56:21.965Z</time></trkpt><trkpt lat="44.90304" lon="10.583755"><ele>23.0</ele><time>2026-03-23T10:56:23.965Z</time></trkpt><trkpt lat="44.9031233" lon="10.5837117"><ele>23.0</ele><time>2026-03-23T10:56:25.966Z</time></trkpt><trkpt lat="44.903205" lon="10.5836617"><ele>23.0</ele><time>2026-03-23T10:56:27.965Z</time></trkpt><trkpt lat="44.9032567" lon="10.583565"><ele>23.0</ele><time>2026-03-23T10:56:29.965Z</time></trkpt><trkpt lat="44.9032867" lon="10.583445"><ele>23.0</ele><time>2026-03-23T10:56:31.965Z</time></trkpt><trkpt lat="44.9032967" lon="10.5833067"><ele>23.0</ele><time>2026-03-23T10:56:33.966Z</time></trkpt><trkpt lat="44.9032817" lon="10.58317"><ele>23.0</ele><time>2026-03-23T10:56:35.965Z</time></trkpt><trkpt lat="44.903265" lon="10.5830467"><ele>23.0</ele><time>2026-03-23T10:56:37.966Z</time></trkpt><trkpt lat="44.9032533" lon="10.582925"><ele>23.0</ele><time>2026-03-23T10:56:39.965Z</time></trkpt><trkpt lat="44.903235" lon="10.582805"><ele>23.0</ele><time>2026-03-23T10:56:41.965Z</time></trkpt><trkpt lat="44.9032217" lon="10.5826833"><ele>23.0</ele><time>2026-03-23T10:56:43.965Z</time></trkpt><trkpt lat="44.9032017" lon="10.5825533"><ele>22.5</ele><time>2026-03-23T10:56:45.966Z</time></trkpt><trkpt lat="44.9031883" lon="10.5824283"><ele>22.0</ele><time>2026-03-23T10:56:47.966Z</time></trkpt><trkpt lat="44.9031767" lon="10.5823083"><ele>21.5</ele><time>2026-03-23T10:56:49.966Z</time></trkpt><trkpt lat="44.9031683" lon="10.582185"><ele>21.0</ele><time>2026-03-23T10:56:51.965Z</time></trkpt><trkpt lat="44.9031517" lon="10.5820583"><ele>20.5</ele><time>2026-03-23T10:56:53.965Z</time></trkpt><trkpt lat="44.903135" lon="10.58194"><ele>20.0</ele><time>2026-03-23T10:56:55.965Z</time></trkpt><trkpt lat="44.9031217" lon="10.58182"><ele>19.833333333333336</ele><time>2026-03-23T10:56:57.965Z</time></trkpt><trkpt lat="44.9030983" lon="10.5817017"><ele>19.666666666666668</ele><time>2026-03-23T10:56:59.965Z</time></trkpt><trkpt lat="44.90308" lon="10.5815783"><ele>19.5</ele><time>2026-03-23T10:57:01.965Z</time></trkpt><trkpt lat="44.9030683" lon="10.5814567"><ele>19.333333333333332</ele><time>2026-03-23T10:57:03.966Z</time></trkpt><trkpt lat="44.9030517" lon="10.581335"><ele>19.166666666666664</ele><time>2026-03-23T10:57:05.966Z</time></trkpt><trkpt lat="44.9030383" lon="10.5812033"><ele>19.0</ele><time>2026-03-23T10:57:07.966Z</time></trkpt><trkpt lat="44.9030267" lon="10.581085"><ele>19.0</ele><time>2026-03-23T10:57:09.965Z</time></trkpt><trkpt lat="44.9030167" lon="10.5809633"><ele>19.0</ele><time>2026-03-23T10:57:11.965Z</time></trkpt><trkpt lat="44.9030067" lon="10.5808483"><ele>19.0</ele><time>2026-03-23T10:57:13.966Z</time></trkpt><trkpt lat="44.9029967" lon="10.5807267"><ele>19.0</ele><time>2026-03-23T10:57:15.966Z</time></trkpt><trkpt lat="44.9029867" lon="10.580605"><ele>19.0</ele><time>2026-03-23T10:57:17.965Z</time></trkpt><trkpt lat="44.902975" lon="10.5804883"><ele>19.0</ele><time>2026-03-23T10:57:19.965Z</time></trkpt><trkpt lat="44.902975" lon="10.5803633"><ele>19.0</ele><time>2026-03-23T10:57:21.965Z</time></trkpt><trkpt lat="44.902965" lon="10.5802317"><ele>19.0</ele><time>2026-03-23T10:57:23.965Z</time></trkpt><trkpt lat="44.9029583" lon="10.58011"><ele>19.0</ele><time>2026-03-23T10:57:25.965Z</time></trkpt><trkpt lat="44.9029433" lon="10.5799933"><ele>19.0</ele><time>2026-03-23T10:57:27.966Z</time></trkpt><trkpt lat="44.902935" lon="10.5798667"><ele>19.0</ele><time>2026-03-23T10:57:29.965Z</time></trkpt><trkpt lat="44.9029267" lon="10.5797417"><ele>19.0</ele><time>2026-03-23T10:57:31.966Z</time></trkpt><trkpt lat="44.9029167" lon="10.5796183"><ele>19.2</ele><time>2026-03-23T10:57:33.966Z</time></trkpt><trkpt lat="44.90291" lon="10.579495"><ele>19.4</ele><time>2026-03-23T10:57:35.966Z</time></trkpt><trkpt lat="44.9029" lon="10.579375"><ele>19.6</ele><time>2026-03-23T10:57:37.966Z</time></trkpt><trkpt lat="44.90289" lon="10.5792517"><ele>19.8</ele><time>2026-03-23T10:57:39.966Z</time></trkpt><trkpt lat="44.9028783" lon="10.579115"><ele>20.0</ele><time>2026-03-23T10:57:41.965Z</time></trkpt><trkpt lat="44.9028717" lon="10.578985"><ele>20.0</ele><time>2026-03-23T10:57:43.965Z</time></trkpt><trkpt lat="44.9028633" lon="10.5788617"><ele>20.0</ele><time>2026-03-23T10:57:45.966Z</time></trkpt><trkpt lat="44.902855" lon="10.5787333"><ele>20.0</ele><time>2026-03-23T10:57:47.965Z</time></trkpt><trkpt lat="44.9028517" lon="10.5786083"><ele>20.0</ele><time>2026-03-23T10:57:49.965Z</time></trkpt><trkpt lat="44.9028517" lon="10.5784817"><ele>20.0</ele><time>2026-03-23T10:57:51.965Z</time></trkpt><trkpt lat="44.902845" lon="10.5783533"><ele>20.0</ele><time>2026-03-23T10:57:53.966Z</time></trkpt><trkpt lat="44.9028367" lon="10.5782267"><ele>20.166666666666668</ele><time>2026-03-23T10:57:55.965Z</time></trkpt><trkpt lat="44.90284" lon="10.5780967"><ele>20.333333333333336</ele><time>2026-03-23T10:57:57.965Z</time></trkpt><trkpt lat="44.902835" lon="10.5779683"><ele>20.5</ele><time>2026-03-23T10:57:59.966Z</time></trkpt><trkpt lat="44.9028317" lon="10.5778483"><ele>20.666666666666668</ele><time>2026-03-23T10:58:01.966Z</time></trkpt><trkpt lat="44.90283" lon="10.577725"><ele>20.833333333333332</ele><time>2026-03-23T10:58:03.966Z</time></trkpt><trkpt lat="44.9028333" lon="10.5776"><ele>21.0</ele><time>2026-03-23T10:58:05.966Z</time></trkpt><trkpt lat="44.9028317" lon="10.57748"><ele>21.166666666666668</ele><time>2026-03-23T10:58:07.966Z</time></trkpt><trkpt lat="44.9028283" lon="10.577355"><ele>21.333333333333332</ele><time>2026-03-23T10:58:09.965Z</time></trkpt><trkpt lat="44.9028317" lon="10.577235"><ele>21.5</ele><time>2026-03-23T10:58:11.965Z</time></trkpt><trkpt lat="44.9028333" lon="10.5771083"><ele>21.666666666666664</ele><time>2026-03-23T10:58:13.965Z</time></trkpt><trkpt lat="44.9028383" lon="10.5769867"><ele>21.833333333333332</ele><time>2026-03-23T10:58:15.965Z</time></trkpt><trkpt lat="44.9028417" lon="10.57686"><ele>22.0</ele><time>2026-03-23T10:58:17.965Z</time></trkpt><trkpt lat="44.90285" lon="10.5767467"><ele>21.666666666666664</ele><time>2026-03-23T10:58:19.966Z</time></trkpt><trkpt lat="44.902855" lon="10.5766267"><ele>21.333333333333332</ele><time>2026-03-23T10:58:21.966Z</time></trkpt><trkpt lat="44.902855" lon="10.5765133"><ele>21.0</ele><time>2026-03-23T10:58:23.966Z</time></trkpt><trkpt lat="44.902845" lon="10.5763983"><ele>20.666666666666668</ele><time>2026-03-23T10:58:25.966Z</time></trkpt><trkpt lat="44.9028433" lon="10.5762883"><ele>20.333333333333336</ele><time>2026-03-23T10:58:27.966Z</time></trkpt><trkpt lat="44.9028433" lon="10.5761717"><ele>20.0</ele><time>2026-03-23T10:58:29.966Z</time></trkpt><trkpt lat="44.9028417" lon="10.5760467"><ele>20.0</ele><time>2026-03-23T10:58:31.965Z</time></trkpt><trkpt lat="44.90284" lon="10.5759267"><ele>20.0</ele><time>2026-03-23T10:58:33.966Z</time></trkpt><trkpt lat="44.9028417" lon="10.575815"><ele>20.0</ele><time>2026-03-23T10:58:35.966Z</time></trkpt><trkpt lat="44.90285" lon="10.5757167"><ele>20.0</ele><time>2026-03-23T10:58:37.965Z</time></trkpt><trkpt lat="44.902855" lon="10.5756267"><ele>20.0</ele><time>2026-03-23T10:58:39.965Z</time></trkpt><trkpt lat="44.9028667" lon="10.575505"><ele>20.0</ele><time>2026-03-23T10:58:41.966Z</time></trkpt><trkpt lat="44.902865" lon="10.57538"><ele>20.166666666666668</ele><time>2026-03-23T10:58:43.966Z</time></trkpt><trkpt lat="44.9028633" lon="10.5752517"><ele>20.333333333333336</ele><time>2026-03-23T10:58:45.965Z</time></trkpt><trkpt lat="44.9028683" lon="10.57513"><ele>20.5</ele><time>2026-03-23T10:58:47.965Z</time></trkpt><trkpt lat="44.90288" lon="10.575"><ele>20.666666666666668</ele><time>2026-03-23T10:58:49.966Z</time></trkpt><trkpt lat="44.902885" lon="10.57488"><ele>20.833333333333332</ele><time>2026-03-23T10:58:51.965Z</time></trkpt><trkpt lat="44.90289" lon="10.5747633"><ele>21.0</ele><time>2026-03-23T10:58:53.965Z</time></trkpt><trkpt lat="44.9028933" lon="10.574645"><ele>21.0</ele><time>2026-03-23T10:58:55.965Z</time></trkpt><trkpt lat="44.9029017" lon="10.5745167"><ele>21.0</ele><time>2026-03-23T10:58:57.965Z</time></trkpt><trkpt lat="44.9029067" lon="10.57439"><ele>21.0</ele><time>2026-03-23T10:58:59.965Z</time></trkpt><trkpt lat="44.9029233" lon="10.5742633"><ele>21.0</ele><time>2026-03-23T10:59:01.966Z</time></trkpt><trkpt lat="44.9029367" lon="10.5741583"><ele>21.0</ele><time>2026-03-23T10:59:03.965Z</time></trkpt><trkpt lat="44.9029483" lon="10.5740267"><ele>21.0</ele><time>2026-03-23T10:59:05.966Z</time></trkpt><trkpt lat="44.902945" lon="10.573915"><ele>21.0</ele><time>2026-03-23T10:59:07.966Z</time></trkpt><trkpt lat="44.9029317" lon="10.5737967"><ele>21.0</ele><time>2026-03-23T10:59:09.965Z</time></trkpt><trkpt lat="44.9029367" lon="10.573675"><ele>21.0</ele><time>2026-03-23T10:59:11.966Z</time></trkpt><trkpt lat="44.9029533" lon="10.5735683"><ele>21.0</ele><time>2026-03-23T10:59:13.966Z</time></trkpt><trkpt lat="44.9029683" lon="10.5734417"><ele>21.0</ele><time>2026-03-23T10:59:15.965Z</time></trkpt><trkpt lat="44.90298" lon="10.5733267"><ele>21.0</ele><time>2026-03-23T10:59:17.966Z</time></trkpt><trkpt lat="44.9029933" lon="10.5732367"><ele>21.166666666666668</ele><time>2026-03-23T10:59:19.966Z</time></trkpt><trkpt lat="44.9030033" lon="10.573105"><ele>21.333333333333332</ele><time>2026-03-23T10:59:21.965Z</time></trkpt><trkpt lat="44.9030133" lon="10.573"><ele>21.5</ele><time>2026-03-23T10:59:23.965Z</time></trkpt><trkpt lat="44.903025" lon="10.5728767"><ele>21.666666666666664</ele><time>2026-03-23T10:59:25.965Z</time></trkpt><trkpt lat="44.9030433" lon="10.5727683"><ele>21.833333333333332</ele><time>2026-03-23T10:59:27.966Z</time></trkpt><trkpt lat="44.903045" lon="10.5726433"><ele>22.0</ele><time>2026-03-23T10:59:29.965Z</time></trkpt><trkpt lat="44.9030567" lon="10.5725183"><ele>22.0</ele><time>2026-03-23T10:59:31.965Z</time></trkpt><trkpt lat="44.9030733" lon="10.5723983"><ele>22.0</ele><time>2026-03-23T10:59:33.966Z</time></trkpt><trkpt lat="44.9030917" lon="10.5722783"><ele>22.0</ele><time>2026-03-23T10:59:35.965Z</time></trkpt><trkpt lat="44.9031067" lon="10.5721633"><ele>22.0</ele><time>2026-03-23T10:59:37.965Z</time></trkpt><trkpt lat="44.90312" lon="10.5720533"><ele>22.0</ele><time>2026-03-23T10:59:39.965Z</time></trkpt><trkpt lat="44.90312" lon="10.5719433"><ele>22.0</ele><time>2026-03-23T10:59:41.965Z</time></trkpt><trkpt lat="44.90314" lon="10.5718283"><ele>22.5</ele><time>2026-03-23T10:59:43.966Z</time></trkpt><trkpt lat="44.903165" lon="10.571705"><ele>23.0</ele><time>2026-03-23T10:59:45.965Z</time></trkpt><trkpt lat="44.90318" lon="10.5715817"><ele>23.5</ele><time>2026-03-23T10:59:47.966Z</time></trkpt><trkpt lat="44.90319" lon="10.5714717"><ele>24.0</ele><time>2026-03-23T10:59:49.965Z</time></trkpt><trkpt lat="44.90321" lon="10.5713667"><ele>24.500000000000004</ele><time>2026-03-23T10:59:51.965Z</time></trkpt><trkpt lat="44.9032233" lon="10.571255"><ele>25.0</ele><time>2026-03-23T10:59:53.965Z</time></trkpt><trkpt lat="44.9032483" lon="10.571145"><ele>25.000000000000004</ele><time>2026-03-23T10:59:55.965Z</time></trkpt><trkpt lat="44.9032717" lon="10.5710283"><ele>25.0</ele><time>2026-03-23T10:59:57.965Z</time></trkpt><trkpt lat="44.9032817" lon="10.5709117"><ele>25.0</ele><time>2026-03-23T10:59:59.966Z</time></trkpt><trkpt lat="44.9032867" lon="10.5707967"><ele>25.0</ele><time>2026-03-23T11:00:01.966Z</time></trkpt><trkpt lat="44.9032967" lon="10.5706883"><ele>25.000000000000004</ele><time>2026-03-23T11:00:03.966Z</time></trkpt><trkpt lat="44.9033083" lon="10.5705833"><ele>25.0</ele><time>2026-03-23T11:00:05.965Z</time></trkpt><trkpt lat="44.9033333" lon="10.57048"><ele>25.000000000000004</ele><time>2026-03-23T11:00:07.965Z</time></trkpt><trkpt lat="44.9033517" lon="10.5703683"><ele>25.0</ele><time>2026-03-23T11:00:09.966Z</time></trkpt><trkpt lat="44.9033717" lon="10.5702683"><ele>25.0</ele><time>2026-03-23T11:00:11.965Z</time></trkpt><trkpt lat="44.90338" lon="10.5701667"><ele>25.0</ele><time>2026-03-23T11:00:13.967Z</time></trkpt><trkpt lat="44.9033967" lon="10.5700633"><ele>25.000000000000004</ele><time>2026-03-23T11:00:15.966Z</time></trkpt><trkpt lat="44.9034083" lon="10.5699567"><ele>25.0</ele><time>2026-03-23T11:00:17.967Z</time></trkpt><trkpt lat="44.9034233" lon="10.5698517"><ele>24.000000000000004</ele><time>2026-03-23T11:00:19.967Z</time></trkpt><trkpt lat="44.90343" lon="10.5697433"><ele>23.0</ele><time>2026-03-23T11:00:21.966Z</time></trkpt><trkpt lat="44.9034383" lon="10.5696367"><ele>22.0</ele><time>2026-03-23T11:00:23.966Z</time></trkpt><trkpt lat="44.903455" lon="10.5695283"><ele>21.0</ele><time>2026-03-23T11:00:25.967Z</time></trkpt><trkpt lat="44.9034717" lon="10.56941"><ele>20.0</ele><time>2026-03-23T11:00:27.967Z</time></trkpt><trkpt lat="44.9034833" lon="10.5693033"><ele>19.0</ele><time>2026-03-23T11:00:29.966Z</time></trkpt><trkpt lat="44.903495" lon="10.5691983"><ele>19.0</ele><time>2026-03-23T11:00:31.966Z</time></trkpt><trkpt lat="44.9035083" lon="10.5691"><ele>19.0</ele><time>2026-03-23T11:00:33.967Z</time></trkpt><trkpt lat="44.9035283" lon="10.5690033"><ele>19.0</ele><time>2026-03-23T11:00:35.966Z</time></trkpt><trkpt lat="44.9035467" lon="10.5689"><ele>19.0</ele><time>2026-03-23T11:00:37.967Z</time></trkpt><trkpt lat="44.90356" lon="10.5687967"><ele>19.0</ele><time>2026-03-23T11:00:39.966Z</time></trkpt><trkpt lat="44.9035733" lon="10.5686967"><ele>19.0</ele><time>2026-03-23T11:00:41.966Z</time></trkpt><trkpt lat="44.9035883" lon="10.5685733"><ele>19.142857142857142</ele><time>2026-03-23T11:00:44.967Z</time></trkpt><trkpt lat="44.9036117" lon="10.5684517"><ele>19.28571428571429</ele><time>2026-03-23T11:00:47.966Z</time></trkpt><trkpt lat="44.903635" lon="10.568355"><ele>19.42857142857143</ele><time>2026-03-23T11:00:49.966Z</time></trkpt><trkpt lat="44.903655" lon="10.5682583"><ele>19.57142857142857</ele><time>2026-03-23T11:00:51.966Z</time></trkpt><trkpt lat="44.9036783" lon="10.5681633"><ele>19.714285714285715</ele><time>2026-03-23T11:00:53.966Z</time></trkpt><trkpt lat="44.9037033" lon="10.56806"><ele>19.857142857142858</ele><time>2026-03-23T11:00:55.967Z</time></trkpt><trkpt lat="44.903725" lon="10.56797"><ele>20.0</ele><time>2026-03-23T11:00:57.966Z</time></trkpt><trkpt lat="44.9037383" lon="10.56787"><ele>20.57142857142857</ele><time>2026-03-23T11:00:59.967Z</time></trkpt><trkpt lat="44.9037617" lon="10.567765"><ele>21.142857142857142</ele><time>2026-03-23T11:01:01.966Z</time></trkpt><trkpt lat="44.9037883" lon="10.5676667"><ele>21.714285714285715</ele><time>2026-03-23T11:01:03.967Z</time></trkpt><trkpt lat="44.9038117" lon="10.5675783"><ele>22.285714285714285</ele><time>2026-03-23T11:01:05.967Z</time></trkpt><trkpt lat="44.903835" lon="10.5674767"><ele>22.857142857142858</ele><time>2026-03-23T11:01:07.967Z</time></trkpt><trkpt lat="44.9038583" lon="10.56738"><ele>23.428571428571427</ele><time>2026-03-23T11:01:09.966Z</time></trkpt><trkpt lat="44.9038767" lon="10.5672817"><ele>24.0</ele><time>2026-03-23T11:01:11.966Z</time></trkpt><trkpt lat="44.9038967" lon="10.5671817"><ele>23.999999999999996</ele><time>2026-03-23T11:01:13.967Z</time></trkpt><trkpt lat="44.9039217" lon="10.5670733"><ele>24.0</ele><time>2026-03-23T11:01:15.966Z</time></trkpt><trkpt lat="44.9039383" lon="10.5669833"><ele>24.0</ele><time>2026-03-23T11:01:17.966Z</time></trkpt><trkpt lat="44.9039617" lon="10.5668917"><ele>24.0</ele><time>2026-03-23T11:01:19.966Z</time></trkpt><trkpt lat="44.9039867" lon="10.5667833"><ele>24.0</ele><time>2026-03-23T11:01:21.967Z</time></trkpt><trkpt lat="44.9040083" lon="10.5666817"><ele>23.999999999999996</ele><time>2026-03-23T11:01:23.966Z</time></trkpt><trkpt lat="44.9040283" lon="10.5665867"><ele>24.0</ele><time>2026-03-23T11:01:25.966Z</time></trkpt><trkpt lat="44.9040533" lon="10.5664917"><ele>23.833333333333332</ele><time>2026-03-23T11:01:27.966Z</time></trkpt><trkpt lat="44.9040817" lon="10.5664033"><ele>23.666666666666668</ele><time>2026-03-23T11:01:29.967Z</time></trkpt><trkpt lat="44.90411" lon="10.5663083"><ele>23.5</ele><time>2026-03-23T11:01:31.967Z</time></trkpt><trkpt lat="44.9041367" lon="10.5662017"><ele>23.333333333333336</ele><time>2026-03-23T11:01:33.967Z</time></trkpt><trkpt lat="44.9041633" lon="10.5660967"><ele>23.166666666666668</ele><time>2026-03-23T11:01:35.966Z</time></trkpt><trkpt lat="44.9041883" lon="10.565995"><ele>23.0</ele><time>2026-03-23T11:01:37.967Z</time></trkpt><trkpt lat="44.904215" lon="10.5658983"><ele>22.666666666666668</ele><time>2026-03-23T11:01:39.966Z</time></trkpt><trkpt lat="44.9042383" lon="10.5657933"><ele>22.333333333333336</ele><time>2026-03-23T11:01:41.966Z</time></trkpt><trkpt lat="44.9042617" lon="10.5656933"><ele>22.0</ele><time>2026-03-23T11:01:43.967Z</time></trkpt><trkpt lat="44.904285" lon="10.5655983"><ele>21.666666666666668</ele><time>2026-03-23T11:01:45.966Z</time></trkpt><trkpt lat="44.9043117" lon="10.5654983"><ele>21.333333333333332</ele><time>2026-03-23T11:01:47.967Z</time></trkpt><trkpt lat="44.904335" lon="10.5653917"><ele>21.0</ele><time>2026-03-23T11:01:49.966Z</time></trkpt><trkpt lat="44.9043567" lon="10.5652817"><ele>20.666666666666668</ele><time>2026-03-23T11:01:51.967Z</time></trkpt><trkpt lat="44.9043867" lon="10.5651783"><ele>20.333333333333332</ele><time>2026-03-23T11:01:53.966Z</time></trkpt><trkpt lat="44.9044133" lon="10.5650783"><ele>20.0</ele><time>2026-03-23T11:01:55.966Z</time></trkpt><trkpt lat="44.9044417" lon="10.564975"><ele>19.666666666666664</ele><time>2026-03-23T11:01:57.967Z</time></trkpt><trkpt lat="44.90447" lon="10.564875"><ele>19.333333333333332</ele><time>2026-03-23T11:01:59.966Z</time></trkpt><trkpt lat="44.904495" lon="10.56477"><ele>19.0</ele><time>2026-03-23T11:02:01.966Z</time></trkpt><trkpt lat="44.9045217" lon="10.5646717"><ele>19.0</ele><time>2026-03-23T11:02:03.966Z</time></trkpt><trkpt lat="44.90455" lon="10.56457"><ele>19.0</ele><time>2026-03-23T11:02:05.967Z</time></trkpt><trkpt lat="44.9045733" lon="10.5644683"><ele>19.0</ele><time>2026-03-23T11:02:07.967Z</time></trkpt><trkpt lat="44.9046017" lon="10.56437"><ele>19.0</ele><time>2026-03-23T11:02:09.967Z</time></trkpt><trkpt lat="44.9046283" lon="10.56427"><ele>19.0</ele><time>2026-03-23T11:02:11.966Z</time></trkpt><trkpt lat="44.9046533" lon="10.564175"><ele>19.0</ele><time>2026-03-23T11:02:13.967Z</time></trkpt><trkpt lat="44.9046783" lon="10.564085"><ele>19.0</ele><time>2026-03-23T11:02:15.967Z</time></trkpt><trkpt lat="44.904705" lon="10.563995"><ele>19.142857142857142</ele><time>2026-03-23T11:02:17.966Z</time></trkpt><trkpt lat="44.9047283" lon="10.5638967"><ele>19.28571428571429</ele><time>2026-03-23T11:02:19.967Z</time></trkpt><trkpt lat="44.904755" lon="10.563805"><ele>19.42857142857143</ele><time>2026-03-23T11:02:21.967Z</time></trkpt><trkpt lat="44.9047717" lon="10.563715"><ele>19.57142857142857</ele><time>2026-03-23T11:02:23.967Z</time></trkpt><trkpt lat="44.9048" lon="10.563635"><ele>19.714285714285715</ele><time>2026-03-23T11:02:25.966Z</time></trkpt><trkpt lat="44.9048233" lon="10.563545"><ele>19.857142857142858</ele><time>2026-03-23T11:02:27.967Z</time></trkpt><trkpt lat="44.904845" lon="10.563445"><ele>20.0</ele><time>2026-03-23T11:02:29.967Z</time></trkpt><trkpt lat="44.9048717" lon="10.563345"><ele>19.857142857142858</ele><time>2026-03-23T11:02:31.967Z</time></trkpt><trkpt lat="44.9049017" lon="10.5632517"><ele>19.714285714285715</ele><time>2026-03-23T11:02:33.966Z</time></trkpt><trkpt lat="44.90493" lon="10.5631617"><ele>19.57142857142857</ele><time>2026-03-23T11:02:35.967Z</time></trkpt><trkpt lat="44.90497" lon="10.5630667"><ele>19.42857142857143</ele><time>2026-03-23T11:02:37.967Z</time></trkpt><trkpt lat="44.9049967" lon="10.5629717"><ele>19.28571428571429</ele><time>2026-03-23T11:02:39.967Z</time></trkpt><trkpt lat="44.90502" lon="10.562875"><ele>19.142857142857142</ele><time>2026-03-23T11:02:41.967Z</time></trkpt><trkpt lat="44.9050567" lon="10.5627817"><ele>19.0</ele><time>2026-03-23T11:02:43.967Z</time></trkpt><trkpt lat="44.9050917" lon="10.562685"><ele>19.0</ele><time>2026-03-23T11:02:45.967Z</time></trkpt><trkpt lat="44.90512" lon="10.5625817"><ele>19.0</ele><time>2026-03-23T11:02:47.966Z</time></trkpt><trkpt lat="44.9051467" lon="10.5624783"><ele>19.0</ele><time>2026-03-23T11:02:49.966Z</time></trkpt><trkpt lat="44.905175" lon="10.5623867"><ele>19.0</ele><time>2026-03-23T11:02:51.967Z</time></trkpt><trkpt lat="44.9052017" lon="10.5623017"><ele>19.0</ele><time>2026-03-23T11:02:53.966Z</time></trkpt><trkpt lat="44.9052333" lon="10.5622067"><ele>19.0</ele><time>2026-03-23T11:02:55.966Z</time></trkpt><trkpt lat="44.9052633" lon="10.5621083"><ele>19.0</ele><time>2026-03-23T11:02:57.966Z</time></trkpt><trkpt lat="44.9052883" lon="10.562015"><ele>19.2</ele><time>2026-03-23T11:02:59.966Z</time></trkpt><trkpt lat="44.9053317" lon="10.56192"><ele>19.4</ele><time>2026-03-23T11:03:02.966Z</time></trkpt><trkpt lat="44.905385" lon="10.5618367"><ele>19.6</ele><time>2026-03-23T11:03:04.966Z</time></trkpt><trkpt lat="44.9054583" lon="10.5617233"><ele>19.8</ele><time>2026-03-23T11:03:06.967Z</time></trkpt><trkpt lat="44.9055117" lon="10.5616017"><ele>20.0</ele><time>2026-03-23T11:03:08.967Z</time></trkpt><trkpt lat="44.9055467" lon="10.5614767"><ele>20.0</ele><time>2026-03-23T11:03:10.967Z</time></trkpt><trkpt lat="44.9055883" lon="10.5613467"><ele>20.0</ele><time>2026-03-23T11:03:12.966Z</time></trkpt><trkpt lat="44.90563" lon="10.5612183"><ele>20.0</ele><time>2026-03-23T11:03:14.966Z</time></trkpt><trkpt lat="44.9056517" lon="10.5610583"><ele>20.0</ele><time>2026-03-23T11:03:16.966Z</time></trkpt><trkpt lat="44.905655" lon="10.5609667"><ele>20.0</ele><time>2026-03-23T11:03:19.967Z</time></trkpt><trkpt lat="44.9056783" lon="10.5608783"><ele>20.0</ele><time>2026-03-23T11:03:22.966Z</time></trkpt><trkpt lat="44.9057083" lon="10.5607733"><ele>21.0</ele><time>2026-03-23T11:03:26.967Z</time></trkpt><trkpt lat="44.90576" lon="10.56069"><ele>22.0</ele><time>2026-03-23T11:03:29.967Z</time></trkpt><trkpt lat="44.90579" lon="10.5606017"><ele>23.0</ele><time>2026-03-23T11:03:32.967Z</time></trkpt><trkpt lat="44.905745" lon="10.560665"><ele>24.0</ele><time>2026-03-23T11:03:37.966Z</time></trkpt><trkpt lat="44.905705" lon="10.5607667"><ele>24.999999999999996</ele><time>2026-03-23T11:03:40.966Z</time></trkpt><trkpt lat="44.90568" lon="10.56085"><ele>26.0</ele><time>2026-03-23T11:03:43.966Z</time></trkpt><trkpt lat="44.9056533" lon="10.5609767"><ele>25.999999999999996</ele><time>2026-03-23T11:03:46.967Z</time></trkpt><trkpt lat="44.9056083" lon="10.5610683"><ele>26.0</ele><time>2026-03-23T11:03:49.966Z</time></trkpt><trkpt lat="44.9055767" lon="10.56118"><ele>26.0</ele><time>2026-03-23T11:03:52.966Z</time></trkpt><trkpt lat="44.9055333" lon="10.5612517"><ele>26.0</ele><time>2026-03-23T11:03:55.966Z</time></trkpt><trkpt lat="44.9054617" lon="10.5612133"><ele>25.999999999999996</ele><time>2026-03-23T11:03:58.967Z</time></trkpt><trkpt lat="44.9054033" lon="10.561125"><ele>26.0</ele><time>2026-03-23T11:04:01.967Z</time></trkpt><trkpt lat="44.905345" lon="10.5610767"><ele>25.999999999999996</ele><time>2026-03-23T11:04:03.967Z</time></trkpt><trkpt lat="44.9052833" lon="10.5610317"><ele>26.0</ele><time>2026-03-23T11:04:05.967Z</time></trkpt><trkpt lat="44.90522" lon="10.5609783"><ele>26.0</ele><time>2026-03-23T11:04:07.966Z</time></trkpt><trkpt lat="44.9051517" lon="10.56092"><ele>26.0</ele><time>2026-03-23T11:04:09.967Z</time></trkpt><trkpt lat="44.9050817" lon="10.56086"><ele>25.999999999999996</ele><time>2026-03-23T11:04:11.966Z</time></trkpt><trkpt lat="44.9050017" lon="10.5608033"><ele>26.0</ele><time>2026-03-23T11:04:13.966Z</time></trkpt><trkpt lat="44.90495" lon="10.5607433"><ele>26.833333333333332</ele><time>2026-03-23T11:04:15.966Z</time></trkpt><trkpt lat="44.9049283" lon="10.5606283"><ele>27.666666666666664</ele><time>2026-03-23T11:04:18.966Z</time></trkpt><trkpt lat="44.9049233" lon="10.5605183"><ele>28.5</ele><time>2026-03-23T11:04:22.966Z</time></trkpt><trkpt lat="44.9049417" lon="10.5604317"><ele>29.333333333333336</ele><time>2026-03-23T11:04:27.966Z</time></trkpt><trkpt lat="44.904915" lon="10.5605333"><ele>30.166666666666668</ele><time>2026-03-23T11:04:34.966Z</time></trkpt><trkpt lat="44.904925" lon="10.5606533"><ele>31.0</ele><time>2026-03-23T11:04:47.967Z</time></trkpt><trkpt lat="44.9049817" lon="10.5607733"><ele>31.0</ele><time>2026-03-23T11:04:49.967Z</time></trkpt><trkpt lat="44.9050717" lon="10.56085"><ele>31.0</ele><time>2026-03-23T11:04:51.966Z</time></trkpt><trkpt lat="44.90516" lon="10.560925"><ele>31.0</ele><time>2026-03-23T11:04:53.967Z</time></trkpt><trkpt lat="44.9052467" lon="10.5609917"><ele>31.0</ele><time>2026-03-23T11:04:55.966Z</time></trkpt><trkpt lat="44.9053233" lon="10.5610533"><ele>31.0</ele><time>2026-03-23T11:04:57.967Z</time></trkpt><trkpt lat="44.9054033" lon="10.5611233"><ele>28.8</ele><time>2026-03-23T11:04:59.966Z</time></trkpt><trkpt lat="44.9054633" lon="10.561215"><ele>26.6</ele><time>2026-03-23T11:05:01.966Z</time></trkpt><trkpt lat="44.905465" lon="10.5613333"><ele>24.4</ele><time>2026-03-23T11:05:03.967Z</time></trkpt><trkpt lat="44.90543" lon="10.561455"><ele>22.2</ele><time>2026-03-23T11:05:05.967Z</time></trkpt><trkpt lat="44.9053933" lon="10.5615817"><ele>20.0</ele><time>2026-03-23T11:05:07.967Z</time></trkpt><trkpt lat="44.9053517" lon="10.5616983"><ele>20.0</ele><time>2026-03-23T11:05:09.966Z</time></trkpt><trkpt lat="44.90532" lon="10.561825"><ele>20.0</ele><time>2026-03-23T11:05:11.966Z</time></trkpt><trkpt lat="44.9052983" lon="10.561955"><ele>20.0</ele><time>2026-03-23T11:05:13.966Z</time></trkpt><trkpt lat="44.9052717" lon="10.562075"><ele>20.0</ele><time>2026-03-23T11:05:15.967Z</time></trkpt><trkpt lat="44.9052283" lon="10.5622"><ele>20.0</ele><time>2026-03-23T11:05:17.966Z</time></trkpt><trkpt lat="44.9051917" lon="10.5623183"><ele>19.8</ele><time>2026-03-23T11:05:19.966Z</time></trkpt><trkpt lat="44.9051583" lon="10.56245"><ele>19.6</ele><time>2026-03-23T11:05:21.966Z</time></trkpt><trkpt lat="44.9051183" lon="10.5625717"><ele>19.4</ele><time>2026-03-23T11:05:23.966Z</time></trkpt><trkpt lat="44.905075" lon="10.56269"><ele>19.2</ele><time>2026-03-23T11:05:25.966Z</time></trkpt><trkpt lat="44.9050317" lon="10.5628067"><ele>19.0</ele><time>2026-03-23T11:05:27.967Z</time></trkpt><trkpt lat="44.9049983" lon="10.562915"><ele>19.666666666666664</ele><time>2026-03-23T11:05:29.967Z</time></trkpt><trkpt lat="44.9049717" lon="10.56302"><ele>20.333333333333332</ele><time>2026-03-23T11:05:31.966Z</time></trkpt><trkpt lat="44.904945" lon="10.5631267"><ele>21.0</ele><time>2026-03-23T11:05:33.966Z</time></trkpt><trkpt lat="44.9049167" lon="10.5632183"><ele>21.666666666666668</ele><time>2026-03-23T11:05:35.967Z</time></trkpt><trkpt lat="44.9048783" lon="10.56333"><ele>22.333333333333336</ele><time>2026-03-23T11:05:38.966Z</time></trkpt><trkpt lat="44.9048483" lon="10.5634283"><ele>23.0</ele><time>2026-03-23T11:05:41.967Z</time></trkpt><trkpt lat="44.90482" lon="10.5635083"><ele>23.0</ele><time>2026-03-23T11:05:43.967Z</time></trkpt><trkpt lat="44.9047933" lon="10.56363"><ele>23.0</ele><time>2026-03-23T11:05:46.966Z</time></trkpt><trkpt lat="44.90476" lon="10.5637517"><ele>23.0</ele><time>2026-03-23T11:05:49.966Z</time></trkpt><trkpt lat="44.90473" lon="10.56385"><ele>23.0</ele><time>2026-03-23T11:05:51.967Z</time></trkpt><trkpt lat="44.9046967" lon="10.56395"><ele>23.0</ele><time>2026-03-23T11:05:53.966Z</time></trkpt><trkpt lat="44.9046683" lon="10.5640683"><ele>23.0</ele><time>2026-03-23T11:05:55.966Z</time></trkpt><trkpt lat="44.9046383" lon="10.5641833"><ele>22.5</ele><time>2026-03-23T11:05:57.966Z</time></trkpt><trkpt lat="44.9046033" lon="10.5643"><ele>22.0</ele><time>2026-03-23T11:05:59.966Z</time></trkpt><trkpt lat="44.9045783" lon="10.5644117"><ele>21.5</ele><time>2026-03-23T11:06:01.966Z</time></trkpt><trkpt lat="44.9045433" lon="10.564525"><ele>21.0</ele><time>2026-03-23T11:06:03.966Z</time></trkpt><trkpt lat="44.9045133" lon="10.5646383"><ele>20.5</ele><time>2026-03-23T11:06:05.967Z</time></trkpt><trkpt lat="44.90449" lon="10.5647383"><ele>20.0</ele><time>2026-03-23T11:06:07.967Z</time></trkpt><trkpt lat="44.9044667" lon="10.5648383"><ele>19.8</ele><time>2026-03-23T11:06:09.967Z</time></trkpt><trkpt lat="44.9044317" lon="10.5649483"><ele>19.6</ele><time>2026-03-23T11:06:11.967Z</time></trkpt><trkpt lat="44.9043983" lon="10.565075"><ele>19.4</ele><time>2026-03-23T11:06:13.967Z</time></trkpt><trkpt lat="44.9043683" lon="10.5651883"><ele>19.2</ele><time>2026-03-23T11:06:15.967Z</time></trkpt><trkpt lat="44.9043367" lon="10.5653133"><ele>19.0</ele><time>2026-03-23T11:06:17.966Z</time></trkpt><trkpt lat="44.9043083" lon="10.56544"><ele>19.0</ele><time>2026-03-23T11:06:19.967Z</time></trkpt><trkpt lat="44.9042833" lon="10.5655633"><ele>19.0</ele><time>2026-03-23T11:06:21.967Z</time></trkpt><trkpt lat="44.904255" lon="10.56568"><ele>19.0</ele><time>2026-03-23T11:06:23.966Z</time></trkpt><trkpt lat="44.9042317" lon="10.5657883"><ele>19.0</ele><time>2026-03-23T11:06:25.966Z</time></trkpt><trkpt lat="44.9041967" lon="10.565905"><ele>19.0</ele><time>2026-03-23T11:06:27.966Z</time></trkpt><trkpt lat="44.9041683" lon="10.566025"><ele>19.0</ele><time>2026-03-23T11:06:29.967Z</time></trkpt><trkpt lat="44.9041367" lon="10.56615"><ele>19.799999999999997</ele><time>2026-03-23T11:06:31.967Z</time></trkpt><trkpt lat="44.9041083" lon="10.5662783"><ele>20.599999999999998</ele><time>2026-03-23T11:06:33.967Z</time></trkpt><trkpt lat="44.9040733" lon="10.5664"><ele>21.4</ele><time>2026-03-23T11:06:35.966Z</time></trkpt><trkpt lat="44.9040383" lon="10.566525"><ele>22.2</ele><time>2026-03-23T11:06:37.967Z</time></trkpt><trkpt lat="44.9040117" lon="10.566635"><ele>23.0</ele><time>2026-03-23T11:06:39.966Z</time></trkpt><trkpt lat="44.9039867" lon="10.56675"><ele>23.0</ele><time>2026-03-23T11:06:41.967Z</time></trkpt><trkpt lat="44.903965" lon="10.5668717"><ele>23.0</ele><time>2026-03-23T11:06:43.967Z</time></trkpt><trkpt lat="44.9039367" lon="10.5669867"><ele>23.0</ele><time>2026-03-23T11:06:45.967Z</time></trkpt><trkpt lat="44.9039067" lon="10.56711"><ele>23.0</ele><time>2026-03-23T11:06:47.967Z</time></trkpt><trkpt lat="44.903885" lon="10.5672233"><ele>23.0</ele><time>2026-03-23T11:06:49.966Z</time></trkpt><trkpt lat="44.90386" lon="10.5673317"><ele>23.0</ele><time>2026-03-23T11:06:51.966Z</time></trkpt><trkpt lat="44.9038333" lon="10.56743"><ele>23.166666666666668</ele><time>2026-03-23T11:06:53.966Z</time></trkpt><trkpt lat="44.903815" lon="10.5675367"><ele>23.333333333333336</ele><time>2026-03-23T11:06:55.967Z</time></trkpt><trkpt lat="44.9037883" lon="10.5676517"><ele>23.5</ele><time>2026-03-23T11:06:57.966Z</time></trkpt><trkpt lat="44.9037617" lon="10.5677717"><ele>23.666666666666668</ele><time>2026-03-23T11:06:59.967Z</time></trkpt><trkpt lat="44.9037317" lon="10.5679117"><ele>23.833333333333332</ele><time>2026-03-23T11:07:01.966Z</time></trkpt><trkpt lat="44.9036967" lon="10.568025"><ele>24.0</ele><time>2026-03-23T11:07:03.966Z</time></trkpt><trkpt lat="44.9036733" lon="10.5681333"><ele>23.333333333333332</ele><time>2026-03-23T11:07:05.967Z</time></trkpt><trkpt lat="44.9036567" lon="10.56824"><ele>22.666666666666668</ele><time>2026-03-23T11:07:07.966Z</time></trkpt><trkpt lat="44.9036217" lon="10.5683433"><ele>22.0</ele><time>2026-03-23T11:07:09.966Z</time></trkpt><trkpt lat="44.9035983" lon="10.5684517"><ele>21.333333333333336</ele><time>2026-03-23T11:07:11.966Z</time></trkpt><trkpt lat="44.90359" lon="10.5685517"><ele>20.666666666666668</ele><time>2026-03-23T11:07:13.966Z</time></trkpt><trkpt lat="44.9035783" lon="10.5686583"><ele>20.0</ele><time>2026-03-23T11:07:15.966Z</time></trkpt><trkpt lat="44.90356" lon="10.568785"><ele>19.833333333333336</ele><time>2026-03-23T11:07:17.967Z</time></trkpt><trkpt lat="44.90354" lon="10.568905"><ele>19.666666666666668</ele><time>2026-03-23T11:07:19.966Z</time></trkpt><trkpt lat="44.9035283" lon="10.569025"><ele>19.5</ele><time>2026-03-23T11:07:21.966Z</time></trkpt><trkpt lat="44.9035083" lon="10.5691517"><ele>19.333333333333332</ele><time>2026-03-23T11:07:23.966Z</time></trkpt><trkpt lat="44.9034767" lon="10.5692683"><ele>19.166666666666664</ele><time>2026-03-23T11:07:25.966Z</time></trkpt><trkpt lat="44.9034583" lon="10.5693867"><ele>19.0</ele><time>2026-03-23T11:07:27.967Z</time></trkpt><trkpt lat="44.9034417" lon="10.5695167"><ele>19.0</ele><time>2026-03-23T11:07:29.967Z</time></trkpt><trkpt lat="44.9034267" lon="10.5696317"><ele>19.0</ele><time>2026-03-23T11:07:31.967Z</time></trkpt><trkpt lat="44.9034083" lon="10.5697467"><ele>19.0</ele><time>2026-03-23T11:07:33.967Z</time></trkpt><trkpt lat="44.9033867" lon="10.5698683"><ele>19.0</ele><time>2026-03-23T11:07:35.966Z</time></trkpt><trkpt lat="44.90337" lon="10.5699883"><ele>19.0</ele><time>2026-03-23T11:07:37.967Z</time></trkpt><trkpt lat="44.90334" lon="10.5700933"><ele>19.0</ele><time>2026-03-23T11:07:39.966Z</time></trkpt><trkpt lat="44.9033283" lon="10.5702333"><ele>20.2</ele><time>2026-03-23T11:07:41.967Z</time></trkpt><trkpt lat="44.90331" lon="10.5703717"><ele>21.4</ele><time>2026-03-23T11:07:43.966Z</time></trkpt><trkpt lat="44.9032917" lon="10.570505"><ele>22.6</ele><time>2026-03-23T11:07:45.967Z</time></trkpt><trkpt lat="44.9032733" lon="10.5706383"><ele>23.8</ele><time>2026-03-23T11:07:47.967Z</time></trkpt><trkpt lat="44.903255" lon="10.57077"><ele>25.0</ele><time>2026-03-23T11:07:49.967Z</time></trkpt><trkpt lat="44.9032317" lon="10.5709"><ele>25.0</ele><time>2026-03-23T11:07:51.966Z</time></trkpt><trkpt lat="44.9032133" lon="10.571025"><ele>25.0</ele><time>2026-03-23T11:07:53.967Z</time></trkpt><trkpt lat="44.903205" lon="10.57116"><ele>25.0</ele><time>2026-03-23T11:07:55.966Z</time></trkpt><trkpt lat="44.9031967" lon="10.57129"><ele>25.0</ele><time>2026-03-23T11:07:57.967Z</time></trkpt><trkpt lat="44.9031783" lon="10.5714133"><ele>25.0</ele><time>2026-03-23T11:07:59.967Z</time></trkpt><trkpt lat="44.9031567" lon="10.57153"><ele>25.000000000000004</ele><time>2026-03-23T11:08:01.967Z</time></trkpt><trkpt lat="44.9031567" lon="10.5716667"><ele>25.0</ele><time>2026-03-23T11:08:03.967Z</time></trkpt><trkpt lat="44.9031383" lon="10.57179"><ele>25.0</ele><time>2026-03-23T11:08:05.966Z</time></trkpt><trkpt lat="44.9031233" lon="10.5719083"><ele>25.0</ele><time>2026-03-23T11:08:07.966Z</time></trkpt><trkpt lat="44.9031083" lon="10.5720317"><ele>25.000000000000004</ele><time>2026-03-23T11:08:09.967Z</time></trkpt><trkpt lat="44.9030983" lon="10.5721533"><ele>25.0</ele><time>2026-03-23T11:08:11.967Z</time></trkpt><trkpt lat="44.9030767" lon="10.5722783"><ele>24.500000000000004</ele><time>2026-03-23T11:08:13.967Z</time></trkpt><trkpt lat="44.9030617" lon="10.5723917"><ele>24.0</ele><time>2026-03-23T11:08:15.967Z</time></trkpt><trkpt lat="44.903045" lon="10.57251"><ele>23.5</ele><time>2026-03-23T11:08:17.966Z</time></trkpt><trkpt lat="44.9030333" lon="10.5726333"><ele>23.0</ele><time>2026-03-23T11:08:19.966Z</time></trkpt><trkpt lat="44.9030233" lon="10.5727617"><ele>22.5</ele><time>2026-03-23T11:08:21.966Z</time></trkpt><trkpt lat="44.9030183" lon="10.572875"><ele>22.0</ele><time>2026-03-23T11:08:23.966Z</time></trkpt><trkpt lat="44.9030033" lon="10.5730033"><ele>22.0</ele><time>2026-03-23T11:08:25.966Z</time></trkpt><trkpt lat="44.9029933" lon="10.573135"><ele>22.0</ele><time>2026-03-23T11:08:27.966Z</time></trkpt><trkpt lat="44.9029817" lon="10.57327"><ele>22.0</ele><time>2026-03-23T11:08:29.966Z</time></trkpt><trkpt lat="44.90297" lon="10.5734"><ele>22.0</ele><time>2026-03-23T11:08:31.967Z</time></trkpt><trkpt lat="44.9029617" lon="10.57354"><ele>22.0</ele><time>2026-03-23T11:08:33.967Z</time></trkpt><trkpt lat="44.9029583" lon="10.5736617"><ele>21.833333333333332</ele><time>2026-03-23T11:08:35.966Z</time></trkpt><trkpt lat="44.9029517" lon="10.5737717"><ele>21.666666666666664</ele><time>2026-03-23T11:08:37.968Z</time></trkpt><trkpt lat="44.9029433" lon="10.573895"><ele>21.5</ele><time>2026-03-23T11:08:39.967Z</time></trkpt><trkpt lat="44.9029317" lon="10.5740383"><ele>21.333333333333332</ele><time>2026-03-23T11:08:41.967Z</time></trkpt><trkpt lat="44.902925" lon="10.5741633"><ele>21.166666666666668</ele><time>2026-03-23T11:08:43.967Z</time></trkpt><trkpt lat="44.90291" lon="10.5742683"><ele>21.0</ele><time>2026-03-23T11:08:45.967Z</time></trkpt><trkpt lat="44.9029033" lon="10.5743883"><ele>21.0</ele><time>2026-03-23T11:08:47.968Z</time></trkpt><trkpt lat="44.902895" lon="10.5745067"><ele>21.0</ele><time>2026-03-23T11:08:49.967Z</time></trkpt><trkpt lat="44.90289" lon="10.5746233"><ele>21.0</ele><time>2026-03-23T11:08:51.967Z</time></trkpt><trkpt lat="44.9028883" lon="10.5747283"><ele>21.0</ele><time>2026-03-23T11:08:53.967Z</time></trkpt><trkpt lat="44.9028867" lon="10.574845"><ele>21.0</ele><time>2026-03-23T11:08:55.968Z</time></trkpt><trkpt lat="44.9028767" lon="10.5749583"><ele>21.0</ele><time>2026-03-23T11:08:57.968Z</time></trkpt><trkpt lat="44.902875" lon="10.5750683"><ele>21.0</ele><time>2026-03-23T11:08:59.967Z</time></trkpt><trkpt lat="44.9028667" lon="10.5751917"><ele>21.0</ele><time>2026-03-23T11:09:01.967Z</time></trkpt><trkpt lat="44.9028667" lon="10.5753167"><ele>21.0</ele><time>2026-03-23T11:09:03.967Z</time></trkpt><trkpt lat="44.90286" lon="10.5754383"><ele>21.0</ele><time>2026-03-23T11:09:05.967Z</time></trkpt><trkpt lat="44.9028567" lon="10.5755533"><ele>21.0</ele><time>2026-03-23T11:09:07.967Z</time></trkpt><trkpt lat="44.9028567" lon="10.575655"><ele>21.0</ele><time>2026-03-23T11:09:09.967Z</time></trkpt><trkpt lat="44.9028533" lon="10.57578"><ele>20.833333333333332</ele><time>2026-03-23T11:09:12.967Z</time></trkpt><trkpt lat="44.9028583" lon="10.5758967"><ele>20.666666666666668</ele><time>2026-03-23T11:09:14.968Z</time></trkpt><trkpt lat="44.9028567" lon="10.57602"><ele>20.5</ele><time>2026-03-23T11:09:16.968Z</time></trkpt><trkpt lat="44.902855" lon="10.5761333"><ele>20.333333333333336</ele><time>2026-03-23T11:09:18.968Z</time></trkpt><trkpt lat="44.902845" lon="10.5762283"><ele>20.166666666666668</ele><time>2026-03-23T11:09:20.968Z</time></trkpt><trkpt lat="44.9028433" lon="10.5763333"><ele>20.0</ele><time>2026-03-23T11:09:22.968Z</time></trkpt><trkpt lat="44.9028417" lon="10.57644"><ele>20.0</ele><time>2026-03-23T11:09:24.968Z</time></trkpt><trkpt lat="44.902845" lon="10.5765433"><ele>20.0</ele><time>2026-03-23T11:09:26.967Z</time></trkpt><trkpt lat="44.9028383" lon="10.5766517"><ele>20.0</ele><time>2026-03-23T11:09:28.967Z</time></trkpt><trkpt lat="44.9028383" lon="10.5767733"><ele>20.0</ele><time>2026-03-23T11:09:30.967Z</time></trkpt><trkpt lat="44.902835" lon="10.576895"><ele>20.0</ele><time>2026-03-23T11:09:32.968Z</time></trkpt><trkpt lat="44.902835" lon="10.57701"><ele>20.0</ele><time>2026-03-23T11:09:34.968Z</time></trkpt><trkpt lat="44.9028367" lon="10.5771283"><ele>20.166666666666668</ele><time>2026-03-23T11:09:36.968Z</time></trkpt><trkpt lat="44.9028383" lon="10.5772583"><ele>20.333333333333336</ele><time>2026-03-23T11:09:38.967Z</time></trkpt><trkpt lat="44.9028317" lon="10.577375"><ele>20.5</ele><time>2026-03-23T11:09:40.968Z</time></trkpt><trkpt lat="44.9028317" lon="10.5774983"><ele>20.666666666666668</ele><time>2026-03-23T11:09:42.968Z</time></trkpt><trkpt lat="44.9028333" lon="10.5776217"><ele>20.833333333333332</ele><time>2026-03-23T11:09:44.968Z</time></trkpt><trkpt lat="44.9028367" lon="10.577735"><ele>21.0</ele><time>2026-03-23T11:09:46.967Z</time></trkpt><trkpt lat="44.9028317" lon="10.5778583"><ele>21.0</ele><time>2026-03-23T11:09:48.968Z</time></trkpt><trkpt lat="44.902835" lon="10.57798"><ele>21.0</ele><time>2026-03-23T11:09:50.968Z</time></trkpt><trkpt lat="44.9028417" lon="10.5781"><ele>21.0</ele><time>2026-03-23T11:09:52.968Z</time></trkpt><trkpt lat="44.9028483" lon="10.5782267"><ele>21.0</ele><time>2026-03-23T11:09:54.968Z</time></trkpt><trkpt lat="44.9028583" lon="10.5783567"><ele>21.0</ele><time>2026-03-23T11:09:56.968Z</time></trkpt><trkpt lat="44.9028633" lon="10.5784767"><ele>21.0</ele><time>2026-03-23T11:09:58.967Z</time></trkpt><trkpt lat="44.90286" lon="10.5786033"><ele>20.8</ele><time>2026-03-23T11:10:00.968Z</time></trkpt><trkpt lat="44.902865" lon="10.5787333"><ele>20.6</ele><time>2026-03-23T11:10:02.967Z</time></trkpt><trkpt lat="44.90287" lon="10.578875"><ele>20.4</ele><time>2026-03-23T11:10:04.967Z</time></trkpt><trkpt lat="44.9028717" lon="10.5790083"><ele>20.2</ele><time>2026-03-23T11:10:06.968Z</time></trkpt><trkpt lat="44.9028767" lon="10.5791383"><ele>20.0</ele><time>2026-03-23T11:10:08.968Z</time></trkpt><trkpt lat="44.9028883" lon="10.5792683"><ele>20.0</ele><time>2026-03-23T11:10:10.968Z</time></trkpt><trkpt lat="44.9028933" lon="10.5793967"><ele>20.0</ele><time>2026-03-23T11:10:12.968Z</time></trkpt><trkpt lat="44.9029017" lon="10.5795283"><ele>20.0</ele><time>2026-03-23T11:10:14.967Z</time></trkpt><trkpt lat="44.9029117" lon="10.57966"><ele>20.0</ele><time>2026-03-23T11:10:16.967Z</time></trkpt><trkpt lat="44.9029167" lon="10.5797933"><ele>20.0</ele><time>2026-03-23T11:10:18.967Z</time></trkpt><trkpt lat="44.9029267" lon="10.579925"><ele>19.833333333333336</ele><time>2026-03-23T11:10:20.967Z</time></trkpt><trkpt lat="44.9029383" lon="10.5800517"><ele>19.666666666666668</ele><time>2026-03-23T11:10:22.968Z</time></trkpt><trkpt lat="44.9029467" lon="10.5801717"><ele>19.5</ele><time>2026-03-23T11:10:24.967Z</time></trkpt><trkpt lat="44.9029633" lon="10.580295"><ele>19.333333333333332</ele><time>2026-03-23T11:10:26.968Z</time></trkpt><trkpt lat="44.90298" lon="10.5804167"><ele>19.166666666666664</ele><time>2026-03-23T11:10:28.967Z</time></trkpt><trkpt lat="44.90299" lon="10.5805433"><ele>19.0</ele><time>2026-03-23T11:10:30.967Z</time></trkpt><trkpt lat="44.9029967" lon="10.5806767"><ele>19.0</ele><time>2026-03-23T11:10:32.968Z</time></trkpt><trkpt lat="44.903" lon="10.5808"><ele>19.0</ele><time>2026-03-23T11:10:34.968Z</time></trkpt><trkpt lat="44.9030067" lon="10.5809133"><ele>19.0</ele><time>2026-03-23T11:10:36.967Z</time></trkpt><trkpt lat="44.903015" lon="10.5810283"><ele>19.0</ele><time>2026-03-23T11:10:38.967Z</time></trkpt><trkpt lat="44.9030233" lon="10.58114"><ele>19.0</ele><time>2026-03-23T11:10:40.967Z</time></trkpt><trkpt lat="44.903035" lon="10.581255"><ele>19.0</ele><time>2026-03-23T11:10:42.967Z</time></trkpt><trkpt lat="44.9030483" lon="10.5813633"><ele>19.0</ele><time>2026-03-23T11:10:44.967Z</time></trkpt><trkpt lat="44.903065" lon="10.5814817"><ele>19.0</ele><time>2026-03-23T11:10:46.968Z</time></trkpt><trkpt lat="44.90308" lon="10.5816033"><ele>19.0</ele><time>2026-03-23T11:10:48.967Z</time></trkpt><trkpt lat="44.9030883" lon="10.5817217"><ele>19.0</ele><time>2026-03-23T11:10:50.968Z</time></trkpt><trkpt lat="44.9030967" lon="10.58184"><ele>19.0</ele><time>2026-03-23T11:10:52.967Z</time></trkpt><trkpt lat="44.9031117" lon="10.5819567"><ele>19.0</ele><time>2026-03-23T11:10:54.967Z</time></trkpt><trkpt lat="44.9031283" lon="10.5820717"><ele>19.166666666666664</ele><time>2026-03-23T11:10:56.967Z</time></trkpt><trkpt lat="44.9031467" lon="10.5821883"><ele>19.333333333333332</ele><time>2026-03-23T11:10:58.968Z</time></trkpt><trkpt lat="44.903165" lon="10.582305"><ele>19.5</ele><time>2026-03-23T11:11:00.967Z</time></trkpt><trkpt lat="44.9031783" lon="10.582425"><ele>19.666666666666668</ele><time>2026-03-23T11:11:02.968Z</time></trkpt><trkpt lat="44.90319" lon="10.58254"><ele>19.833333333333336</ele><time>2026-03-23T11:11:04.967Z</time></trkpt><trkpt lat="44.9032033" lon="10.5826667"><ele>20.0</ele><time>2026-03-23T11:11:06.967Z</time></trkpt><trkpt lat="44.9032217" lon="10.5827883"><ele>20.5</ele><time>2026-03-23T11:11:08.967Z</time></trkpt><trkpt lat="44.9032367" lon="10.5829083"><ele>21.0</ele><time>2026-03-23T11:11:10.968Z</time></trkpt><trkpt lat="44.9032533" lon="10.58303"><ele>21.5</ele><time>2026-03-23T11:11:12.967Z</time></trkpt><trkpt lat="44.9032683" lon="10.583155"><ele>22.0</ele><time>2026-03-23T11:11:14.967Z</time></trkpt><trkpt lat="44.903285" lon="10.5832717"><ele>22.5</ele><time>2026-03-23T11:11:16.968Z</time></trkpt><trkpt lat="44.9032933" lon="10.58339"><ele>23.0</ele><time>2026-03-23T11:11:18.968Z</time></trkpt><trkpt lat="44.9032733" lon="10.5835033"><ele>23.0</ele><time>2026-03-23T11:11:20.968Z</time></trkpt><trkpt lat="44.90324" lon="10.5835983"><ele>23.0</ele><time>2026-03-23T11:11:22.968Z</time></trkpt><trkpt lat="44.9031967" lon="10.5836733"><ele>23.0</ele><time>2026-03-23T11:11:24.967Z</time></trkpt><trkpt lat="44.90314" lon="10.5837167"><ele>23.0</ele><time>2026-03-23T11:11:26.967Z</time></trkpt><trkpt lat="44.9030767" lon="10.5837433"><ele>23.0</ele><time>2026-03-23T11:11:28.968Z</time></trkpt><trkpt lat="44.9030083" lon="10.5837733"><ele>23.0</ele><time>2026-03-23T11:11:30.968Z</time></trkpt><trkpt lat="44.9029383" lon="10.583805"><ele>23.0</ele><time>2026-03-23T11:11:32.967Z</time></trkpt><trkpt lat="44.90287" lon="10.5838267"><ele>23.0</ele><time>2026-03-23T11:11:34.967Z</time></trkpt><trkpt lat="44.902805" lon="10.5838533"><ele>23.0</ele><time>2026-03-23T11:11:36.967Z</time></trkpt><trkpt lat="44.90273" lon="10.58393"><ele>23.0</ele><time>2026-03-23T11:11:39.967Z</time></trkpt><trkpt lat="44.9026717" lon="10.5839917"><ele>23.0</ele><time>2026-03-23T11:11:41.968Z</time></trkpt><trkpt lat="44.9026133" lon="10.5840683"><ele>23.0</ele><time>2026-03-23T11:11:43.967Z</time></trkpt><trkpt lat="44.902585" lon="10.5841583"><ele>23.0</ele><time>2026-03-23T11:11:45.968Z</time></trkpt><trkpt lat="44.9025517" lon="10.5842483"><ele>23.142857142857142</ele><time>2026-03-23T11:11:47.967Z</time></trkpt><trkpt lat="44.9025" lon="10.5843183"><ele>23.285714285714285</ele><time>2026-03-23T11:11:49.968Z</time></trkpt><trkpt lat="44.902455" lon="10.5843983"><ele>23.428571428571427</ele><time>2026-03-23T11:11:51.968Z</time></trkpt><trkpt lat="44.902435" lon="10.5844917"><ele>23.57142857142857</ele><time>2026-03-23T11:11:53.968Z</time></trkpt><trkpt lat="44.9024333" lon="10.5845867"><ele>23.714285714285715</ele><time>2026-03-23T11:11:55.967Z</time></trkpt><trkpt lat="44.9024333" lon="10.5846883"><ele>23.857142857142854</ele><time>2026-03-23T11:11:57.968Z</time></trkpt><trkpt lat="44.9024333" lon="10.5847967"><ele>24.0</ele><time>2026-03-23T11:11:59.967Z</time></trkpt><trkpt lat="44.902435" lon="10.5849083"><ele>24.0</ele><time>2026-03-23T11:12:01.967Z</time></trkpt><trkpt lat="44.90244" lon="10.58502"><ele>24.0</ele><time>2026-03-23T11:12:03.968Z</time></trkpt><trkpt lat="44.9024483" lon="10.5851367"><ele>24.0</ele><time>2026-03-23T11:12:05.967Z</time></trkpt><trkpt lat="44.9024533" lon="10.5852517"><ele>24.0</ele><time>2026-03-23T11:12:07.968Z</time></trkpt><trkpt lat="44.9024633" lon="10.5853717"><ele>24.0</ele><time>2026-03-23T11:12:09.968Z</time></trkpt><trkpt lat="44.9024717" lon="10.58549"><ele>24.0</ele><time>2026-03-23T11:12:11.967Z</time></trkpt><trkpt lat="44.9024783" lon="10.58561"><ele>24.0</ele><time>2026-03-23T11:12:13.967Z</time></trkpt><trkpt lat="44.902485" lon="10.5857267"><ele>24.0</ele><time>2026-03-23T11:12:15.967Z</time></trkpt><trkpt lat="44.9024933" lon="10.58584"><ele>24.0</ele><time>2026-03-23T11:12:17.967Z</time></trkpt><trkpt lat="44.9025067" lon="10.5859517"><ele>24.0</ele><time>2026-03-23T11:12:19.967Z</time></trkpt><trkpt lat="44.902525" lon="10.5860683"><ele>24.0</ele><time>2026-03-23T11:12:21.967Z</time></trkpt><trkpt lat="44.9025483" lon="10.5861817"><ele>24.0</ele><time>2026-03-23T11:12:23.967Z</time></trkpt><trkpt lat="44.90257" lon="10.5863"><ele>24.333333333333332</ele><time>2026-03-23T11:12:25.968Z</time></trkpt><trkpt lat="44.902585" lon="10.586415"><ele>24.666666666666664</ele><time>2026-03-23T11:12:27.967Z</time></trkpt><trkpt lat="44.90261" lon="10.58653"><ele>25.0</ele><time>2026-03-23T11:12:29.968Z</time></trkpt><trkpt lat="44.9026367" lon="10.58665"><ele>25.333333333333332</ele><time>2026-03-23T11:12:31.968Z</time></trkpt><trkpt lat="44.902665" lon="10.5867633"><ele>25.666666666666664</ele><time>2026-03-23T11:12:33.968Z</time></trkpt><trkpt lat="44.9026883" lon="10.5868733"><ele>26.0</ele><time>2026-03-23T11:12:35.967Z</time></trkpt><trkpt lat="44.902715" lon="10.5869917"><ele>26.166666666666664</ele><time>2026-03-23T11:12:37.967Z</time></trkpt><trkpt lat="44.9027383" lon="10.587105"><ele>26.333333333333332</ele><time>2026-03-23T11:12:39.967Z</time></trkpt><trkpt lat="44.9027667" lon="10.5872267"><ele>26.5</ele><time>2026-03-23T11:12:41.967Z</time></trkpt><trkpt lat="44.9027933" lon="10.5873367"><ele>26.666666666666664</ele><time>2026-03-23T11:12:43.968Z</time></trkpt><trkpt lat="44.902825" lon="10.5874517"><ele>26.833333333333332</ele><time>2026-03-23T11:12:45.968Z</time></trkpt><trkpt lat="44.9028433" lon="10.587565"><ele>27.0</ele><time>2026-03-23T11:12:47.968Z</time></trkpt><trkpt lat="44.9028683" lon="10.5876833"><ele>27.0</ele><time>2026-03-23T11:12:49.967Z</time></trkpt><trkpt lat="44.9028867" lon="10.5877967"><ele>27.0</ele><time>2026-03-23T11:12:51.967Z</time></trkpt><trkpt lat="44.9029067" lon="10.5879183"><ele>27.0</ele><time>2026-03-23T11:12:53.967Z</time></trkpt><trkpt lat="44.9029333" lon="10.5880383"><ele>27.0</ele><time>2026-03-23T11:12:55.968Z</time></trkpt><trkpt lat="44.9029583" lon="10.58816"><ele>27.0</ele><time>2026-03-23T11:12:57.967Z</time></trkpt><trkpt lat="44.9029733" lon="10.5882833"><ele>27.0</ele><time>2026-03-23T11:12:59.967Z</time></trkpt><trkpt lat="44.902985" lon="10.5884017"><ele>26.833333333333332</ele><time>2026-03-23T11:13:01.968Z</time></trkpt><trkpt lat="44.903" lon="10.5885167"><ele>26.666666666666664</ele><time>2026-03-23T11:13:03.967Z</time></trkpt><trkpt lat="44.9030133" lon="10.5886333"><ele>26.5</ele><time>2026-03-23T11:13:05.967Z</time></trkpt><trkpt lat="44.9030233" lon="10.5887533"><ele>26.333333333333332</ele><time>2026-03-23T11:13:07.967Z</time></trkpt><trkpt lat="44.9030333" lon="10.588875"><ele>26.166666666666664</ele><time>2026-03-23T11:13:09.967Z</time></trkpt><trkpt lat="44.9030417" lon="10.589"><ele>26.0</ele><time>2026-03-23T11:13:11.968Z</time></trkpt><trkpt lat="44.9030483" lon="10.5891283"><ele>26.0</ele><time>2026-03-23T11:13:13.967Z</time></trkpt><trkpt lat="44.90305" lon="10.589255"><ele>26.0</ele><time>2026-03-23T11:13:15.968Z</time></trkpt><trkpt lat="44.9030517" lon="10.589385"><ele>26.0</ele><time>2026-03-23T11:13:17.967Z</time></trkpt><trkpt lat="44.903055" lon="10.5895117"><ele>26.0</ele><time>2026-03-23T11:13:19.967Z</time></trkpt><trkpt lat="44.903055" lon="10.5896417"><ele>26.0</ele><time>2026-03-23T11:13:21.968Z</time></trkpt><trkpt lat="44.9030583" lon="10.5897717"><ele>26.0</ele><time>2026-03-23T11:13:23.967Z</time></trkpt><trkpt lat="44.9030533" lon="10.5899067"><ele>26.0</ele><time>2026-03-23T11:13:25.968Z</time></trkpt><trkpt lat="44.9030517" lon="10.5900317"><ele>26.0</ele><time>2026-03-23T11:13:27.967Z</time></trkpt><trkpt lat="44.9030567" lon="10.5901617"><ele>26.0</ele><time>2026-03-23T11:13:29.968Z</time></trkpt><trkpt lat="44.903055" lon="10.5902983"><ele>26.0</ele><time>2026-03-23T11:13:31.968Z</time></trkpt><trkpt lat="44.9030533" lon="10.590425"><ele>25.8</ele><time>2026-03-23T11:13:33.968Z</time></trkpt><trkpt lat="44.9030583" lon="10.59055"><ele>25.6</ele><time>2026-03-23T11:13:35.967Z</time></trkpt><trkpt lat="44.9030633" lon="10.590685"><ele>25.4</ele><time>2026-03-23T11:13:37.967Z</time></trkpt><trkpt lat="44.9030633" lon="10.59083"><ele>25.2</ele><time>2026-03-23T11:13:39.967Z</time></trkpt><trkpt lat="44.9030567" lon="10.5909717"><ele>25.0</ele><time>2026-03-23T11:13:41.967Z</time></trkpt><trkpt lat="44.9030533" lon="10.5911"><ele>24.8</ele><time>2026-03-23T11:13:43.968Z</time></trkpt><trkpt lat="44.90305" lon="10.59123"><ele>24.6</ele><time>2026-03-23T11:13:45.968Z</time></trkpt><trkpt lat="44.9030417" lon="10.5913717"><ele>24.4</ele><time>2026-03-23T11:13:47.967Z</time></trkpt><trkpt lat="44.9030383" lon="10.59151"><ele>24.2</ele><time>2026-03-23T11:13:49.967Z</time></trkpt><trkpt lat="44.90303" lon="10.5916467"><ele>24.0</ele><time>2026-03-23T11:13:51.967Z</time></trkpt><trkpt lat="44.9030117" lon="10.5917717"><ele>24.0</ele><time>2026-03-23T11:13:53.967Z</time></trkpt><trkpt lat="44.9029883" lon="10.5919"><ele>24.0</ele><time>2026-03-23T11:13:55.968Z</time></trkpt><trkpt lat="44.902955" lon="10.5920233"><ele>24.0</ele><time>2026-03-23T11:13:57.967Z</time></trkpt><trkpt lat="44.9029217" lon="10.5921433"><ele>24.0</ele><time>2026-03-23T11:13:59.967Z</time></trkpt><trkpt lat="44.9028833" lon="10.5922617"><ele>24.0</ele><time>2026-03-23T11:14:01.968Z</time></trkpt><trkpt lat="44.9028433" lon="10.592385"><ele>24.0</ele><time>2026-03-23T11:14:03.968Z</time></trkpt><trkpt lat="44.902805" lon="10.5925033"><ele>24.0</ele><time>2026-03-23T11:14:05.967Z</time></trkpt><trkpt lat="44.9027733" lon="10.5926217"><ele>24.0</ele><time>2026-03-23T11:14:07.968Z</time></trkpt><trkpt lat="44.9028133" lon="10.59273"><ele>24.0</ele><time>2026-03-23T11:14:09.968Z</time></trkpt><trkpt lat="44.902905" lon="10.5928"><ele>24.0</ele><time>2026-03-23T11:14:11.968Z</time></trkpt><trkpt lat="44.9030283" lon="10.5928333"><ele>23.799999999999997</ele><time>2026-03-23T11:14:13.967Z</time></trkpt><trkpt lat="44.9030917" lon="10.5928417"><ele>23.599999999999998</ele><time>2026-03-23T11:14:14.967Z</time></trkpt><trkpt lat="44.903205" lon="10.5928717"><ele>23.4</ele><time>2026-03-23T11:14:16.968Z</time></trkpt><trkpt lat="44.90331" lon="10.5928867"><ele>23.2</ele><time>2026-03-23T11:14:18.968Z</time></trkpt><trkpt lat="44.9034133" lon="10.592905"><ele>23.0</ele><time>2026-03-23T11:14:20.967Z</time></trkpt><trkpt lat="44.9035117" lon="10.5929317"><ele>23.0</ele><time>2026-03-23T11:14:22.967Z</time></trkpt><trkpt lat="44.90361" lon="10.59294"><ele>23.0</ele><time>2026-03-23T11:14:24.967Z</time></trkpt><trkpt lat="44.9037067" lon="10.5929717"><ele>23.0</ele><time>2026-03-23T11:14:26.967Z</time></trkpt><trkpt lat="44.9037983" lon="10.5929983"><ele>23.0</ele><time>2026-03-23T11:14:28.967Z</time></trkpt><trkpt lat="44.9039" lon="10.5930233"><ele>23.0</ele><time>2026-03-23T11:14:30.967Z</time></trkpt><trkpt lat="44.9039983" lon="10.59305"><ele>23.0</ele><time>2026-03-23T11:14:32.967Z</time></trkpt><trkpt lat="44.9041" lon="10.593075"><ele>23.0</ele><time>2026-03-23T11:14:34.968Z</time></trkpt><trkpt lat="44.9041933" lon="10.5931017"><ele>23.0</ele><time>2026-03-23T11:14:36.968Z</time></trkpt><trkpt lat="44.90429" lon="10.593125"><ele>23.0</ele><time>2026-03-23T11:14:38.968Z</time></trkpt><trkpt lat="44.9043883" lon="10.5931417"><ele>23.0</ele><time>2026-03-23T11:14:40.967Z</time></trkpt><trkpt lat="44.9044833" lon="10.5931617"><ele>22.799999999999997</ele><time>2026-03-23T11:14:42.968Z</time></trkpt><trkpt lat="44.9045733" lon="10.5931833"><ele>22.6</ele><time>2026-03-23T11:14:44.968Z</time></trkpt><trkpt lat="44.9046667" lon="10.593205"><ele>22.4</ele><time>2026-03-23T11:14:46.968Z</time></trkpt><trkpt lat="44.9047567" lon="10.59323"><ele>22.200000000000003</ele><time>2026-03-23T11:14:48.967Z</time></trkpt><trkpt lat="44.90485" lon="10.593275"><ele>22.0</ele><time>2026-03-23T11:14:50.968Z</time></trkpt><trkpt lat="44.9049317" lon="10.5933467"><ele>22.0</ele><time>2026-03-23T11:14:52.968Z</time></trkpt><trkpt lat="44.90501" lon="10.593425"><ele>22.0</ele><time>2026-03-23T11:14:54.968Z</time></trkpt><trkpt lat="44.9050883" lon="10.5934983"><ele>22.0</ele><time>2026-03-23T11:14:56.968Z</time></trkpt><trkpt lat="44.905165" lon="10.59357"><ele>22.0</ele><time>2026-03-23T11:14:58.967Z</time></trkpt><trkpt lat="44.9052367" lon="10.593645"><ele>22.0</ele><time>2026-03-23T11:15:00.967Z</time></trkpt><trkpt lat="44.905305" lon="10.5937117"><ele>22.5</ele><time>2026-03-23T11:15:02.967Z</time></trkpt><trkpt lat="44.9053767" lon="10.593785"><ele>23.0</ele><time>2026-03-23T11:15:04.967Z</time></trkpt><trkpt lat="44.9054467" lon="10.5938683"><ele>23.5</ele><time>2026-03-23T11:15:06.967Z</time></trkpt><trkpt lat="44.905515" lon="10.59394"><ele>24.0</ele><time>2026-03-23T11:15:08.967Z</time></trkpt><trkpt lat="44.905585" lon="10.5940017"><ele>24.500000000000004</ele><time>2026-03-23T11:15:10.968Z</time></trkpt><trkpt lat="44.905655" lon="10.5940667"><ele>25.0</ele><time>2026-03-23T11:15:12.967Z</time></trkpt><trkpt lat="44.9057233" lon="10.5941383"><ele>25.000000000000004</ele><time>2026-03-23T11:15:14.968Z</time></trkpt><trkpt lat="44.90579" lon="10.5942033"><ele>25.0</ele><time>2026-03-23T11:15:16.967Z</time></trkpt><trkpt lat="44.9058467" lon="10.594285"><ele>25.0</ele><time>2026-03-23T11:15:18.967Z</time></trkpt><trkpt lat="44.9058817" lon="10.594385"><ele>25.0</ele><time>2026-03-23T11:15:20.967Z</time></trkpt><trkpt lat="44.9059283" lon="10.594485"><ele>25.000000000000004</ele><time>2026-03-23T11:15:22.968Z</time></trkpt><trkpt lat="44.9059733" lon="10.5946"><ele>25.0</ele><time>2026-03-23T11:15:24.967Z</time></trkpt><trkpt lat="44.9060183" lon="10.594705"><ele>24.500000000000004</ele><time>2026-03-23T11:15:26.967Z</time></trkpt><trkpt lat="44.90607" lon="10.594795"><ele>24.0</ele><time>2026-03-23T11:15:28.968Z</time></trkpt><trkpt lat="44.9061217" lon="10.5948733"><ele>23.5</ele><time>2026-03-23T11:15:30.967Z</time></trkpt><trkpt lat="44.9061667" lon="10.594965"><ele>23.0</ele><time>2026-03-23T11:15:32.968Z</time></trkpt><trkpt lat="44.9062183" lon="10.5950633"><ele>22.5</ele><time>2026-03-23T11:15:34.967Z</time></trkpt><trkpt lat="44.9062567" lon="10.5951617"><ele>22.0</ele><time>2026-03-23T11:15:36.967Z</time></trkpt><trkpt lat="44.90629" lon="10.5952667"><ele>22.333333333333332</ele><time>2026-03-23T11:15:38.968Z</time></trkpt><trkpt lat="44.906305" lon="10.595365"><ele>22.666666666666664</ele><time>2026-03-23T11:15:40.967Z</time></trkpt><trkpt lat="44.90632" lon="10.5954733"><ele>23.0</ele><time>2026-03-23T11:15:42.968Z</time></trkpt><trkpt lat="44.9063233" lon="10.5955933"><ele>23.333333333333332</ele><time>2026-03-23T11:15:44.968Z</time></trkpt><trkpt lat="44.9063233" lon="10.5957183"><ele>23.666666666666668</ele><time>2026-03-23T11:15:46.967Z</time></trkpt><trkpt lat="44.9063233" lon="10.5958283"><ele>24.0</ele><time>2026-03-23T11:15:48.968Z</time></trkpt><trkpt lat="44.90633" lon="10.59594"><ele>24.0</ele><time>2026-03-23T11:15:50.968Z</time></trkpt><trkpt lat="44.9063333" lon="10.59606"><ele>24.0</ele><time>2026-03-23T11:15:52.968Z</time></trkpt><trkpt lat="44.9063367" lon="10.596165"><ele>24.0</ele><time>2026-03-23T11:15:54.968Z</time></trkpt><trkpt lat="44.9063433" lon="10.596285"><ele>24.0</ele><time>2026-03-23T11:15:56.968Z</time></trkpt><trkpt lat="44.9063483" lon="10.5964017"><ele>24.0</ele><time>2026-03-23T11:15:58.968Z</time></trkpt><trkpt lat="44.9063517" lon="10.5965133"><ele>24.0</ele><time>2026-03-23T11:16:00.968Z</time></trkpt><trkpt lat="44.9063533" lon="10.5966333"><ele>23.833333333333332</ele><time>2026-03-23T11:16:02.967Z</time></trkpt><trkpt lat="44.9063717" lon="10.5967283"><ele>23.666666666666668</ele><time>2026-03-23T11:16:04.968Z</time></trkpt><trkpt lat="44.9063917" lon="10.5968333"><ele>23.5</ele><time>2026-03-23T11:16:06.967Z</time></trkpt><trkpt lat="44.90643" lon="10.5969267"><ele>23.333333333333336</ele><time>2026-03-23T11:16:08.967Z</time></trkpt><trkpt lat="44.9064883" lon="10.59701"><ele>23.166666666666668</ele><time>2026-03-23T11:16:10.967Z</time></trkpt><trkpt lat="44.90655" lon="10.59709"><ele>23.0</ele><time>2026-03-23T11:16:12.967Z</time></trkpt><trkpt lat="44.9066033" lon="10.597145"><ele>23.0</ele><time>2026-03-23T11:16:14.968Z</time></trkpt><trkpt lat="44.906665" lon="10.5972167"><ele>23.0</ele><time>2026-03-23T11:16:16.967Z</time></trkpt><trkpt lat="44.9067233" lon="10.5972917"><ele>23.0</ele><time>2026-03-23T11:16:18.968Z</time></trkpt><trkpt lat="44.9067817" lon="10.5973633"><ele>23.0</ele><time>2026-03-23T11:16:20.967Z</time></trkpt><trkpt lat="44.906835" lon="10.5974367"><ele>23.0</ele><time>2026-03-23T11:16:22.968Z</time></trkpt><trkpt lat="44.9068917" lon="10.5974983"><ele>23.0</ele><time>2026-03-23T11:16:24.967Z</time></trkpt><trkpt lat="44.9069483" lon="10.5975683"><ele>23.166666666666668</ele><time>2026-03-23T11:16:26.967Z</time></trkpt><trkpt lat="44.907015" lon="10.597675"><ele>23.333333333333336</ele><time>2026-03-23T11:16:29.968Z</time></trkpt><trkpt lat="44.9070633" lon="10.5977633"><ele>23.5</ele><time>2026-03-23T11:16:31.967Z</time></trkpt><trkpt lat="44.9071133" lon="10.5978417"><ele>23.666666666666668</ele><time>2026-03-23T11:16:33.968Z</time></trkpt><trkpt lat="44.9071517" lon="10.5979333"><ele>23.833333333333332</ele><time>2026-03-23T11:16:35.968Z</time></trkpt><trkpt lat="44.9071917" lon="10.59802"><ele>24.0</ele><time>2026-03-23T11:16:37.967Z</time></trkpt><trkpt lat="44.9072333" lon="10.5981133"><ele>24.0</ele><time>2026-03-23T11:16:39.967Z</time></trkpt><trkpt lat="44.9072767" lon="10.598205"><ele>24.0</ele><time>2026-03-23T11:16:41.968Z</time></trkpt><trkpt lat="44.9073117" lon="10.5983017"><ele>24.0</ele><time>2026-03-23T11:16:43.967Z</time></trkpt><trkpt lat="44.90734" lon="10.5984017"><ele>24.0</ele><time>2026-03-23T11:16:45.968Z</time></trkpt><trkpt lat="44.9073733" lon="10.5985067"><ele>24.0</ele><time>2026-03-23T11:16:47.968Z</time></trkpt><trkpt lat="44.907405" lon="10.5986017"><ele>24.0</ele><time>2026-03-23T11:16:49.967Z</time></trkpt><trkpt lat="44.9074333" lon="10.5987083"><ele>23.833333333333332</ele><time>2026-03-23T11:16:51.968Z</time></trkpt><trkpt lat="44.9074717" lon="10.5988117"><ele>23.666666666666668</ele><time>2026-03-23T11:16:53.967Z</time></trkpt><trkpt lat="44.9075017" lon="10.59891"><ele>23.5</ele><time>2026-03-23T11:16:55.967Z</time></trkpt><trkpt lat="44.9075333" lon="10.59901"><ele>23.333333333333336</ele><time>2026-03-23T11:16:57.969Z</time></trkpt><trkpt lat="44.9075567" lon="10.5991017"><ele>23.166666666666668</ele><time>2026-03-23T11:16:59.968Z</time></trkpt><trkpt lat="44.9075933" lon="10.599205"><ele>23.0</ele><time>2026-03-23T11:17:01.968Z</time></trkpt><trkpt lat="44.907625" lon="10.5993117"><ele>22.833333333333336</ele><time>2026-03-23T11:17:03.969Z</time></trkpt><trkpt lat="44.9076667" lon="10.5994167"><ele>22.666666666666668</ele><time>2026-03-23T11:17:05.968Z</time></trkpt><trkpt lat="44.9077333" lon="10.599485"><ele>22.5</ele><time>2026-03-23T11:17:07.969Z</time></trkpt><trkpt lat="44.9078083" lon="10.5995483"><ele>22.333333333333332</ele><time>2026-03-23T11:17:09.969Z</time></trkpt><trkpt lat="44.9078833" lon="10.5995783"><ele>22.166666666666664</ele><time>2026-03-23T11:17:11.969Z</time></trkpt><trkpt lat="44.907965" lon="10.5996033"><ele>22.0</ele><time>2026-03-23T11:17:13.968Z</time></trkpt><trkpt lat="44.9080533" lon="10.599635"><ele>22.0</ele><time>2026-03-23T11:17:15.969Z</time></trkpt><trkpt lat="44.908135" lon="10.5996583"><ele>22.0</ele><time>2026-03-23T11:17:17.969Z</time></trkpt><trkpt lat="44.9082183" lon="10.5996867"><ele>22.0</ele><time>2026-03-23T11:17:19.968Z</time></trkpt><trkpt lat="44.9083017" lon="10.5997167"><ele>22.0</ele><time>2026-03-23T11:17:21.969Z</time></trkpt><trkpt lat="44.90839" lon="10.5997517"><ele>22.0</ele><time>2026-03-23T11:17:23.968Z</time></trkpt><trkpt lat="44.9084683" lon="10.599785"><ele>22.0</ele><time>2026-03-23T11:17:25.968Z</time></trkpt><trkpt lat="44.908555" lon="10.59982"><ele>22.166666666666664</ele><time>2026-03-23T11:17:27.969Z</time></trkpt><trkpt lat="44.9086333" lon="10.59986"><ele>22.333333333333332</ele><time>2026-03-23T11:17:29.968Z</time></trkpt><trkpt lat="44.9087067" lon="10.5999117"><ele>22.5</ele><time>2026-03-23T11:17:31.969Z</time></trkpt><trkpt lat="44.9087733" lon="10.5999817"><ele>22.666666666666668</ele><time>2026-03-23T11:17:33.968Z</time></trkpt><trkpt lat="44.908835" lon="10.60006"><ele>22.833333333333336</ele><time>2026-03-23T11:17:35.968Z</time></trkpt><trkpt lat="44.9088967" lon="10.600135"><ele>23.0</ele><time>2026-03-23T11:17:37.969Z</time></trkpt><trkpt lat="44.90895" lon="10.600215"><ele>23.0</ele><time>2026-03-23T11:17:39.969Z</time></trkpt><trkpt lat="44.9089967" lon="10.6003"><ele>23.0</ele><time>2026-03-23T11:17:41.968Z</time></trkpt><trkpt lat="44.9090367" lon="10.6004083"><ele>23.0</ele><time>2026-03-23T11:17:43.968Z</time></trkpt><trkpt lat="44.90908" lon="10.600505"><ele>23.0</ele><time>2026-03-23T11:17:45.969Z</time></trkpt><trkpt lat="44.9091233" lon="10.600605"><ele>23.0</ele><time>2026-03-23T11:17:47.969Z</time></trkpt><trkpt lat="44.909175" lon="10.6007067"><ele>23.0</ele><time>2026-03-23T11:17:49.968Z</time></trkpt><trkpt lat="44.9092183" lon="10.600805"><ele>23.0</ele><time>2026-03-23T11:17:51.969Z</time></trkpt><trkpt lat="44.90926" lon="10.6008917"><ele>23.0</ele><time>2026-03-23T11:17:53.968Z</time></trkpt><trkpt lat="44.909305" lon="10.6009867"><ele>23.0</ele><time>2026-03-23T11:17:55.969Z</time></trkpt><trkpt lat="44.909345" lon="10.6010767"><ele>23.0</ele><time>2026-03-23T11:17:57.968Z</time></trkpt><trkpt lat="44.90939" lon="10.601165"><ele>23.0</ele><time>2026-03-23T11:17:59.969Z</time></trkpt><trkpt lat="44.909455" lon="10.6012333"><ele>23.0</ele><time>2026-03-23T11:18:01.969Z</time></trkpt><trkpt lat="44.9095233" lon="10.6012833"><ele>23.0</ele><time>2026-03-23T11:18:03.969Z</time></trkpt><trkpt lat="44.90961" lon="10.601325"><ele>23.0</ele><time>2026-03-23T11:18:05.969Z</time></trkpt><trkpt lat="44.9097017" lon="10.6013717"><ele>23.0</ele><time>2026-03-23T11:18:07.969Z</time></trkpt><trkpt lat="44.9097967" lon="10.6014"><ele>23.0</ele><time>2026-03-23T11:18:09.968Z</time></trkpt><trkpt lat="44.9098833" lon="10.6014467"><ele>23.0</ele><time>2026-03-23T11:18:11.968Z</time></trkpt><trkpt lat="44.909965" lon="10.601495"><ele>23.0</ele><time>2026-03-23T11:18:13.968Z</time></trkpt><trkpt lat="44.9100417" lon="10.6015333"><ele>23.0</ele><time>2026-03-23T11:18:15.968Z</time></trkpt><trkpt lat="44.9101167" lon="10.60157"><ele>23.0</ele><time>2026-03-23T11:18:17.968Z</time></trkpt><trkpt lat="44.9101917" lon="10.6016033"><ele>23.0</ele><time>2026-03-23T11:18:19.968Z</time></trkpt><trkpt lat="44.9102717" lon="10.601645"><ele>23.0</ele><time>2026-03-23T11:18:21.969Z</time></trkpt><trkpt lat="44.9103433" lon="10.601685"><ele>23.0</ele><time>2026-03-23T11:18:23.969Z</time></trkpt><trkpt lat="44.9104117" lon="10.601725"><ele>23.166666666666668</ele><time>2026-03-23T11:18:25.969Z</time></trkpt><trkpt lat="44.9104817" lon="10.6017617"><ele>23.333333333333336</ele><time>2026-03-23T11:18:27.968Z</time></trkpt><trkpt lat="44.9105483" lon="10.6017933"><ele>23.5</ele><time>2026-03-23T11:18:29.968Z</time></trkpt><trkpt lat="44.91062" lon="10.6018483"><ele>23.666666666666668</ele><time>2026-03-23T11:18:31.969Z</time></trkpt><trkpt lat="44.91067" lon="10.6019317"><ele>23.833333333333332</ele><time>2026-03-23T11:18:33.969Z</time></trkpt><trkpt lat="44.9106833" lon="10.6020283"><ele>24.0</ele><time>2026-03-23T11:18:35.968Z</time></trkpt><trkpt lat="44.91069" lon="10.6021433"><ele>24.0</ele><time>2026-03-23T11:18:37.969Z</time></trkpt><trkpt lat="44.9106967" lon="10.6022567"><ele>24.0</ele><time>2026-03-23T11:18:39.968Z</time></trkpt><trkpt lat="44.9107067" lon="10.6023667"><ele>24.0</ele><time>2026-03-23T11:18:41.969Z</time></trkpt><trkpt lat="44.9107233" lon="10.6024717"><ele>24.0</ele><time>2026-03-23T11:18:43.969Z</time></trkpt><trkpt lat="44.9107283" lon="10.6025833"><ele>24.0</ele><time>2026-03-23T11:18:45.969Z</time></trkpt><trkpt lat="44.9107317" lon="10.602695"><ele>24.0</ele><time>2026-03-23T11:18:47.968Z</time></trkpt><trkpt lat="44.91074" lon="10.6028117"><ele>24.0</ele><time>2026-03-23T11:18:49.968Z</time></trkpt><trkpt lat="44.91074" lon="10.6029267"><ele>24.0</ele><time>2026-03-23T11:18:51.969Z</time></trkpt><trkpt lat="44.910745" lon="10.6030317"><ele>24.0</ele><time>2026-03-23T11:18:53.968Z</time></trkpt><trkpt lat="44.91076" lon="10.6031417"><ele>24.0</ele><time>2026-03-23T11:18:55.968Z</time></trkpt><trkpt lat="44.9107667" lon="10.60325"><ele>24.0</ele><time>2026-03-23T11:18:57.969Z</time></trkpt><trkpt lat="44.9107683" lon="10.6033617"><ele>24.0</ele><time>2026-03-23T11:18:59.969Z</time></trkpt><trkpt lat="44.910775" lon="10.6034717"><ele>24.0</ele><time>2026-03-23T11:19:01.969Z</time></trkpt><trkpt lat="44.9107883" lon="10.6035817"><ele>24.0</ele><time>2026-03-23T11:19:03.969Z</time></trkpt><trkpt lat="44.9107967" lon="10.603695"><ele>24.0</ele><time>2026-03-23T11:19:05.969Z</time></trkpt><trkpt lat="44.9107983" lon="10.6038"><ele>24.0</ele><time>2026-03-23T11:19:07.968Z</time></trkpt><trkpt lat="44.9108083" lon="10.6039133"><ele>24.0</ele><time>2026-03-23T11:19:09.968Z</time></trkpt><trkpt lat="44.9108333" lon="10.60402"><ele>24.0</ele><time>2026-03-23T11:19:11.968Z</time></trkpt><trkpt lat="44.910885" lon="10.60411"><ele>23.666666666666668</ele><time>2026-03-23T11:19:13.969Z</time></trkpt><trkpt lat="44.9109433" lon="10.604175"><ele>23.333333333333332</ele><time>2026-03-23T11:19:15.968Z</time></trkpt><trkpt lat="44.9110133" lon="10.60422"><ele>23.0</ele><time>2026-03-23T11:19:17.968Z</time></trkpt><trkpt lat="44.9110867" lon="10.6042467"><ele>22.666666666666664</ele><time>2026-03-23T11:19:19.968Z</time></trkpt><trkpt lat="44.9111667" lon="10.6042783"><ele>22.333333333333332</ele><time>2026-03-23T11:19:21.968Z</time></trkpt><trkpt lat="44.9112433" lon="10.60431"><ele>22.0</ele><time>2026-03-23T11:19:23.968Z</time></trkpt><trkpt lat="44.91132" lon="10.6043433"><ele>22.0</ele><time>2026-03-23T11:19:25.968Z</time></trkpt><trkpt lat="44.9113917" lon="10.604375"><ele>22.0</ele><time>2026-03-23T11:19:27.968Z</time></trkpt><trkpt lat="44.9114683" lon="10.604405"><ele>22.0</ele><time>2026-03-23T11:19:29.968Z</time></trkpt><trkpt lat="44.9115383" lon="10.6044333"><ele>22.0</ele><time>2026-03-23T11:19:31.968Z</time></trkpt><trkpt lat="44.91162" lon="10.6044633"><ele>22.0</ele><time>2026-03-23T11:19:33.969Z</time></trkpt><trkpt lat="44.9117017" lon="10.6045083"><ele>22.0</ele><time>2026-03-23T11:19:35.968Z</time></trkpt><trkpt lat="44.9117567" lon="10.6045983"><ele>22.0</ele><time>2026-03-23T11:19:37.969Z</time></trkpt><trkpt lat="44.911775" lon="10.6046983"><ele>22.0</ele><time>2026-03-23T11:19:39.969Z</time></trkpt><trkpt lat="44.9118" lon="10.60478"><ele>22.0</ele><time>2026-03-23T11:19:41.969Z</time></trkpt><trkpt lat="44.9118267" lon="10.6048883"><ele>22.0</ele><time>2026-03-23T11:19:43.968Z</time></trkpt><trkpt lat="44.9118567" lon="10.6049983"><ele>22.0</ele><time>2026-03-23T11:19:45.968Z</time></trkpt><trkpt lat="44.91189" lon="10.6051133"><ele>22.0</ele><time>2026-03-23T11:19:47.968Z</time></trkpt><trkpt lat="44.91192" lon="10.605215"><ele>22.333333333333332</ele><time>2026-03-23T11:19:49.968Z</time></trkpt><trkpt lat="44.9119517" lon="10.6053333"><ele>22.666666666666664</ele><time>2026-03-23T11:19:51.968Z</time></trkpt><trkpt lat="44.9119833" lon="10.60544"><ele>23.0</ele><time>2026-03-23T11:19:53.969Z</time></trkpt><trkpt lat="44.9120067" lon="10.605545"><ele>23.333333333333332</ele><time>2026-03-23T11:19:55.968Z</time></trkpt><trkpt lat="44.9120333" lon="10.605645"><ele>23.666666666666668</ele><time>2026-03-23T11:19:57.968Z</time></trkpt><trkpt lat="44.9120583" lon="10.6057483"><ele>24.0</ele><time>2026-03-23T11:19:59.969Z</time></trkpt><trkpt lat="44.9120833" lon="10.605855"><ele>24.0</ele><time>2026-03-23T11:20:01.969Z</time></trkpt><trkpt lat="44.9121083" lon="10.6059483"><ele>24.0</ele><time>2026-03-23T11:20:03.968Z</time></trkpt><trkpt lat="44.912135" lon="10.6060383"><ele>24.0</ele><time>2026-03-23T11:20:05.968Z</time></trkpt><trkpt lat="44.9121667" lon="10.6061333"><ele>24.0</ele><time>2026-03-23T11:20:07.969Z</time></trkpt><trkpt lat="44.9122017" lon="10.6062217"><ele>24.0</ele><time>2026-03-23T11:20:09.969Z</time></trkpt><trkpt lat="44.9122383" lon="10.6063117"><ele>24.0</ele><time>2026-03-23T11:20:11.968Z</time></trkpt><trkpt lat="44.912295" lon="10.6064233"><ele>23.999999999999996</ele><time>2026-03-23T11:20:14.969Z</time></trkpt><trkpt lat="44.9123417" lon="10.6065033"><ele>24.0</ele><time>2026-03-23T11:20:16.968Z</time></trkpt><trkpt lat="44.9123967" lon="10.606575"><ele>24.0</ele><time>2026-03-23T11:20:18.969Z</time></trkpt><trkpt lat="44.9124467" lon="10.6066483"><ele>24.0</ele><time>2026-03-23T11:20:20.968Z</time></trkpt><trkpt lat="44.9124967" lon="10.6067317"><ele>24.0</ele><time>2026-03-23T11:20:22.968Z</time></trkpt><trkpt lat="44.91255" lon="10.6068067"><ele>23.999999999999996</ele><time>2026-03-23T11:20:24.968Z</time></trkpt><trkpt lat="44.9125933" lon="10.6068783"><ele>24.0</ele><time>2026-03-23T11:20:26.969Z</time></trkpt><trkpt lat="44.912645" lon="10.606955"><ele>24.333333333333332</ele><time>2026-03-23T11:20:28.968Z</time></trkpt><trkpt lat="44.9126983" lon="10.6070333"><ele>24.666666666666664</ele><time>2026-03-23T11:20:30.968Z</time></trkpt><trkpt lat="44.9127467" lon="10.6071083"><ele>25.0</ele><time>2026-03-23T11:20:32.968Z</time></trkpt><trkpt lat="44.9128" lon="10.6071817"><ele>25.333333333333332</ele><time>2026-03-23T11:20:34.968Z</time></trkpt><trkpt lat="44.9128517" lon="10.6072567"><ele>25.666666666666664</ele><time>2026-03-23T11:20:36.968Z</time></trkpt><trkpt lat="44.9129117" lon="10.607335"><ele>26.0</ele><time>2026-03-23T11:20:38.968Z</time></trkpt><trkpt lat="44.91297" lon="10.607425"><ele>25.999999999999996</ele><time>2026-03-23T11:20:40.969Z</time></trkpt><trkpt lat="44.9130233" lon="10.6075017"><ele>26.0</ele><time>2026-03-23T11:20:42.969Z</time></trkpt><trkpt lat="44.913075" lon="10.6075967"><ele>26.0</ele><time>2026-03-23T11:20:44.968Z</time></trkpt><trkpt lat="44.913125" lon="10.6076917"><ele>26.0</ele><time>2026-03-23T11:20:46.968Z</time></trkpt><trkpt lat="44.913165" lon="10.6077917"><ele>25.999999999999996</ele><time>2026-03-23T11:20:48.969Z</time></trkpt><trkpt lat="44.9132083" lon="10.60789"><ele>26.0</ele><time>2026-03-23T11:20:50.968Z</time></trkpt><trkpt lat="44.913255" lon="10.6079717"><ele>25.833333333333332</ele><time>2026-03-23T11:20:52.969Z</time></trkpt><trkpt lat="44.9132967" lon="10.608065"><ele>25.666666666666664</ele><time>2026-03-23T11:20:54.968Z</time></trkpt><trkpt lat="44.9133467" lon="10.60816"><ele>25.5</ele><time>2026-03-23T11:20:56.969Z</time></trkpt><trkpt lat="44.91339" lon="10.6082533"><ele>25.333333333333336</ele><time>2026-03-23T11:20:58.968Z</time></trkpt><trkpt lat="44.9134283" lon="10.60835"><ele>25.166666666666668</ele><time>2026-03-23T11:21:00.968Z</time></trkpt><trkpt lat="44.9134733" lon="10.60845"><ele>25.0</ele><time>2026-03-23T11:21:02.969Z</time></trkpt><trkpt lat="44.91351" lon="10.6085483"><ele>25.000000000000004</ele><time>2026-03-23T11:21:04.969Z</time></trkpt><trkpt lat="44.9135333" lon="10.6086517"><ele>25.0</ele><time>2026-03-23T11:21:06.968Z</time></trkpt><trkpt lat="44.9135567" lon="10.6087517"><ele>25.0</ele><time>2026-03-23T11:21:08.969Z</time></trkpt><trkpt lat="44.9135817" lon="10.608855"><ele>25.0</ele><time>2026-03-23T11:21:10.969Z</time></trkpt><trkpt lat="44.9135983" lon="10.60896"><ele>25.000000000000004</ele><time>2026-03-23T11:21:12.969Z</time></trkpt><trkpt lat="44.9136133" lon="10.6090667"><ele>25.0</ele><time>2026-03-23T11:21:14.969Z</time></trkpt><trkpt lat="44.9136233" lon="10.6091833"><ele>24.666666666666668</ele><time>2026-03-23T11:21:16.968Z</time></trkpt><trkpt lat="44.91363" lon="10.6092933"><ele>24.333333333333336</ele><time>2026-03-23T11:21:18.969Z</time></trkpt><trkpt lat="44.9136333" lon="10.609405"><ele>24.0</ele><time>2026-03-23T11:21:20.969Z</time></trkpt><trkpt lat="44.9136317" lon="10.6095117"><ele>23.666666666666668</ele><time>2026-03-23T11:21:22.968Z</time></trkpt><trkpt lat="44.91363" lon="10.609635"><ele>23.333333333333336</ele><time>2026-03-23T11:21:24.969Z</time></trkpt><trkpt lat="44.913625" lon="10.609745"><ele>23.0</ele><time>2026-03-23T11:21:26.969Z</time></trkpt><trkpt lat="44.9136233" lon="10.609865"><ele>23.666666666666668</ele><time>2026-03-23T11:21:28.969Z</time></trkpt><trkpt lat="44.9136283" lon="10.6099767"><ele>24.333333333333336</ele><time>2026-03-23T11:21:30.969Z</time></trkpt><trkpt lat="44.9136233" lon="10.610095"><ele>25.0</ele><time>2026-03-23T11:21:32.968Z</time></trkpt><trkpt lat="44.9136283" lon="10.6102067"><ele>25.666666666666668</ele><time>2026-03-23T11:21:34.969Z</time></trkpt><trkpt lat="44.9136333" lon="10.6103267"><ele>26.333333333333332</ele><time>2026-03-23T11:21:36.968Z</time></trkpt><trkpt lat="44.913635" lon="10.61045"><ele>27.0</ele><time>2026-03-23T11:21:38.968Z</time></trkpt><trkpt lat="44.9136433" lon="10.61056"><ele>27.333333333333332</ele><time>2026-03-23T11:21:40.969Z</time></trkpt><trkpt lat="44.91367" lon="10.6106617"><ele>27.666666666666664</ele><time>2026-03-23T11:21:42.968Z</time></trkpt><trkpt lat="44.9136933" lon="10.6107717"><ele>28.0</ele><time>2026-03-23T11:21:44.968Z</time></trkpt><trkpt lat="44.91372" lon="10.61088"><ele>28.333333333333332</ele><time>2026-03-23T11:21:46.968Z</time></trkpt><trkpt lat="44.913745" lon="10.6109883"><ele>28.666666666666664</ele><time>2026-03-23T11:21:48.969Z</time></trkpt><trkpt lat="44.91377" lon="10.6111017"><ele>29.0</ele><time>2026-03-23T11:21:50.968Z</time></trkpt><trkpt lat="44.9137917" lon="10.6112017"><ele>28.999999999999996</ele><time>2026-03-23T11:21:52.969Z</time></trkpt><trkpt lat="44.9138217" lon="10.6113083"><ele>29.0</ele><time>2026-03-23T11:21:54.968Z</time></trkpt><trkpt lat="44.9138417" lon="10.6114183"><ele>29.0</ele><time>2026-03-23T11:21:56.968Z</time></trkpt><trkpt lat="44.9138717" lon="10.61152"><ele>29.0</ele><time>2026-03-23T11:21:58.968Z</time></trkpt><trkpt lat="44.913895" lon="10.61164"><ele>28.999999999999996</ele><time>2026-03-23T11:22:00.968Z</time></trkpt><trkpt lat="44.91392" lon="10.611745"><ele>29.0</ele><time>2026-03-23T11:22:02.969Z</time></trkpt><trkpt lat="44.91395" lon="10.6118567"><ele>28.999999999999996</ele><time>2026-03-23T11:22:04.968Z</time></trkpt><trkpt lat="44.9139783" lon="10.6119683"><ele>29.0</ele><time>2026-03-23T11:22:06.968Z</time></trkpt><trkpt lat="44.9140117" lon="10.6120717"><ele>29.0</ele><time>2026-03-23T11:22:08.968Z</time></trkpt><trkpt lat="44.914045" lon="10.6121767"><ele>29.0</ele><time>2026-03-23T11:22:10.969Z</time></trkpt><trkpt lat="44.9140767" lon="10.6122883"><ele>28.999999999999996</ele><time>2026-03-23T11:22:12.968Z</time></trkpt><trkpt lat="44.914105" lon="10.612395"><ele>29.0</ele><time>2026-03-23T11:22:14.969Z</time></trkpt><trkpt lat="44.91414" lon="10.6125133"><ele>28.833333333333332</ele><time>2026-03-23T11:22:16.969Z</time></trkpt><trkpt lat="44.91417" lon="10.6126183"><ele>28.666666666666664</ele><time>2026-03-23T11:22:18.968Z</time></trkpt><trkpt lat="44.9142" lon="10.6127233"><ele>28.5</ele><time>2026-03-23T11:22:20.968Z</time></trkpt><trkpt lat="44.91423" lon="10.61282"><ele>28.333333333333336</ele><time>2026-03-23T11:22:22.969Z</time></trkpt><trkpt lat="44.9142567" lon="10.612925"><ele>28.166666666666668</ele><time>2026-03-23T11:22:24.968Z</time></trkpt><trkpt lat="44.91429" lon="10.6130317"><ele>28.0</ele><time>2026-03-23T11:22:26.968Z</time></trkpt><trkpt lat="44.9143233" lon="10.6131317"><ele>28.000000000000004</ele><time>2026-03-23T11:22:28.968Z</time></trkpt><trkpt lat="44.9143583" lon="10.6132383"><ele>28.0</ele><time>2026-03-23T11:22:30.969Z</time></trkpt><trkpt lat="44.9143883" lon="10.6133383"><ele>28.0</ele><time>2026-03-23T11:22:32.969Z</time></trkpt><trkpt lat="44.9144117" lon="10.6134467"><ele>28.0</ele><time>2026-03-23T11:22:34.968Z</time></trkpt><trkpt lat="44.9144417" lon="10.6135517"><ele>28.000000000000004</ele><time>2026-03-23T11:22:36.968Z</time></trkpt><trkpt lat="44.91447" lon="10.6136583"><ele>28.0</ele><time>2026-03-23T11:22:38.968Z</time></trkpt><trkpt lat="44.9145017" lon="10.6137583"><ele>27.714285714285715</ele><time>2026-03-23T11:22:40.969Z</time></trkpt><trkpt lat="44.91453" lon="10.6138533"><ele>27.42857142857143</ele><time>2026-03-23T11:22:42.968Z</time></trkpt><trkpt lat="44.9145583" lon="10.613955"><ele>27.142857142857142</ele><time>2026-03-23T11:22:44.968Z</time></trkpt><trkpt lat="44.9145817" lon="10.6140383"><ele>26.857142857142858</ele><time>2026-03-23T11:22:46.968Z</time></trkpt><trkpt lat="44.914595" lon="10.61415"><ele>26.571428571428573</ele><time>2026-03-23T11:22:49.968Z</time></trkpt><trkpt lat="44.9146717" lon="10.6141467"><ele>26.285714285714285</ele><time>2026-03-23T11:23:33.968Z</time></trkpt><trkpt lat="44.9147267" lon="10.614095"><ele>26.0</ele><time>2026-03-23T11:23:35.968Z</time></trkpt><trkpt lat="44.9148133" lon="10.6140417"><ele>26.0</ele><time>2026-03-23T11:23:37.968Z</time></trkpt><trkpt lat="44.9149217" lon="10.614"><ele>26.0</ele><time>2026-03-23T11:23:39.969Z</time></trkpt><trkpt lat="44.91504" lon="10.61395"><ele>26.0</ele><time>2026-03-23T11:23:41.968Z</time></trkpt><trkpt lat="44.91516" lon="10.6139283"><ele>26.0</ele><time>2026-03-23T11:23:43.969Z</time></trkpt><trkpt lat="44.9152733" lon="10.6139333"><ele>25.166666666666664</ele><time>2026-03-23T11:23:45.969Z</time></trkpt><trkpt lat="44.91535" lon="10.6139533"><ele>24.333333333333332</ele><time>2026-03-23T11:23:47.968Z</time></trkpt><trkpt lat="44.91542" lon="10.6140067"><ele>23.5</ele><time>2026-03-23T11:23:50.969Z</time></trkpt><trkpt lat="44.9154383" lon="10.6141083"><ele>22.666666666666664</ele><time>2026-03-23T11:23:53.968Z</time></trkpt><trkpt lat="44.9153933" lon="10.6141833"><ele>21.833333333333332</ele><time>2026-03-23T11:23:55.969Z</time></trkpt><trkpt lat="44.9153583" lon="10.6142733"><ele>21.0</ele><time>2026-03-23T11:23:57.968Z</time></trkpt><trkpt lat="44.9153517" lon="10.614385"><ele>21.0</ele><time>2026-03-23T11:23:59.968Z</time></trkpt><trkpt lat="44.9153283" lon="10.61448"><ele>21.0</ele><time>2026-03-23T11:24:01.968Z</time></trkpt><trkpt lat="44.9152983" lon="10.6145633"><ele>21.0</ele><time>2026-03-23T11:24:03.969Z</time></trkpt><trkpt lat="44.9152567" lon="10.6146567"><ele>21.0</ele><time>2026-03-23T11:24:06.968Z</time></trkpt><trkpt lat="44.91524" lon="10.6147517"><ele>21.0</ele><time>2026-03-23T11:24:08.969Z</time></trkpt><trkpt lat="44.9152183" lon="10.6148533"><ele>21.0</ele><time>2026-03-23T11:24:10.968Z</time></trkpt><trkpt lat="44.9152067" lon="10.6149483"><ele>21.0</ele><time>2026-03-23T11:24:12.968Z</time></trkpt><trkpt lat="44.9151783" lon="10.615065"><ele>21.0</ele><time>2026-03-23T11:24:15.968Z</time></trkpt><trkpt lat="44.9151533" lon="10.6151483"><ele>21.0</ele><time>2026-03-23T11:24:17.968Z</time></trkpt><trkpt lat="44.91512" lon="10.6152333"><ele>21.0</ele><time>2026-03-23T11:24:19.968Z</time></trkpt><trkpt lat="44.9150917" lon="10.6153367"><ele>21.0</ele><time>2026-03-23T11:24:22.969Z</time></trkpt><trkpt lat="44.9150567" lon="10.6154217"><ele>21.0</ele><time>2026-03-23T11:24:25.969Z</time></trkpt><trkpt lat="44.915025" lon="10.615535"><ele>21.0</ele><time>2026-03-23T11:24:28.968Z</time></trkpt><trkpt lat="44.9149917" lon="10.6156117"><ele>21.0</ele><time>2026-03-23T11:24:30.968Z</time></trkpt><trkpt lat="44.914945" lon="10.6157133"><ele>20.833333333333332</ele><time>2026-03-23T11:24:33.968Z</time></trkpt><trkpt lat="44.9149367" lon="10.6158133"><ele>20.666666666666668</ele><time>2026-03-23T11:24:38.969Z</time></trkpt><trkpt lat="44.914925" lon="10.615925"><ele>20.5</ele><time>2026-03-23T11:24:42.968Z</time></trkpt><trkpt lat="44.9149033" lon="10.61602"><ele>20.333333333333336</ele><time>2026-03-23T11:24:45.969Z</time></trkpt><trkpt lat="44.914875" lon="10.6161183"><ele>20.166666666666668</ele><time>2026-03-23T11:24:48.969Z</time></trkpt><trkpt lat="44.9148433" lon="10.6162417"><ele>20.0</ele><time>2026-03-23T11:24:51.968Z</time></trkpt><trkpt lat="44.9148267" lon="10.61636"><ele>20.0</ele><time>2026-03-23T11:24:54.969Z</time></trkpt><trkpt lat="44.9147933" lon="10.6164733"><ele>20.0</ele><time>2026-03-23T11:24:57.969Z</time></trkpt><trkpt lat="44.9147583" lon="10.61657"><ele>20.0</ele><time>2026-03-23T11:24:59.968Z</time></trkpt><trkpt lat="44.914735" lon="10.616665"><ele>20.0</ele><time>2026-03-23T11:25:01.969Z</time></trkpt><trkpt lat="44.9147167" lon="10.6167617"><ele>20.0</ele><time>2026-03-23T11:25:03.968Z</time></trkpt><trkpt lat="44.9146883" lon="10.6168417"><ele>20.0</ele><time>2026-03-23T11:25:05.968Z</time></trkpt><trkpt lat="44.9146467" lon="10.6169433"><ele>19.833333333333336</ele><time>2026-03-23T11:25:08.969Z</time></trkpt><trkpt lat="44.9146283" lon="10.6170717"><ele>19.666666666666668</ele><time>2026-03-23T11:25:11.968Z</time></trkpt><trkpt lat="44.9146233" lon="10.6171717"><ele>19.5</ele><time>2026-03-23T11:25:13.969Z</time></trkpt><trkpt lat="44.9146083" lon="10.6172717"><ele>19.333333333333332</ele><time>2026-03-23T11:25:15.968Z</time></trkpt><trkpt lat="44.914595" lon="10.617365"><ele>19.166666666666664</ele><time>2026-03-23T11:25:17.968Z</time></trkpt><trkpt lat="44.914575" lon="10.61746"><ele>19.0</ele><time>2026-03-23T11:25:19.968Z</time></trkpt><trkpt lat="44.91455" lon="10.617565"><ele>19.0</ele><time>2026-03-23T11:25:21.969Z</time></trkpt><trkpt lat="44.9145433" lon="10.6176667"><ele>19.0</ele><time>2026-03-23T11:25:23.968Z</time></trkpt><trkpt lat="44.91454" lon="10.617775"><ele>19.0</ele><time>2026-03-23T11:25:25.969Z</time></trkpt><trkpt lat="44.9145467" lon="10.6178783"><ele>19.0</ele><time>2026-03-23T11:25:27.969Z</time></trkpt><trkpt lat="44.9145617" lon="10.6179667"><ele>19.0</ele><time>2026-03-23T11:25:29.968Z</time></trkpt><trkpt lat="44.914585" lon="10.618055"><ele>19.0</ele><time>2026-03-23T11:25:31.969Z</time></trkpt><trkpt lat="44.9146033" lon="10.6181633"><ele>19.0</ele><time>2026-03-23T11:25:33.969Z</time></trkpt><trkpt lat="44.914615" lon="10.618285"><ele>19.0</ele><time>2026-03-23T11:25:35.968Z</time></trkpt><trkpt lat="44.9146317" lon="10.6183917"><ele>19.0</ele><time>2026-03-23T11:25:37.969Z</time></trkpt><trkpt lat="44.9146383" lon="10.6184967"><ele>19.0</ele><time>2026-03-23T11:25:39.969Z</time></trkpt><trkpt lat="44.9146583" lon="10.6185967"><ele>19.0</ele><time>2026-03-23T11:25:41.968Z</time></trkpt><trkpt lat="44.9146833" lon="10.6186917"><ele>19.0</ele><time>2026-03-23T11:25:43.968Z</time></trkpt><trkpt lat="44.9147233" lon="10.61878"><ele>19.0</ele><time>2026-03-23T11:25:45.968Z</time></trkpt><trkpt lat="44.9147533" lon="10.6188717"><ele>19.0</ele><time>2026-03-23T11:25:47.968Z</time></trkpt><trkpt lat="44.9147783" lon="10.6189717"><ele>19.0</ele><time>2026-03-23T11:25:49.969Z</time></trkpt><trkpt lat="44.9148117" lon="10.6190683"><ele>19.0</ele><time>2026-03-23T11:25:51.968Z</time></trkpt><trkpt lat="44.91484" lon="10.619165"><ele>19.0</ele><time>2026-03-23T11:25:53.968Z</time></trkpt><trkpt lat="44.914865" lon="10.619255"><ele>19.0</ele><time>2026-03-23T11:25:55.969Z</time></trkpt><trkpt lat="44.9148967" lon="10.6193533"><ele>19.0</ele><time>2026-03-23T11:25:57.969Z</time></trkpt><trkpt lat="44.914945" lon="10.6194517"><ele>19.0</ele><time>2026-03-23T11:25:59.968Z</time></trkpt><trkpt lat="44.9149917" lon="10.6195283"><ele>19.285714285714285</ele><time>2026-03-23T11:26:01.969Z</time></trkpt><trkpt lat="44.91506" lon="10.619585"><ele>19.571428571428573</ele><time>2026-03-23T11:26:03.969Z</time></trkpt><trkpt lat="44.91512" lon="10.6196533"><ele>19.857142857142858</ele><time>2026-03-23T11:26:05.968Z</time></trkpt><trkpt lat="44.9151683" lon="10.6197283"><ele>20.142857142857142</ele><time>2026-03-23T11:26:07.969Z</time></trkpt><trkpt lat="44.9152183" lon="10.6198083"><ele>20.42857142857143</ele><time>2026-03-23T11:26:09.969Z</time></trkpt><trkpt lat="44.9152617" lon="10.6198817"><ele>20.714285714285715</ele><time>2026-03-23T11:26:11.968Z</time></trkpt><trkpt lat="44.9153083" lon="10.6199583"><ele>21.0</ele><time>2026-03-23T11:26:13.968Z</time></trkpt><trkpt lat="44.915365" lon="10.6200233"><ele>21.0</ele><time>2026-03-23T11:26:15.969Z</time></trkpt><trkpt lat="44.9154133" lon="10.6201033"><ele>21.0</ele><time>2026-03-23T11:26:17.968Z</time></trkpt><trkpt lat="44.9154767" lon="10.6202067"><ele>21.0</ele><time>2026-03-23T11:26:20.968Z</time></trkpt><trkpt lat="44.915565" lon="10.6202567"><ele>21.0</ele><time>2026-03-23T11:26:23.969Z</time></trkpt><trkpt lat="44.9156283" lon="10.6202867"><ele>21.0</ele><time>2026-03-23T11:26:25.968Z</time></trkpt><trkpt lat="44.9157" lon="10.620325"><ele>21.0</ele><time>2026-03-23T11:26:27.968Z</time></trkpt><trkpt lat="44.9157633" lon="10.620365"><ele>21.428571428571427</ele><time>2026-03-23T11:26:29.968Z</time></trkpt><trkpt lat="44.9158217" lon="10.6204133"><ele>21.857142857142858</ele><time>2026-03-23T11:26:31.968Z</time></trkpt><trkpt lat="44.9158733" lon="10.62047"><ele>22.285714285714285</ele><time>2026-03-23T11:26:33.969Z</time></trkpt><trkpt lat="44.9159617" lon="10.6205233"><ele>22.714285714285715</ele><time>2026-03-23T11:26:36.968Z</time></trkpt><trkpt lat="44.9160233" lon="10.6205417"><ele>23.142857142857142</ele><time>2026-03-23T11:26:38.969Z</time></trkpt><trkpt lat="44.9160833" lon="10.6205733"><ele>23.57142857142857</ele><time>2026-03-23T11:26:40.968Z</time></trkpt><trkpt lat="44.9161367" lon="10.6206267"><ele>24.0</ele><time>2026-03-23T11:26:42.969Z</time></trkpt><trkpt lat="44.9161883" lon="10.6206783"><ele>23.142857142857142</ele><time>2026-03-23T11:26:44.969Z</time></trkpt><trkpt lat="44.9162483" lon="10.62073"><ele>22.285714285714285</ele><time>2026-03-23T11:26:46.968Z</time></trkpt><trkpt lat="44.9163133" lon="10.6207767"><ele>21.42857142857143</ele><time>2026-03-23T11:26:48.968Z</time></trkpt><trkpt lat="44.9163667" lon="10.6208283"><ele>20.57142857142857</ele><time>2026-03-23T11:26:50.968Z</time></trkpt><trkpt lat="44.9164283" lon="10.6208633"><ele>19.714285714285715</ele><time>2026-03-23T11:26:52.968Z</time></trkpt><trkpt lat="44.9164883" lon="10.6209067"><ele>18.857142857142858</ele><time>2026-03-23T11:26:54.969Z</time></trkpt><trkpt lat="44.916545" lon="10.6209683"><ele>18.0</ele><time>2026-03-23T11:26:56.968Z</time></trkpt><trkpt lat="44.916605" lon="10.62102"><ele>18.000000000000004</ele><time>2026-03-23T11:26:58.968Z</time></trkpt><trkpt lat="44.9166633" lon="10.6210567"><ele>18.0</ele><time>2026-03-23T11:27:00.968Z</time></trkpt><trkpt lat="44.9167417" lon="10.6211333"><ele>18.0</ele><time>2026-03-23T11:27:03.969Z</time></trkpt><trkpt lat="44.916795" lon="10.62119"><ele>18.0</ele><time>2026-03-23T11:27:05.968Z</time></trkpt><trkpt lat="44.91685" lon="10.621235"><ele>18.0</ele><time>2026-03-23T11:27:07.969Z</time></trkpt><trkpt lat="44.9169083" lon="10.621285"><ele>18.000000000000004</ele><time>2026-03-23T11:27:09.969Z</time></trkpt><trkpt lat="44.9169667" lon="10.6213317"><ele>18.0</ele><time>2026-03-23T11:27:11.968Z</time></trkpt><trkpt lat="44.9170333" lon="10.6213583"><ele>18.714285714285715</ele><time>2026-03-23T11:27:13.968Z</time></trkpt><trkpt lat="44.9171" lon="10.6213833"><ele>19.42857142857143</ele><time>2026-03-23T11:27:15.969Z</time></trkpt><trkpt lat="44.9171617" lon="10.6214117"><ele>20.142857142857146</ele><time>2026-03-23T11:27:17.968Z</time></trkpt><trkpt lat="44.9172233" lon="10.621455"><ele>20.857142857142858</ele><time>2026-03-23T11:27:19.969Z</time></trkpt><trkpt lat="44.917285" lon="10.6214783"><ele>21.57142857142857</ele><time>2026-03-23T11:27:21.97Z</time></trkpt><trkpt lat="44.9173817" lon="10.6215083"><ele>22.28571428571429</ele><time>2026-03-23T11:27:24.969Z</time></trkpt><trkpt lat="44.91746" lon="10.6215217"><ele>23.0</ele><time>2026-03-23T11:27:26.97Z</time></trkpt><trkpt lat="44.917535" lon="10.6215317"><ele>22.833333333333336</ele><time>2026-03-23T11:27:28.97Z</time></trkpt><trkpt lat="44.9176033" lon="10.6215417"><ele>22.666666666666668</ele><time>2026-03-23T11:27:30.97Z</time></trkpt><trkpt lat="44.9176717" lon="10.62156"><ele>22.5</ele><time>2026-03-23T11:27:32.969Z</time></trkpt><trkpt lat="44.9177367" lon="10.62158"><ele>22.333333333333332</ele><time>2026-03-23T11:27:34.97Z</time></trkpt><trkpt lat="44.9178283" lon="10.6215917"><ele>22.166666666666664</ele><time>2026-03-23T11:27:37.969Z</time></trkpt><trkpt lat="44.917895" lon="10.62162"><ele>22.0</ele><time>2026-03-23T11:27:39.969Z</time></trkpt><trkpt lat="44.9179883" lon="10.6216583"><ele>22.0</ele><time>2026-03-23T11:27:42.969Z</time></trkpt><trkpt lat="44.9180567" lon="10.6216667"><ele>22.0</ele><time>2026-03-23T11:27:44.969Z</time></trkpt><trkpt lat="44.9181217" lon="10.6216717"><ele>22.0</ele><time>2026-03-23T11:27:46.97Z</time></trkpt><trkpt lat="44.9181917" lon="10.6216783"><ele>22.0</ele><time>2026-03-23T11:27:48.969Z</time></trkpt><trkpt lat="44.9182617" lon="10.621675"><ele>22.0</ele><time>2026-03-23T11:27:50.97Z</time></trkpt><trkpt lat="44.9183383" lon="10.621625"><ele>22.0</ele><time>2026-03-23T11:27:53.969Z</time></trkpt><trkpt lat="44.9183667" lon="10.62153"><ele>22.0</ele><time>2026-03-23T11:27:55.97Z</time></trkpt><trkpt lat="44.9183917" lon="10.62141"><ele>22.0</ele><time>2026-03-23T11:27:57.97Z</time></trkpt><trkpt lat="44.91843" lon="10.6213133"><ele>22.0</ele><time>2026-03-23T11:27:59.969Z</time></trkpt><trkpt lat="44.9184833" lon="10.6212167"><ele>22.0</ele><time>2026-03-23T11:28:01.97Z</time></trkpt><trkpt lat="44.9185367" lon="10.6211317"><ele>22.0</ele><time>2026-03-23T11:28:03.969Z</time></trkpt><trkpt lat="44.9185817" lon="10.6210583"><ele>22.0</ele><time>2026-03-23T11:28:05.97Z</time></trkpt><trkpt lat="44.9186417" lon="10.6209883"><ele>22.0</ele><time>2026-03-23T11:28:07.97Z</time></trkpt><trkpt lat="44.91871" lon="10.6209617"><ele>22.0</ele><time>2026-03-23T11:28:09.969Z</time></trkpt><trkpt lat="44.9187783" lon="10.6209417"><ele>22.0</ele><time>2026-03-23T11:28:11.969Z</time></trkpt><trkpt lat="44.9188733" lon="10.6209383"><ele>22.0</ele><time>2026-03-23T11:28:14.969Z</time></trkpt><trkpt lat="44.9189417" lon="10.62096"><ele>22.0</ele><time>2026-03-23T11:28:16.97Z</time></trkpt><trkpt lat="44.919" lon="10.621005"><ele>22.0</ele><time>2026-03-23T11:28:18.97Z</time></trkpt><trkpt lat="44.9190633" lon="10.6210433"><ele>22.0</ele><time>2026-03-23T11:28:20.97Z</time></trkpt><trkpt lat="44.9191283" lon="10.6210933"><ele>22.0</ele><time>2026-03-23T11:28:22.97Z</time></trkpt><trkpt lat="44.9191867" lon="10.6211417"><ele>21.833333333333332</ele><time>2026-03-23T11:28:24.969Z</time></trkpt><trkpt lat="44.91926" lon="10.62122"><ele>21.666666666666664</ele><time>2026-03-23T11:28:27.969Z</time></trkpt><trkpt lat="44.9193117" lon="10.6212733"><ele>21.5</ele><time>2026-03-23T11:28:29.97Z</time></trkpt><trkpt lat="44.9193733" lon="10.621335"><ele>21.333333333333332</ele><time>2026-03-23T11:28:31.97Z</time></trkpt><trkpt lat="44.919415" lon="10.621405"><ele>21.166666666666668</ele><time>2026-03-23T11:28:33.97Z</time></trkpt><trkpt lat="44.919445" lon="10.6215167"><ele>21.0</ele><time>2026-03-23T11:28:36.97Z</time></trkpt><trkpt lat="44.919455" lon="10.6216133"><ele>21.0</ele><time>2026-03-23T11:28:38.969Z</time></trkpt><trkpt lat="44.9194667" lon="10.6217167"><ele>21.0</ele><time>2026-03-23T11:28:40.969Z</time></trkpt><trkpt lat="44.9194783" lon="10.621835"><ele>21.0</ele><time>2026-03-23T11:28:43.97Z</time></trkpt><trkpt lat="44.91947" lon="10.6219533"><ele>21.0</ele><time>2026-03-23T11:28:46.969Z</time></trkpt><trkpt lat="44.9194567" lon="10.6220733"><ele>21.0</ele><time>2026-03-23T11:28:49.97Z</time></trkpt><trkpt lat="44.9194167" lon="10.6221767"><ele>21.0</ele><time>2026-03-23T11:28:52.969Z</time></trkpt><trkpt lat="44.91937" lon="10.622275"><ele>21.0</ele><time>2026-03-23T11:28:55.969Z</time></trkpt><trkpt lat="44.9193283" lon="10.62236"><ele>21.0</ele><time>2026-03-23T11:28:57.97Z</time></trkpt><trkpt lat="44.9192917" lon="10.6224433"><ele>21.0</ele><time>2026-03-23T11:28:59.97Z</time></trkpt><trkpt lat="44.9192567" lon="10.6225183"><ele>21.0</ele><time>2026-03-23T11:29:01.97Z</time></trkpt><trkpt lat="44.9192117" lon="10.622595"><ele>21.0</ele><time>2026-03-23T11:29:03.97Z</time></trkpt><trkpt lat="44.9191683" lon="10.6226717"><ele>21.0</ele><time>2026-03-23T11:29:05.97Z</time></trkpt><trkpt lat="44.9191167" lon="10.6227517"><ele>21.0</ele><time>2026-03-23T11:29:07.969Z</time></trkpt><trkpt lat="44.9190667" lon="10.622835"><ele>21.5</ele><time>2026-03-23T11:29:09.969Z</time></trkpt><trkpt lat="44.9189883" lon="10.6229217"><ele>22.0</ele><time>2026-03-23T11:29:12.97Z</time></trkpt><trkpt lat="44.91892" lon="10.6229967"><ele>22.5</ele><time>2026-03-23T11:29:14.969Z</time></trkpt><trkpt lat="44.9188633" lon="10.6230783"><ele>23.0</ele><time>2026-03-23T11:29:16.97Z</time></trkpt><trkpt lat="44.9188117" lon="10.6231517"><ele>23.5</ele><time>2026-03-23T11:29:18.97Z</time></trkpt><trkpt lat="44.918775" lon="10.62324"><ele>24.0</ele><time>2026-03-23T11:29:20.97Z</time></trkpt><trkpt lat="44.9187683" lon="10.6233567"><ele>23.999999999999996</ele><time>2026-03-23T11:29:23.969Z</time></trkpt><trkpt lat="44.918765" lon="10.6234717"><ele>24.0</ele><time>2026-03-23T11:29:26.97Z</time></trkpt><trkpt lat="44.9187667" lon="10.6235883"><ele>24.0</ele><time>2026-03-23T11:29:29.97Z</time></trkpt><trkpt lat="44.9187517" lon="10.6236767"><ele>24.0</ele><time>2026-03-23T11:29:31.969Z</time></trkpt><trkpt lat="44.9187583" lon="10.6237967"><ele>24.0</ele><time>2026-03-23T11:29:34.969Z</time></trkpt><trkpt lat="44.9187733" lon="10.62389"><ele>23.999999999999996</ele><time>2026-03-23T11:29:36.97Z</time></trkpt><trkpt lat="44.918775" lon="10.6239817"><ele>24.0</ele><time>2026-03-23T11:29:38.97Z</time></trkpt><trkpt lat="44.9187783" lon="10.624085"><ele>23.833333333333332</ele><time>2026-03-23T11:29:40.97Z</time></trkpt><trkpt lat="44.9187867" lon="10.6241983"><ele>23.666666666666668</ele><time>2026-03-23T11:29:42.97Z</time></trkpt><trkpt lat="44.9188067" lon="10.624295"><ele>23.5</ele><time>2026-03-23T11:29:44.969Z</time></trkpt><trkpt lat="44.9188033" lon="10.6244033"><ele>23.333333333333336</ele><time>2026-03-23T11:29:46.969Z</time></trkpt><trkpt lat="44.9188033" lon="10.6245167"><ele>23.166666666666668</ele><time>2026-03-23T11:29:49.969Z</time></trkpt><trkpt lat="44.9188117" lon="10.62464"><ele>23.0</ele><time>2026-03-23T11:29:52.969Z</time></trkpt><trkpt lat="44.918825" lon="10.6247767"><ele>22.833333333333336</ele><time>2026-03-23T11:29:55.97Z</time></trkpt><trkpt lat="44.9188317" lon="10.6248683"><ele>22.666666666666668</ele><time>2026-03-23T11:29:57.969Z</time></trkpt><trkpt lat="44.9188433" lon="10.625005"><ele>22.5</ele><time>2026-03-23T11:30:00.97Z</time></trkpt><trkpt lat="44.918845" lon="10.6251217"><ele>22.333333333333332</ele><time>2026-03-23T11:30:02.969Z</time></trkpt><trkpt lat="44.91885" lon="10.625215"><ele>22.166666666666664</ele><time>2026-03-23T11:30:04.97Z</time></trkpt><trkpt lat="44.9188583" lon="10.6253117"><ele>22.0</ele><time>2026-03-23T11:30:06.97Z</time></trkpt><trkpt lat="44.9188633" lon="10.6254167"><ele>22.0</ele><time>2026-03-23T11:30:08.969Z</time></trkpt><trkpt lat="44.918875" lon="10.62552"><ele>22.0</ele><time>2026-03-23T11:30:10.97Z</time></trkpt><trkpt lat="44.9188817" lon="10.6256283"><ele>22.0</ele><time>2026-03-23T11:30:12.969Z</time></trkpt><trkpt lat="44.91889" lon="10.6257383"><ele>22.0</ele><time>2026-03-23T11:30:14.969Z</time></trkpt><trkpt lat="44.918895" lon="10.6258433"><ele>22.0</ele><time>2026-03-23T11:30:16.969Z</time></trkpt><trkpt lat="44.9188933" lon="10.6259483"><ele>22.0</ele><time>2026-03-23T11:30:18.97Z</time></trkpt><trkpt lat="44.9189" lon="10.6260533"><ele>22.5</ele><time>2026-03-23T11:30:20.969Z</time></trkpt><trkpt lat="44.9189117" lon="10.6261783"><ele>23.0</ele><time>2026-03-23T11:30:23.97Z</time></trkpt><trkpt lat="44.9189117" lon="10.6262917"><ele>23.5</ele><time>2026-03-23T11:30:26.97Z</time></trkpt><trkpt lat="44.91885" lon="10.6263633"><ele>24.0</ele><time>2026-03-23T11:30:29.97Z</time></trkpt><trkpt lat="44.9187833" lon="10.6263667"><ele>24.500000000000004</ele><time>2026-03-23T11:30:31.97Z</time></trkpt><trkpt lat="44.9187117" lon="10.6263783"><ele>25.0</ele><time>2026-03-23T11:30:33.97Z</time></trkpt><trkpt lat="44.9186433" lon="10.6263717"><ele>25.000000000000004</ele><time>2026-03-23T11:30:35.969Z</time></trkpt><trkpt lat="44.9185683" lon="10.626375"><ele>25.0</ele><time>2026-03-23T11:30:37.969Z</time></trkpt><trkpt lat="44.9184933" lon="10.626385"><ele>25.0</ele><time>2026-03-23T11:30:39.97Z</time></trkpt><trkpt lat="44.9184167" lon="10.6263983"><ele>25.0</ele><time>2026-03-23T11:30:41.969Z</time></trkpt><trkpt lat="44.9183467" lon="10.62642"><ele>25.000000000000004</ele><time>2026-03-23T11:30:43.97Z</time></trkpt><trkpt lat="44.9182717" lon="10.6264267"><ele>25.0</ele><time>2026-03-23T11:30:45.969Z</time></trkpt><trkpt lat="44.918195" lon="10.6264383"><ele>25.166666666666668</ele><time>2026-03-23T11:30:47.97Z</time></trkpt><trkpt lat="44.9181133" lon="10.6264517"><ele>25.333333333333336</ele><time>2026-03-23T11:30:49.969Z</time></trkpt><trkpt lat="44.9180333" lon="10.62646"><ele>25.5</ele><time>2026-03-23T11:30:51.97Z</time></trkpt><trkpt lat="44.9179517" lon="10.6264867"><ele>25.666666666666664</ele><time>2026-03-23T11:30:53.969Z</time></trkpt><trkpt lat="44.917865" lon="10.6265033"><ele>25.833333333333332</ele><time>2026-03-23T11:30:55.97Z</time></trkpt><trkpt lat="44.917775" lon="10.6265067"><ele>26.0</ele><time>2026-03-23T11:30:57.97Z</time></trkpt><trkpt lat="44.9176883" lon="10.62651"><ele>25.999999999999996</ele><time>2026-03-23T11:30:59.97Z</time></trkpt><trkpt lat="44.9175933" lon="10.6265283"><ele>26.0</ele><time>2026-03-23T11:31:01.97Z</time></trkpt><trkpt lat="44.9175017" lon="10.6265417"><ele>26.0</ele><time>2026-03-23T11:31:03.97Z</time></trkpt><trkpt lat="44.917415" lon="10.62656"><ele>26.0</ele><time>2026-03-23T11:31:05.97Z</time></trkpt><trkpt lat="44.9173317" lon="10.6265667"><ele>25.999999999999996</ele><time>2026-03-23T11:31:07.97Z</time></trkpt><trkpt lat="44.9172483" lon="10.6265883"><ele>26.0</ele><time>2026-03-23T11:31:09.969Z</time></trkpt><trkpt lat="44.917165" lon="10.6266017"><ele>25.999999999999996</ele><time>2026-03-23T11:31:11.969Z</time></trkpt><trkpt lat="44.9170733" lon="10.626615"><ele>26.0</ele><time>2026-03-23T11:31:13.97Z</time></trkpt><trkpt lat="44.91698" lon="10.6266317"><ele>26.0</ele><time>2026-03-23T11:31:15.969Z</time></trkpt><trkpt lat="44.9168967" lon="10.6266467"><ele>26.0</ele><time>2026-03-23T11:31:17.969Z</time></trkpt><trkpt lat="44.91681" lon="10.6266633"><ele>25.999999999999996</ele><time>2026-03-23T11:31:19.969Z</time></trkpt><trkpt lat="44.916725" lon="10.6266683"><ele>26.0</ele><time>2026-03-23T11:31:21.969Z</time></trkpt><trkpt lat="44.91664" lon="10.6266833"><ele>25.999999999999996</ele><time>2026-03-23T11:31:23.969Z</time></trkpt><trkpt lat="44.91655" lon="10.6267"><ele>26.0</ele><time>2026-03-23T11:31:25.97Z</time></trkpt><trkpt lat="44.9164633" lon="10.6267117"><ele>26.0</ele><time>2026-03-23T11:31:27.969Z</time></trkpt><trkpt lat="44.916375" lon="10.6267217"><ele>26.0</ele><time>2026-03-23T11:31:29.97Z</time></trkpt><trkpt lat="44.9162867" lon="10.62674"><ele>25.999999999999996</ele><time>2026-03-23T11:31:31.97Z</time></trkpt><trkpt lat="44.9161983" lon="10.6267517"><ele>26.0</ele><time>2026-03-23T11:31:33.969Z</time></trkpt><trkpt lat="44.916115" lon="10.6267583"><ele>25.999999999999996</ele><time>2026-03-23T11:31:35.97Z</time></trkpt><trkpt lat="44.9160283" lon="10.6267717"><ele>26.0</ele><time>2026-03-23T11:31:37.97Z</time></trkpt><trkpt lat="44.9159383" lon="10.6267867"><ele>26.0</ele><time>2026-03-23T11:31:39.97Z</time></trkpt><trkpt lat="44.9158567" lon="10.6267983"><ele>26.0</ele><time>2026-03-23T11:31:41.969Z</time></trkpt><trkpt lat="44.915765" lon="10.6268117"><ele>25.999999999999996</ele><time>2026-03-23T11:31:43.97Z</time></trkpt><trkpt lat="44.9156767" lon="10.6268267"><ele>26.0</ele><time>2026-03-23T11:31:45.969Z</time></trkpt><trkpt lat="44.915595" lon="10.626835"><ele>26.499999999999996</ele><time>2026-03-23T11:31:47.97Z</time></trkpt><trkpt lat="44.9155083" lon="10.6268417"><ele>27.0</ele><time>2026-03-23T11:31:49.969Z</time></trkpt><trkpt lat="44.9154183" lon="10.6268617"><ele>27.5</ele><time>2026-03-23T11:31:51.97Z</time></trkpt><trkpt lat="44.9153317" lon="10.6268833"><ele>28.0</ele><time>2026-03-23T11:31:53.97Z</time></trkpt><trkpt lat="44.91525" lon="10.6268983"><ele>28.499999999999996</ele><time>2026-03-23T11:31:55.969Z</time></trkpt><trkpt lat="44.915165" lon="10.6269183"><ele>29.0</ele><time>2026-03-23T11:31:57.97Z</time></trkpt><trkpt lat="44.9150783" lon="10.6269317"><ele>28.999999999999996</ele><time>2026-03-23T11:31:59.97Z</time></trkpt><trkpt lat="44.9149883" lon="10.62694"><ele>29.0</ele><time>2026-03-23T11:32:01.97Z</time></trkpt><trkpt lat="44.9149033" lon="10.62695"><ele>29.0</ele><time>2026-03-23T11:32:03.969Z</time></trkpt><trkpt lat="44.91482" lon="10.626965"><ele>29.0</ele><time>2026-03-23T11:32:05.969Z</time></trkpt><trkpt lat="44.9147383" lon="10.62698"><ele>28.999999999999996</ele><time>2026-03-23T11:32:07.969Z</time></trkpt><trkpt lat="44.914655" lon="10.6269933"><ele>29.0</ele><time>2026-03-23T11:32:09.969Z</time></trkpt><trkpt lat="44.9145667" lon="10.627005"><ele>28.999999999999996</ele><time>2026-03-23T11:32:11.97Z</time></trkpt><trkpt lat="44.914485" lon="10.6270167"><ele>29.0</ele><time>2026-03-23T11:32:13.969Z</time></trkpt><trkpt lat="44.9144083" lon="10.6270333"><ele>29.0</ele><time>2026-03-23T11:32:15.97Z</time></trkpt><trkpt lat="44.914335" lon="10.6270417"><ele>29.0</ele><time>2026-03-23T11:32:17.969Z</time></trkpt><trkpt lat="44.9142567" lon="10.627055"><ele>28.999999999999996</ele><time>2026-03-23T11:32:19.969Z</time></trkpt><trkpt lat="44.9141817" lon="10.6270717"><ele>29.0</ele><time>2026-03-23T11:32:21.97Z</time></trkpt><trkpt lat="44.9141083" lon="10.6270867"><ele>28.71428571428572</ele><time>2026-03-23T11:32:23.97Z</time></trkpt><trkpt lat="44.9140333" lon="10.6271"><ele>28.42857142857143</ele><time>2026-03-23T11:32:25.969Z</time></trkpt><trkpt lat="44.9139667" lon="10.6271083"><ele>28.142857142857146</ele><time>2026-03-23T11:32:27.969Z</time></trkpt><trkpt lat="44.9138967" lon="10.6271233"><ele>27.85714285714286</ele><time>2026-03-23T11:32:29.97Z</time></trkpt><trkpt lat="44.913825" lon="10.6271333"><ele>27.57142857142857</ele><time>2026-03-23T11:32:31.97Z</time></trkpt><trkpt lat="44.9137633" lon="10.627165"><ele>27.285714285714285</ele><time>2026-03-23T11:32:33.969Z</time></trkpt><trkpt lat="44.9136917" lon="10.6271867"><ele>27.0</ele><time>2026-03-23T11:32:35.97Z</time></trkpt><trkpt lat="44.913625" lon="10.6272"><ele>27.0</ele><time>2026-03-23T11:32:37.97Z</time></trkpt><trkpt lat="44.9135767" lon="10.62728"><ele>27.0</ele><time>2026-03-23T11:32:40.969Z</time></trkpt><trkpt lat="44.9135933" lon="10.6273983"><ele>27.0</ele><time>2026-03-23T11:32:43.97Z</time></trkpt><trkpt lat="44.9136067" lon="10.6274933"><ele>27.0</ele><time>2026-03-23T11:32:45.969Z</time></trkpt><trkpt lat="44.91362" lon="10.62759"><ele>27.0</ele><time>2026-03-23T11:32:47.97Z</time></trkpt><trkpt lat="44.9136483" lon="10.627715"><ele>27.0</ele><time>2026-03-23T11:32:50.969Z</time></trkpt><trkpt lat="44.9137" lon="10.6277883"><ele>26.714285714285715</ele><time>2026-03-23T11:32:52.969Z</time></trkpt><trkpt lat="44.9137633" lon="10.6278433"><ele>26.428571428571427</ele><time>2026-03-23T11:32:54.97Z</time></trkpt><trkpt lat="44.9138333" lon="10.6278833"><ele>26.142857142857146</ele><time>2026-03-23T11:32:56.97Z</time></trkpt><trkpt lat="44.9139" lon="10.6279333"><ele>25.857142857142858</ele><time>2026-03-23T11:32:58.97Z</time></trkpt><trkpt lat="44.9139717" lon="10.627975"><ele>25.571428571428573</ele><time>2026-03-23T11:33:00.97Z</time></trkpt><trkpt lat="44.91404" lon="10.6280117"><ele>25.28571428571429</ele><time>2026-03-23T11:33:02.97Z</time></trkpt><trkpt lat="44.9141017" lon="10.62806"><ele>25.0</ele><time>2026-03-23T11:33:04.97Z</time></trkpt><trkpt lat="44.9141517" lon="10.6281217"><ele>25.000000000000004</ele><time>2026-03-23T11:33:06.97Z</time></trkpt><trkpt lat="44.9141883" lon="10.62824"><ele>25.0</ele><time>2026-03-23T11:33:09.97Z</time></trkpt><trkpt lat="44.914215" lon="10.6283717"><ele>25.0</ele><time>2026-03-23T11:33:12.969Z</time></trkpt><trkpt lat="44.914225" lon="10.6284767"><ele>25.0</ele><time>2026-03-23T11:33:14.97Z</time></trkpt><trkpt lat="44.9142467" lon="10.6286067"><ele>25.000000000000004</ele><time>2026-03-23T11:33:17.97Z</time></trkpt><trkpt lat="44.91426" lon="10.628695"><ele>25.0</ele><time>2026-03-23T11:33:19.969Z</time></trkpt><trkpt lat="44.914285" lon="10.62879"><ele>25.42857142857143</ele><time>2026-03-23T11:33:21.969Z</time></trkpt><trkpt lat="44.9143033" lon="10.6288783"><ele>25.857142857142858</ele><time>2026-03-23T11:33:23.97Z</time></trkpt><trkpt lat="44.9143233" lon="10.628965"><ele>26.285714285714285</ele><time>2026-03-23T11:33:25.97Z</time></trkpt><trkpt lat="44.9143433" lon="10.6290767"><ele>26.714285714285715</ele><time>2026-03-23T11:33:27.969Z</time></trkpt><trkpt lat="44.9143683" lon="10.62919"><ele>27.142857142857142</ele><time>2026-03-23T11:33:30.969Z</time></trkpt><trkpt lat="44.91436" lon="10.6292917"><ele>27.571428571428573</ele><time>2026-03-23T11:33:32.97Z</time></trkpt><trkpt lat="44.91433" lon="10.6293883"><ele>28.0</ele><time>2026-03-23T11:33:34.97Z</time></trkpt><trkpt lat="44.9142967" lon="10.6294717"><ele>28.142857142857142</ele><time>2026-03-23T11:33:36.969Z</time></trkpt><trkpt lat="44.9142617" lon="10.6295517"><ele>28.285714285714285</ele><time>2026-03-23T11:33:38.969Z</time></trkpt><trkpt lat="44.9142167" lon="10.6296333"><ele>28.42857142857143</ele><time>2026-03-23T11:33:40.969Z</time></trkpt><trkpt lat="44.9141783" lon="10.6297517"><ele>28.571428571428573</ele><time>2026-03-23T11:33:43.969Z</time></trkpt><trkpt lat="44.9141467" lon="10.6298317"><ele>28.714285714285715</ele><time>2026-03-23T11:33:45.969Z</time></trkpt><trkpt lat="44.91418" lon="10.629945"><ele>28.85714285714286</ele><time>2026-03-23T11:33:48.97Z</time></trkpt><trkpt lat="44.91422" lon="10.6300167"><ele>29.000000000000004</ele><time>2026-03-23T11:33:50.969Z</time></trkpt><trkpt lat="44.914265" lon="10.63009"><ele>28.999999999999996</ele><time>2026-03-23T11:33:52.97Z</time></trkpt><trkpt lat="44.9143167" lon="10.630195"><ele>29.0</ele><time>2026-03-23T11:33:55.97Z</time></trkpt><trkpt lat="44.9143583" lon="10.6302733"><ele>29.0</ele><time>2026-03-23T11:33:57.97Z</time></trkpt><trkpt lat="44.9144" lon="10.6303567"><ele>29.0</ele><time>2026-03-23T11:33:59.969Z</time></trkpt><trkpt lat="44.9144433" lon="10.6304317"><ele>28.999999999999996</ele><time>2026-03-23T11:34:01.97Z</time></trkpt><trkpt lat="44.9144817" lon="10.6305083"><ele>29.0</ele><time>2026-03-23T11:34:03.969Z</time></trkpt><trkpt lat="44.914535" lon="10.6306167"><ele>28.571428571428577</ele><time>2026-03-23T11:34:06.97Z</time></trkpt><trkpt lat="44.91458" lon="10.630695"><ele>28.142857142857146</ele><time>2026-03-23T11:34:08.97Z</time></trkpt><trkpt lat="44.9146217" lon="10.6307833"><ele>27.714285714285715</ele><time>2026-03-23T11:34:10.97Z</time></trkpt><trkpt lat="44.9146667" lon="10.630855"><ele>27.28571428571429</ele><time>2026-03-23T11:34:12.97Z</time></trkpt><trkpt lat="44.914715" lon="10.63092"><ele>26.85714285714286</ele><time>2026-03-23T11:34:14.969Z</time></trkpt><trkpt lat="44.9147617" lon="10.63099"><ele>26.428571428571427</ele><time>2026-03-23T11:34:16.97Z</time></trkpt><trkpt lat="44.9148117" lon="10.631075"><ele>26.0</ele><time>2026-03-23T11:34:18.969Z</time></trkpt><trkpt lat="44.9148583" lon="10.6311467"><ele>26.0</ele><time>2026-03-23T11:34:20.97Z</time></trkpt><trkpt lat="44.9149033" lon="10.631215"><ele>26.0</ele><time>2026-03-23T11:34:22.97Z</time></trkpt><trkpt lat="44.91495" lon="10.63129"><ele>26.0</ele><time>2026-03-23T11:34:24.97Z</time></trkpt><trkpt lat="44.915" lon="10.6313567"><ele>26.0</ele><time>2026-03-23T11:34:26.969Z</time></trkpt><trkpt lat="44.9150583" lon="10.6314183"><ele>26.0</ele><time>2026-03-23T11:34:28.969Z</time></trkpt><trkpt lat="44.9151133" lon="10.6314817"><ele>26.0</ele><time>2026-03-23T11:34:30.969Z</time></trkpt><trkpt lat="44.915155" lon="10.631555"><ele>26.0</ele><time>2026-03-23T11:34:32.969Z</time></trkpt><trkpt lat="44.9151967" lon="10.6316217"><ele>26.166666666666664</ele><time>2026-03-23T11:34:34.97Z</time></trkpt><trkpt lat="44.9152467" lon="10.631695"><ele>26.333333333333332</ele><time>2026-03-23T11:34:36.969Z</time></trkpt><trkpt lat="44.9152917" lon="10.63177"><ele>26.5</ele><time>2026-03-23T11:34:38.969Z</time></trkpt><trkpt lat="44.91534" lon="10.631875"><ele>26.666666666666664</ele><time>2026-03-23T11:34:41.97Z</time></trkpt><trkpt lat="44.9153867" lon="10.6319867"><ele>26.833333333333332</ele><time>2026-03-23T11:34:44.969Z</time></trkpt><trkpt lat="44.9154367" lon="10.6321017"><ele>27.0</ele><time>2026-03-23T11:34:47.969Z</time></trkpt><trkpt lat="44.915475" lon="10.63219"><ele>27.0</ele><time>2026-03-23T11:34:49.969Z</time></trkpt><trkpt lat="44.9155033" lon="10.6322767"><ele>27.0</ele><time>2026-03-23T11:34:51.969Z</time></trkpt><trkpt lat="44.9155333" lon="10.632355"><ele>27.0</ele><time>2026-03-23T11:34:53.969Z</time></trkpt><trkpt lat="44.9155683" lon="10.6324417"><ele>27.0</ele><time>2026-03-23T11:34:55.97Z</time></trkpt><trkpt lat="44.9155967" lon="10.6325317"><ele>27.0</ele><time>2026-03-23T11:34:57.969Z</time></trkpt><trkpt lat="44.91563" lon="10.6326217"><ele>27.0</ele><time>2026-03-23T11:34:59.969Z</time></trkpt><trkpt lat="44.9156583" lon="10.6327017"><ele>27.0</ele><time>2026-03-23T11:35:01.969Z</time></trkpt><trkpt lat="44.9156867" lon="10.6327817"><ele>26.5</ele><time>2026-03-23T11:35:03.969Z</time></trkpt><trkpt lat="44.915725" lon="10.632895"><ele>26.0</ele><time>2026-03-23T11:35:06.97Z</time></trkpt><trkpt lat="44.9157633" lon="10.6330067"><ele>25.5</ele><time>2026-03-23T11:35:09.969Z</time></trkpt><trkpt lat="44.9157967" lon="10.6331083"><ele>25.0</ele><time>2026-03-23T11:35:12.969Z</time></trkpt><trkpt lat="44.91584" lon="10.63323"><ele>24.5</ele><time>2026-03-23T11:35:15.969Z</time></trkpt><trkpt lat="44.9158667" lon="10.6333133"><ele>24.0</ele><time>2026-03-23T11:35:17.969Z</time></trkpt><trkpt lat="44.915895" lon="10.6333983"><ele>23.833333333333332</ele><time>2026-03-23T11:35:19.97Z</time></trkpt><trkpt lat="44.9159183" lon="10.6334917"><ele>23.666666666666668</ele><time>2026-03-23T11:35:21.97Z</time></trkpt><trkpt lat="44.9159617" lon="10.633615"><ele>23.5</ele><time>2026-03-23T11:35:24.969Z</time></trkpt><trkpt lat="44.9160033" lon="10.6337383"><ele>23.333333333333336</ele><time>2026-03-23T11:35:27.97Z</time></trkpt><trkpt lat="44.9160333" lon="10.6338233"><ele>23.166666666666668</ele><time>2026-03-23T11:35:29.969Z</time></trkpt><trkpt lat="44.9160683" lon="10.63391"><ele>23.0</ele><time>2026-03-23T11:35:31.97Z</time></trkpt><trkpt lat="44.9160967" lon="10.6340083"><ele>23.0</ele><time>2026-03-23T11:35:33.969Z</time></trkpt><trkpt lat="44.916125" lon="10.6341033"><ele>23.0</ele><time>2026-03-23T11:35:35.97Z</time></trkpt><trkpt lat="44.9161533" lon="10.6341917"><ele>23.0</ele><time>2026-03-23T11:35:37.969Z</time></trkpt><trkpt lat="44.9161883" lon="10.6342767"><ele>23.0</ele><time>2026-03-23T11:35:39.969Z</time></trkpt><trkpt lat="44.9162233" lon="10.6343633"><ele>23.0</ele><time>2026-03-23T11:35:41.97Z</time></trkpt><trkpt lat="44.916255" lon="10.634455"><ele>23.0</ele><time>2026-03-23T11:35:43.969Z</time></trkpt><trkpt lat="44.9162867" lon="10.6345367"><ele>23.0</ele><time>2026-03-23T11:35:45.97Z</time></trkpt><trkpt lat="44.9163183" lon="10.634615"><ele>23.0</ele><time>2026-03-23T11:35:47.969Z</time></trkpt><trkpt lat="44.9163433" lon="10.6347017"><ele>23.0</ele><time>2026-03-23T11:35:49.97Z</time></trkpt><trkpt lat="44.9163783" lon="10.6347917"><ele>23.0</ele><time>2026-03-23T11:35:51.969Z</time></trkpt><trkpt lat="44.916405" lon="10.6348833"><ele>23.0</ele><time>2026-03-23T11:35:53.97Z</time></trkpt><trkpt lat="44.91643" lon="10.6349733"><ele>23.0</ele><time>2026-03-23T11:35:55.97Z</time></trkpt><trkpt lat="44.91646" lon="10.6350583"><ele>23.0</ele><time>2026-03-23T11:35:57.969Z</time></trkpt><trkpt lat="44.9164967" lon="10.6351417"><ele>23.0</ele><time>2026-03-23T11:35:59.969Z</time></trkpt><trkpt lat="44.9165267" lon="10.63523"><ele>23.142857142857142</ele><time>2026-03-23T11:36:01.969Z</time></trkpt><trkpt lat="44.916555" lon="10.6353133"><ele>23.285714285714285</ele><time>2026-03-23T11:36:03.97Z</time></trkpt><trkpt lat="44.916585" lon="10.6353967"><ele>23.428571428571427</ele><time>2026-03-23T11:36:05.969Z</time></trkpt><trkpt lat="44.9166133" lon="10.63549"><ele>23.57142857142857</ele><time>2026-03-23T11:36:07.97Z</time></trkpt><trkpt lat="44.9166433" lon="10.6355833"><ele>23.714285714285715</ele><time>2026-03-23T11:36:09.97Z</time></trkpt><trkpt lat="44.9166717" lon="10.63567"><ele>23.857142857142854</ele><time>2026-03-23T11:36:11.969Z</time></trkpt><trkpt lat="44.9167133" lon="10.6357883"><ele>24.0</ele><time>2026-03-23T11:36:14.969Z</time></trkpt><trkpt lat="44.9167417" lon="10.635875"><ele>24.0</ele><time>2026-03-23T11:36:16.97Z</time></trkpt><trkpt lat="44.916775" lon="10.6359583"><ele>24.0</ele><time>2026-03-23T11:36:18.969Z</time></trkpt><trkpt lat="44.9168217" lon="10.6360717"><ele>24.0</ele><time>2026-03-23T11:36:21.969Z</time></trkpt><trkpt lat="44.9168533" lon="10.636195"><ele>24.0</ele><time>2026-03-23T11:36:24.97Z</time></trkpt><trkpt lat="44.9168833" lon="10.6362883"><ele>24.0</ele><time>2026-03-23T11:36:26.969Z</time></trkpt><trkpt lat="44.9169217" lon="10.63641"><ele>24.0</ele><time>2026-03-23T11:36:29.969Z</time></trkpt><trkpt lat="44.9169467" lon="10.6365067"><ele>24.142857142857142</ele><time>2026-03-23T11:36:31.97Z</time></trkpt><trkpt lat="44.9169633" lon="10.6366067"><ele>24.285714285714285</ele><time>2026-03-23T11:36:33.97Z</time></trkpt><trkpt lat="44.916965" lon="10.6367083"><ele>24.42857142857143</ele><time>2026-03-23T11:36:35.969Z</time></trkpt><trkpt lat="44.9169533" lon="10.636805"><ele>24.57142857142857</ele><time>2026-03-23T11:36:37.969Z</time></trkpt><trkpt lat="44.9169217" lon="10.636885"><ele>24.714285714285715</ele><time>2026-03-23T11:36:39.97Z</time></trkpt><trkpt lat="44.9168717" lon="10.6369617"><ele>24.857142857142858</ele><time>2026-03-23T11:36:41.969Z</time></trkpt><trkpt lat="44.9168333" lon="10.6370367"><ele>25.0</ele><time>2026-03-23T11:36:43.969Z</time></trkpt><trkpt lat="44.9167933" lon="10.6371167"><ele>25.000000000000004</ele><time>2026-03-23T11:36:45.97Z</time></trkpt><trkpt lat="44.9167383" lon="10.6372233"><ele>25.0</ele><time>2026-03-23T11:36:48.97Z</time></trkpt><trkpt lat="44.9167" lon="10.6373033"><ele>25.0</ele><time>2026-03-23T11:36:50.97Z</time></trkpt><trkpt lat="44.9166483" lon="10.637415"><ele>25.0</ele><time>2026-03-23T11:36:53.97Z</time></trkpt><trkpt lat="44.916605" lon="10.6374917"><ele>25.000000000000004</ele><time>2026-03-23T11:36:55.969Z</time></trkpt><trkpt lat="44.91655" lon="10.6376"><ele>25.0</ele><time>2026-03-23T11:36:58.969Z</time></trkpt><trkpt lat="44.9165083" lon="10.6376833"><ele>25.000000000000004</ele><time>2026-03-23T11:37:00.969Z</time></trkpt><trkpt lat="44.9164717" lon="10.6377583"><ele>25.0</ele><time>2026-03-23T11:37:02.969Z</time></trkpt><trkpt lat="44.916435" lon="10.6378433"><ele>25.0</ele><time>2026-03-23T11:37:04.97Z</time></trkpt><trkpt lat="44.9163967" lon="10.6379567"><ele>25.0</ele><time>2026-03-23T11:37:07.969Z</time></trkpt><trkpt lat="44.9163733" lon="10.638045"><ele>25.000000000000004</ele><time>2026-03-23T11:37:09.969Z</time></trkpt><trkpt lat="44.91634" lon="10.6381617"><ele>25.0</ele><time>2026-03-23T11:37:12.969Z</time></trkpt><trkpt lat="44.9163117" lon="10.6382767"><ele>25.000000000000004</ele><time>2026-03-23T11:37:15.969Z</time></trkpt><trkpt lat="44.9162867" lon="10.638365"><ele>25.0</ele><time>2026-03-23T11:37:17.969Z</time></trkpt><trkpt lat="44.9162467" lon="10.6384817"><ele>25.0</ele><time>2026-03-23T11:37:20.97Z</time></trkpt><trkpt lat="44.9162217" lon="10.6385633"><ele>25.0</ele><time>2026-03-23T11:37:22.97Z</time></trkpt><trkpt lat="44.916165" lon="10.63866"><ele>25.000000000000004</ele><time>2026-03-23T11:37:25.969Z</time></trkpt><trkpt lat="44.91611" lon="10.6387167"><ele>25.0</ele><time>2026-03-23T11:37:27.97Z</time></trkpt><trkpt lat="44.9160583" lon="10.638785"><ele>25.000000000000004</ele><time>2026-03-23T11:37:29.969Z</time></trkpt><trkpt lat="44.916" lon="10.6388417"><ele>25.0</ele><time>2026-03-23T11:37:31.969Z</time></trkpt><trkpt lat="44.9159283" lon="10.638915"><ele>25.0</ele><time>2026-03-23T11:37:34.97Z</time></trkpt><trkpt lat="44.9158583" lon="10.63899"><ele>25.0</ele><time>2026-03-23T11:37:37.969Z</time></trkpt><trkpt lat="44.9158017" lon="10.639035"><ele>25.000000000000004</ele><time>2026-03-23T11:37:39.969Z</time></trkpt><trkpt lat="44.91574" lon="10.6390683"><ele>25.0</ele><time>2026-03-23T11:37:41.97Z</time></trkpt><trkpt lat="44.9156633" lon="10.6391333"><ele>25.000000000000004</ele><time>2026-03-23T11:37:44.97Z</time></trkpt><trkpt lat="44.915595" lon="10.639205"><ele>25.0</ele><time>2026-03-23T11:37:47.97Z</time></trkpt><trkpt lat="44.9155483" lon="10.6392783"><ele>25.0</ele><time>2026-03-23T11:37:49.97Z</time></trkpt><trkpt lat="44.9154933" lon="10.6393483"><ele>25.0</ele><time>2026-03-23T11:37:51.97Z</time></trkpt><trkpt lat="44.91543" lon="10.6394067"><ele>25.0</ele><time>2026-03-23T11:37:53.97Z</time></trkpt><trkpt lat="44.9153767" lon="10.6394717"><ele>25.000000000000004</ele><time>2026-03-23T11:37:55.97Z</time></trkpt><trkpt lat="44.9153217" lon="10.63953"><ele>25.0</ele><time>2026-03-23T11:37:57.969Z</time></trkpt><trkpt lat="44.9152717" lon="10.6395917"><ele>25.000000000000004</ele><time>2026-03-23T11:37:59.969Z</time></trkpt><trkpt lat="44.9152233" lon="10.63966"><ele>25.0</ele><time>2026-03-23T11:38:01.969Z</time></trkpt><trkpt lat="44.915175" lon="10.6397233"><ele>25.0</ele><time>2026-03-23T11:38:03.97Z</time></trkpt><trkpt lat="44.9151217" lon="10.639785"><ele>25.0</ele><time>2026-03-23T11:38:05.97Z</time></trkpt><trkpt lat="44.915065" lon="10.6398483"><ele>25.0</ele><time>2026-03-23T11:38:07.971Z</time></trkpt><trkpt lat="44.91501" lon="10.639905"><ele>25.000000000000004</ele><time>2026-03-23T11:38:09.97Z</time></trkpt><trkpt lat="44.9149517" lon="10.6399683"><ele>25.0</ele><time>2026-03-23T11:38:11.97Z</time></trkpt><trkpt lat="44.9148917" lon="10.6400367"><ele>25.142857142857146</ele><time>2026-03-23T11:38:13.971Z</time></trkpt><trkpt lat="44.9148267" lon="10.6401017"><ele>25.285714285714285</ele><time>2026-03-23T11:38:15.971Z</time></trkpt><trkpt lat="44.914765" lon="10.6401683"><ele>25.42857142857143</ele><time>2026-03-23T11:38:17.97Z</time></trkpt><trkpt lat="44.9147133" lon="10.6402317"><ele>25.571428571428573</ele><time>2026-03-23T11:38:19.97Z</time></trkpt><trkpt lat="44.914655" lon="10.64029"><ele>25.714285714285715</ele><time>2026-03-23T11:38:21.971Z</time></trkpt><trkpt lat="44.9146" lon="10.6403617"><ele>25.857142857142858</ele><time>2026-03-23T11:38:23.971Z</time></trkpt><trkpt lat="44.9145417" lon="10.64043"><ele>26.0</ele><time>2026-03-23T11:38:25.971Z</time></trkpt><trkpt lat="44.9144833" lon="10.6404867"><ele>25.499999999999996</ele><time>2026-03-23T11:38:27.971Z</time></trkpt><trkpt lat="44.914415" lon="10.6405617"><ele>25.0</ele><time>2026-03-23T11:38:29.971Z</time></trkpt><trkpt lat="44.9143533" lon="10.6406117"><ele>24.5</ele><time>2026-03-23T11:38:31.97Z</time></trkpt><trkpt lat="44.9142917" lon="10.6406667"><ele>24.0</ele><time>2026-03-23T11:38:33.971Z</time></trkpt><trkpt lat="44.9142267" lon="10.6407333"><ele>23.5</ele><time>2026-03-23T11:38:35.97Z</time></trkpt><trkpt lat="44.9141617" lon="10.6408"><ele>23.0</ele><time>2026-03-23T11:38:37.971Z</time></trkpt><trkpt lat="44.9141033" lon="10.6408783"><ele>23.0</ele><time>2026-03-23T11:38:39.97Z</time></trkpt><trkpt lat="44.9140517" lon="10.64095"><ele>23.0</ele><time>2026-03-23T11:38:41.97Z</time></trkpt><trkpt lat="44.9139933" lon="10.6410033"><ele>23.0</ele><time>2026-03-23T11:38:43.971Z</time></trkpt><trkpt lat="44.91393" lon="10.6410617"><ele>23.0</ele><time>2026-03-23T11:38:45.971Z</time></trkpt><trkpt lat="44.913865" lon="10.6411217"><ele>23.0</ele><time>2026-03-23T11:38:47.97Z</time></trkpt><trkpt lat="44.9138133" lon="10.6411867"><ele>23.0</ele><time>2026-03-23T11:38:49.97Z</time></trkpt><trkpt lat="44.9137633" lon="10.641255"><ele>23.0</ele><time>2026-03-23T11:38:51.97Z</time></trkpt><trkpt lat="44.9137083" lon="10.6413267"><ele>22.714285714285715</ele><time>2026-03-23T11:38:53.97Z</time></trkpt><trkpt lat="44.9136417" lon="10.6413767"><ele>22.428571428571427</ele><time>2026-03-23T11:38:55.971Z</time></trkpt><trkpt lat="44.9135933" lon="10.6414483"><ele>22.142857142857142</ele><time>2026-03-23T11:38:57.97Z</time></trkpt><trkpt lat="44.9135317" lon="10.6415133"><ele>21.857142857142858</ele><time>2026-03-23T11:38:59.971Z</time></trkpt><trkpt lat="44.9134733" lon="10.641575"><ele>21.57142857142857</ele><time>2026-03-23T11:39:01.97Z</time></trkpt><trkpt lat="44.9134167" lon="10.6416367"><ele>21.285714285714285</ele><time>2026-03-23T11:39:03.971Z</time></trkpt><trkpt lat="44.9133617" lon="10.6417117"><ele>21.0</ele><time>2026-03-23T11:39:05.97Z</time></trkpt><trkpt lat="44.9133033" lon="10.6417767"><ele>21.0</ele><time>2026-03-23T11:39:07.971Z</time></trkpt><trkpt lat="44.9132333" lon="10.6418383"><ele>21.0</ele><time>2026-03-23T11:39:09.971Z</time></trkpt><trkpt lat="44.9131667" lon="10.6419"><ele>21.0</ele><time>2026-03-23T11:39:11.971Z</time></trkpt><trkpt lat="44.9131067" lon="10.6419617"><ele>21.0</ele><time>2026-03-23T11:39:13.971Z</time></trkpt><trkpt lat="44.9130467" lon="10.6420217"><ele>21.0</ele><time>2026-03-23T11:39:15.971Z</time></trkpt><trkpt lat="44.9129917" lon="10.64208"><ele>21.0</ele><time>2026-03-23T11:39:17.971Z</time></trkpt><trkpt lat="44.9129383" lon="10.642135"><ele>21.0</ele><time>2026-03-23T11:39:19.97Z</time></trkpt><trkpt lat="44.9128883" lon="10.642195"><ele>21.0</ele><time>2026-03-23T11:39:21.97Z</time></trkpt><trkpt lat="44.9128367" lon="10.64227"><ele>21.0</ele><time>2026-03-23T11:39:23.971Z</time></trkpt><trkpt lat="44.9127767" lon="10.642335"><ele>21.0</ele><time>2026-03-23T11:39:25.97Z</time></trkpt><trkpt lat="44.912725" lon="10.6423933"><ele>21.0</ele><time>2026-03-23T11:39:27.97Z</time></trkpt><trkpt lat="44.9126733" lon="10.6424617"><ele>21.0</ele><time>2026-03-23T11:39:29.97Z</time></trkpt><trkpt lat="44.912615" lon="10.6425367"><ele>21.0</ele><time>2026-03-23T11:39:31.971Z</time></trkpt><trkpt lat="44.9125517" lon="10.64261"><ele>21.0</ele><time>2026-03-23T11:39:33.97Z</time></trkpt><trkpt lat="44.912485" lon="10.6426667"><ele>21.0</ele><time>2026-03-23T11:39:35.97Z</time></trkpt><trkpt lat="44.91242" lon="10.64275"><ele>21.0</ele><time>2026-03-23T11:39:37.971Z</time></trkpt><trkpt lat="44.9123633" lon="10.64282"><ele>21.0</ele><time>2026-03-23T11:39:39.971Z</time></trkpt><trkpt lat="44.9123017" lon="10.6428733"><ele>21.0</ele><time>2026-03-23T11:39:41.97Z</time></trkpt><trkpt lat="44.912245" lon="10.6429367"><ele>21.0</ele><time>2026-03-23T11:39:43.971Z</time></trkpt><trkpt lat="44.9121917" lon="10.6429933"><ele>21.0</ele><time>2026-03-23T11:39:45.97Z</time></trkpt><trkpt lat="44.91214" lon="10.643065"><ele>21.0</ele><time>2026-03-23T11:39:47.97Z</time></trkpt><trkpt lat="44.9120833" lon="10.64313"><ele>21.333333333333332</ele><time>2026-03-23T11:39:49.97Z</time></trkpt><trkpt lat="44.91202" lon="10.6431983"><ele>21.666666666666668</ele><time>2026-03-23T11:39:51.97Z</time></trkpt><trkpt lat="44.911945" lon="10.6432733"><ele>22.0</ele><time>2026-03-23T11:39:53.971Z</time></trkpt><trkpt lat="44.9118867" lon="10.6433467"><ele>22.333333333333336</ele><time>2026-03-23T11:39:55.97Z</time></trkpt><trkpt lat="44.91183" lon="10.6434117"><ele>22.666666666666668</ele><time>2026-03-23T11:39:57.97Z</time></trkpt><trkpt lat="44.911775" lon="10.6434767"><ele>23.0</ele><time>2026-03-23T11:39:59.971Z</time></trkpt><trkpt lat="44.9117183" lon="10.6435417"><ele>23.166666666666668</ele><time>2026-03-23T11:40:01.97Z</time></trkpt><trkpt lat="44.9116567" lon="10.6436067"><ele>23.333333333333336</ele><time>2026-03-23T11:40:03.97Z</time></trkpt><trkpt lat="44.9116" lon="10.643675"><ele>23.5</ele><time>2026-03-23T11:40:05.971Z</time></trkpt><trkpt lat="44.9115433" lon="10.6437483"><ele>23.666666666666668</ele><time>2026-03-23T11:40:07.97Z</time></trkpt><trkpt lat="44.9114917" lon="10.6438267"><ele>23.833333333333332</ele><time>2026-03-23T11:40:09.971Z</time></trkpt><trkpt lat="44.9114383" lon="10.6439033"><ele>24.0</ele><time>2026-03-23T11:40:11.97Z</time></trkpt><trkpt lat="44.9113867" lon="10.64398"><ele>24.333333333333332</ele><time>2026-03-23T11:40:13.971Z</time></trkpt><trkpt lat="44.9113333" lon="10.644065"><ele>24.666666666666664</ele><time>2026-03-23T11:40:15.97Z</time></trkpt><trkpt lat="44.911285" lon="10.6441333"><ele>25.0</ele><time>2026-03-23T11:40:17.97Z</time></trkpt><trkpt lat="44.9112317" lon="10.6442"><ele>25.333333333333332</ele><time>2026-03-23T11:40:19.97Z</time></trkpt><trkpt lat="44.91118" lon="10.6442733"><ele>25.666666666666664</ele><time>2026-03-23T11:40:21.97Z</time></trkpt><trkpt lat="44.9111333" lon="10.6443583"><ele>26.0</ele><time>2026-03-23T11:40:23.97Z</time></trkpt><trkpt lat="44.9110867" lon="10.6444533"><ele>25.666666666666664</ele><time>2026-03-23T11:40:25.971Z</time></trkpt><trkpt lat="44.9110283" lon="10.6445383"><ele>25.333333333333332</ele><time>2026-03-23T11:40:27.97Z</time></trkpt><trkpt lat="44.9109833" lon="10.64462"><ele>25.0</ele><time>2026-03-23T11:40:29.971Z</time></trkpt><trkpt lat="44.91094" lon="10.6447083"><ele>24.666666666666664</ele><time>2026-03-23T11:40:31.971Z</time></trkpt><trkpt lat="44.9108867" lon="10.64479"><ele>24.333333333333332</ele><time>2026-03-23T11:40:33.971Z</time></trkpt><trkpt lat="44.9108317" lon="10.6448683"><ele>24.0</ele><time>2026-03-23T11:40:35.971Z</time></trkpt><trkpt lat="44.91078" lon="10.6449533"><ele>23.833333333333332</ele><time>2026-03-23T11:40:37.97Z</time></trkpt><trkpt lat="44.9107217" lon="10.64504"><ele>23.666666666666668</ele><time>2026-03-23T11:40:39.971Z</time></trkpt><trkpt lat="44.9106533" lon="10.6451017"><ele>23.5</ele><time>2026-03-23T11:40:41.97Z</time></trkpt><trkpt lat="44.9105967" lon="10.6451867"><ele>23.333333333333336</ele><time>2026-03-23T11:40:43.971Z</time></trkpt><trkpt lat="44.910535" lon="10.6452483"><ele>23.166666666666668</ele><time>2026-03-23T11:40:45.97Z</time></trkpt><trkpt lat="44.91048" lon="10.6453117"><ele>23.0</ele><time>2026-03-23T11:40:47.971Z</time></trkpt><trkpt lat="44.9104233" lon="10.6453967"><ele>22.833333333333336</ele><time>2026-03-23T11:40:49.97Z</time></trkpt><trkpt lat="44.9103667" lon="10.6454633"><ele>22.666666666666668</ele><time>2026-03-23T11:40:51.97Z</time></trkpt><trkpt lat="44.9103117" lon="10.6455367"><ele>22.5</ele><time>2026-03-23T11:40:53.97Z</time></trkpt><trkpt lat="44.9102517" lon="10.6456083"><ele>22.333333333333332</ele><time>2026-03-23T11:40:55.97Z</time></trkpt><trkpt lat="44.910195" lon="10.6456767"><ele>22.166666666666664</ele><time>2026-03-23T11:40:57.971Z</time></trkpt><trkpt lat="44.910135" lon="10.6457417"><ele>22.0</ele><time>2026-03-23T11:40:59.97Z</time></trkpt><trkpt lat="44.910075" lon="10.6458183"><ele>22.142857142857142</ele><time>2026-03-23T11:41:01.97Z</time></trkpt><trkpt lat="44.91002" lon="10.64589"><ele>22.285714285714285</ele><time>2026-03-23T11:41:03.97Z</time></trkpt><trkpt lat="44.9099617" lon="10.6459517"><ele>22.42857142857143</ele><time>2026-03-23T11:41:05.97Z</time></trkpt><trkpt lat="44.90991" lon="10.6460167"><ele>22.57142857142857</ele><time>2026-03-23T11:41:07.971Z</time></trkpt><trkpt lat="44.9098533" lon="10.6460883"><ele>22.71428571428571</ele><time>2026-03-23T11:41:09.97Z</time></trkpt><trkpt lat="44.909795" lon="10.64616"><ele>22.857142857142858</ele><time>2026-03-23T11:41:11.97Z</time></trkpt><trkpt lat="44.909735" lon="10.646225"><ele>23.0</ele><time>2026-03-23T11:41:13.97Z</time></trkpt><trkpt lat="44.9096767" lon="10.6462933"><ele>23.0</ele><time>2026-03-23T11:41:15.97Z</time></trkpt><trkpt lat="44.9096033" lon="10.6463533"><ele>23.0</ele><time>2026-03-23T11:41:17.971Z</time></trkpt><trkpt lat="44.9095417" lon="10.6464233"><ele>23.0</ele><time>2026-03-23T11:41:19.971Z</time></trkpt><trkpt lat="44.9094883" lon="10.6465"><ele>23.0</ele><time>2026-03-23T11:41:21.97Z</time></trkpt><trkpt lat="44.9094333" lon="10.6465667"><ele>23.0</ele><time>2026-03-23T11:41:23.97Z</time></trkpt><trkpt lat="44.9093817" lon="10.64663"><ele>23.0</ele><time>2026-03-23T11:41:25.97Z</time></trkpt><trkpt lat="44.9093233" lon="10.6466983"><ele>23.0</ele><time>2026-03-23T11:41:27.971Z</time></trkpt><trkpt lat="44.9092667" lon="10.6467583"><ele>23.0</ele><time>2026-03-23T11:41:29.97Z</time></trkpt><trkpt lat="44.9092167" lon="10.6468267"><ele>23.0</ele><time>2026-03-23T11:41:31.971Z</time></trkpt><trkpt lat="44.9091667" lon="10.646895"><ele>23.0</ele><time>2026-03-23T11:41:33.971Z</time></trkpt><trkpt lat="44.9091083" lon="10.64696"><ele>23.0</ele><time>2026-03-23T11:41:35.97Z</time></trkpt><trkpt lat="44.9090483" lon="10.6470317"><ele>23.0</ele><time>2026-03-23T11:41:37.97Z</time></trkpt><trkpt lat="44.9089833" lon="10.6471033"><ele>23.0</ele><time>2026-03-23T11:41:39.97Z</time></trkpt><trkpt lat="44.908925" lon="10.6471683"><ele>23.142857142857142</ele><time>2026-03-23T11:41:41.97Z</time></trkpt><trkpt lat="44.9088667" lon="10.647235"><ele>23.285714285714285</ele><time>2026-03-23T11:41:43.971Z</time></trkpt><trkpt lat="44.908805" lon="10.647305"><ele>23.428571428571427</ele><time>2026-03-23T11:41:45.97Z</time></trkpt><trkpt lat="44.9087483" lon="10.64737"><ele>23.57142857142857</ele><time>2026-03-23T11:41:47.97Z</time></trkpt><trkpt lat="44.9086983" lon="10.6474417"><ele>23.714285714285715</ele><time>2026-03-23T11:41:49.97Z</time></trkpt><trkpt lat="44.9086517" lon="10.64752"><ele>23.857142857142854</ele><time>2026-03-23T11:41:51.971Z</time></trkpt><trkpt lat="44.908605" lon="10.6475917"><ele>24.0</ele><time>2026-03-23T11:41:53.97Z</time></trkpt><trkpt lat="44.9085583" lon="10.647655"><ele>24.0</ele><time>2026-03-23T11:41:55.971Z</time></trkpt><trkpt lat="44.9085067" lon="10.6477183"><ele>24.0</ele><time>2026-03-23T11:41:57.971Z</time></trkpt><trkpt lat="44.9084417" lon="10.6477933"><ele>24.0</ele><time>2026-03-23T11:42:00.97Z</time></trkpt><trkpt lat="44.9083933" lon="10.6478833"><ele>24.0</ele><time>2026-03-23T11:42:03.971Z</time></trkpt><trkpt lat="44.9083633" lon="10.6479983"><ele>24.0</ele><time>2026-03-23T11:42:06.97Z</time></trkpt><trkpt lat="44.9083933" lon="10.6480783"><ele>24.0</ele><time>2026-03-23T11:42:09.971Z</time></trkpt><trkpt lat="44.9084233" lon="10.6481783"><ele>23.833333333333332</ele><time>2026-03-23T11:42:12.97Z</time></trkpt><trkpt lat="44.9084517" lon="10.64829"><ele>23.666666666666668</ele><time>2026-03-23T11:42:15.97Z</time></trkpt><trkpt lat="44.90848" lon="10.6484"><ele>23.5</ele><time>2026-03-23T11:42:18.971Z</time></trkpt><trkpt lat="44.908505" lon="10.6485"><ele>23.333333333333336</ele><time>2026-03-23T11:42:21.97Z</time></trkpt><trkpt lat="44.9085333" lon="10.6486117"><ele>23.166666666666668</ele><time>2026-03-23T11:42:24.971Z</time></trkpt><trkpt lat="44.908585" lon="10.6487"><ele>23.0</ele><time>2026-03-23T11:42:27.971Z</time></trkpt><trkpt lat="44.9086517" lon="10.6486583"><ele>22.857142857142858</ele><time>2026-03-23T11:42:29.97Z</time></trkpt><trkpt lat="44.9087033" lon="10.648585"><ele>22.71428571428571</ele><time>2026-03-23T11:42:31.97Z</time></trkpt><trkpt lat="44.9087483" lon="10.648515"><ele>22.57142857142857</ele><time>2026-03-23T11:42:33.97Z</time></trkpt><trkpt lat="44.9087933" lon="10.6484433"><ele>22.42857142857143</ele><time>2026-03-23T11:42:35.971Z</time></trkpt><trkpt lat="44.9088417" lon="10.6483783"><ele>22.285714285714285</ele><time>2026-03-23T11:42:37.971Z</time></trkpt><trkpt lat="44.9088967" lon="10.6483117"><ele>22.142857142857142</ele><time>2026-03-23T11:42:39.97Z</time></trkpt><trkpt lat="44.908955" lon="10.6482417"><ele>22.0</ele><time>2026-03-23T11:42:41.97Z</time></trkpt><trkpt lat="44.909015" lon="10.64817"><ele>22.0</ele><time>2026-03-23T11:42:43.971Z</time></trkpt><trkpt lat="44.9090767" lon="10.6481083"><ele>22.0</ele><time>2026-03-23T11:42:45.97Z</time></trkpt><trkpt lat="44.9091383" lon="10.6480367"><ele>22.0</ele><time>2026-03-23T11:42:47.97Z</time></trkpt><trkpt lat="44.9092" lon="10.6479617"><ele>22.0</ele><time>2026-03-23T11:42:49.97Z</time></trkpt><trkpt lat="44.909255" lon="10.6478833"><ele>22.0</ele><time>2026-03-23T11:42:51.97Z</time></trkpt><trkpt lat="44.9092983" lon="10.6478017"><ele>22.0</ele><time>2026-03-23T11:42:53.971Z</time></trkpt><trkpt lat="44.909345" lon="10.647735"><ele>21.666666666666664</ele><time>2026-03-23T11:42:55.97Z</time></trkpt><trkpt lat="44.90941" lon="10.647665"><ele>21.333333333333332</ele><time>2026-03-23T11:42:57.97Z</time></trkpt><trkpt lat="44.909475" lon="10.6475917"><ele>21.0</ele><time>2026-03-23T11:42:59.97Z</time></trkpt><trkpt lat="44.9095433" lon="10.6475133"><ele>20.666666666666668</ele><time>2026-03-23T11:43:01.97Z</time></trkpt><trkpt lat="44.909615" lon="10.6474383"><ele>20.333333333333336</ele><time>2026-03-23T11:43:03.971Z</time></trkpt><trkpt lat="44.9096817" lon="10.6473667"><ele>20.0</ele><time>2026-03-23T11:43:05.97Z</time></trkpt><trkpt lat="44.909755" lon="10.6472833"><ele>20.0</ele><time>2026-03-23T11:43:07.97Z</time></trkpt><trkpt lat="44.90982" lon="10.6471933"><ele>20.0</ele><time>2026-03-23T11:43:09.971Z</time></trkpt><trkpt lat="44.9098867" lon="10.64712"><ele>20.0</ele><time>2026-03-23T11:43:11.971Z</time></trkpt><trkpt lat="44.9099517" lon="10.647045"><ele>20.0</ele><time>2026-03-23T11:43:13.971Z</time></trkpt><trkpt lat="44.9100133" lon="10.64697"><ele>20.0</ele><time>2026-03-23T11:43:15.971Z</time></trkpt><trkpt lat="44.910075" lon="10.646885"><ele>20.0</ele><time>2026-03-23T11:43:17.971Z</time></trkpt><trkpt lat="44.9101217" lon="10.6467967"><ele>20.333333333333336</ele><time>2026-03-23T11:43:19.971Z</time></trkpt><trkpt lat="44.9101883" lon="10.64672"><ele>20.666666666666668</ele><time>2026-03-23T11:43:21.971Z</time></trkpt><trkpt lat="44.9102533" lon="10.646625"><ele>21.0</ele><time>2026-03-23T11:43:23.971Z</time></trkpt><trkpt lat="44.91032" lon="10.646545"><ele>21.333333333333332</ele><time>2026-03-23T11:43:25.97Z</time></trkpt><trkpt lat="44.9103883" lon="10.6464633"><ele>21.666666666666664</ele><time>2026-03-23T11:43:27.97Z</time></trkpt><trkpt lat="44.91046" lon="10.646385"><ele>22.0</ele><time>2026-03-23T11:43:29.97Z</time></trkpt><trkpt lat="44.9105283" lon="10.6463033"><ele>22.0</ele><time>2026-03-23T11:43:31.97Z</time></trkpt><trkpt lat="44.9105867" lon="10.6462083"><ele>22.0</ele><time>2026-03-23T11:43:33.971Z</time></trkpt><trkpt lat="44.910655" lon="10.64613"><ele>22.0</ele><time>2026-03-23T11:43:35.97Z</time></trkpt><trkpt lat="44.910725" lon="10.6460533"><ele>22.0</ele><time>2026-03-23T11:43:37.971Z</time></trkpt><trkpt lat="44.9107817" lon="10.6459667"><ele>22.0</ele><time>2026-03-23T11:43:39.971Z</time></trkpt><trkpt lat="44.9108417" lon="10.6458867"><ele>22.0</ele><time>2026-03-23T11:43:41.971Z</time></trkpt><trkpt lat="44.9109117" lon="10.6458133"><ele>21.5</ele><time>2026-03-23T11:43:43.971Z</time></trkpt><trkpt lat="44.9109867" lon="10.6457417"><ele>21.0</ele><time>2026-03-23T11:43:45.971Z</time></trkpt><trkpt lat="44.9110517" lon="10.6456683"><ele>20.5</ele><time>2026-03-23T11:43:47.971Z</time></trkpt><trkpt lat="44.911115" lon="10.6455917"><ele>20.0</ele><time>2026-03-23T11:43:49.97Z</time></trkpt><trkpt lat="44.9111733" lon="10.6455133"><ele>19.5</ele><time>2026-03-23T11:43:51.971Z</time></trkpt><trkpt lat="44.911235" lon="10.645435"><ele>19.0</ele><time>2026-03-23T11:43:53.97Z</time></trkpt><trkpt lat="44.9112967" lon="10.64535"><ele>19.833333333333332</ele><time>2026-03-23T11:43:55.971Z</time></trkpt><trkpt lat="44.911355" lon="10.6452733"><ele>20.666666666666664</ele><time>2026-03-23T11:43:57.971Z</time></trkpt><trkpt lat="44.911425" lon="10.6451983"><ele>21.5</ele><time>2026-03-23T11:43:59.97Z</time></trkpt><trkpt lat="44.9114867" lon="10.6451233"><ele>22.333333333333332</ele><time>2026-03-23T11:44:01.97Z</time></trkpt><trkpt lat="44.91155" lon="10.6450467"><ele>23.166666666666668</ele><time>2026-03-23T11:44:03.97Z</time></trkpt><trkpt lat="44.911615" lon="10.64497"><ele>24.0</ele><time>2026-03-23T11:44:05.971Z</time></trkpt><trkpt lat="44.9116767" lon="10.6449"><ele>24.0</ele><time>2026-03-23T11:44:07.971Z</time></trkpt><trkpt lat="44.911735" lon="10.644825"><ele>24.0</ele><time>2026-03-23T11:44:09.971Z</time></trkpt><trkpt lat="44.9117933" lon="10.6447433"><ele>24.0</ele><time>2026-03-23T11:44:11.97Z</time></trkpt><trkpt lat="44.9118567" lon="10.6446733"><ele>24.0</ele><time>2026-03-23T11:44:13.97Z</time></trkpt><trkpt lat="44.9119167" lon="10.644605"><ele>24.0</ele><time>2026-03-23T11:44:15.971Z</time></trkpt><trkpt lat="44.91198" lon="10.64453"><ele>24.0</ele><time>2026-03-23T11:44:17.971Z</time></trkpt><trkpt lat="44.9120417" lon="10.6444583"><ele>24.0</ele><time>2026-03-23T11:44:19.97Z</time></trkpt><trkpt lat="44.912105" lon="10.6443733"><ele>24.0</ele><time>2026-03-23T11:44:21.97Z</time></trkpt><trkpt lat="44.9121733" lon="10.6443017"><ele>24.0</ele><time>2026-03-23T11:44:23.971Z</time></trkpt><trkpt lat="44.9122383" lon="10.6442283"><ele>24.0</ele><time>2026-03-23T11:44:25.971Z</time></trkpt><trkpt lat="44.9123" lon="10.6441583"><ele>24.0</ele><time>2026-03-23T11:44:27.971Z</time></trkpt><trkpt lat="44.912365" lon="10.6440783"><ele>24.0</ele><time>2026-03-23T11:44:29.97Z</time></trkpt><trkpt lat="44.91243" lon="10.644"><ele>24.0</ele><time>2026-03-23T11:44:31.97Z</time></trkpt><trkpt lat="44.9125" lon="10.6439283"><ele>24.0</ele><time>2026-03-23T11:44:33.971Z</time></trkpt><trkpt lat="44.9125667" lon="10.64386"><ele>24.0</ele><time>2026-03-23T11:44:35.971Z</time></trkpt><trkpt lat="44.9126317" lon="10.6437867"><ele>24.0</ele><time>2026-03-23T11:44:37.971Z</time></trkpt><trkpt lat="44.912695" lon="10.6437183"><ele>24.0</ele><time>2026-03-23T11:44:39.971Z</time></trkpt><trkpt lat="44.9127567" lon="10.6436483"><ele>24.0</ele><time>2026-03-23T11:44:41.97Z</time></trkpt><trkpt lat="44.9128217" lon="10.6435683"><ele>23.666666666666668</ele><time>2026-03-23T11:44:43.97Z</time></trkpt><trkpt lat="44.9128817" lon="10.643485"><ele>23.333333333333332</ele><time>2026-03-23T11:44:45.97Z</time></trkpt><trkpt lat="44.9129417" lon="10.6434167"><ele>23.0</ele><time>2026-03-23T11:44:47.97Z</time></trkpt><trkpt lat="44.9130067" lon="10.6433483"><ele>22.666666666666664</ele><time>2026-03-23T11:44:49.971Z</time></trkpt><trkpt lat="44.9130767" lon="10.64328"><ele>22.333333333333332</ele><time>2026-03-23T11:44:51.97Z</time></trkpt><trkpt lat="44.9131417" lon="10.6432117"><ele>22.0</ele><time>2026-03-23T11:44:53.971Z</time></trkpt><trkpt lat="44.9132017" lon="10.64314"><ele>22.0</ele><time>2026-03-23T11:44:55.971Z</time></trkpt><trkpt lat="44.9132617" lon="10.6430667"><ele>22.0</ele><time>2026-03-23T11:44:57.971Z</time></trkpt><trkpt lat="44.9133217" lon="10.64299"><ele>22.0</ele><time>2026-03-23T11:44:59.97Z</time></trkpt><trkpt lat="44.913385" lon="10.6429233"><ele>22.0</ele><time>2026-03-23T11:45:01.97Z</time></trkpt><trkpt lat="44.91345" lon="10.6428467"><ele>22.0</ele><time>2026-03-23T11:45:03.97Z</time></trkpt><trkpt lat="44.9135167" lon="10.6427767"><ele>22.0</ele><time>2026-03-23T11:45:05.971Z</time></trkpt><trkpt lat="44.9135833" lon="10.642695"><ele>22.166666666666664</ele><time>2026-03-23T11:45:07.971Z</time></trkpt><trkpt lat="44.9136467" lon="10.6426233"><ele>22.333333333333332</ele><time>2026-03-23T11:45:09.97Z</time></trkpt><trkpt lat="44.9137117" lon="10.6425433"><ele>22.5</ele><time>2026-03-23T11:45:11.971Z</time></trkpt><trkpt lat="44.9137783" lon="10.642465"><ele>22.666666666666668</ele><time>2026-03-23T11:45:13.971Z</time></trkpt><trkpt lat="44.9138483" lon="10.6423983"><ele>22.833333333333336</ele><time>2026-03-23T11:45:15.97Z</time></trkpt><trkpt lat="44.9139167" lon="10.6423183"><ele>23.0</ele><time>2026-03-23T11:45:17.971Z</time></trkpt><trkpt lat="44.9139767" lon="10.6422417"><ele>23.0</ele><time>2026-03-23T11:45:19.971Z</time></trkpt><trkpt lat="44.9140383" lon="10.6421767"><ele>23.0</ele><time>2026-03-23T11:45:21.97Z</time></trkpt><trkpt lat="44.914095" lon="10.6420983"><ele>23.0</ele><time>2026-03-23T11:45:23.971Z</time></trkpt><trkpt lat="44.9141567" lon="10.642025"><ele>23.0</ele><time>2026-03-23T11:45:25.971Z</time></trkpt><trkpt lat="44.9142217" lon="10.6419483"><ele>23.0</ele><time>2026-03-23T11:45:27.97Z</time></trkpt><trkpt lat="44.9142917" lon="10.6418733"><ele>23.0</ele><time>2026-03-23T11:45:29.971Z</time></trkpt><trkpt lat="44.9143633" lon="10.6417983"><ele>23.0</ele><time>2026-03-23T11:45:31.97Z</time></trkpt><trkpt lat="44.914425" lon="10.6417233"><ele>23.0</ele><time>2026-03-23T11:45:33.97Z</time></trkpt><trkpt lat="44.914485" lon="10.6416567"><ele>23.0</ele><time>2026-03-23T11:45:35.97Z</time></trkpt><trkpt lat="44.91455" lon="10.6415917"><ele>23.0</ele><time>2026-03-23T11:45:37.971Z</time></trkpt><trkpt lat="44.9146167" lon="10.641515"><ele>23.0</ele><time>2026-03-23T11:45:39.97Z</time></trkpt><trkpt lat="44.914685" lon="10.6414417"><ele>23.0</ele><time>2026-03-23T11:45:41.97Z</time></trkpt><trkpt lat="44.91475" lon="10.64137"><ele>23.0</ele><time>2026-03-23T11:45:43.971Z</time></trkpt><trkpt lat="44.91482" lon="10.6412917"><ele>23.0</ele><time>2026-03-23T11:45:45.971Z</time></trkpt><trkpt lat="44.9148817" lon="10.6412233"><ele>23.0</ele><time>2026-03-23T11:45:47.97Z</time></trkpt><trkpt lat="44.91494" lon="10.6411567"><ele>23.0</ele><time>2026-03-23T11:45:49.971Z</time></trkpt><trkpt lat="44.9149983" lon="10.6410917"><ele>23.0</ele><time>2026-03-23T11:45:51.97Z</time></trkpt><trkpt lat="44.9150567" lon="10.641015"><ele>23.0</ele><time>2026-03-23T11:45:53.971Z</time></trkpt><trkpt lat="44.9151167" lon="10.6409383"><ele>23.333333333333336</ele><time>2026-03-23T11:45:55.971Z</time></trkpt><trkpt lat="44.9151817" lon="10.64088"><ele>23.666666666666668</ele><time>2026-03-23T11:45:57.971Z</time></trkpt><trkpt lat="44.91525" lon="10.6408133"><ele>24.0</ele><time>2026-03-23T11:45:59.97Z</time></trkpt><trkpt lat="44.9153183" lon="10.6407533"><ele>24.333333333333336</ele><time>2026-03-23T11:46:01.971Z</time></trkpt><trkpt lat="44.9153817" lon="10.64068"><ele>24.666666666666668</ele><time>2026-03-23T11:46:03.97Z</time></trkpt><trkpt lat="44.9154417" lon="10.6406067"><ele>25.0</ele><time>2026-03-23T11:46:05.971Z</time></trkpt><trkpt lat="44.9155033" lon="10.6405417"><ele>25.000000000000004</ele><time>2026-03-23T11:46:07.971Z</time></trkpt><trkpt lat="44.9155667" lon="10.64048"><ele>25.0</ele><time>2026-03-23T11:46:09.971Z</time></trkpt><trkpt lat="44.9156217" lon="10.6404033"><ele>25.0</ele><time>2026-03-23T11:46:11.97Z</time></trkpt><trkpt lat="44.9156833" lon="10.6403383"><ele>25.0</ele><time>2026-03-23T11:46:13.971Z</time></trkpt><trkpt lat="44.9157483" lon="10.6402717"><ele>25.000000000000004</ele><time>2026-03-23T11:46:15.971Z</time></trkpt><trkpt lat="44.91582" lon="10.6402133"><ele>25.0</ele><time>2026-03-23T11:46:17.97Z</time></trkpt><trkpt lat="44.9158783" lon="10.6401467"><ele>25.500000000000004</ele><time>2026-03-23T11:46:19.97Z</time></trkpt><trkpt lat="44.9159417" lon="10.6400767"><ele>26.0</ele><time>2026-03-23T11:46:21.971Z</time></trkpt><trkpt lat="44.9160167" lon="10.6400283"><ele>26.5</ele><time>2026-03-23T11:46:23.971Z</time></trkpt><trkpt lat="44.9160967" lon="10.6399817"><ele>27.0</ele><time>2026-03-23T11:46:25.97Z</time></trkpt><trkpt lat="44.9161717" lon="10.639945"><ele>27.500000000000004</ele><time>2026-03-23T11:46:27.97Z</time></trkpt><trkpt lat="44.9162383" lon="10.6399217"><ele>28.0</ele><time>2026-03-23T11:46:29.97Z</time></trkpt><trkpt lat="44.9163033" lon="10.63993"><ele>28.000000000000004</ele><time>2026-03-23T11:46:31.971Z</time></trkpt><trkpt lat="44.9163817" lon="10.6399067"><ele>28.0</ele><time>2026-03-23T11:46:34.971Z</time></trkpt><trkpt lat="44.91646" lon="10.6399683"><ele>28.0</ele><time>2026-03-23T11:47:18.971Z</time></trkpt><trkpt lat="44.9165333" lon="10.6400533"><ele>28.0</ele><time>2026-03-23T11:47:21.971Z</time></trkpt><trkpt lat="44.9165933" lon="10.6401183"><ele>28.000000000000004</ele><time>2026-03-23T11:47:23.971Z</time></trkpt><trkpt lat="44.9166467" lon="10.6401933"><ele>28.0</ele><time>2026-03-23T11:47:25.97Z</time></trkpt><trkpt lat="44.9166983" lon="10.640265"><ele>27.714285714285715</ele><time>2026-03-23T11:47:27.97Z</time></trkpt><trkpt lat="44.9167367" lon="10.6403367"><ele>27.42857142857143</ele><time>2026-03-23T11:47:30.971Z</time></trkpt><trkpt lat="44.9167983" lon="10.64041"><ele>27.142857142857142</ele><time>2026-03-23T11:47:33.97Z</time></trkpt><trkpt lat="44.9168433" lon="10.6404833"><ele>26.857142857142858</ele><time>2026-03-23T11:47:35.97Z</time></trkpt><trkpt lat="44.91689" lon="10.6405583"><ele>26.571428571428573</ele><time>2026-03-23T11:47:37.971Z</time></trkpt><trkpt lat="44.91694" lon="10.64063"><ele>26.285714285714285</ele><time>2026-03-23T11:47:39.971Z</time></trkpt><trkpt lat="44.9170017" lon="10.6407133"><ele>26.0</ele><time>2026-03-23T11:47:41.971Z</time></trkpt><trkpt lat="44.9170483" lon="10.64079"><ele>25.999999999999996</ele><time>2026-03-23T11:47:43.97Z</time></trkpt><trkpt lat="44.9171033" lon="10.6408617"><ele>26.0</ele><time>2026-03-23T11:47:45.97Z</time></trkpt><trkpt lat="44.9171567" lon="10.6409317"><ele>26.0</ele><time>2026-03-23T11:47:47.97Z</time></trkpt><trkpt lat="44.9172117" lon="10.6410017"><ele>26.0</ele><time>2026-03-23T11:47:49.971Z</time></trkpt><trkpt lat="44.917265" lon="10.6410733"><ele>25.999999999999996</ele><time>2026-03-23T11:47:51.971Z</time></trkpt><trkpt lat="44.9173217" lon="10.6411517"><ele>26.0</ele><time>2026-03-23T11:47:53.97Z</time></trkpt><trkpt lat="44.9173767" lon="10.6412283"><ele>26.142857142857142</ele><time>2026-03-23T11:47:55.971Z</time></trkpt><trkpt lat="44.917435" lon="10.6412917"><ele>26.28571428571429</ele><time>2026-03-23T11:47:57.971Z</time></trkpt><trkpt lat="44.9174933" lon="10.641365"><ele>26.42857142857143</ele><time>2026-03-23T11:47:59.971Z</time></trkpt><trkpt lat="44.9175433" lon="10.6414433"><ele>26.57142857142857</ele><time>2026-03-23T11:48:01.971Z</time></trkpt><trkpt lat="44.9176033" lon="10.6415"><ele>26.714285714285715</ele><time>2026-03-23T11:48:03.97Z</time></trkpt><trkpt lat="44.917655" lon="10.6415717"><ele>26.857142857142858</ele><time>2026-03-23T11:48:05.97Z</time></trkpt><trkpt lat="44.9177033" lon="10.641645"><ele>27.0</ele><time>2026-03-23T11:48:07.97Z</time></trkpt><trkpt lat="44.917755" lon="10.6417317"><ele>27.0</ele><time>2026-03-23T11:48:09.97Z</time></trkpt><trkpt lat="44.9177883" lon="10.64183"><ele>27.0</ele><time>2026-03-23T11:48:11.971Z</time></trkpt><trkpt lat="44.9178117" lon="10.64193"><ele>27.0</ele><time>2026-03-23T11:48:13.97Z</time></trkpt><trkpt lat="44.9178317" lon="10.6420317"><ele>27.0</ele><time>2026-03-23T11:48:15.971Z</time></trkpt><trkpt lat="44.91786" lon="10.6421233"><ele>27.0</ele><time>2026-03-23T11:48:17.971Z</time></trkpt><trkpt lat="44.9178867" lon="10.6422267"><ele>27.0</ele><time>2026-03-23T11:48:19.97Z</time></trkpt><trkpt lat="44.9179083" lon="10.64234"><ele>26.333333333333332</ele><time>2026-03-23T11:48:21.971Z</time></trkpt><trkpt lat="44.9179317" lon="10.6424483"><ele>25.666666666666668</ele><time>2026-03-23T11:48:23.97Z</time></trkpt><trkpt lat="44.917955" lon="10.6425567"><ele>25.0</ele><time>2026-03-23T11:48:25.971Z</time></trkpt><trkpt lat="44.9179717" lon="10.642665"><ele>24.333333333333336</ele><time>2026-03-23T11:48:27.971Z</time></trkpt><trkpt lat="44.9179917" lon="10.6427667"><ele>23.666666666666668</ele><time>2026-03-23T11:48:29.971Z</time></trkpt><trkpt lat="44.9180183" lon="10.642875"><ele>23.0</ele><time>2026-03-23T11:48:31.971Z</time></trkpt><trkpt lat="44.9180417" lon="10.6429817"><ele>23.0</ele><time>2026-03-23T11:48:33.97Z</time></trkpt><trkpt lat="44.91807" lon="10.6430933"><ele>23.0</ele><time>2026-03-23T11:48:35.97Z</time></trkpt><trkpt lat="44.9180933" lon="10.64321"><ele>23.0</ele><time>2026-03-23T11:48:37.971Z</time></trkpt><trkpt lat="44.9181183" lon="10.6433233"><ele>23.0</ele><time>2026-03-23T11:48:39.971Z</time></trkpt><trkpt lat="44.9181383" lon="10.64343"><ele>23.0</ele><time>2026-03-23T11:48:41.97Z</time></trkpt><trkpt lat="44.9181617" lon="10.6435367"><ele>23.0</ele><time>2026-03-23T11:48:43.97Z</time></trkpt><trkpt lat="44.9181933" lon="10.6436383"><ele>22.833333333333336</ele><time>2026-03-23T11:48:45.97Z</time></trkpt><trkpt lat="44.9182233" lon="10.6437417"><ele>22.666666666666668</ele><time>2026-03-23T11:48:47.97Z</time></trkpt><trkpt lat="44.9182567" lon="10.6438467"><ele>22.5</ele><time>2026-03-23T11:48:49.97Z</time></trkpt><trkpt lat="44.9182917" lon="10.643955"><ele>22.333333333333332</ele><time>2026-03-23T11:48:51.971Z</time></trkpt><trkpt lat="44.91832" lon="10.6440683"><ele>22.166666666666664</ele><time>2026-03-23T11:48:53.97Z</time></trkpt><trkpt lat="44.9183483" lon="10.6441783"><ele>22.0</ele><time>2026-03-23T11:48:55.97Z</time></trkpt><trkpt lat="44.9183733" lon="10.6442917"><ele>21.666666666666664</ele><time>2026-03-23T11:48:57.971Z</time></trkpt><trkpt lat="44.9184017" lon="10.6444033"><ele>21.333333333333332</ele><time>2026-03-23T11:48:59.971Z</time></trkpt><trkpt lat="44.9184367" lon="10.644515"><ele>21.0</ele><time>2026-03-23T11:49:01.971Z</time></trkpt><trkpt lat="44.9184583" lon="10.6446283"><ele>20.666666666666668</ele><time>2026-03-23T11:49:03.97Z</time></trkpt><trkpt lat="44.9184933" lon="10.6447417"><ele>20.333333333333336</ele><time>2026-03-23T11:49:05.97Z</time></trkpt><trkpt lat="44.91852" lon="10.6448633"><ele>20.0</ele><time>2026-03-23T11:49:07.97Z</time></trkpt><trkpt lat="44.918535" lon="10.6449883"><ele>20.0</ele><time>2026-03-23T11:49:09.971Z</time></trkpt><trkpt lat="44.9185567" lon="10.6451017"><ele>20.0</ele><time>2026-03-23T11:49:11.971Z</time></trkpt><trkpt lat="44.9185867" lon="10.6452133"><ele>20.0</ele><time>2026-03-23T11:49:13.971Z</time></trkpt><trkpt lat="44.9186067" lon="10.64533"><ele>20.0</ele><time>2026-03-23T11:49:15.97Z</time></trkpt><trkpt lat="44.918635" lon="10.645435"><ele>20.0</ele><time>2026-03-23T11:49:17.97Z</time></trkpt><trkpt lat="44.9186533" lon="10.6455567"><ele>20.0</ele><time>2026-03-23T11:49:19.97Z</time></trkpt><trkpt lat="44.918665" lon="10.6456617"><ele>20.5</ele><time>2026-03-23T11:49:21.97Z</time></trkpt><trkpt lat="44.9186833" lon="10.645775"><ele>21.0</ele><time>2026-03-23T11:49:23.97Z</time></trkpt><trkpt lat="44.918705" lon="10.6458917"><ele>21.5</ele><time>2026-03-23T11:49:25.97Z</time></trkpt><trkpt lat="44.91872" lon="10.6460067"><ele>22.0</ele><time>2026-03-23T11:49:27.97Z</time></trkpt><trkpt lat="44.9187433" lon="10.6461233"><ele>22.5</ele><time>2026-03-23T11:49:29.97Z</time></trkpt><trkpt lat="44.9187583" lon="10.6462333"><ele>23.0</ele><time>2026-03-23T11:49:31.97Z</time></trkpt><trkpt lat="44.9187817" lon="10.6463417"><ele>23.0</ele><time>2026-03-23T11:49:33.971Z</time></trkpt><trkpt lat="44.9188067" lon="10.6464583"><ele>23.0</ele><time>2026-03-23T11:49:35.97Z</time></trkpt><trkpt lat="44.9188267" lon="10.6465717"><ele>23.0</ele><time>2026-03-23T11:49:37.97Z</time></trkpt><trkpt lat="44.918845" lon="10.64668"><ele>23.0</ele><time>2026-03-23T11:49:39.97Z</time></trkpt><trkpt lat="44.9188617" lon="10.6468067"><ele>23.0</ele><time>2026-03-23T11:49:41.971Z</time></trkpt><trkpt lat="44.9188767" lon="10.64691"><ele>23.0</ele><time>2026-03-23T11:49:43.971Z</time></trkpt><trkpt lat="44.91889" lon="10.6470283"><ele>22.833333333333336</ele><time>2026-03-23T11:49:45.97Z</time></trkpt><trkpt lat="44.9189083" lon="10.6471367"><ele>22.666666666666668</ele><time>2026-03-23T11:49:47.971Z</time></trkpt><trkpt lat="44.9189317" lon="10.6472517"><ele>22.5</ele><time>2026-03-23T11:49:49.97Z</time></trkpt><trkpt lat="44.9189517" lon="10.64737"><ele>22.333333333333332</ele><time>2026-03-23T11:49:51.971Z</time></trkpt><trkpt lat="44.9189783" lon="10.6474867"><ele>22.166666666666664</ele><time>2026-03-23T11:49:53.97Z</time></trkpt><trkpt lat="44.9190117" lon="10.6475983"><ele>22.0</ele><time>2026-03-23T11:49:55.971Z</time></trkpt><trkpt lat="44.91903" lon="10.6477133"><ele>22.333333333333332</ele><time>2026-03-23T11:49:57.971Z</time></trkpt><trkpt lat="44.9190467" lon="10.647835"><ele>22.666666666666664</ele><time>2026-03-23T11:49:59.97Z</time></trkpt><trkpt lat="44.9190617" lon="10.647955"><ele>23.0</ele><time>2026-03-23T11:50:01.97Z</time></trkpt><trkpt lat="44.9190717" lon="10.64807"><ele>23.333333333333332</ele><time>2026-03-23T11:50:03.971Z</time></trkpt><trkpt lat="44.919095" lon="10.64818"><ele>23.666666666666668</ele><time>2026-03-23T11:50:05.97Z</time></trkpt><trkpt lat="44.9191117" lon="10.648295"><ele>24.0</ele><time>2026-03-23T11:50:07.971Z</time></trkpt><trkpt lat="44.919125" lon="10.6484117"><ele>24.0</ele><time>2026-03-23T11:50:09.97Z</time></trkpt><trkpt lat="44.9191483" lon="10.6485267"><ele>24.0</ele><time>2026-03-23T11:50:11.971Z</time></trkpt><trkpt lat="44.91916" lon="10.6486383"><ele>24.0</ele><time>2026-03-23T11:50:13.97Z</time></trkpt><trkpt lat="44.9191667" lon="10.6487483"><ele>24.0</ele><time>2026-03-23T11:50:15.971Z</time></trkpt><trkpt lat="44.91917" lon="10.6488617"><ele>24.0</ele><time>2026-03-23T11:50:17.971Z</time></trkpt><trkpt lat="44.9191683" lon="10.6489567"><ele>24.0</ele><time>2026-03-23T11:50:19.97Z</time></trkpt><trkpt lat="44.9191767" lon="10.64908"><ele>24.0</ele><time>2026-03-23T11:50:21.97Z</time></trkpt><trkpt lat="44.9192017" lon="10.6492117"><ele>24.0</ele><time>2026-03-23T11:50:23.97Z</time></trkpt><trkpt lat="44.9192483" lon="10.6493417"><ele>24.0</ele><time>2026-03-23T11:50:25.97Z</time></trkpt><trkpt lat="44.91933" lon="10.6494383"><ele>24.0</ele><time>2026-03-23T11:50:27.971Z</time></trkpt><trkpt lat="44.9194417" lon="10.6495117"><ele>24.0</ele><time>2026-03-23T11:50:29.972Z</time></trkpt><trkpt lat="44.9195083" lon="10.649525"><ele>24.0</ele><time>2026-03-23T11:50:30.971Z</time></trkpt><trkpt lat="44.919575" lon="10.6495183"><ele>24.0</ele><time>2026-03-23T11:50:31.971Z</time></trkpt><trkpt lat="44.9196383" lon="10.6495"><ele>24.0</ele><time>2026-03-23T11:50:32.972Z</time></trkpt><trkpt lat="44.9196933" lon="10.6494567"><ele>24.0</ele><time>2026-03-23T11:50:33.971Z</time></trkpt><trkpt lat="44.91978" lon="10.6493367"><ele>24.0</ele><time>2026-03-23T11:50:35.972Z</time></trkpt><trkpt lat="44.919855" lon="10.6492233"><ele>24.0</ele><time>2026-03-23T11:50:37.972Z</time></trkpt><trkpt lat="44.9199183" lon="10.6491033"><ele>24.0</ele><time>2026-03-23T11:50:39.971Z</time></trkpt><trkpt lat="44.9199867" lon="10.6489883"><ele>24.0</ele><time>2026-03-23T11:50:41.972Z</time></trkpt><trkpt lat="44.9200483" lon="10.6488833"><ele>24.0</ele><time>2026-03-23T11:50:43.972Z</time></trkpt><trkpt lat="44.9201117" lon="10.6487783"><ele>24.0</ele><time>2026-03-23T11:50:45.972Z</time></trkpt><trkpt lat="44.9201717" lon="10.648675"><ele>24.0</ele><time>2026-03-23T11:50:47.971Z</time></trkpt><trkpt lat="44.9202267" lon="10.648565"><ele>23.833333333333332</ele><time>2026-03-23T11:50:49.971Z</time></trkpt><trkpt lat="44.920275" lon="10.6484583"><ele>23.666666666666668</ele><time>2026-03-23T11:50:51.972Z</time></trkpt><trkpt lat="44.920335" lon="10.6483567"><ele>23.5</ele><time>2026-03-23T11:50:53.971Z</time></trkpt><trkpt lat="44.9203967" lon="10.6482567"><ele>23.333333333333336</ele><time>2026-03-23T11:50:55.972Z</time></trkpt><trkpt lat="44.9204567" lon="10.6481633"><ele>23.166666666666668</ele><time>2026-03-23T11:50:57.971Z</time></trkpt><trkpt lat="44.920535" lon="10.648125"><ele>23.0</ele><time>2026-03-23T11:50:59.972Z</time></trkpt><trkpt lat="44.92063" lon="10.64816"><ele>23.0</ele><time>2026-03-23T11:51:01.971Z</time></trkpt><trkpt lat="44.9207117" lon="10.64824"><ele>23.0</ele><time>2026-03-23T11:51:03.972Z</time></trkpt><trkpt lat="44.9207783" lon="10.6483283"><ele>23.0</ele><time>2026-03-23T11:51:05.971Z</time></trkpt><trkpt lat="44.920835" lon="10.64841"><ele>23.0</ele><time>2026-03-23T11:51:07.972Z</time></trkpt><trkpt lat="44.9208917" lon="10.6484867"><ele>23.0</ele><time>2026-03-23T11:51:09.971Z</time></trkpt><trkpt lat="44.9209483" lon="10.6485783"><ele>23.0</ele><time>2026-03-23T11:51:11.972Z</time></trkpt><trkpt lat="44.92102" lon="10.6486617"><ele>22.833333333333336</ele><time>2026-03-23T11:51:13.972Z</time></trkpt><trkpt lat="44.9210917" lon="10.6487383"><ele>22.666666666666668</ele><time>2026-03-23T11:51:15.971Z</time></trkpt><trkpt lat="44.9211583" lon="10.6488283"><ele>22.5</ele><time>2026-03-23T11:51:17.971Z</time></trkpt><trkpt lat="44.9212267" lon="10.6489083"><ele>22.333333333333332</ele><time>2026-03-23T11:51:19.971Z</time></trkpt><trkpt lat="44.921285" lon="10.6490017"><ele>22.166666666666664</ele><time>2026-03-23T11:51:21.972Z</time></trkpt><trkpt lat="44.9213517" lon="10.6490833"><ele>22.0</ele><time>2026-03-23T11:51:23.971Z</time></trkpt><trkpt lat="44.9214233" lon="10.6491667"><ele>22.0</ele><time>2026-03-23T11:51:25.972Z</time></trkpt><trkpt lat="44.9214917" lon="10.6492533"><ele>22.0</ele><time>2026-03-23T11:51:27.971Z</time></trkpt><trkpt lat="44.921565" lon="10.64934"><ele>22.0</ele><time>2026-03-23T11:51:29.971Z</time></trkpt><trkpt lat="44.9216283" lon="10.6494217"><ele>22.0</ele><time>2026-03-23T11:51:31.971Z</time></trkpt><trkpt lat="44.9216917" lon="10.6495067"><ele>22.0</ele><time>2026-03-23T11:51:33.972Z</time></trkpt><trkpt lat="44.921755" lon="10.6495817"><ele>22.0</ele><time>2026-03-23T11:51:35.971Z</time></trkpt><trkpt lat="44.921825" lon="10.6496567"><ele>22.6</ele><time>2026-03-23T11:51:37.972Z</time></trkpt><trkpt lat="44.92191" lon="10.6497117"><ele>23.200000000000003</ele><time>2026-03-23T11:51:39.971Z</time></trkpt><trkpt lat="44.9219917" lon="10.649735"><ele>23.8</ele><time>2026-03-23T11:51:41.972Z</time></trkpt><trkpt lat="44.9220833" lon="10.6497533"><ele>24.4</ele><time>2026-03-23T11:51:43.971Z</time></trkpt><trkpt lat="44.922175" lon="10.6497683"><ele>25.0</ele><time>2026-03-23T11:51:45.971Z</time></trkpt><trkpt lat="44.9222683" lon="10.649785"><ele>25.000000000000004</ele><time>2026-03-23T11:51:47.972Z</time></trkpt><trkpt lat="44.9223533" lon="10.6497883"><ele>25.0</ele><time>2026-03-23T11:51:49.971Z</time></trkpt><trkpt lat="44.9224417" lon="10.6497967"><ele>25.0</ele><time>2026-03-23T11:51:51.971Z</time></trkpt><trkpt lat="44.9225267" lon="10.6498117"><ele>25.0</ele><time>2026-03-23T11:51:53.972Z</time></trkpt><trkpt lat="44.9226133" lon="10.6498233"><ele>25.000000000000004</ele><time>2026-03-23T11:51:55.972Z</time></trkpt><trkpt lat="44.9226983" lon="10.64984"><ele>25.0</ele><time>2026-03-23T11:51:57.971Z</time></trkpt><trkpt lat="44.9227883" lon="10.6498717"><ele>25.0</ele><time>2026-03-23T11:51:59.971Z</time></trkpt><trkpt lat="44.922875" lon="10.6498883"><ele>25.0</ele><time>2026-03-23T11:52:01.971Z</time></trkpt><trkpt lat="44.92297" lon="10.6498983"><ele>25.0</ele><time>2026-03-23T11:52:03.971Z</time></trkpt><trkpt lat="44.9230583" lon="10.6499117"><ele>25.0</ele><time>2026-03-23T11:52:05.971Z</time></trkpt><trkpt lat="44.9231567" lon="10.6499133"><ele>25.0</ele><time>2026-03-23T11:52:07.972Z</time></trkpt><trkpt lat="44.923245" lon="10.64992"><ele>25.000000000000004</ele><time>2026-03-23T11:52:09.971Z</time></trkpt><trkpt lat="44.9233367" lon="10.6499367"><ele>25.0</ele><time>2026-03-23T11:52:11.971Z</time></trkpt><trkpt lat="44.9234133" lon="10.64995"><ele>25.0</ele><time>2026-03-23T11:52:13.971Z</time></trkpt><trkpt lat="44.9234917" lon="10.6499867"><ele>25.0</ele><time>2026-03-23T11:52:15.972Z</time></trkpt><trkpt lat="44.92355" lon="10.6500717"><ele>25.000000000000004</ele><time>2026-03-23T11:52:17.971Z</time></trkpt><trkpt lat="44.9235867" lon="10.6501783"><ele>25.0</ele><time>2026-03-23T11:52:19.971Z</time></trkpt><trkpt lat="44.9236133" lon="10.6503"><ele>25.833333333333336</ele><time>2026-03-23T11:52:21.971Z</time></trkpt><trkpt lat="44.9236283" lon="10.6504217"><ele>26.666666666666668</ele><time>2026-03-23T11:52:23.971Z</time></trkpt><trkpt lat="44.9236483" lon="10.650535"><ele>27.5</ele><time>2026-03-23T11:52:25.971Z</time></trkpt><trkpt lat="44.9236617" lon="10.6506467"><ele>28.333333333333336</ele><time>2026-03-23T11:52:27.971Z</time></trkpt><trkpt lat="44.9236767" lon="10.6507517"><ele>29.166666666666668</ele><time>2026-03-23T11:52:29.971Z</time></trkpt><trkpt lat="44.9236817" lon="10.6508567"><ele>30.0</ele><time>2026-03-23T11:52:31.971Z</time></trkpt><trkpt lat="44.9236933" lon="10.6509683"><ele>30.0</ele><time>2026-03-23T11:52:33.971Z</time></trkpt><trkpt lat="44.923705" lon="10.6510767"><ele>30.0</ele><time>2026-03-23T11:52:35.971Z</time></trkpt><trkpt lat="44.92372" lon="10.6512017"><ele>30.0</ele><time>2026-03-23T11:52:37.972Z</time></trkpt><trkpt lat="44.92372" lon="10.65131"><ele>30.0</ele><time>2026-03-23T11:52:39.971Z</time></trkpt><trkpt lat="44.9237267" lon="10.6514267"><ele>30.0</ele><time>2026-03-23T11:52:41.971Z</time></trkpt><trkpt lat="44.9237483" lon="10.6515433"><ele>30.0</ele><time>2026-03-23T11:52:43.971Z</time></trkpt><trkpt lat="44.9237583" lon="10.6516517"><ele>30.0</ele><time>2026-03-23T11:52:45.972Z</time></trkpt><trkpt lat="44.9237683" lon="10.6517617"><ele>30.0</ele><time>2026-03-23T11:52:47.972Z</time></trkpt><trkpt lat="44.9237833" lon="10.6518833"><ele>30.0</ele><time>2026-03-23T11:52:49.972Z</time></trkpt><trkpt lat="44.9238" lon="10.6519983"><ele>30.0</ele><time>2026-03-23T11:52:51.971Z</time></trkpt><trkpt lat="44.9238167" lon="10.652105"><ele>30.0</ele><time>2026-03-23T11:52:53.972Z</time></trkpt><trkpt lat="44.92384" lon="10.6522"><ele>30.0</ele><time>2026-03-23T11:52:55.972Z</time></trkpt><trkpt lat="44.9238733" lon="10.6522867"><ele>29.571428571428573</ele><time>2026-03-23T11:52:57.971Z</time></trkpt><trkpt lat="44.9239183" lon="10.652375"><ele>29.142857142857142</ele><time>2026-03-23T11:52:59.971Z</time></trkpt><trkpt lat="44.923975" lon="10.6524367"><ele>28.714285714285715</ele><time>2026-03-23T11:53:01.971Z</time></trkpt><trkpt lat="44.9240233" lon="10.6525067"><ele>28.285714285714285</ele><time>2026-03-23T11:53:03.971Z</time></trkpt><trkpt lat="44.9240283" lon="10.6526083"><ele>27.857142857142854</ele><time>2026-03-23T11:53:05.971Z</time></trkpt><trkpt lat="44.92403" lon="10.6527"><ele>27.428571428571427</ele><time>2026-03-23T11:53:07.971Z</time></trkpt><trkpt lat="44.9240783" lon="10.652785"><ele>27.0</ele><time>2026-03-23T11:53:09.971Z</time></trkpt><trkpt lat="44.9241283" lon="10.652875"><ele>26.833333333333332</ele><time>2026-03-23T11:53:11.972Z</time></trkpt><trkpt lat="44.9241817" lon="10.6529717"><ele>26.666666666666664</ele><time>2026-03-23T11:53:13.972Z</time></trkpt><trkpt lat="44.9242267" lon="10.6530767"><ele>26.5</ele><time>2026-03-23T11:53:15.971Z</time></trkpt><trkpt lat="44.9242617" lon="10.6531783"><ele>26.333333333333332</ele><time>2026-03-23T11:53:17.971Z</time></trkpt><trkpt lat="44.9242983" lon="10.65328"><ele>26.166666666666664</ele><time>2026-03-23T11:53:19.971Z</time></trkpt><trkpt lat="44.9243317" lon="10.6533717"><ele>26.0</ele><time>2026-03-23T11:53:21.972Z</time></trkpt><trkpt lat="44.9243833" lon="10.6534717"><ele>25.857142857142858</ele><time>2026-03-23T11:53:23.971Z</time></trkpt><trkpt lat="44.9244067" lon="10.6535717"><ele>25.714285714285715</ele><time>2026-03-23T11:53:25.972Z</time></trkpt><trkpt lat="44.9244283" lon="10.6536633"><ele>25.571428571428573</ele><time>2026-03-23T11:53:27.971Z</time></trkpt><trkpt lat="44.9244567" lon="10.6537633"><ele>25.42857142857143</ele><time>2026-03-23T11:53:29.971Z</time></trkpt><trkpt lat="44.92448" lon="10.6538617"><ele>25.285714285714285</ele><time>2026-03-23T11:53:31.971Z</time></trkpt><trkpt lat="44.924535" lon="10.6539433"><ele>25.142857142857146</ele><time>2026-03-23T11:53:34.971Z</time></trkpt><trkpt lat="44.924595" lon="10.653975"><ele>25.0</ele><time>2026-03-23T11:53:36.972Z</time></trkpt><trkpt lat="44.9246517" lon="10.654025"><ele>25.000000000000004</ele><time>2026-03-23T11:53:38.971Z</time></trkpt><trkpt lat="44.9247117" lon="10.654085"><ele>25.0</ele><time>2026-03-23T11:53:40.971Z</time></trkpt><trkpt lat="44.92478" lon="10.6541"><ele>25.0</ele><time>2026-03-23T11:53:42.972Z</time></trkpt><trkpt lat="44.9248467" lon="10.6540867"><ele>25.0</ele><time>2026-03-23T11:53:44.972Z</time></trkpt><trkpt lat="44.9249067" lon="10.6540583"><ele>25.0</ele><time>2026-03-23T11:53:46.971Z</time></trkpt><trkpt lat="44.9249933" lon="10.6540067"><ele>25.000000000000004</ele><time>2026-03-23T11:53:49.972Z</time></trkpt><trkpt lat="44.9250583" lon="10.6539733"><ele>25.0</ele><time>2026-03-23T11:53:51.972Z</time></trkpt><trkpt lat="44.9251267" lon="10.65395"><ele>25.000000000000004</ele><time>2026-03-23T11:53:53.972Z</time></trkpt><trkpt lat="44.92519" lon="10.6539367"><ele>25.0</ele><time>2026-03-23T11:53:55.972Z</time></trkpt><trkpt lat="44.925265" lon="10.6539"><ele>25.0</ele><time>2026-03-23T11:53:58.972Z</time></trkpt><trkpt lat="44.9253483" lon="10.6538817"><ele>25.0</ele><time>2026-03-23T11:54:01.971Z</time></trkpt><trkpt lat="44.92542" lon="10.6538567"><ele>25.000000000000004</ele><time>2026-03-23T11:54:03.971Z</time></trkpt><trkpt lat="44.925515" lon="10.65384"><ele>25.0</ele><time>2026-03-23T11:54:05.971Z</time></trkpt><trkpt lat="44.925615" lon="10.65383"><ele>25.0</ele><time>2026-03-23T11:54:07.971Z</time></trkpt><trkpt lat="44.9257133" lon="10.65383"><ele>25.0</ele><time>2026-03-23T11:54:09.972Z</time></trkpt><trkpt lat="44.9258083" lon="10.65383"><ele>25.0</ele><time>2026-03-23T11:54:11.972Z</time></trkpt><trkpt lat="44.9259083" lon="10.6538367"><ele>25.0</ele><time>2026-03-23T11:54:13.971Z</time></trkpt><trkpt lat="44.926005" lon="10.6538567"><ele>25.0</ele><time>2026-03-23T11:54:15.971Z</time></trkpt><trkpt lat="44.9261083" lon="10.6538767"><ele>24.8</ele><time>2026-03-23T11:54:17.972Z</time></trkpt><trkpt lat="44.92621" lon="10.6538733"><ele>24.6</ele><time>2026-03-23T11:54:19.971Z</time></trkpt><trkpt lat="44.9263167" lon="10.6538783"><ele>24.4</ele><time>2026-03-23T11:54:21.972Z</time></trkpt><trkpt lat="44.9264217" lon="10.6538883"><ele>24.2</ele><time>2026-03-23T11:54:23.972Z</time></trkpt><trkpt lat="44.9265233" lon="10.6539"><ele>24.0</ele><time>2026-03-23T11:54:25.971Z</time></trkpt><trkpt lat="44.9266167" lon="10.653915"><ele>24.0</ele><time>2026-03-23T11:54:27.971Z</time></trkpt><trkpt lat="44.9267183" lon="10.6539267"><ele>24.0</ele><time>2026-03-23T11:54:29.972Z</time></trkpt><trkpt lat="44.9268283" lon="10.65393"><ele>24.0</ele><time>2026-03-23T11:54:31.971Z</time></trkpt><trkpt lat="44.9269333" lon="10.6539383"><ele>24.0</ele><time>2026-03-23T11:54:33.971Z</time></trkpt><trkpt lat="44.92704" lon="10.6539467"><ele>24.0</ele><time>2026-03-23T11:54:35.971Z</time></trkpt><trkpt lat="44.9271417" lon="10.6539517"><ele>24.0</ele><time>2026-03-23T11:54:37.971Z</time></trkpt><trkpt lat="44.9272483" lon="10.6539733"><ele>24.0</ele><time>2026-03-23T11:54:39.971Z</time></trkpt><trkpt lat="44.927345" lon="10.6539967"><ele>24.0</ele><time>2026-03-23T11:54:41.971Z</time></trkpt><trkpt lat="44.9274517" lon="10.6540033"><ele>24.0</ele><time>2026-03-23T11:54:43.972Z</time></trkpt><trkpt lat="44.92755" lon="10.654015"><ele>24.0</ele><time>2026-03-23T11:54:45.971Z</time></trkpt><trkpt lat="44.92765" lon="10.6540117"><ele>24.0</ele><time>2026-03-23T11:54:47.971Z</time></trkpt><trkpt lat="44.92775" lon="10.6540233"><ele>24.0</ele><time>2026-03-23T11:54:49.971Z</time></trkpt><trkpt lat="44.92786" lon="10.6540417"><ele>24.0</ele><time>2026-03-23T11:54:51.971Z</time></trkpt><trkpt lat="44.9279683" lon="10.6540467"><ele>24.0</ele><time>2026-03-23T11:54:53.971Z</time></trkpt><trkpt lat="44.928065" lon="10.65405"><ele>24.0</ele><time>2026-03-23T11:54:55.972Z</time></trkpt><trkpt lat="44.928165" lon="10.6540533"><ele>24.0</ele><time>2026-03-23T11:54:57.971Z</time></trkpt><trkpt lat="44.9282733" lon="10.6540567"><ele>24.0</ele><time>2026-03-23T11:54:59.971Z</time></trkpt><trkpt lat="44.9283683" lon="10.6540667"><ele>24.0</ele><time>2026-03-23T11:55:01.972Z</time></trkpt><trkpt lat="44.9284633" lon="10.6540783"><ele>24.0</ele><time>2026-03-23T11:55:03.972Z</time></trkpt><trkpt lat="44.9285617" lon="10.6540933"><ele>24.0</ele><time>2026-03-23T11:55:05.971Z</time></trkpt><trkpt lat="44.92866" lon="10.654105"><ele>23.799999999999997</ele><time>2026-03-23T11:55:07.972Z</time></trkpt><trkpt lat="44.92876" lon="10.6541217"><ele>23.599999999999998</ele><time>2026-03-23T11:55:09.971Z</time></trkpt><trkpt lat="44.92885" lon="10.654135"><ele>23.4</ele><time>2026-03-23T11:55:11.971Z</time></trkpt><trkpt lat="44.9289433" lon="10.654155"><ele>23.2</ele><time>2026-03-23T11:55:13.972Z</time></trkpt><trkpt lat="44.92904" lon="10.6541583"><ele>23.0</ele><time>2026-03-23T11:55:15.972Z</time></trkpt><trkpt lat="44.9291367" lon="10.65416"><ele>23.5</ele><time>2026-03-23T11:55:17.972Z</time></trkpt><trkpt lat="44.9292333" lon="10.65417"><ele>24.0</ele><time>2026-03-23T11:55:19.971Z</time></trkpt><trkpt lat="44.92932" lon="10.6541833"><ele>24.5</ele><time>2026-03-23T11:55:21.972Z</time></trkpt><trkpt lat="44.92941" lon="10.6541817"><ele>25.0</ele><time>2026-03-23T11:55:23.972Z</time></trkpt><trkpt lat="44.9294933" lon="10.6541967"><ele>25.499999999999996</ele><time>2026-03-23T11:55:25.971Z</time></trkpt><trkpt lat="44.929575" lon="10.654205"><ele>26.0</ele><time>2026-03-23T11:55:27.972Z</time></trkpt><trkpt lat="44.9296483" lon="10.65416"><ele>25.999999999999996</ele><time>2026-03-23T11:55:29.971Z</time></trkpt><trkpt lat="44.9297017" lon="10.654085"><ele>26.0</ele><time>2026-03-23T11:55:31.971Z</time></trkpt><trkpt lat="44.929715" lon="10.6539567"><ele>26.0</ele><time>2026-03-23T11:55:33.971Z</time></trkpt><trkpt lat="44.929695" lon="10.6538567"><ele>26.0</ele><time>2026-03-23T11:55:35.972Z</time></trkpt><trkpt lat="44.92974" lon="10.6537683"><ele>25.999999999999996</ele><time>2026-03-23T11:55:38.971Z</time></trkpt><trkpt lat="44.9297383" lon="10.6536733"><ele>26.0</ele><time>2026-03-23T11:55:41.972Z</time></trkpt><trkpt lat="44.9297217" lon="10.6535667"><ele>26.166666666666664</ele><time>2026-03-23T11:55:44.971Z</time></trkpt><trkpt lat="44.929715" lon="10.6534767"><ele>26.333333333333332</ele><time>2026-03-23T11:55:46.971Z</time></trkpt><trkpt lat="44.929695" lon="10.6533517"><ele>26.5</ele><time>2026-03-23T11:55:49.972Z</time></trkpt><trkpt lat="44.929675" lon="10.6532617"><ele>26.666666666666664</ele><time>2026-03-23T11:55:51.971Z</time></trkpt><trkpt lat="44.92967" lon="10.65315"><ele>26.833333333333332</ele><time>2026-03-23T11:55:54.971Z</time></trkpt><trkpt lat="44.9297433" lon="10.6531483"><ele>27.0</ele><time>2026-03-23T11:55:57.971Z</time></trkpt><trkpt lat="44.92984" lon="10.6531667"><ele>27.0</ele><time>2026-03-23T11:56:00.971Z</time></trkpt><trkpt lat="44.92991" lon="10.6531783"><ele>27.0</ele><time>2026-03-23T11:56:02.972Z</time></trkpt><trkpt lat="44.9299783" lon="10.653195"><ele>27.0</ele><time>2026-03-23T11:56:04.972Z</time></trkpt><trkpt lat="44.9300467" lon="10.6531967"><ele>27.0</ele><time>2026-03-23T11:56:06.971Z</time></trkpt><trkpt lat="44.93011" lon="10.6531917"><ele>27.0</ele><time>2026-03-23T11:56:08.971Z</time></trkpt><trkpt lat="44.9301767" lon="10.65315"><ele>27.0</ele><time>2026-03-23T11:56:10.972Z</time></trkpt><trkpt lat="44.93022" lon="10.6530717"><ele>27.0</ele><time>2026-03-23T11:56:12.972Z</time></trkpt><trkpt lat="44.930265" lon="10.6529983"><ele>26.333333333333332</ele><time>2026-03-23T11:56:14.972Z</time></trkpt><trkpt lat="44.9303733" lon="10.6530683"><ele>25.666666666666668</ele><time>2026-03-23T11:56:17.971Z</time></trkpt><trkpt lat="44.9304367" lon="10.65321"><ele>25.0</ele><time>2026-03-23T11:56:19.971Z</time></trkpt><trkpt lat="44.930435" lon="10.6533033"><ele>24.333333333333336</ele><time>2026-03-23T11:56:20.971Z</time></trkpt><trkpt lat="44.9304217" lon="10.6534"><ele>23.666666666666668</ele><time>2026-03-23T11:56:21.971Z</time></trkpt><trkpt lat="44.930415" lon="10.65349"><ele>23.0</ele><time>2026-03-23T11:56:22.972Z</time></trkpt><trkpt lat="44.93041" lon="10.6535817"><ele>22.599999999999998</ele><time>2026-03-23T11:56:23.972Z</time></trkpt><trkpt lat="44.9303917" lon="10.6537333"><ele>22.2</ele><time>2026-03-23T11:56:25.972Z</time></trkpt><trkpt lat="44.9303733" lon="10.6538817"><ele>21.8</ele><time>2026-03-23T11:56:27.971Z</time></trkpt><trkpt lat="44.9303567" lon="10.6540233"><ele>21.4</ele><time>2026-03-23T11:56:29.972Z</time></trkpt><trkpt lat="44.9303367" lon="10.6541867"><ele>21.0</ele><time>2026-03-23T11:56:31.972Z</time></trkpt><trkpt lat="44.9303167" lon="10.65436"><ele>21.0</ele><time>2026-03-23T11:56:33.971Z</time></trkpt><trkpt lat="44.9303" lon="10.65445"><ele>21.0</ele><time>2026-03-23T11:56:34.971Z</time></trkpt><trkpt lat="44.9302917" lon="10.654545"><ele>21.0</ele><time>2026-03-23T11:56:35.972Z</time></trkpt><trkpt lat="44.9302783" lon="10.65465"><ele>21.0</ele><time>2026-03-23T11:56:36.971Z</time></trkpt><trkpt lat="44.93027" lon="10.6547433"><ele>21.0</ele><time>2026-03-23T11:56:37.971Z</time></trkpt><trkpt lat="44.9302667" lon="10.6548367"><ele>21.0</ele><time>2026-03-23T11:56:38.972Z</time></trkpt><trkpt lat="44.9302617" lon="10.6549267"><ele>21.0</ele><time>2026-03-23T11:56:39.972Z</time></trkpt><trkpt lat="44.930245" lon="10.6550867"><ele>21.0</ele><time>2026-03-23T11:56:41.972Z</time></trkpt><trkpt lat="44.9302383" lon="10.655225"><ele>21.0</ele><time>2026-03-23T11:56:43.971Z</time></trkpt><trkpt lat="44.9302233" lon="10.6553267"><ele>21.0</ele><time>2026-03-23T11:56:45.971Z</time></trkpt><trkpt lat="44.9302067" lon="10.6554333"><ele>21.0</ele><time>2026-03-23T11:56:47.971Z</time></trkpt><trkpt lat="44.9301967" lon="10.6555467"><ele>21.0</ele><time>2026-03-23T11:56:49.972Z</time></trkpt><trkpt lat="44.9302317" lon="10.6556533"><ele>21.0</ele><time>2026-03-23T11:56:51.971Z</time></trkpt><trkpt lat="44.93028" lon="10.6557533"><ele>21.8</ele><time>2026-03-23T11:56:53.972Z</time></trkpt><trkpt lat="44.9303267" lon="10.65585"><ele>22.6</ele><time>2026-03-23T11:56:55.972Z</time></trkpt><trkpt lat="44.9303817" lon="10.6559483"><ele>23.4</ele><time>2026-03-23T11:56:57.971Z</time></trkpt><trkpt lat="44.93044" lon="10.656055"><ele>24.2</ele><time>2026-03-23T11:56:59.971Z</time></trkpt><trkpt lat="44.9304967" lon="10.656165"><ele>25.0</ele><time>2026-03-23T11:57:01.971Z</time></trkpt><trkpt lat="44.9305517" lon="10.6562633"><ele>25.0</ele><time>2026-03-23T11:57:03.971Z</time></trkpt><trkpt lat="44.9306133" lon="10.65637"><ele>25.0</ele><time>2026-03-23T11:57:05.971Z</time></trkpt><trkpt lat="44.93067" lon="10.65649"><ele>25.0</ele><time>2026-03-23T11:57:07.972Z</time></trkpt><trkpt lat="44.9307283" lon="10.656595"><ele>25.0</ele><time>2026-03-23T11:57:09.971Z</time></trkpt><trkpt lat="44.9308017" lon="10.6567033"><ele>25.0</ele><time>2026-03-23T11:57:11.972Z</time></trkpt><trkpt lat="44.9308667" lon="10.6568067"><ele>25.0</ele><time>2026-03-23T11:57:13.971Z</time></trkpt><trkpt lat="44.930925" lon="10.65693"><ele>25.0</ele><time>2026-03-23T11:57:15.972Z</time></trkpt><trkpt lat="44.9309917" lon="10.6570433"><ele>25.0</ele><time>2026-03-23T11:57:17.971Z</time></trkpt><trkpt lat="44.9310533" lon="10.65715"><ele>25.0</ele><time>2026-03-23T11:57:19.971Z</time></trkpt><trkpt lat="44.9311083" lon="10.657255"><ele>25.0</ele><time>2026-03-23T11:57:21.972Z</time></trkpt><trkpt lat="44.9311667" lon="10.6573567"><ele>25.0</ele><time>2026-03-23T11:57:23.971Z</time></trkpt><trkpt lat="44.9312333" lon="10.6574717"><ele>25.0</ele><time>2026-03-23T11:57:25.972Z</time></trkpt><trkpt lat="44.93128" lon="10.6575917"><ele>25.0</ele><time>2026-03-23T11:57:27.972Z</time></trkpt><trkpt lat="44.9313233" lon="10.6577033"><ele>25.0</ele><time>2026-03-23T11:57:29.972Z</time></trkpt><trkpt lat="44.9313617" lon="10.65783"><ele>25.0</ele><time>2026-03-23T11:57:31.971Z</time></trkpt><trkpt lat="44.9313883" lon="10.6579617"><ele>24.2</ele><time>2026-03-23T11:57:33.972Z</time></trkpt><trkpt lat="44.93142" lon="10.6580933"><ele>23.4</ele><time>2026-03-23T11:57:35.972Z</time></trkpt><trkpt lat="44.9314483" lon="10.6582217"><ele>22.6</ele><time>2026-03-23T11:57:37.971Z</time></trkpt><trkpt lat="44.93147" lon="10.6583483"><ele>21.8</ele><time>2026-03-23T11:57:39.971Z</time></trkpt><trkpt lat="44.9314983" lon="10.6584783"><ele>21.0</ele><time>2026-03-23T11:57:41.971Z</time></trkpt><trkpt lat="44.931515" lon="10.6586017"><ele>20.8</ele><time>2026-03-23T11:57:43.971Z</time></trkpt><trkpt lat="44.9315383" lon="10.65872"><ele>20.6</ele><time>2026-03-23T11:57:45.971Z</time></trkpt><trkpt lat="44.9315667" lon="10.6588383"><ele>20.4</ele><time>2026-03-23T11:57:47.971Z</time></trkpt><trkpt lat="44.9315933" lon="10.6589567"><ele>20.2</ele><time>2026-03-23T11:57:49.971Z</time></trkpt><trkpt lat="44.93162" lon="10.6590783"><ele>20.0</ele><time>2026-03-23T11:57:51.971Z</time></trkpt><trkpt lat="44.9316517" lon="10.6592067"><ele>20.0</ele><time>2026-03-23T11:57:53.972Z</time></trkpt><trkpt lat="44.9316833" lon="10.6593217"><ele>20.0</ele><time>2026-03-23T11:57:55.971Z</time></trkpt><trkpt lat="44.9317133" lon="10.65944"><ele>20.0</ele><time>2026-03-23T11:57:57.972Z</time></trkpt><trkpt lat="44.9317417" lon="10.6595483"><ele>20.0</ele><time>2026-03-23T11:57:59.971Z</time></trkpt><trkpt lat="44.9317817" lon="10.65965"><ele>20.0</ele><time>2026-03-23T11:58:01.972Z</time></trkpt><trkpt lat="44.93182" lon="10.6597667"><ele>20.0</ele><time>2026-03-23T11:58:03.971Z</time></trkpt><trkpt lat="44.9318683" lon="10.6598617"><ele>21.6</ele><time>2026-03-23T11:58:05.972Z</time></trkpt><trkpt lat="44.9319283" lon="10.6599433"><ele>23.2</ele><time>2026-03-23T11:58:07.972Z</time></trkpt><trkpt lat="44.9319983" lon="10.6600283"><ele>24.799999999999997</ele><time>2026-03-23T11:58:09.971Z</time></trkpt><trkpt lat="44.9320633" lon="10.6601133"><ele>26.4</ele><time>2026-03-23T11:58:11.971Z</time></trkpt><trkpt lat="44.9321417" lon="10.6602017"><ele>28.0</ele><time>2026-03-23T11:58:13.971Z</time></trkpt><trkpt lat="44.9322267" lon="10.6602667"><ele>27.4</ele><time>2026-03-23T11:58:15.971Z</time></trkpt><trkpt lat="44.93231" lon="10.66032"><ele>26.799999999999997</ele><time>2026-03-23T11:58:17.972Z</time></trkpt><trkpt lat="44.9323983" lon="10.6603833"><ele>26.2</ele><time>2026-03-23T11:58:19.971Z</time></trkpt><trkpt lat="44.9324883" lon="10.66044"><ele>25.6</ele><time>2026-03-23T11:58:21.971Z</time></trkpt><trkpt lat="44.9325683" lon="10.6604967"><ele>25.0</ele><time>2026-03-23T11:58:23.972Z</time></trkpt><trkpt lat="44.9326433" lon="10.660535"><ele>25.0</ele><time>2026-03-23T11:58:25.971Z</time></trkpt><trkpt lat="44.9327267" lon="10.6605833"><ele>25.0</ele><time>2026-03-23T11:58:27.972Z</time></trkpt><trkpt lat="44.9328117" lon="10.6606367"><ele>25.0</ele><time>2026-03-23T11:58:29.972Z</time></trkpt><trkpt lat="44.9329017" lon="10.6606917"><ele>25.0</ele><time>2026-03-23T11:58:31.971Z</time></trkpt><trkpt lat="44.9329833" lon="10.6607567"><ele>25.0</ele><time>2026-03-23T11:58:33.972Z</time></trkpt><trkpt lat="44.93307" lon="10.6608183"><ele>25.0</ele><time>2026-03-23T11:58:35.971Z</time></trkpt><trkpt lat="44.93315" lon="10.66087"><ele>25.0</ele><time>2026-03-23T11:58:37.972Z</time></trkpt><trkpt lat="44.9332417" lon="10.66093"><ele>25.0</ele><time>2026-03-23T11:58:39.972Z</time></trkpt><trkpt lat="44.93333" lon="10.660985"><ele>25.0</ele><time>2026-03-23T11:58:41.972Z</time></trkpt><trkpt lat="44.9334083" lon="10.6610317"><ele>25.0</ele><time>2026-03-23T11:58:43.972Z</time></trkpt><trkpt lat="44.933485" lon="10.6610833"><ele>24.833333333333336</ele><time>2026-03-23T11:58:45.972Z</time></trkpt><trkpt lat="44.9335617" lon="10.661135"><ele>24.666666666666668</ele><time>2026-03-23T11:58:47.971Z</time></trkpt><trkpt lat="44.9336467" lon="10.6611833"><ele>24.5</ele><time>2026-03-23T11:58:49.971Z</time></trkpt><trkpt lat="44.9337333" lon="10.661225"><ele>24.333333333333336</ele><time>2026-03-23T11:58:51.972Z</time></trkpt><trkpt lat="44.9338167" lon="10.6612617"><ele>24.166666666666668</ele><time>2026-03-23T11:58:53.971Z</time></trkpt><trkpt lat="44.9339017" lon="10.6613133"><ele>24.0</ele><time>2026-03-23T11:58:55.972Z</time></trkpt><trkpt lat="44.933985" lon="10.6613467"><ele>24.0</ele><time>2026-03-23T11:58:57.971Z</time></trkpt><trkpt lat="44.9340717" lon="10.6613833"><ele>24.0</ele><time>2026-03-23T11:58:59.972Z</time></trkpt><trkpt lat="44.93415" lon="10.6614333"><ele>24.0</ele><time>2026-03-23T11:59:01.971Z</time></trkpt><trkpt lat="44.9342133" lon="10.6614933"><ele>24.0</ele><time>2026-03-23T11:59:03.971Z</time></trkpt><trkpt lat="44.9342617" lon="10.6615767"><ele>24.0</ele><time>2026-03-23T11:59:05.972Z</time></trkpt><trkpt lat="44.9343" lon="10.661685"><ele>24.0</ele><time>2026-03-23T11:59:07.972Z</time></trkpt><trkpt lat="44.9343283" lon="10.6617983"><ele>23.833333333333332</ele><time>2026-03-23T11:59:09.972Z</time></trkpt><trkpt lat="44.9343583" lon="10.6619167"><ele>23.666666666666668</ele><time>2026-03-23T11:59:11.972Z</time></trkpt><trkpt lat="44.9343817" lon="10.66203"><ele>23.5</ele><time>2026-03-23T11:59:13.971Z</time></trkpt><trkpt lat="44.93441" lon="10.66214"><ele>23.333333333333336</ele><time>2026-03-23T11:59:15.972Z</time></trkpt><trkpt lat="44.9344383" lon="10.6622517"><ele>23.166666666666668</ele><time>2026-03-23T11:59:17.971Z</time></trkpt><trkpt lat="44.9344717" lon="10.66236"><ele>23.0</ele><time>2026-03-23T11:59:19.971Z</time></trkpt><trkpt lat="44.934495" lon="10.662475"><ele>23.333333333333336</ele><time>2026-03-23T11:59:21.971Z</time></trkpt><trkpt lat="44.93452" lon="10.6625983"><ele>23.666666666666668</ele><time>2026-03-23T11:59:23.971Z</time></trkpt><trkpt lat="44.9345483" lon="10.6627117"><ele>24.0</ele><time>2026-03-23T11:59:25.971Z</time></trkpt><trkpt lat="44.934575" lon="10.6628233"><ele>24.333333333333336</ele><time>2026-03-23T11:59:27.972Z</time></trkpt><trkpt lat="44.9346" lon="10.662935"><ele>24.666666666666668</ele><time>2026-03-23T11:59:29.972Z</time></trkpt><trkpt lat="44.9346283" lon="10.6630533"><ele>25.0</ele><time>2026-03-23T11:59:31.972Z</time></trkpt><trkpt lat="44.93466" lon="10.66317"><ele>25.2</ele><time>2026-03-23T11:59:33.971Z</time></trkpt><trkpt lat="44.9346967" lon="10.6632917"><ele>25.4</ele><time>2026-03-23T11:59:35.972Z</time></trkpt><trkpt lat="44.9347417" lon="10.6634117"><ele>25.6</ele><time>2026-03-23T11:59:37.971Z</time></trkpt><trkpt lat="44.9347733" lon="10.66354"><ele>25.8</ele><time>2026-03-23T11:59:39.972Z</time></trkpt><trkpt lat="44.9348067" lon="10.6636617"><ele>26.0</ele><time>2026-03-23T11:59:41.972Z</time></trkpt><trkpt lat="44.9348383" lon="10.66377"><ele>25.6</ele><time>2026-03-23T11:59:43.971Z</time></trkpt><trkpt lat="44.9348817" lon="10.663885"><ele>25.200000000000003</ele><time>2026-03-23T11:59:45.971Z</time></trkpt><trkpt lat="44.934925" lon="10.6640117"><ele>24.799999999999997</ele><time>2026-03-23T11:59:47.971Z</time></trkpt><trkpt lat="44.9349667" lon="10.6641367"><ele>24.4</ele><time>2026-03-23T11:59:49.971Z</time></trkpt><trkpt lat="44.935" lon="10.6642483"><ele>24.0</ele><time>2026-03-23T11:59:51.971Z</time></trkpt><trkpt lat="44.93504" lon="10.6643733"><ele>24.2</ele><time>2026-03-23T11:59:53.972Z</time></trkpt><trkpt lat="44.9350817" lon="10.66449"><ele>24.4</ele><time>2026-03-23T11:59:55.972Z</time></trkpt><trkpt lat="44.935125" lon="10.664615"><ele>24.6</ele><time>2026-03-23T11:59:57.972Z</time></trkpt><trkpt lat="44.935165" lon="10.6647267"><ele>24.8</ele><time>2026-03-23T11:59:59.971Z</time></trkpt><trkpt lat="44.935215" lon="10.6648467"><ele>25.0</ele><time>2026-03-23T12:00:01.971Z</time></trkpt><trkpt lat="44.935275" lon="10.66495"><ele>25.000000000000004</ele><time>2026-03-23T12:00:03.971Z</time></trkpt><trkpt lat="44.935325" lon="10.665055"><ele>25.0</ele><time>2026-03-23T12:00:05.972Z</time></trkpt><trkpt lat="44.9353717" lon="10.6651583"><ele>25.0</ele><time>2026-03-23T12:00:07.972Z</time></trkpt><trkpt lat="44.9354267" lon="10.6652583"><ele>25.0</ele><time>2026-03-23T12:00:09.971Z</time></trkpt><trkpt lat="44.9354767" lon="10.6653683"><ele>25.000000000000004</ele><time>2026-03-23T12:00:11.971Z</time></trkpt><trkpt lat="44.9355233" lon="10.6654733"><ele>25.0</ele><time>2026-03-23T12:00:13.972Z</time></trkpt><trkpt lat="44.9355817" lon="10.6655767"><ele>24.6</ele><time>2026-03-23T12:00:15.971Z</time></trkpt><trkpt lat="44.9356417" lon="10.665685"><ele>24.2</ele><time>2026-03-23T12:00:17.972Z</time></trkpt><trkpt lat="44.9357" lon="10.6657933"><ele>23.799999999999997</ele><time>2026-03-23T12:00:19.971Z</time></trkpt><trkpt lat="44.9357583" lon="10.6658967"><ele>23.4</ele><time>2026-03-23T12:00:21.972Z</time></trkpt><trkpt lat="44.9358167" lon="10.6659933"><ele>23.0</ele><time>2026-03-23T12:00:23.972Z</time></trkpt><trkpt lat="44.9358833" lon="10.666085"><ele>23.333333333333336</ele><time>2026-03-23T12:00:25.971Z</time></trkpt><trkpt lat="44.9359467" lon="10.666175"><ele>23.666666666666668</ele><time>2026-03-23T12:00:27.971Z</time></trkpt><trkpt lat="44.9360083" lon="10.6662617"><ele>24.0</ele><time>2026-03-23T12:00:29.971Z</time></trkpt><trkpt lat="44.9360617" lon="10.6663583"><ele>24.333333333333336</ele><time>2026-03-23T12:00:31.972Z</time></trkpt><trkpt lat="44.9361167" lon="10.6664483"><ele>24.666666666666668</ele><time>2026-03-23T12:00:33.971Z</time></trkpt><trkpt lat="44.936185" lon="10.6665317"><ele>25.0</ele><time>2026-03-23T12:00:35.971Z</time></trkpt><trkpt lat="44.9362483" lon="10.6666333"><ele>25.0</ele><time>2026-03-23T12:00:37.972Z</time></trkpt><trkpt lat="44.936315" lon="10.6667233"><ele>25.0</ele><time>2026-03-23T12:00:39.971Z</time></trkpt><trkpt lat="44.9363833" lon="10.6668133"><ele>25.0</ele><time>2026-03-23T12:00:41.972Z</time></trkpt><trkpt lat="44.93646" lon="10.6669083"><ele>25.0</ele><time>2026-03-23T12:00:43.972Z</time></trkpt><trkpt lat="44.9365367" lon="10.666995"><ele>25.0</ele><time>2026-03-23T12:00:45.971Z</time></trkpt><trkpt lat="44.93661" lon="10.667085"><ele>24.8</ele><time>2026-03-23T12:00:47.971Z</time></trkpt><trkpt lat="44.9366867" lon="10.6671567"><ele>24.6</ele><time>2026-03-23T12:00:49.972Z</time></trkpt><trkpt lat="44.9367567" lon="10.667235"><ele>24.4</ele><time>2026-03-23T12:00:51.972Z</time></trkpt><trkpt lat="44.936835" lon="10.6673217"><ele>24.2</ele><time>2026-03-23T12:00:53.972Z</time></trkpt><trkpt lat="44.9369167" lon="10.6674083"><ele>24.0</ele><time>2026-03-23T12:00:55.972Z</time></trkpt><trkpt lat="44.936995" lon="10.6674917"><ele>23.799999999999997</ele><time>2026-03-23T12:00:57.971Z</time></trkpt><trkpt lat="44.93708" lon="10.6675683"><ele>23.599999999999998</ele><time>2026-03-23T12:00:59.973Z</time></trkpt><trkpt lat="44.9371583" lon="10.66765"><ele>23.4</ele><time>2026-03-23T12:01:01.972Z</time></trkpt><trkpt lat="44.9372317" lon="10.66772"><ele>23.2</ele><time>2026-03-23T12:01:03.973Z</time></trkpt><trkpt lat="44.9373167" lon="10.6677933"><ele>23.0</ele><time>2026-03-23T12:01:05.973Z</time></trkpt><trkpt lat="44.9373967" lon="10.6678783"><ele>23.0</ele><time>2026-03-23T12:01:07.972Z</time></trkpt><trkpt lat="44.9374733" lon="10.667955"><ele>23.0</ele><time>2026-03-23T12:01:09.972Z</time></trkpt><trkpt lat="44.9375567" lon="10.6680433"><ele>23.0</ele><time>2026-03-23T12:01:11.972Z</time></trkpt><trkpt lat="44.9376417" lon="10.6681117"><ele>23.0</ele><time>2026-03-23T12:01:13.972Z</time></trkpt><trkpt lat="44.93772" lon="10.6681567"><ele>23.0</ele><time>2026-03-23T12:01:15.972Z</time></trkpt><trkpt lat="44.9378033" lon="10.668225"><ele>23.0</ele><time>2026-03-23T12:01:17.973Z</time></trkpt><trkpt lat="44.9378883" lon="10.6682967"><ele>23.0</ele><time>2026-03-23T12:01:19.973Z</time></trkpt><trkpt lat="44.937975" lon="10.668355"><ele>23.0</ele><time>2026-03-23T12:01:21.973Z</time></trkpt><trkpt lat="44.9380617" lon="10.66841"><ele>23.0</ele><time>2026-03-23T12:01:23.972Z</time></trkpt><trkpt lat="44.93815" lon="10.6684783"><ele>23.0</ele><time>2026-03-23T12:01:25.972Z</time></trkpt><trkpt lat="44.938235" lon="10.668545"><ele>23.0</ele><time>2026-03-23T12:01:27.973Z</time></trkpt><trkpt lat="44.9383183" lon="10.6686167"><ele>23.0</ele><time>2026-03-23T12:01:29.973Z</time></trkpt><trkpt lat="44.9384033" lon="10.6686783"><ele>23.0</ele><time>2026-03-23T12:01:31.973Z</time></trkpt><trkpt lat="44.9384867" lon="10.6687367"><ele>23.0</ele><time>2026-03-23T12:01:33.972Z</time></trkpt><trkpt lat="44.93857" lon="10.668795"><ele>23.0</ele><time>2026-03-23T12:01:35.972Z</time></trkpt><trkpt lat="44.9386617" lon="10.6688567"><ele>23.0</ele><time>2026-03-23T12:01:37.973Z</time></trkpt><trkpt lat="44.9387533" lon="10.6689117"><ele>23.0</ele><time>2026-03-23T12:01:39.972Z</time></trkpt><trkpt lat="44.9388433" lon="10.6689733"><ele>23.0</ele><time>2026-03-23T12:01:41.973Z</time></trkpt><trkpt lat="44.938925" lon="10.66903"><ele>23.0</ele><time>2026-03-23T12:01:43.972Z</time></trkpt><trkpt lat="44.9390117" lon="10.6690783"><ele>23.0</ele><time>2026-03-23T12:01:45.973Z</time></trkpt><trkpt lat="44.9391017" lon="10.6691317"><ele>23.0</ele><time>2026-03-23T12:01:47.972Z</time></trkpt><trkpt lat="44.93919" lon="10.6691733"><ele>23.0</ele><time>2026-03-23T12:01:49.973Z</time></trkpt><trkpt lat="44.93928" lon="10.66921"><ele>23.0</ele><time>2026-03-23T12:01:51.972Z</time></trkpt><trkpt lat="44.93937" lon="10.6692367"><ele>23.0</ele><time>2026-03-23T12:01:53.972Z</time></trkpt><trkpt lat="44.9394583" lon="10.66926"><ele>23.0</ele><time>2026-03-23T12:01:55.972Z</time></trkpt><trkpt lat="44.9395517" lon="10.66928"><ele>23.0</ele><time>2026-03-23T12:01:57.973Z</time></trkpt><trkpt lat="44.9396467" lon="10.669305"><ele>23.0</ele><time>2026-03-23T12:01:59.973Z</time></trkpt><trkpt lat="44.9397433" lon="10.66933"><ele>23.0</ele><time>2026-03-23T12:02:01.973Z</time></trkpt><trkpt lat="44.939835" lon="10.669365"><ele>23.0</ele><time>2026-03-23T12:02:03.973Z</time></trkpt><trkpt lat="44.9399317" lon="10.669395"><ele>23.0</ele><time>2026-03-23T12:02:05.972Z</time></trkpt><trkpt lat="44.9400283" lon="10.669415"><ele>23.0</ele><time>2026-03-23T12:02:07.972Z</time></trkpt><trkpt lat="44.94012" lon="10.6694433"><ele>23.0</ele><time>2026-03-23T12:02:09.973Z</time></trkpt><trkpt lat="44.9402117" lon="10.66948"><ele>23.0</ele><time>2026-03-23T12:02:11.973Z</time></trkpt><trkpt lat="44.9403017" lon="10.6695083"><ele>23.0</ele><time>2026-03-23T12:02:13.973Z</time></trkpt><trkpt lat="44.940395" lon="10.669535"><ele>23.0</ele><time>2026-03-23T12:02:15.973Z</time></trkpt><trkpt lat="44.940485" lon="10.6695467"><ele>23.0</ele><time>2026-03-23T12:02:17.972Z</time></trkpt><trkpt lat="44.94058" lon="10.6695683"><ele>23.0</ele><time>2026-03-23T12:02:19.972Z</time></trkpt><trkpt lat="44.9406733" lon="10.6695733"><ele>23.0</ele><time>2026-03-23T12:02:21.972Z</time></trkpt><trkpt lat="44.9407683" lon="10.6695867"><ele>23.0</ele><time>2026-03-23T12:02:23.972Z</time></trkpt><trkpt lat="44.9408667" lon="10.669595"><ele>23.0</ele><time>2026-03-23T12:02:25.972Z</time></trkpt><trkpt lat="44.94096" lon="10.6696133"><ele>23.4</ele><time>2026-03-23T12:02:27.972Z</time></trkpt><trkpt lat="44.94105" lon="10.6696233"><ele>23.799999999999997</ele><time>2026-03-23T12:02:29.972Z</time></trkpt><trkpt lat="44.94114" lon="10.6696267"><ele>24.2</ele><time>2026-03-23T12:02:31.972Z</time></trkpt><trkpt lat="44.9412283" lon="10.6696483"><ele>24.6</ele><time>2026-03-23T12:02:33.972Z</time></trkpt><trkpt lat="44.9413267" lon="10.6696667"><ele>25.0</ele><time>2026-03-23T12:02:35.972Z</time></trkpt><trkpt lat="44.9414183" lon="10.6697067"><ele>25.000000000000004</ele><time>2026-03-23T12:02:37.973Z</time></trkpt><trkpt lat="44.9415033" lon="10.6697367"><ele>25.0</ele><time>2026-03-23T12:02:39.973Z</time></trkpt><trkpt lat="44.9415833" lon="10.6697733"><ele>25.0</ele><time>2026-03-23T12:02:41.972Z</time></trkpt><trkpt lat="44.9416583" lon="10.66982"><ele>25.0</ele><time>2026-03-23T12:02:43.973Z</time></trkpt><trkpt lat="44.94173" lon="10.669875"><ele>25.000000000000004</ele><time>2026-03-23T12:02:45.973Z</time></trkpt><trkpt lat="44.9418017" lon="10.6699533"><ele>25.0</ele><time>2026-03-23T12:02:47.973Z</time></trkpt><trkpt lat="44.9418733" lon="10.670035"><ele>24.500000000000004</ele><time>2026-03-23T12:02:49.973Z</time></trkpt><trkpt lat="44.94195" lon="10.6701267"><ele>24.0</ele><time>2026-03-23T12:02:51.972Z</time></trkpt><trkpt lat="44.9420067" lon="10.6702217"><ele>23.5</ele><time>2026-03-23T12:02:53.972Z</time></trkpt><trkpt lat="44.94206" lon="10.6703133"><ele>23.0</ele><time>2026-03-23T12:02:55.973Z</time></trkpt><trkpt lat="44.9420967" lon="10.6704183"><ele>22.5</ele><time>2026-03-23T12:02:57.972Z</time></trkpt><trkpt lat="44.942135" lon="10.6705167"><ele>22.0</ele><time>2026-03-23T12:02:59.973Z</time></trkpt><trkpt lat="44.9421767" lon="10.670615"><ele>22.0</ele><time>2026-03-23T12:03:01.973Z</time></trkpt><trkpt lat="44.94221" lon="10.6707267"><ele>22.0</ele><time>2026-03-23T12:03:03.973Z</time></trkpt><trkpt lat="44.942245" lon="10.6708183"><ele>22.0</ele><time>2026-03-23T12:03:05.972Z</time></trkpt><trkpt lat="44.94229" lon="10.6708967"><ele>22.0</ele><time>2026-03-23T12:03:07.972Z</time></trkpt><trkpt lat="44.9423367" lon="10.6709567"><ele>22.0</ele><time>2026-03-23T12:03:09.972Z</time></trkpt><trkpt lat="44.9423983" lon="10.6710467"><ele>22.0</ele><time>2026-03-23T12:03:11.972Z</time></trkpt><trkpt lat="44.9424583" lon="10.6711983"><ele>22.0</ele><time>2026-03-23T12:03:13.972Z</time></trkpt><trkpt lat="44.942485" lon="10.6712817"><ele>22.0</ele><time>2026-03-23T12:03:14.973Z</time></trkpt><trkpt lat="44.9425117" lon="10.67137"><ele>22.0</ele><time>2026-03-23T12:03:15.973Z</time></trkpt><trkpt lat="44.9425383" lon="10.671465"><ele>22.0</ele><time>2026-03-23T12:03:16.972Z</time></trkpt><trkpt lat="44.9425667" lon="10.671565"><ele>22.0</ele><time>2026-03-23T12:03:17.973Z</time></trkpt><trkpt lat="44.9425983" lon="10.6716683"><ele>22.0</ele><time>2026-03-23T12:03:18.972Z</time></trkpt><trkpt lat="44.942625" lon="10.67177"><ele>22.0</ele><time>2026-03-23T12:03:19.972Z</time></trkpt><trkpt lat="44.942645" lon="10.6718683"><ele>21.8</ele><time>2026-03-23T12:03:20.972Z</time></trkpt><trkpt lat="44.9426617" lon="10.67197"><ele>21.6</ele><time>2026-03-23T12:03:21.972Z</time></trkpt><trkpt lat="44.94268" lon="10.6720667"><ele>21.400000000000002</ele><time>2026-03-23T12:03:22.973Z</time></trkpt><trkpt lat="44.9427" lon="10.672155"><ele>21.200000000000003</ele><time>2026-03-23T12:03:23.972Z</time></trkpt><trkpt lat="44.942735" lon="10.6723267"><ele>21.0</ele><time>2026-03-23T12:03:25.972Z</time></trkpt><trkpt lat="44.9427517" lon="10.6724883"><ele>21.0</ele><time>2026-03-23T12:03:27.973Z</time></trkpt><trkpt lat="44.9427833" lon="10.6726533"><ele>21.0</ele><time>2026-03-23T12:03:29.973Z</time></trkpt><trkpt lat="44.942805" lon="10.6728083"><ele>21.0</ele><time>2026-03-23T12:03:31.973Z</time></trkpt><trkpt lat="44.9428317" lon="10.67296"><ele>21.0</ele><time>2026-03-23T12:03:33.972Z</time></trkpt><trkpt lat="44.94285" lon="10.67311"><ele>21.0</ele><time>2026-03-23T12:03:35.972Z</time></trkpt><trkpt lat="44.942875" lon="10.6732483"><ele>21.0</ele><time>2026-03-23T12:03:37.972Z</time></trkpt><trkpt lat="44.9428967" lon="10.6733783"><ele>21.0</ele><time>2026-03-23T12:03:39.973Z</time></trkpt><trkpt lat="44.9429217" lon="10.6734867"><ele>21.0</ele><time>2026-03-23T12:03:41.973Z</time></trkpt><trkpt lat="44.9429183" lon="10.6735817"><ele>21.0</ele><time>2026-03-23T12:03:43.972Z</time></trkpt><trkpt lat="44.9429183" lon="10.6734767"><ele>21.0</ele><time>2026-03-23T12:03:49.972Z</time></trkpt><trkpt lat="44.9428933" lon="10.6733817"><ele>21.0</ele><time>2026-03-23T12:03:51.973Z</time></trkpt><trkpt lat="44.9428817" lon="10.6732733"><ele>21.0</ele><time>2026-03-23T12:03:53.972Z</time></trkpt><trkpt lat="44.94287" lon="10.67315"><ele>21.0</ele><time>2026-03-23T12:03:55.972Z</time></trkpt><trkpt lat="44.9428483" lon="10.673045"><ele>21.0</ele><time>2026-03-23T12:03:57.972Z</time></trkpt><trkpt lat="44.942825" lon="10.6729217"><ele>21.0</ele><time>2026-03-23T12:03:59.972Z</time></trkpt><trkpt lat="44.9428067" lon="10.6728"><ele>21.0</ele><time>2026-03-23T12:04:01.972Z</time></trkpt><trkpt lat="44.9427883" lon="10.6726783"><ele>21.0</ele><time>2026-03-23T12:04:03.972Z</time></trkpt><trkpt lat="44.9427633" lon="10.6725583"><ele>21.0</ele><time>2026-03-23T12:04:05.972Z</time></trkpt><trkpt lat="44.942745" lon="10.6724367"><ele>21.0</ele><time>2026-03-23T12:04:07.972Z</time></trkpt><trkpt lat="44.942725" lon="10.672325"><ele>21.0</ele><time>2026-03-23T12:04:09.972Z</time></trkpt><trkpt lat="44.94271" lon="10.6722067"><ele>21.0</ele><time>2026-03-23T12:04:11.973Z</time></trkpt><trkpt lat="44.9426917" lon="10.672095"><ele>21.0</ele><time>2026-03-23T12:04:13.972Z</time></trkpt><trkpt lat="44.9426767" lon="10.67198"><ele>21.166666666666668</ele><time>2026-03-23T12:04:15.973Z</time></trkpt><trkpt lat="44.9426583" lon="10.67187"><ele>21.333333333333332</ele><time>2026-03-23T12:04:17.973Z</time></trkpt><trkpt lat="44.9426433" lon="10.6717567"><ele>21.5</ele><time>2026-03-23T12:04:19.972Z</time></trkpt><trkpt lat="44.9426183" lon="10.6716367"><ele>21.666666666666664</ele><time>2026-03-23T12:04:21.972Z</time></trkpt><trkpt lat="44.9426" lon="10.6715317"><ele>21.833333333333332</ele><time>2026-03-23T12:04:23.973Z</time></trkpt><trkpt lat="44.94259" lon="10.6714267"><ele>22.0</ele><time>2026-03-23T12:04:25.972Z</time></trkpt><trkpt lat="44.9425767" lon="10.6713267"><ele>22.0</ele><time>2026-03-23T12:04:27.972Z</time></trkpt><trkpt lat="44.9425633" lon="10.67122"><ele>22.0</ele><time>2026-03-23T12:04:29.972Z</time></trkpt><trkpt lat="44.9425417" lon="10.6711133"><ele>22.0</ele><time>2026-03-23T12:04:31.972Z</time></trkpt><trkpt lat="44.9425233" lon="10.6710067"><ele>22.0</ele><time>2026-03-23T12:04:33.973Z</time></trkpt><trkpt lat="44.942495" lon="10.6709117"><ele>22.0</ele><time>2026-03-23T12:04:35.972Z</time></trkpt><trkpt lat="44.94246" lon="10.670825"><ele>22.0</ele><time>2026-03-23T12:04:37.973Z</time></trkpt><trkpt lat="44.9424067" lon="10.6707067"><ele>22.0</ele><time>2026-03-23T12:04:39.972Z</time></trkpt><trkpt lat="44.9423533" lon="10.670585"><ele>22.0</ele><time>2026-03-23T12:04:41.972Z</time></trkpt><trkpt lat="44.9423067" lon="10.670485"><ele>22.0</ele><time>2026-03-23T12:04:43.972Z</time></trkpt><trkpt lat="44.9422567" lon="10.67039"><ele>22.0</ele><time>2026-03-23T12:04:45.972Z</time></trkpt><trkpt lat="44.9422067" lon="10.6702983"><ele>22.0</ele><time>2026-03-23T12:04:47.973Z</time></trkpt><trkpt lat="44.9421517" lon="10.6701933"><ele>22.0</ele><time>2026-03-23T12:04:49.972Z</time></trkpt><trkpt lat="44.9421033" lon="10.670085"><ele>21.833333333333332</ele><time>2026-03-23T12:04:51.972Z</time></trkpt><trkpt lat="44.9420583" lon="10.6699783"><ele>21.666666666666664</ele><time>2026-03-23T12:04:53.973Z</time></trkpt><trkpt lat="44.94203" lon="10.66986"><ele>21.5</ele><time>2026-03-23T12:04:55.973Z</time></trkpt><trkpt lat="44.94202" lon="10.6697483"><ele>21.333333333333332</ele><time>2026-03-23T12:04:57.972Z</time></trkpt><trkpt lat="44.942015" lon="10.66964"><ele>21.166666666666668</ele><time>2026-03-23T12:04:59.972Z</time></trkpt><trkpt lat="44.9420133" lon="10.6695183"><ele>21.0</ele><time>2026-03-23T12:05:01.972Z</time></trkpt><trkpt lat="44.942015" lon="10.6693917"><ele>21.0</ele><time>2026-03-23T12:05:03.973Z</time></trkpt><trkpt lat="44.9420017" lon="10.6692717"><ele>21.0</ele><time>2026-03-23T12:05:05.973Z</time></trkpt><trkpt lat="44.9420033" lon="10.6691683"><ele>21.0</ele><time>2026-03-23T12:05:07.972Z</time></trkpt><trkpt lat="44.941985" lon="10.66905"><ele>21.0</ele><time>2026-03-23T12:05:09.973Z</time></trkpt><trkpt lat="44.9419767" lon="10.6689467"><ele>21.0</ele><time>2026-03-23T12:05:11.972Z</time></trkpt><trkpt lat="44.9419733" lon="10.66885"><ele>21.0</ele><time>2026-03-23T12:05:13.972Z</time></trkpt><trkpt lat="44.941965" lon="10.668745"><ele>21.0</ele><time>2026-03-23T12:05:15.972Z</time></trkpt><trkpt lat="44.9419517" lon="10.6686517"><ele>21.0</ele><time>2026-03-23T12:05:17.972Z</time></trkpt><trkpt lat="44.9419383" lon="10.66855"><ele>21.0</ele><time>2026-03-23T12:05:19.972Z</time></trkpt><trkpt lat="44.9419383" lon="10.6684467"><ele>21.0</ele><time>2026-03-23T12:05:21.973Z</time></trkpt><trkpt lat="44.9419333" lon="10.6683533"><ele>21.0</ele><time>2026-03-23T12:05:23.972Z</time></trkpt><trkpt lat="44.9419333" lon="10.6682517"><ele>21.0</ele><time>2026-03-23T12:05:25.972Z</time></trkpt><trkpt lat="44.9419533" lon="10.668165"><ele>21.0</ele><time>2026-03-23T12:05:27.973Z</time></trkpt><trkpt lat="44.941995" lon="10.6680983"><ele>21.166666666666668</ele><time>2026-03-23T12:05:29.973Z</time></trkpt><trkpt lat="44.9420633" lon="10.6680583"><ele>21.333333333333332</ele><time>2026-03-23T12:05:31.972Z</time></trkpt><trkpt lat="44.9421417" lon="10.66803"><ele>21.5</ele><time>2026-03-23T12:05:33.973Z</time></trkpt><trkpt lat="44.9422083" lon="10.6679917"><ele>21.666666666666664</ele><time>2026-03-23T12:05:35.973Z</time></trkpt><trkpt lat="44.9422867" lon="10.6679617"><ele>21.833333333333332</ele><time>2026-03-23T12:05:38.972Z</time></trkpt><trkpt lat="44.9423683" lon="10.6679683"><ele>22.0</ele><time>2026-03-23T12:05:41.973Z</time></trkpt><trkpt lat="44.9424367" lon="10.66797"><ele>22.0</ele><time>2026-03-23T12:05:43.972Z</time></trkpt><trkpt lat="44.9425083" lon="10.6679783"><ele>22.0</ele><time>2026-03-23T12:05:45.973Z</time></trkpt><trkpt lat="44.9425883" lon="10.6679867"><ele>22.0</ele><time>2026-03-23T12:05:47.972Z</time></trkpt><trkpt lat="44.9426633" lon="10.6679817"><ele>22.0</ele><time>2026-03-23T12:05:49.972Z</time></trkpt><trkpt lat="44.9427317" lon="10.6679817"><ele>22.0</ele><time>2026-03-23T12:05:51.973Z</time></trkpt><trkpt lat="44.9427983" lon="10.6679833"><ele>22.0</ele><time>2026-03-23T12:05:53.973Z</time></trkpt><trkpt lat="44.9428683" lon="10.6679867"><ele>22.0</ele><time>2026-03-23T12:05:55.973Z</time></trkpt><trkpt lat="44.94294" lon="10.667985"><ele>22.0</ele><time>2026-03-23T12:05:57.972Z</time></trkpt><trkpt lat="44.94301" lon="10.66798"><ele>22.0</ele><time>2026-03-23T12:05:59.973Z</time></trkpt><trkpt lat="44.9430833" lon="10.66798"><ele>22.0</ele><time>2026-03-23T12:06:01.972Z</time></trkpt><trkpt lat="44.9431533" lon="10.6679717"><ele>22.0</ele><time>2026-03-23T12:06:03.972Z</time></trkpt><trkpt lat="44.94322" lon="10.6679633"><ele>22.0</ele><time>2026-03-23T12:06:05.972Z</time></trkpt><trkpt lat="44.9432867" lon="10.6679633"><ele>22.0</ele><time>2026-03-23T12:06:07.973Z</time></trkpt><trkpt lat="44.9433583" lon="10.6679633"><ele>22.0</ele><time>2026-03-23T12:06:09.972Z</time></trkpt><trkpt lat="44.9434283" lon="10.6679667"><ele>22.0</ele><time>2026-03-23T12:06:11.972Z</time></trkpt><trkpt lat="44.9434983" lon="10.6679633"><ele>22.0</ele><time>2026-03-23T12:06:13.972Z</time></trkpt><trkpt lat="44.9435667" lon="10.6679633"><ele>22.0</ele><time>2026-03-23T12:06:15.973Z</time></trkpt><trkpt lat="44.943635" lon="10.6679633"><ele>22.0</ele><time>2026-03-23T12:06:17.972Z</time></trkpt><trkpt lat="44.9437033" lon="10.6679667"><ele>22.0</ele><time>2026-03-23T12:06:19.973Z</time></trkpt><trkpt lat="44.943775" lon="10.667935"><ele>22.0</ele><time>2026-03-23T12:06:22.973Z</time></trkpt><trkpt lat="44.9437967" lon="10.667825"><ele>22.0</ele><time>2026-03-23T12:06:25.972Z</time></trkpt><trkpt lat="44.9438267" lon="10.6677017"><ele>22.571428571428573</ele><time>2026-03-23T12:06:28.972Z</time></trkpt><trkpt lat="44.9438533" lon="10.66759"><ele>23.142857142857142</ele><time>2026-03-23T12:06:30.972Z</time></trkpt><trkpt lat="44.9438767" lon="10.667495"><ele>23.714285714285715</ele><time>2026-03-23T12:06:32.972Z</time></trkpt><trkpt lat="44.9439" lon="10.6674017"><ele>24.285714285714285</ele><time>2026-03-23T12:06:34.972Z</time></trkpt><trkpt lat="44.943925" lon="10.667305"><ele>24.857142857142858</ele><time>2026-03-23T12:06:36.973Z</time></trkpt><trkpt lat="44.9439533" lon="10.6672083"><ele>25.428571428571427</ele><time>2026-03-23T12:06:38.972Z</time></trkpt><trkpt lat="44.943975" lon="10.6671183"><ele>26.0</ele><time>2026-03-23T12:06:40.973Z</time></trkpt><trkpt lat="44.9440033" lon="10.6670333"><ele>26.166666666666664</ele><time>2026-03-23T12:06:42.973Z</time></trkpt><trkpt lat="44.9440267" lon="10.6669333"><ele>26.333333333333332</ele><time>2026-03-23T12:06:44.973Z</time></trkpt><trkpt lat="44.9440517" lon="10.6668483"><ele>26.5</ele><time>2026-03-23T12:06:46.973Z</time></trkpt><trkpt lat="44.944085" lon="10.6667167"><ele>26.666666666666664</ele><time>2026-03-23T12:06:49.972Z</time></trkpt><trkpt lat="44.9441133" lon="10.6665933"><ele>26.833333333333332</ele><time>2026-03-23T12:06:52.972Z</time></trkpt><trkpt lat="44.944135" lon="10.6665033"><ele>27.0</ele><time>2026-03-23T12:06:54.972Z</time></trkpt><trkpt lat="44.9441633" lon="10.6664067"><ele>27.0</ele><time>2026-03-23T12:06:56.972Z</time></trkpt><trkpt lat="44.944195" lon="10.666275"><ele>27.0</ele><time>2026-03-23T12:06:59.973Z</time></trkpt><trkpt lat="44.9442167" lon="10.66618"><ele>27.0</ele><time>2026-03-23T12:07:01.973Z</time></trkpt><trkpt lat="44.9442433" lon="10.6660817"><ele>27.0</ele><time>2026-03-23T12:07:03.972Z</time></trkpt><trkpt lat="44.944265" lon="10.6659817"><ele>27.0</ele><time>2026-03-23T12:07:05.972Z</time></trkpt><trkpt lat="44.9442883" lon="10.6658933"><ele>27.0</ele><time>2026-03-23T12:07:07.972Z</time></trkpt><trkpt lat="44.9443217" lon="10.6657983"><ele>26.833333333333332</ele><time>2026-03-23T12:07:09.973Z</time></trkpt><trkpt lat="44.944345" lon="10.66568"><ele>26.666666666666664</ele><time>2026-03-23T12:07:11.973Z</time></trkpt><trkpt lat="44.9443783" lon="10.6655767"><ele>26.5</ele><time>2026-03-23T12:07:13.973Z</time></trkpt><trkpt lat="44.9444083" lon="10.6654617"><ele>26.333333333333332</ele><time>2026-03-23T12:07:15.972Z</time></trkpt><trkpt lat="44.9444383" lon="10.6653567"><ele>26.166666666666664</ele><time>2026-03-23T12:07:17.972Z</time></trkpt><trkpt lat="44.94446" lon="10.6652567"><ele>26.0</ele><time>2026-03-23T12:07:19.972Z</time></trkpt><trkpt lat="44.9444867" lon="10.6651567"><ele>25.833333333333332</ele><time>2026-03-23T12:07:21.972Z</time></trkpt><trkpt lat="44.9445167" lon="10.66505"><ele>25.666666666666664</ele><time>2026-03-23T12:07:23.973Z</time></trkpt><trkpt lat="44.9445467" lon="10.6649433"><ele>25.5</ele><time>2026-03-23T12:07:25.973Z</time></trkpt><trkpt lat="44.9445717" lon="10.6648433"><ele>25.333333333333336</ele><time>2026-03-23T12:07:27.972Z</time></trkpt><trkpt lat="44.9446" lon="10.6647433"><ele>25.166666666666668</ele><time>2026-03-23T12:07:29.973Z</time></trkpt><trkpt lat="44.9446267" lon="10.6646467"><ele>25.0</ele><time>2026-03-23T12:07:31.973Z</time></trkpt><trkpt lat="44.9446533" lon="10.66455"><ele>25.000000000000004</ele><time>2026-03-23T12:07:33.972Z</time></trkpt><trkpt lat="44.944675" lon="10.664465"><ele>25.0</ele><time>2026-03-23T12:07:35.972Z</time></trkpt><trkpt lat="44.9446983" lon="10.664365"><ele>25.0</ele><time>2026-03-23T12:07:37.973Z</time></trkpt><trkpt lat="44.9447283" lon="10.6642633"><ele>25.0</ele><time>2026-03-23T12:07:39.972Z</time></trkpt><trkpt lat="44.94475" lon="10.66416"><ele>25.0</ele><time>2026-03-23T12:07:41.973Z</time></trkpt><trkpt lat="44.944775" lon="10.66406"><ele>25.000000000000004</ele><time>2026-03-23T12:07:43.972Z</time></trkpt><trkpt lat="44.9447983" lon="10.6639617"><ele>25.0</ele><time>2026-03-23T12:07:45.972Z</time></trkpt><trkpt lat="44.9448233" lon="10.663855"><ele>25.000000000000004</ele><time>2026-03-23T12:07:47.973Z</time></trkpt><trkpt lat="44.9448583" lon="10.6637567"><ele>25.0</ele><time>2026-03-23T12:07:49.972Z</time></trkpt><trkpt lat="44.9448867" lon="10.6636567"><ele>25.0</ele><time>2026-03-23T12:07:51.972Z</time></trkpt><trkpt lat="44.944915" lon="10.6635517"><ele>25.0</ele><time>2026-03-23T12:07:53.973Z</time></trkpt><trkpt lat="44.94495" lon="10.6634467"><ele>25.000000000000004</ele><time>2026-03-23T12:07:55.973Z</time></trkpt><trkpt lat="44.94499" lon="10.663335"><ele>25.0</ele><time>2026-03-23T12:07:57.972Z</time></trkpt><trkpt lat="44.945025" lon="10.6632"><ele>24.2</ele><time>2026-03-23T12:07:59.973Z</time></trkpt><trkpt lat="44.9450717" lon="10.66308"><ele>23.4</ele><time>2026-03-23T12:08:01.972Z</time></trkpt><trkpt lat="44.945125" lon="10.6629933"><ele>22.6</ele><time>2026-03-23T12:08:03.972Z</time></trkpt><trkpt lat="44.9452" lon="10.662945"><ele>21.8</ele><time>2026-03-23T12:08:05.973Z</time></trkpt><trkpt lat="44.9452917" lon="10.66289"><ele>21.0</ele><time>2026-03-23T12:08:07.973Z</time></trkpt><trkpt lat="44.9453933" lon="10.6628267"><ele>21.4</ele><time>2026-03-23T12:08:09.972Z</time></trkpt><trkpt lat="44.945485" lon="10.6627683"><ele>21.8</ele><time>2026-03-23T12:08:11.973Z</time></trkpt><trkpt lat="44.945595" lon="10.6627133"><ele>22.2</ele><time>2026-03-23T12:08:13.972Z</time></trkpt><trkpt lat="44.9456833" lon="10.6626483"><ele>22.599999999999998</ele><time>2026-03-23T12:08:15.973Z</time></trkpt><trkpt lat="44.9457717" lon="10.66258"><ele>23.0</ele><time>2026-03-23T12:08:17.973Z</time></trkpt><trkpt lat="44.9458433" lon="10.6625133"><ele>22.666666666666668</ele><time>2026-03-23T12:08:19.972Z</time></trkpt><trkpt lat="44.945925" lon="10.66246"><ele>22.333333333333336</ele><time>2026-03-23T12:08:21.972Z</time></trkpt><trkpt lat="44.94602" lon="10.6624033"><ele>22.0</ele><time>2026-03-23T12:08:23.973Z</time></trkpt><trkpt lat="44.9461" lon="10.66234"><ele>21.666666666666668</ele><time>2026-03-23T12:08:25.972Z</time></trkpt><trkpt lat="44.9461667" lon="10.662285"><ele>21.333333333333332</ele><time>2026-03-23T12:08:27.972Z</time></trkpt><trkpt lat="44.9462383" lon="10.6622367"><ele>21.0</ele><time>2026-03-23T12:08:29.972Z</time></trkpt><trkpt lat="44.9463083" lon="10.6621817"><ele>21.0</ele><time>2026-03-23T12:08:31.973Z</time></trkpt><trkpt lat="44.9463867" lon="10.6621417"><ele>21.0</ele><time>2026-03-23T12:08:33.972Z</time></trkpt><trkpt lat="44.9464733" lon="10.6621267"><ele>21.0</ele><time>2026-03-23T12:08:35.972Z</time></trkpt><trkpt lat="44.9465733" lon="10.662155"><ele>21.0</ele><time>2026-03-23T12:08:37.972Z</time></trkpt><trkpt lat="44.94668" lon="10.6622083"><ele>21.0</ele><time>2026-03-23T12:08:39.973Z</time></trkpt><trkpt lat="44.9467383" lon="10.662245"><ele>21.0</ele><time>2026-03-23T12:08:40.972Z</time></trkpt><trkpt lat="44.9468383" lon="10.662275"><ele>21.0</ele><time>2026-03-23T12:08:42.972Z</time></trkpt><trkpt lat="44.9469283" lon="10.6623183"><ele>21.0</ele><time>2026-03-23T12:08:44.972Z</time></trkpt><trkpt lat="44.9470067" lon="10.662355"><ele>21.0</ele><time>2026-03-23T12:08:46.972Z</time></trkpt><trkpt lat="44.9470683" lon="10.662385"><ele>21.0</ele><time>2026-03-23T12:08:48.972Z</time></trkpt><trkpt lat="44.946975" lon="10.6623317"><ele>21.0</ele><time>2026-03-23T12:09:13.973Z</time></trkpt><trkpt lat="44.946875" lon="10.6622867"><ele>21.0</ele><time>2026-03-23T12:09:15.972Z</time></trkpt><trkpt lat="44.9467667" lon="10.6622583"><ele>21.0</ele><time>2026-03-23T12:09:17.972Z</time></trkpt><trkpt lat="44.9466467" lon="10.6622183"><ele>21.0</ele><time>2026-03-23T12:09:19.972Z</time></trkpt><trkpt lat="44.9465483" lon="10.66216"><ele>21.0</ele><time>2026-03-23T12:09:21.972Z</time></trkpt><trkpt lat="44.9464433" lon="10.6621133"><ele>21.0</ele><time>2026-03-23T12:09:23.972Z</time></trkpt><trkpt lat="44.9463633" lon="10.6621183"><ele>21.0</ele><time>2026-03-23T12:09:25.972Z</time></trkpt><trkpt lat="44.9462783" lon="10.6621667"><ele>21.0</ele><time>2026-03-23T12:09:27.973Z</time></trkpt><trkpt lat="44.9462083" lon="10.6622233"><ele>21.0</ele><time>2026-03-23T12:09:29.972Z</time></trkpt><trkpt lat="44.9461333" lon="10.6622817"><ele>21.0</ele><time>2026-03-23T12:09:31.973Z</time></trkpt><trkpt lat="44.94605" lon="10.6623383"><ele>21.0</ele><time>2026-03-23T12:09:33.972Z</time></trkpt><trkpt lat="44.94598" lon="10.6623883"><ele>21.0</ele><time>2026-03-23T12:09:35.973Z</time></trkpt><trkpt lat="44.9458967" lon="10.6624583"><ele>21.0</ele><time>2026-03-23T12:09:37.972Z</time></trkpt><trkpt lat="44.9458217" lon="10.6625233"><ele>21.0</ele><time>2026-03-23T12:09:39.972Z</time></trkpt><trkpt lat="44.945745" lon="10.6625867"><ele>21.0</ele><time>2026-03-23T12:09:41.973Z</time></trkpt><trkpt lat="44.945665" lon="10.6626417"><ele>21.0</ele><time>2026-03-23T12:09:43.972Z</time></trkpt><trkpt lat="44.94558" lon="10.6626917"><ele>21.0</ele><time>2026-03-23T12:09:45.973Z</time></trkpt><trkpt lat="44.9454983" lon="10.6627433"><ele>21.0</ele><time>2026-03-23T12:09:47.972Z</time></trkpt><trkpt lat="44.9454133" lon="10.6628033"><ele>21.0</ele><time>2026-03-23T12:09:49.973Z</time></trkpt><trkpt lat="44.9453317" lon="10.662855"><ele>21.0</ele><time>2026-03-23T12:09:51.972Z</time></trkpt><trkpt lat="44.945245" lon="10.6629117"><ele>21.0</ele><time>2026-03-23T12:09:53.973Z</time></trkpt><trkpt lat="44.9451617" lon="10.66297"><ele>21.0</ele><time>2026-03-23T12:09:55.973Z</time></trkpt><trkpt lat="44.9450983" lon="10.6630333"><ele>21.0</ele><time>2026-03-23T12:09:57.973Z</time></trkpt><trkpt lat="44.9450483" lon="10.6631217"><ele>21.0</ele><time>2026-03-23T12:09:59.974Z</time></trkpt><trkpt lat="44.9449983" lon="10.6632483"><ele>21.0</ele><time>2026-03-23T12:10:01.973Z</time></trkpt><trkpt lat="44.9449583" lon="10.6633867"><ele>21.0</ele><time>2026-03-23T12:10:03.974Z</time></trkpt><trkpt lat="44.9449233" lon="10.6635117"><ele>21.8</ele><time>2026-03-23T12:10:05.973Z</time></trkpt><trkpt lat="44.94489" lon="10.66364"><ele>22.6</ele><time>2026-03-23T12:10:07.974Z</time></trkpt><trkpt lat="44.944865" lon="10.6637667"><ele>23.4</ele><time>2026-03-23T12:10:09.973Z</time></trkpt><trkpt lat="44.9448283" lon="10.663885"><ele>24.2</ele><time>2026-03-23T12:10:11.973Z</time></trkpt><trkpt lat="44.944775" lon="10.6640317"><ele>25.0</ele><time>2026-03-23T12:13:59.974Z</time></trkpt><trkpt lat="44.9447517" lon="10.66414"><ele>25.000000000000004</ele><time>2026-03-23T12:14:58.973Z</time></trkpt><trkpt lat="44.944745" lon="10.66424"><ele>25.0</ele><time>2026-03-23T12:15:00.973Z</time></trkpt><trkpt lat="44.9447267" lon="10.6643417"><ele>25.0</ele><time>2026-03-23T12:15:02.974Z</time></trkpt><trkpt lat="44.9447" lon="10.6644417"><ele>25.0</ele><time>2026-03-23T12:15:04.974Z</time></trkpt><trkpt lat="44.94467" lon="10.6645317"><ele>25.0</ele><time>2026-03-23T12:15:06.974Z</time></trkpt><trkpt lat="44.9446467" lon="10.6646283"><ele>25.000000000000004</ele><time>2026-03-23T12:15:08.974Z</time></trkpt><trkpt lat="44.9446183" lon="10.66472"><ele>25.0</ele><time>2026-03-23T12:15:10.974Z</time></trkpt><trkpt lat="44.9445883" lon="10.664825"><ele>25.000000000000004</ele><time>2026-03-23T12:15:12.974Z</time></trkpt><trkpt lat="44.944565" lon="10.6649283"><ele>25.0</ele><time>2026-03-23T12:15:14.974Z</time></trkpt><trkpt lat="44.9445233" lon="10.6650317"><ele>25.0</ele><time>2026-03-23T12:15:16.974Z</time></trkpt><trkpt lat="44.9444917" lon="10.66514"><ele>25.0</ele><time>2026-03-23T12:15:18.974Z</time></trkpt><trkpt lat="44.944475" lon="10.6652583"><ele>25.000000000000004</ele><time>2026-03-23T12:15:20.974Z</time></trkpt><trkpt lat="44.944445" lon="10.6653733"><ele>25.0</ele><time>2026-03-23T12:15:22.974Z</time></trkpt><trkpt lat="44.944415" lon="10.66549"><ele>25.166666666666668</ele><time>2026-03-23T12:15:24.974Z</time></trkpt><trkpt lat="44.9443783" lon="10.6656033"><ele>25.333333333333336</ele><time>2026-03-23T12:15:26.974Z</time></trkpt><trkpt lat="44.94434" lon="10.665705"><ele>25.5</ele><time>2026-03-23T12:15:28.974Z</time></trkpt><trkpt lat="44.9443133" lon="10.66582"><ele>25.666666666666664</ele><time>2026-03-23T12:15:30.974Z</time></trkpt><trkpt lat="44.9442817" lon="10.665935"><ele>25.833333333333332</ele><time>2026-03-23T12:15:32.973Z</time></trkpt><trkpt lat="44.9442567" lon="10.6660683"><ele>26.0</ele><time>2026-03-23T12:15:34.973Z</time></trkpt><trkpt lat="44.944215" lon="10.666185"><ele>26.200000000000003</ele><time>2026-03-23T12:15:36.974Z</time></trkpt><trkpt lat="44.9441733" lon="10.6662967"><ele>26.400000000000002</ele><time>2026-03-23T12:15:38.973Z</time></trkpt><trkpt lat="44.9441383" lon="10.66642"><ele>26.6</ele><time>2026-03-23T12:15:40.973Z</time></trkpt><trkpt lat="44.944115" lon="10.666545"><ele>26.8</ele><time>2026-03-23T12:15:42.973Z</time></trkpt><trkpt lat="44.9440817" lon="10.666675"><ele>27.0</ele><time>2026-03-23T12:15:44.974Z</time></trkpt><trkpt lat="44.944045" lon="10.6667917"><ele>27.0</ele><time>2026-03-23T12:15:46.973Z</time></trkpt><trkpt lat="44.9440133" lon="10.6669067"><ele>27.000000000000004</ele><time>2026-03-23T12:15:48.973Z</time></trkpt><trkpt lat="44.9439783" lon="10.6670283"><ele>27.000000000000004</ele><time>2026-03-23T12:15:50.973Z</time></trkpt><trkpt lat="44.9439433" lon="10.667145"><ele>27.0</ele><time>2026-03-23T12:15:52.973Z</time></trkpt><trkpt lat="44.9439083" lon="10.667265"><ele>27.0</ele><time>2026-03-23T12:15:54.973Z</time></trkpt><trkpt lat="44.9438717" lon="10.6673833"><ele>26.833333333333332</ele><time>2026-03-23T12:15:56.974Z</time></trkpt><trkpt lat="44.9438467" lon="10.6675033"><ele>26.666666666666664</ele><time>2026-03-23T12:15:58.973Z</time></trkpt><trkpt lat="44.9438167" lon="10.6676183"><ele>26.5</ele><time>2026-03-23T12:16:00.973Z</time></trkpt><trkpt lat="44.9437883" lon="10.6677383"><ele>26.333333333333332</ele><time>2026-03-23T12:16:02.974Z</time></trkpt><trkpt lat="44.9437633" lon="10.6678683"><ele>26.166666666666664</ele><time>2026-03-23T12:16:04.974Z</time></trkpt><trkpt lat="44.943725" lon="10.6679567"><ele>26.0</ele><time>2026-03-23T12:16:06.973Z</time></trkpt><trkpt lat="44.94365" lon="10.66797"><ele>25.333333333333332</ele><time>2026-03-23T12:16:08.973Z</time></trkpt><trkpt lat="44.943565" lon="10.6679567"><ele>24.666666666666664</ele><time>2026-03-23T12:16:10.974Z</time></trkpt><trkpt lat="44.9434833" lon="10.6679533"><ele>24.0</ele><time>2026-03-23T12:16:12.973Z</time></trkpt><trkpt lat="44.9434017" lon="10.667975"><ele>23.333333333333332</ele><time>2026-03-23T12:16:14.974Z</time></trkpt><trkpt lat="44.943325" lon="10.6679717"><ele>22.666666666666664</ele><time>2026-03-23T12:16:16.974Z</time></trkpt><trkpt lat="44.943255" lon="10.667975"><ele>22.0</ele><time>2026-03-23T12:16:18.973Z</time></trkpt><trkpt lat="44.9431767" lon="10.667965"><ele>21.857142857142858</ele><time>2026-03-23T12:16:20.973Z</time></trkpt><trkpt lat="44.9431017" lon="10.6679617"><ele>21.714285714285715</ele><time>2026-03-23T12:16:22.974Z</time></trkpt><trkpt lat="44.9430317" lon="10.6679617"><ele>21.57142857142857</ele><time>2026-03-23T12:16:24.973Z</time></trkpt><trkpt lat="44.9429617" lon="10.6679583"><ele>21.42857142857143</ele><time>2026-03-23T12:16:26.974Z</time></trkpt><trkpt lat="44.9428833" lon="10.6679633"><ele>21.285714285714285</ele><time>2026-03-23T12:16:28.973Z</time></trkpt><trkpt lat="44.9428117" lon="10.667975"><ele>21.142857142857142</ele><time>2026-03-23T12:16:30.973Z</time></trkpt><trkpt lat="44.94274" lon="10.6679767"><ele>21.0</ele><time>2026-03-23T12:16:32.973Z</time></trkpt><trkpt lat="44.9426633" lon="10.6679633"><ele>21.0</ele><time>2026-03-23T12:16:34.973Z</time></trkpt><trkpt lat="44.9425817" lon="10.66796"><ele>21.0</ele><time>2026-03-23T12:16:36.973Z</time></trkpt><trkpt lat="44.942515" lon="10.667965"><ele>21.0</ele><time>2026-03-23T12:16:38.973Z</time></trkpt><trkpt lat="44.9424467" lon="10.6679633"><ele>21.0</ele><time>2026-03-23T12:16:40.973Z</time></trkpt><trkpt lat="44.9423717" lon="10.667975"><ele>21.0</ele><time>2026-03-23T12:16:42.974Z</time></trkpt><trkpt lat="44.94229" lon="10.6679667"><ele>21.0</ele><time>2026-03-23T12:16:44.973Z</time></trkpt><trkpt lat="44.9422217" lon="10.6679717"><ele>21.0</ele><time>2026-03-23T12:16:46.973Z</time></trkpt><trkpt lat="44.942155" lon="10.6679967"><ele>21.142857142857142</ele><time>2026-03-23T12:16:48.974Z</time></trkpt><trkpt lat="44.94209" lon="10.668035"><ele>21.285714285714285</ele><time>2026-03-23T12:16:50.973Z</time></trkpt><trkpt lat="44.9420233" lon="10.66807"><ele>21.42857142857143</ele><time>2026-03-23T12:16:52.974Z</time></trkpt><trkpt lat="44.94196" lon="10.668135"><ele>21.57142857142857</ele><time>2026-03-23T12:16:54.973Z</time></trkpt><trkpt lat="44.9419267" lon="10.6682283"><ele>21.714285714285715</ele><time>2026-03-23T12:16:56.974Z</time></trkpt><trkpt lat="44.9419267" lon="10.6683367"><ele>21.857142857142858</ele><time>2026-03-23T12:16:58.974Z</time></trkpt><trkpt lat="44.9419367" lon="10.6684417"><ele>22.0</ele><time>2026-03-23T12:17:00.974Z</time></trkpt><trkpt lat="44.9419467" lon="10.668555"><ele>21.857142857142858</ele><time>2026-03-23T12:17:02.974Z</time></trkpt><trkpt lat="44.9419517" lon="10.6686517"><ele>21.714285714285715</ele><time>2026-03-23T12:17:04.973Z</time></trkpt><trkpt lat="44.94196" lon="10.668755"><ele>21.57142857142857</ele><time>2026-03-23T12:17:06.974Z</time></trkpt><trkpt lat="44.9419683" lon="10.6688517"><ele>21.42857142857143</ele><time>2026-03-23T12:17:08.973Z</time></trkpt><trkpt lat="44.9419767" lon="10.66894"><ele>21.285714285714285</ele><time>2026-03-23T12:17:10.974Z</time></trkpt><trkpt lat="44.94198" lon="10.6690433"><ele>21.142857142857142</ele><time>2026-03-23T12:17:12.974Z</time></trkpt><trkpt lat="44.9419883" lon="10.6691483"><ele>21.0</ele><time>2026-03-23T12:17:14.973Z</time></trkpt><trkpt lat="44.9420017" lon="10.6692567"><ele>21.0</ele><time>2026-03-23T12:17:16.973Z</time></trkpt><trkpt lat="44.942015" lon="10.6693817"><ele>21.0</ele><time>2026-03-23T12:17:18.973Z</time></trkpt><trkpt lat="44.9420183" lon="10.66951"><ele>21.0</ele><time>2026-03-23T12:17:20.974Z</time></trkpt><trkpt lat="44.9420217" lon="10.669625"><ele>21.0</ele><time>2026-03-23T12:17:22.973Z</time></trkpt><trkpt lat="44.9420283" lon="10.6697317"><ele>21.0</ele><time>2026-03-23T12:17:24.974Z</time></trkpt><trkpt lat="44.9420417" lon="10.6698517"><ele>21.0</ele><time>2026-03-23T12:17:26.974Z</time></trkpt><trkpt lat="44.9420617" lon="10.669975"><ele>21.0</ele><time>2026-03-23T12:17:28.974Z</time></trkpt><trkpt lat="44.9421133" lon="10.6700767"><ele>21.0</ele><time>2026-03-23T12:17:30.973Z</time></trkpt><trkpt lat="44.94216" lon="10.6702"><ele>21.0</ele><time>2026-03-23T12:17:32.973Z</time></trkpt><trkpt lat="44.9422067" lon="10.67029"><ele>21.0</ele><time>2026-03-23T12:17:34.974Z</time></trkpt><trkpt lat="44.9422533" lon="10.6703917"><ele>21.0</ele><time>2026-03-23T12:17:36.974Z</time></trkpt><trkpt lat="44.9423067" lon="10.670495"><ele>21.0</ele><time>2026-03-23T12:17:38.974Z</time></trkpt><trkpt lat="44.942355" lon="10.6705883"><ele>21.166666666666668</ele><time>2026-03-23T12:17:40.973Z</time></trkpt><trkpt lat="44.9423933" lon="10.670695"><ele>21.333333333333332</ele><time>2026-03-23T12:17:42.973Z</time></trkpt><trkpt lat="44.9424467" lon="10.6707917"><ele>21.5</ele><time>2026-03-23T12:17:44.973Z</time></trkpt><trkpt lat="44.9424833" lon="10.670895"><ele>21.666666666666664</ele><time>2026-03-23T12:17:46.973Z</time></trkpt><trkpt lat="44.9425117" lon="10.6710017"><ele>21.833333333333332</ele><time>2026-03-23T12:17:48.973Z</time></trkpt><trkpt lat="44.9425433" lon="10.6711267"><ele>22.0</ele><time>2026-03-23T12:17:50.973Z</time></trkpt><trkpt lat="44.9425633" lon="10.6712683"><ele>22.0</ele><time>2026-03-23T12:17:52.974Z</time></trkpt><trkpt lat="44.9425817" lon="10.6714183"><ele>22.0</ele><time>2026-03-23T12:17:54.973Z</time></trkpt><trkpt lat="44.9426" lon="10.6715667"><ele>22.0</ele><time>2026-03-23T12:17:56.974Z</time></trkpt><trkpt lat="44.9426333" lon="10.6717433"><ele>22.0</ele><time>2026-03-23T12:17:58.974Z</time></trkpt><trkpt lat="44.9426617" lon="10.671885"><ele>22.0</ele><time>2026-03-23T12:18:00.973Z</time></trkpt><trkpt lat="44.9426783" lon="10.67204"><ele>21.8</ele><time>2026-03-23T12:18:02.973Z</time></trkpt><trkpt lat="44.9426967" lon="10.6721983"><ele>21.6</ele><time>2026-03-23T12:18:04.973Z</time></trkpt><trkpt lat="44.9427217" lon="10.6723483"><ele>21.400000000000002</ele><time>2026-03-23T12:18:06.974Z</time></trkpt><trkpt lat="44.9427383" lon="10.6724867"><ele>21.200000000000003</ele><time>2026-03-23T12:18:08.974Z</time></trkpt><trkpt lat="44.9427517" lon="10.6726317"><ele>21.0</ele><time>2026-03-23T12:18:10.973Z</time></trkpt><trkpt lat="44.9427783" lon="10.6727867"><ele>21.0</ele><time>2026-03-23T12:18:12.973Z</time></trkpt><trkpt lat="44.9428" lon="10.67292"><ele>21.0</ele><time>2026-03-23T12:18:14.974Z</time></trkpt><trkpt lat="44.9428183" lon="10.6730517"><ele>21.0</ele><time>2026-03-23T12:18:16.973Z</time></trkpt><trkpt lat="44.94284" lon="10.6731883"><ele>21.0</ele><time>2026-03-23T12:18:18.974Z</time></trkpt><trkpt lat="44.94287" lon="10.673325"><ele>21.0</ele><time>2026-03-23T12:18:20.973Z</time></trkpt><trkpt lat="44.9428967" lon="10.6734633"><ele>21.0</ele><time>2026-03-23T12:18:22.973Z</time></trkpt><trkpt lat="44.9429217" lon="10.6735983"><ele>21.0</ele><time>2026-03-23T12:18:24.974Z</time></trkpt><trkpt lat="44.9429517" lon="10.673735"><ele>21.0</ele><time>2026-03-23T12:18:26.974Z</time></trkpt><trkpt lat="44.942985" lon="10.673885"><ele>21.0</ele><time>2026-03-23T12:18:28.973Z</time></trkpt><trkpt lat="44.943005" lon="10.6740117"><ele>21.0</ele><time>2026-03-23T12:18:30.973Z</time></trkpt><trkpt lat="44.9430317" lon="10.6741433"><ele>21.0</ele><time>2026-03-23T12:18:32.973Z</time></trkpt><trkpt lat="44.943065" lon="10.6742783"><ele>21.0</ele><time>2026-03-23T12:18:34.974Z</time></trkpt><trkpt lat="44.943105" lon="10.67442"><ele>21.0</ele><time>2026-03-23T12:18:36.973Z</time></trkpt><trkpt lat="44.9431317" lon="10.67455"><ele>21.0</ele><time>2026-03-23T12:18:38.974Z</time></trkpt><trkpt lat="44.9431683" lon="10.6746733"><ele>21.0</ele><time>2026-03-23T12:18:40.974Z</time></trkpt><trkpt lat="44.9432183" lon="10.6748033"><ele>20.8</ele><time>2026-03-23T12:18:42.973Z</time></trkpt><trkpt lat="44.9432817" lon="10.6749067"><ele>20.6</ele><time>2026-03-23T12:18:44.973Z</time></trkpt><trkpt lat="44.9433533" lon="10.67499"><ele>20.4</ele><time>2026-03-23T12:18:46.973Z</time></trkpt><trkpt lat="44.9434333" lon="10.6750583"><ele>20.2</ele><time>2026-03-23T12:18:48.973Z</time></trkpt><trkpt lat="44.9435183" lon="10.675115"><ele>20.0</ele><time>2026-03-23T12:18:50.973Z</time></trkpt><trkpt lat="44.9436083" lon="10.6751717"><ele>20.0</ele><time>2026-03-23T12:18:52.973Z</time></trkpt><trkpt lat="44.9437" lon="10.6752367"><ele>20.0</ele><time>2026-03-23T12:18:54.974Z</time></trkpt><trkpt lat="44.943785" lon="10.6752783"><ele>20.0</ele><time>2026-03-23T12:18:56.974Z</time></trkpt><trkpt lat="44.9438717" lon="10.6753117"><ele>20.0</ele><time>2026-03-23T12:18:58.974Z</time></trkpt><trkpt lat="44.94395" lon="10.6753483"><ele>20.0</ele><time>2026-03-23T12:19:00.974Z</time></trkpt><trkpt lat="44.9440167" lon="10.6754167"><ele>20.0</ele><time>2026-03-23T12:19:02.973Z</time></trkpt><trkpt lat="44.9440683" lon="10.6755067"><ele>20.0</ele><time>2026-03-23T12:19:04.973Z</time></trkpt><trkpt lat="44.9440867" lon="10.6756067"><ele>20.0</ele><time>2026-03-23T12:19:06.973Z</time></trkpt><trkpt lat="44.9440983" lon="10.6757017"><ele>20.0</ele><time>2026-03-23T12:19:08.974Z</time></trkpt><trkpt lat="44.9440967" lon="10.675795"><ele>20.0</ele><time>2026-03-23T12:19:10.973Z</time></trkpt><trkpt lat="44.9441283" lon="10.6758967"><ele>20.0</ele><time>2026-03-23T12:19:12.973Z</time></trkpt><trkpt lat="44.94417" lon="10.675985"><ele>20.0</ele><time>2026-03-23T12:19:14.974Z</time></trkpt><trkpt lat="44.9442167" lon="10.6760467"><ele>20.0</ele><time>2026-03-23T12:19:16.974Z</time></trkpt><trkpt lat="44.9442783" lon="10.6760917"><ele>20.333333333333336</ele><time>2026-03-23T12:19:18.973Z</time></trkpt><trkpt lat="44.9443383" lon="10.676135"><ele>20.666666666666668</ele><time>2026-03-23T12:19:20.973Z</time></trkpt><trkpt lat="44.9444167" lon="10.6761867"><ele>21.0</ele><time>2026-03-23T12:19:23.974Z</time></trkpt><trkpt lat="44.9444833" lon="10.6762433"><ele>21.333333333333332</ele><time>2026-03-23T12:19:25.974Z</time></trkpt><trkpt lat="44.9445667" lon="10.6763"><ele>21.666666666666664</ele><time>2026-03-23T12:19:28.973Z</time></trkpt><trkpt lat="44.9446233" lon="10.6763483"><ele>22.0</ele><time>2026-03-23T12:19:30.973Z</time></trkpt><trkpt lat="44.94468" lon="10.6764117"><ele>22.0</ele><time>2026-03-23T12:19:32.974Z</time></trkpt><trkpt lat="44.9447367" lon="10.6764783"><ele>22.0</ele><time>2026-03-23T12:19:34.973Z</time></trkpt><trkpt lat="44.9447967" lon="10.6765383"><ele>22.0</ele><time>2026-03-23T12:19:36.974Z</time></trkpt><trkpt lat="44.9448617" lon="10.6766033"><ele>22.0</ele><time>2026-03-23T12:19:38.974Z</time></trkpt><trkpt lat="44.9449283" lon="10.6766717"><ele>22.0</ele><time>2026-03-23T12:19:40.974Z</time></trkpt><trkpt lat="44.944995" lon="10.6767433"><ele>22.0</ele><time>2026-03-23T12:19:42.974Z</time></trkpt><trkpt lat="44.9450617" lon="10.6768083"><ele>22.166666666666664</ele><time>2026-03-23T12:19:44.973Z</time></trkpt><trkpt lat="44.9451333" lon="10.6768817"><ele>22.333333333333332</ele><time>2026-03-23T12:19:46.973Z</time></trkpt><trkpt lat="44.9452067" lon="10.6769483"><ele>22.5</ele><time>2026-03-23T12:19:48.974Z</time></trkpt><trkpt lat="44.945285" lon="10.6770183"><ele>22.666666666666668</ele><time>2026-03-23T12:19:50.974Z</time></trkpt><trkpt lat="44.9453533" lon="10.677085"><ele>22.833333333333336</ele><time>2026-03-23T12:19:52.974Z</time></trkpt><trkpt lat="44.9454233" lon="10.677155"><ele>23.0</ele><time>2026-03-23T12:19:54.973Z</time></trkpt><trkpt lat="44.9454917" lon="10.67723"><ele>23.0</ele><time>2026-03-23T12:19:56.973Z</time></trkpt><trkpt lat="44.9455633" lon="10.677305"><ele>23.0</ele><time>2026-03-23T12:19:58.973Z</time></trkpt><trkpt lat="44.94564" lon="10.6773833"><ele>23.0</ele><time>2026-03-23T12:20:00.974Z</time></trkpt><trkpt lat="44.9457167" lon="10.6774583"><ele>23.0</ele><time>2026-03-23T12:20:02.973Z</time></trkpt><trkpt lat="44.9457933" lon="10.6775383"><ele>23.0</ele><time>2026-03-23T12:20:04.974Z</time></trkpt><trkpt lat="44.9458667" lon="10.677615"><ele>23.5</ele><time>2026-03-23T12:20:06.974Z</time></trkpt><trkpt lat="44.9459383" lon="10.6776967"><ele>24.0</ele><time>2026-03-23T12:20:08.973Z</time></trkpt><trkpt lat="44.946005" lon="10.67776"><ele>24.5</ele><time>2026-03-23T12:20:10.974Z</time></trkpt><trkpt lat="44.946075" lon="10.677835"><ele>25.0</ele><time>2026-03-23T12:20:12.973Z</time></trkpt><trkpt lat="44.9461517" lon="10.6779"><ele>25.499999999999996</ele><time>2026-03-23T12:20:14.973Z</time></trkpt><trkpt lat="44.94623" lon="10.6779617"><ele>26.0</ele><time>2026-03-23T12:20:16.973Z</time></trkpt><trkpt lat="44.9463033" lon="10.6780283"><ele>25.999999999999996</ele><time>2026-03-23T12:20:18.973Z</time></trkpt><trkpt lat="44.946375" lon="10.67809"><ele>26.0</ele><time>2026-03-23T12:20:20.974Z</time></trkpt><trkpt lat="44.946455" lon="10.6781617"><ele>26.0</ele><time>2026-03-23T12:20:22.974Z</time></trkpt><trkpt lat="44.9465317" lon="10.6782217"><ele>26.0</ele><time>2026-03-23T12:20:24.973Z</time></trkpt><trkpt lat="44.9466067" lon="10.6782817"><ele>25.999999999999996</ele><time>2026-03-23T12:20:26.974Z</time></trkpt><trkpt lat="44.9466817" lon="10.6783467"><ele>26.0</ele><time>2026-03-23T12:20:28.974Z</time></trkpt><trkpt lat="44.9467617" lon="10.6784083"><ele>25.833333333333332</ele><time>2026-03-23T12:20:30.973Z</time></trkpt><trkpt lat="44.9468433" lon="10.6784783"><ele>25.666666666666664</ele><time>2026-03-23T12:20:32.973Z</time></trkpt><trkpt lat="44.9469167" lon="10.6785267"><ele>25.5</ele><time>2026-03-23T12:20:34.973Z</time></trkpt><trkpt lat="44.9469883" lon="10.6785917"><ele>25.333333333333336</ele><time>2026-03-23T12:20:36.974Z</time></trkpt><trkpt lat="44.9470617" lon="10.6786633"><ele>25.166666666666668</ele><time>2026-03-23T12:20:38.974Z</time></trkpt><trkpt lat="44.9471383" lon="10.6787183"><ele>25.0</ele><time>2026-03-23T12:20:40.973Z</time></trkpt><trkpt lat="44.947215" lon="10.678775"><ele>24.833333333333336</ele><time>2026-03-23T12:20:42.973Z</time></trkpt><trkpt lat="44.947295" lon="10.6788483"><ele>24.666666666666668</ele><time>2026-03-23T12:20:44.974Z</time></trkpt><trkpt lat="44.94737" lon="10.67889"><ele>24.5</ele><time>2026-03-23T12:20:46.973Z</time></trkpt><trkpt lat="44.9474467" lon="10.6789217"><ele>24.333333333333336</ele><time>2026-03-23T12:20:48.974Z</time></trkpt><trkpt lat="44.947525" lon="10.67895"><ele>24.166666666666668</ele><time>2026-03-23T12:20:50.973Z</time></trkpt><trkpt lat="44.94761" lon="10.6789817"><ele>24.0</ele><time>2026-03-23T12:20:52.974Z</time></trkpt><trkpt lat="44.9476933" lon="10.6790133"><ele>23.833333333333332</ele><time>2026-03-23T12:20:54.973Z</time></trkpt><trkpt lat="44.947775" lon="10.679055"><ele>23.666666666666668</ele><time>2026-03-23T12:20:56.974Z</time></trkpt><trkpt lat="44.9478467" lon="10.67912"><ele>23.5</ele><time>2026-03-23T12:20:58.974Z</time></trkpt><trkpt lat="44.947915" lon="10.6792067"><ele>23.333333333333336</ele><time>2026-03-23T12:21:00.973Z</time></trkpt><trkpt lat="44.9479733" lon="10.6793017"><ele>23.166666666666668</ele><time>2026-03-23T12:21:02.974Z</time></trkpt><trkpt lat="44.94803" lon="10.6794"><ele>23.0</ele><time>2026-03-23T12:21:04.974Z</time></trkpt><trkpt lat="44.9480833" lon="10.67949"><ele>23.0</ele><time>2026-03-23T12:21:06.974Z</time></trkpt><trkpt lat="44.94815" lon="10.6795583"><ele>23.0</ele><time>2026-03-23T12:21:08.973Z</time></trkpt><trkpt lat="44.948225" lon="10.679595"><ele>23.0</ele><time>2026-03-23T12:21:10.974Z</time></trkpt><trkpt lat="44.9482967" lon="10.679625"><ele>23.0</ele><time>2026-03-23T12:21:12.974Z</time></trkpt><trkpt lat="44.948375" lon="10.6796583"><ele>23.0</ele><time>2026-03-23T12:21:14.973Z</time></trkpt><trkpt lat="44.948455" lon="10.6796883"><ele>23.0</ele><time>2026-03-23T12:21:16.974Z</time></trkpt><trkpt lat="44.94854" lon="10.6797117"><ele>22.833333333333336</ele><time>2026-03-23T12:21:18.974Z</time></trkpt><trkpt lat="44.9486133" lon="10.679725"><ele>22.666666666666668</ele><time>2026-03-23T12:21:20.974Z</time></trkpt><trkpt lat="44.9486983" lon="10.6797533"><ele>22.5</ele><time>2026-03-23T12:21:22.973Z</time></trkpt><trkpt lat="44.9487767" lon="10.679795"><ele>22.333333333333332</ele><time>2026-03-23T12:21:24.974Z</time></trkpt><trkpt lat="44.9488483" lon="10.67982"><ele>22.166666666666664</ele><time>2026-03-23T12:21:26.974Z</time></trkpt><trkpt lat="44.9489333" lon="10.6798483"><ele>22.0</ele><time>2026-03-23T12:21:28.974Z</time></trkpt><trkpt lat="44.9490167" lon="10.6798733"><ele>22.0</ele><time>2026-03-23T12:21:30.973Z</time></trkpt><trkpt lat="44.9490967" lon="10.6799017"><ele>22.0</ele><time>2026-03-23T12:21:32.974Z</time></trkpt><trkpt lat="44.94918" lon="10.6799333"><ele>22.0</ele><time>2026-03-23T12:21:34.973Z</time></trkpt><trkpt lat="44.94926" lon="10.6799533"><ele>22.0</ele><time>2026-03-23T12:21:36.973Z</time></trkpt><trkpt lat="44.9493267" lon="10.67997"><ele>22.0</ele><time>2026-03-23T12:21:38.974Z</time></trkpt><trkpt lat="44.949395" lon="10.679975"><ele>22.0</ele><time>2026-03-23T12:21:56.973Z</time></trkpt><trkpt lat="44.9494583" lon="10.6799933"><ele>22.333333333333332</ele><time>2026-03-23T12:21:58.973Z</time></trkpt><trkpt lat="44.9495367" lon="10.68001"><ele>22.666666666666664</ele><time>2026-03-23T12:22:00.973Z</time></trkpt><trkpt lat="44.949615" lon="10.6800417"><ele>23.0</ele><time>2026-03-23T12:22:02.973Z</time></trkpt><trkpt lat="44.949695" lon="10.6800583"><ele>23.333333333333332</ele><time>2026-03-23T12:22:04.974Z</time></trkpt><trkpt lat="44.94978" lon="10.6800767"><ele>23.666666666666668</ele><time>2026-03-23T12:22:06.973Z</time></trkpt><trkpt lat="44.9498567" lon="10.6801067"><ele>24.0</ele><time>2026-03-23T12:22:08.974Z</time></trkpt><trkpt lat="44.9499367" lon="10.6801333"><ele>24.0</ele><time>2026-03-23T12:22:10.973Z</time></trkpt><trkpt lat="44.9500183" lon="10.68016"><ele>24.0</ele><time>2026-03-23T12:22:12.973Z</time></trkpt><trkpt lat="44.950105" lon="10.680185"><ele>24.0</ele><time>2026-03-23T12:22:14.974Z</time></trkpt><trkpt lat="44.950195" lon="10.6802133"><ele>24.0</ele><time>2026-03-23T12:22:16.973Z</time></trkpt><trkpt lat="44.95028" lon="10.6802433"><ele>24.0</ele><time>2026-03-23T12:22:18.973Z</time></trkpt><trkpt lat="44.9503683" lon="10.68027"><ele>24.0</ele><time>2026-03-23T12:22:20.973Z</time></trkpt><trkpt lat="44.9504533" lon="10.68031"><ele>23.833333333333332</ele><time>2026-03-23T12:22:22.974Z</time></trkpt><trkpt lat="44.95054" lon="10.68033"><ele>23.666666666666668</ele><time>2026-03-23T12:22:24.974Z</time></trkpt><trkpt lat="44.9506283" lon="10.680345"><ele>23.5</ele><time>2026-03-23T12:22:26.974Z</time></trkpt><trkpt lat="44.9507083" lon="10.68037"><ele>23.333333333333336</ele><time>2026-03-23T12:22:28.973Z</time></trkpt><trkpt lat="44.9508" lon="10.6804033"><ele>23.166666666666668</ele><time>2026-03-23T12:22:30.973Z</time></trkpt><trkpt lat="44.9508917" lon="10.6804233"><ele>23.0</ele><time>2026-03-23T12:22:32.973Z</time></trkpt><trkpt lat="44.9509767" lon="10.680445"><ele>23.0</ele><time>2026-03-23T12:22:34.973Z</time></trkpt><trkpt lat="44.9510617" lon="10.6804783"><ele>23.0</ele><time>2026-03-23T12:22:36.973Z</time></trkpt><trkpt lat="44.9511533" lon="10.6805017"><ele>23.0</ele><time>2026-03-23T12:22:38.973Z</time></trkpt><trkpt lat="44.9512467" lon="10.6805183"><ele>23.0</ele><time>2026-03-23T12:22:40.973Z</time></trkpt><trkpt lat="44.951335" lon="10.6805233"><ele>23.0</ele><time>2026-03-23T12:22:42.973Z</time></trkpt><trkpt lat="44.9514217" lon="10.6805483"><ele>23.0</ele><time>2026-03-23T12:22:44.974Z</time></trkpt><trkpt lat="44.951515" lon="10.6805667"><ele>23.0</ele><time>2026-03-23T12:22:46.974Z</time></trkpt><trkpt lat="44.9516033" lon="10.6805817"><ele>23.0</ele><time>2026-03-23T12:22:48.974Z</time></trkpt><trkpt lat="44.95169" lon="10.6805983"><ele>23.0</ele><time>2026-03-23T12:22:50.974Z</time></trkpt><trkpt lat="44.9517717" lon="10.6806083"><ele>23.0</ele><time>2026-03-23T12:22:52.973Z</time></trkpt><trkpt lat="44.9518617" lon="10.6806267"><ele>23.0</ele><time>2026-03-23T12:22:54.974Z</time></trkpt><trkpt lat="44.9519617" lon="10.6806433"><ele>23.2</ele><time>2026-03-23T12:22:56.974Z</time></trkpt><trkpt lat="44.9520533" lon="10.6806533"><ele>23.4</ele><time>2026-03-23T12:22:58.973Z</time></trkpt><trkpt lat="44.9521467" lon="10.6806667"><ele>23.599999999999998</ele><time>2026-03-23T12:23:00.973Z</time></trkpt><trkpt lat="44.9522383" lon="10.6806833"><ele>23.799999999999997</ele><time>2026-03-23T12:23:02.974Z</time></trkpt><trkpt lat="44.952325" lon="10.6806983"><ele>24.0</ele><time>2026-03-23T12:23:04.974Z</time></trkpt><trkpt lat="44.95241" lon="10.6807033"><ele>24.0</ele><time>2026-03-23T12:23:06.973Z</time></trkpt><trkpt lat="44.9524983" lon="10.680725"><ele>24.0</ele><time>2026-03-23T12:23:08.973Z</time></trkpt><trkpt lat="44.9525833" lon="10.680735"><ele>24.0</ele><time>2026-03-23T12:23:10.974Z</time></trkpt><trkpt lat="44.95267" lon="10.6807467"><ele>24.0</ele><time>2026-03-23T12:23:12.974Z</time></trkpt><trkpt lat="44.95276" lon="10.6807567"><ele>24.0</ele><time>2026-03-23T12:23:14.973Z</time></trkpt><trkpt lat="44.9528533" lon="10.6807667"><ele>24.0</ele><time>2026-03-23T12:23:16.973Z</time></trkpt><trkpt lat="44.9529467" lon="10.680775"><ele>23.666666666666668</ele><time>2026-03-23T12:23:18.973Z</time></trkpt><trkpt lat="44.9530317" lon="10.68078"><ele>23.333333333333332</ele><time>2026-03-23T12:23:20.973Z</time></trkpt><trkpt lat="44.9531233" lon="10.68079"><ele>23.0</ele><time>2026-03-23T12:23:22.973Z</time></trkpt><trkpt lat="44.9532117" lon="10.6807917"><ele>22.666666666666664</ele><time>2026-03-23T12:23:24.974Z</time></trkpt><trkpt lat="44.9533017" lon="10.680785"><ele>22.333333333333332</ele><time>2026-03-23T12:23:26.974Z</time></trkpt><trkpt lat="44.95339" lon="10.68078"><ele>22.0</ele><time>2026-03-23T12:23:28.974Z</time></trkpt><trkpt lat="44.953485" lon="10.6807817"><ele>21.8</ele><time>2026-03-23T12:23:30.974Z</time></trkpt><trkpt lat="44.9535783" lon="10.6807717"><ele>21.6</ele><time>2026-03-23T12:23:32.974Z</time></trkpt><trkpt lat="44.9536733" lon="10.6807617"><ele>21.400000000000002</ele><time>2026-03-23T12:23:34.973Z</time></trkpt><trkpt lat="44.9537633" lon="10.6807517"><ele>21.200000000000003</ele><time>2026-03-23T12:23:36.973Z</time></trkpt><trkpt lat="44.9538517" lon="10.6807433"><ele>21.0</ele><time>2026-03-23T12:23:38.973Z</time></trkpt><trkpt lat="44.9539433" lon="10.6807233"><ele>21.0</ele><time>2026-03-23T12:23:40.973Z</time></trkpt><trkpt lat="44.954035" lon="10.6806967"><ele>21.0</ele><time>2026-03-23T12:23:42.973Z</time></trkpt><trkpt lat="44.9541233" lon="10.68066"><ele>21.0</ele><time>2026-03-23T12:23:44.974Z</time></trkpt><trkpt lat="44.9541933" lon="10.6806083"><ele>21.0</ele><time>2026-03-23T12:23:46.973Z</time></trkpt><trkpt lat="44.9542683" lon="10.6805517"><ele>21.0</ele><time>2026-03-23T12:23:48.974Z</time></trkpt><trkpt lat="44.9543483" lon="10.680495"><ele>21.0</ele><time>2026-03-23T12:23:50.973Z</time></trkpt><trkpt lat="44.9544183" lon="10.6804283"><ele>21.0</ele><time>2026-03-23T12:23:52.974Z</time></trkpt><trkpt lat="44.9544883" lon="10.6803733"><ele>21.0</ele><time>2026-03-23T12:23:54.973Z</time></trkpt><trkpt lat="44.9545667" lon="10.6803083"><ele>21.0</ele><time>2026-03-23T12:23:56.973Z</time></trkpt><trkpt lat="44.954645" lon="10.680245"><ele>21.0</ele><time>2026-03-23T12:23:58.973Z</time></trkpt><trkpt lat="44.9547183" lon="10.6802"><ele>21.0</ele><time>2026-03-23T12:24:00.973Z</time></trkpt><trkpt lat="44.9547983" lon="10.6801417"><ele>21.0</ele><time>2026-03-23T12:24:02.973Z</time></trkpt><trkpt lat="44.95487" lon="10.6800833"><ele>21.0</ele><time>2026-03-23T12:24:04.973Z</time></trkpt><trkpt lat="44.9549433" lon="10.680035"><ele>21.0</ele><time>2026-03-23T12:24:06.973Z</time></trkpt><trkpt lat="44.9550167" lon="10.6799767"><ele>21.0</ele><time>2026-03-23T12:24:08.973Z</time></trkpt><trkpt lat="44.955105" lon="10.6799083"><ele>21.0</ele><time>2026-03-23T12:24:10.974Z</time></trkpt><trkpt lat="44.95519" lon="10.67984"><ele>21.0</ele><time>2026-03-23T12:24:12.974Z</time></trkpt><trkpt lat="44.9552683" lon="10.6797767"><ele>21.0</ele><time>2026-03-23T12:24:14.973Z</time></trkpt><trkpt lat="44.9553417" lon="10.6797283"><ele>21.0</ele><time>2026-03-23T12:24:16.973Z</time></trkpt><trkpt lat="44.9554217" lon="10.679675"><ele>21.0</ele><time>2026-03-23T12:24:18.974Z</time></trkpt><trkpt lat="44.9555017" lon="10.67963"><ele>21.0</ele><time>2026-03-23T12:24:20.973Z</time></trkpt><trkpt lat="44.9555867" lon="10.679575"><ele>21.0</ele><time>2026-03-23T12:24:22.974Z</time></trkpt><trkpt lat="44.955665" lon="10.6795183"><ele>21.0</ele><time>2026-03-23T12:24:24.974Z</time></trkpt><trkpt lat="44.955745" lon="10.67945"><ele>21.200000000000003</ele><time>2026-03-23T12:24:26.973Z</time></trkpt><trkpt lat="44.955835" lon="10.67937"><ele>21.400000000000002</ele><time>2026-03-23T12:24:28.974Z</time></trkpt><trkpt lat="44.9559183" lon="10.6793033"><ele>21.6</ele><time>2026-03-23T12:24:30.974Z</time></trkpt><trkpt lat="44.9560017" lon="10.6792333"><ele>21.8</ele><time>2026-03-23T12:24:32.973Z</time></trkpt><trkpt lat="44.95608" lon="10.6791667"><ele>22.0</ele><time>2026-03-23T12:24:34.974Z</time></trkpt><trkpt lat="44.9561533" lon="10.67911"><ele>21.666666666666664</ele><time>2026-03-23T12:24:36.973Z</time></trkpt><trkpt lat="44.9562167" lon="10.6790483"><ele>21.333333333333332</ele><time>2026-03-23T12:24:38.974Z</time></trkpt><trkpt lat="44.9562767" lon="10.6789767"><ele>21.0</ele><time>2026-03-23T12:24:40.974Z</time></trkpt><trkpt lat="44.9563383" lon="10.67889"><ele>20.666666666666668</ele><time>2026-03-23T12:24:42.973Z</time></trkpt><trkpt lat="44.9563917" lon="10.678785"><ele>20.333333333333336</ele><time>2026-03-23T12:24:44.973Z</time></trkpt><trkpt lat="44.95645" lon="10.678695"><ele>20.0</ele><time>2026-03-23T12:24:46.973Z</time></trkpt><trkpt lat="44.9565" lon="10.678605"><ele>19.833333333333336</ele><time>2026-03-23T12:24:48.974Z</time></trkpt><trkpt lat="44.9565567" lon="10.67849"><ele>19.666666666666668</ele><time>2026-03-23T12:24:50.973Z</time></trkpt><trkpt lat="44.9566133" lon="10.6784067"><ele>19.5</ele><time>2026-03-23T12:24:52.974Z</time></trkpt><trkpt lat="44.9566667" lon="10.6783033"><ele>19.333333333333332</ele><time>2026-03-23T12:24:54.974Z</time></trkpt><trkpt lat="44.956725" lon="10.678205"><ele>19.166666666666664</ele><time>2026-03-23T12:24:56.974Z</time></trkpt><trkpt lat="44.9567733" lon="10.67811"><ele>19.0</ele><time>2026-03-23T12:24:58.974Z</time></trkpt><trkpt lat="44.9568317" lon="10.6780067"><ele>19.0</ele><time>2026-03-23T12:25:00.973Z</time></trkpt><trkpt lat="44.9568933" lon="10.677925"><ele>19.0</ele><time>2026-03-23T12:25:02.973Z</time></trkpt><trkpt lat="44.9569633" lon="10.677855"><ele>19.0</ele><time>2026-03-23T12:25:04.974Z</time></trkpt><trkpt lat="44.957045" lon="10.6777983"><ele>19.0</ele><time>2026-03-23T12:25:06.974Z</time></trkpt><trkpt lat="44.9571283" lon="10.6777417"><ele>19.0</ele><time>2026-03-23T12:25:08.974Z</time></trkpt><trkpt lat="44.9572167" lon="10.6777133"><ele>19.0</ele><time>2026-03-23T12:25:10.974Z</time></trkpt><trkpt lat="44.957305" lon="10.677675"><ele>19.666666666666664</ele><time>2026-03-23T12:25:12.974Z</time></trkpt><trkpt lat="44.9573783" lon="10.6776533"><ele>20.333333333333332</ele><time>2026-03-23T12:25:14.975Z</time></trkpt><trkpt lat="44.9574567" lon="10.677625"><ele>21.0</ele><time>2026-03-23T12:25:16.974Z</time></trkpt><trkpt lat="44.95754" lon="10.6776117"><ele>21.666666666666668</ele><time>2026-03-23T12:25:18.974Z</time></trkpt><trkpt lat="44.9576267" lon="10.6775883"><ele>22.333333333333336</ele><time>2026-03-23T12:25:20.975Z</time></trkpt><trkpt lat="44.95771" lon="10.6775617"><ele>23.0</ele><time>2026-03-23T12:25:22.975Z</time></trkpt><trkpt lat="44.957795" lon="10.67754"><ele>23.0</ele><time>2026-03-23T12:25:24.974Z</time></trkpt><trkpt lat="44.9578833" lon="10.6775233"><ele>23.0</ele><time>2026-03-23T12:25:26.975Z</time></trkpt><trkpt lat="44.9579717" lon="10.677505"><ele>23.0</ele><time>2026-03-23T12:25:28.975Z</time></trkpt><trkpt lat="44.9580517" lon="10.6774817"><ele>23.0</ele><time>2026-03-23T12:25:30.974Z</time></trkpt><trkpt lat="44.958135" lon="10.67747"><ele>23.0</ele><time>2026-03-23T12:25:32.975Z</time></trkpt><trkpt lat="44.9582233" lon="10.6774433"><ele>23.0</ele><time>2026-03-23T12:25:34.974Z</time></trkpt><trkpt lat="44.9583083" lon="10.677435"><ele>23.0</ele><time>2026-03-23T12:25:36.975Z</time></trkpt><trkpt lat="44.9583933" lon="10.67744"><ele>23.0</ele><time>2026-03-23T12:25:38.975Z</time></trkpt><trkpt lat="44.9584783" lon="10.6774467"><ele>23.0</ele><time>2026-03-23T12:25:40.974Z</time></trkpt><trkpt lat="44.95857" lon="10.6774533"><ele>23.0</ele><time>2026-03-23T12:25:42.974Z</time></trkpt><trkpt lat="44.958655" lon="10.67746"><ele>23.0</ele><time>2026-03-23T12:25:44.975Z</time></trkpt><trkpt lat="44.9587417" lon="10.67747"><ele>23.0</ele><time>2026-03-23T12:25:46.974Z</time></trkpt><trkpt lat="44.9588317" lon="10.6774867"><ele>23.0</ele><time>2026-03-23T12:25:48.975Z</time></trkpt><trkpt lat="44.958915" lon="10.6774983"><ele>23.0</ele><time>2026-03-23T12:25:50.974Z</time></trkpt><trkpt lat="44.9590033" lon="10.6775083"><ele>23.0</ele><time>2026-03-23T12:25:52.975Z</time></trkpt><trkpt lat="44.9590817" lon="10.6775083"><ele>23.0</ele><time>2026-03-23T12:25:54.974Z</time></trkpt><trkpt lat="44.9591633" lon="10.6775217"><ele>23.0</ele><time>2026-03-23T12:25:56.975Z</time></trkpt><trkpt lat="44.9592467" lon="10.6775267"><ele>23.0</ele><time>2026-03-23T12:25:58.975Z</time></trkpt><trkpt lat="44.95933" lon="10.677545"><ele>22.833333333333336</ele><time>2026-03-23T12:26:00.975Z</time></trkpt><trkpt lat="44.9594133" lon="10.6775683"><ele>22.666666666666668</ele><time>2026-03-23T12:26:02.974Z</time></trkpt><trkpt lat="44.9594983" lon="10.6776017"><ele>22.5</ele><time>2026-03-23T12:26:04.974Z</time></trkpt><trkpt lat="44.9595783" lon="10.6776183"><ele>22.333333333333332</ele><time>2026-03-23T12:26:06.975Z</time></trkpt><trkpt lat="44.9596583" lon="10.677625"><ele>22.166666666666664</ele><time>2026-03-23T12:26:08.974Z</time></trkpt><trkpt lat="44.9597433" lon="10.6776317"><ele>22.0</ele><time>2026-03-23T12:26:10.974Z</time></trkpt><trkpt lat="44.9598283" lon="10.6776383"><ele>22.0</ele><time>2026-03-23T12:26:12.974Z</time></trkpt><trkpt lat="44.9599133" lon="10.6776517"><ele>22.0</ele><time>2026-03-23T12:26:14.974Z</time></trkpt><trkpt lat="44.9600117" lon="10.67767"><ele>22.0</ele><time>2026-03-23T12:26:16.975Z</time></trkpt><trkpt lat="44.9600967" lon="10.6776833"><ele>22.0</ele><time>2026-03-23T12:26:18.975Z</time></trkpt><trkpt lat="44.96018" lon="10.67771"><ele>22.0</ele><time>2026-03-23T12:26:20.974Z</time></trkpt><trkpt lat="44.9602533" lon="10.67774"><ele>22.0</ele><time>2026-03-23T12:26:22.975Z</time></trkpt><trkpt lat="44.9603167" lon="10.6777817"><ele>22.166666666666664</ele><time>2026-03-23T12:26:24.974Z</time></trkpt><trkpt lat="44.960395" lon="10.67782"><ele>22.333333333333332</ele><time>2026-03-23T12:26:26.974Z</time></trkpt><trkpt lat="44.96047" lon="10.6778567"><ele>22.5</ele><time>2026-03-23T12:26:28.974Z</time></trkpt><trkpt lat="44.96054" lon="10.6778933"><ele>22.666666666666668</ele><time>2026-03-23T12:26:30.974Z</time></trkpt><trkpt lat="44.9606167" lon="10.6779383"><ele>22.833333333333336</ele><time>2026-03-23T12:26:32.974Z</time></trkpt><trkpt lat="44.9606983" lon="10.6779883"><ele>23.0</ele><time>2026-03-23T12:26:34.974Z</time></trkpt><trkpt lat="44.9607683" lon="10.678035"><ele>23.0</ele><time>2026-03-23T12:26:36.974Z</time></trkpt><trkpt lat="44.96085" lon="10.67808"><ele>23.0</ele><time>2026-03-23T12:26:38.975Z</time></trkpt><trkpt lat="44.9609217" lon="10.6781267"><ele>23.0</ele><time>2026-03-23T12:26:40.974Z</time></trkpt><trkpt lat="44.9610017" lon="10.6781833"><ele>23.0</ele><time>2026-03-23T12:26:42.975Z</time></trkpt><trkpt lat="44.9610683" lon="10.67823"><ele>23.0</ele><time>2026-03-23T12:26:44.975Z</time></trkpt><trkpt lat="44.9611517" lon="10.678275"><ele>23.0</ele><time>2026-03-23T12:26:46.974Z</time></trkpt><trkpt lat="44.9612317" lon="10.67832"><ele>23.333333333333336</ele><time>2026-03-23T12:26:48.974Z</time></trkpt><trkpt lat="44.961305" lon="10.678365"><ele>23.666666666666668</ele><time>2026-03-23T12:26:50.974Z</time></trkpt><trkpt lat="44.9613817" lon="10.6784083"><ele>24.0</ele><time>2026-03-23T12:26:52.975Z</time></trkpt><trkpt lat="44.9614567" lon="10.678455"><ele>24.333333333333336</ele><time>2026-03-23T12:26:54.975Z</time></trkpt><trkpt lat="44.9615433" lon="10.6784833"><ele>24.666666666666668</ele><time>2026-03-23T12:26:56.974Z</time></trkpt><trkpt lat="44.96163" lon="10.6785133"><ele>25.0</ele><time>2026-03-23T12:26:58.974Z</time></trkpt><trkpt lat="44.96172" lon="10.6785367"><ele>25.166666666666668</ele><time>2026-03-23T12:27:00.975Z</time></trkpt><trkpt lat="44.9618017" lon="10.67856"><ele>25.333333333333336</ele><time>2026-03-23T12:27:02.975Z</time></trkpt><trkpt lat="44.96188" lon="10.678585"><ele>25.5</ele><time>2026-03-23T12:27:04.975Z</time></trkpt><trkpt lat="44.96196" lon="10.6786033"><ele>25.666666666666664</ele><time>2026-03-23T12:27:06.975Z</time></trkpt><trkpt lat="44.96204" lon="10.6786283"><ele>25.833333333333332</ele><time>2026-03-23T12:27:08.974Z</time></trkpt><trkpt lat="44.9621233" lon="10.6786467"><ele>26.0</ele><time>2026-03-23T12:27:10.974Z</time></trkpt><trkpt lat="44.9622067" lon="10.6786817"><ele>26.166666666666664</ele><time>2026-03-23T12:27:12.974Z</time></trkpt><trkpt lat="44.962285" lon="10.6787133"><ele>26.333333333333332</ele><time>2026-03-23T12:27:14.974Z</time></trkpt><trkpt lat="44.9623583" lon="10.678775"><ele>26.5</ele><time>2026-03-23T12:27:16.975Z</time></trkpt><trkpt lat="44.9624317" lon="10.678845"><ele>26.666666666666664</ele><time>2026-03-23T12:27:18.974Z</time></trkpt><trkpt lat="44.962515" lon="10.6789033"><ele>26.833333333333332</ele><time>2026-03-23T12:27:20.975Z</time></trkpt><trkpt lat="44.9625917" lon="10.6789633"><ele>27.0</ele><time>2026-03-23T12:27:22.974Z</time></trkpt><trkpt lat="44.9626667" lon="10.6790267"><ele>26.833333333333332</ele><time>2026-03-23T12:27:24.974Z</time></trkpt><trkpt lat="44.96274" lon="10.679095"><ele>26.666666666666664</ele><time>2026-03-23T12:27:26.974Z</time></trkpt><trkpt lat="44.9628233" lon="10.6791583"><ele>26.5</ele><time>2026-03-23T12:27:28.975Z</time></trkpt><trkpt lat="44.962895" lon="10.6792367"><ele>26.333333333333332</ele><time>2026-03-23T12:27:30.975Z</time></trkpt><trkpt lat="44.962965" lon="10.67931"><ele>26.166666666666664</ele><time>2026-03-23T12:27:32.975Z</time></trkpt><trkpt lat="44.9630383" lon="10.67938"><ele>26.0</ele><time>2026-03-23T12:27:34.974Z</time></trkpt><trkpt lat="44.9631083" lon="10.6794467"><ele>25.999999999999996</ele><time>2026-03-23T12:27:36.975Z</time></trkpt><trkpt lat="44.963185" lon="10.67951"><ele>26.0</ele><time>2026-03-23T12:27:38.974Z</time></trkpt><trkpt lat="44.9632683" lon="10.6795617"><ele>26.0</ele><time>2026-03-23T12:27:40.974Z</time></trkpt><trkpt lat="44.96335" lon="10.6796267"><ele>26.0</ele><time>2026-03-23T12:27:42.974Z</time></trkpt><trkpt lat="44.9634167" lon="10.6797067"><ele>25.999999999999996</ele><time>2026-03-23T12:27:44.975Z</time></trkpt><trkpt lat="44.9634883" lon="10.679775"><ele>26.0</ele><time>2026-03-23T12:27:46.974Z</time></trkpt><trkpt lat="44.963555" lon="10.6798467"><ele>25.833333333333332</ele><time>2026-03-23T12:27:48.974Z</time></trkpt><trkpt lat="44.9636233" lon="10.6799133"><ele>25.666666666666664</ele><time>2026-03-23T12:27:50.974Z</time></trkpt><trkpt lat="44.963685" lon="10.6799967"><ele>25.5</ele><time>2026-03-23T12:27:52.975Z</time></trkpt><trkpt lat="44.9637317" lon="10.680105"><ele>25.333333333333336</ele><time>2026-03-23T12:27:54.975Z</time></trkpt><trkpt lat="44.9637683" lon="10.68022"><ele>25.166666666666668</ele><time>2026-03-23T12:27:56.974Z</time></trkpt><trkpt lat="44.9637933" lon="10.6803267"><ele>25.0</ele><time>2026-03-23T12:27:58.974Z</time></trkpt><trkpt lat="44.9638217" lon="10.6804483"><ele>24.833333333333336</ele><time>2026-03-23T12:28:00.974Z</time></trkpt><trkpt lat="44.9638567" lon="10.6805667"><ele>24.666666666666668</ele><time>2026-03-23T12:28:02.975Z</time></trkpt><trkpt lat="44.963905" lon="10.68067"><ele>24.5</ele><time>2026-03-23T12:28:04.975Z</time></trkpt><trkpt lat="44.9639667" lon="10.6807133"><ele>24.333333333333336</ele><time>2026-03-23T12:28:06.974Z</time></trkpt><trkpt lat="44.9640383" lon="10.680725"><ele>24.166666666666668</ele><time>2026-03-23T12:28:08.974Z</time></trkpt><trkpt lat="44.9641467" lon="10.6807333"><ele>24.0</ele><time>2026-03-23T12:28:10.974Z</time></trkpt><trkpt lat="44.96421" lon="10.6807033"><ele>24.0</ele><time>2026-03-23T12:28:11.975Z</time></trkpt><trkpt lat="44.9642717" lon="10.68065"><ele>24.0</ele><time>2026-03-23T12:28:12.974Z</time></trkpt><trkpt lat="44.96433" lon="10.6805983"><ele>24.0</ele><time>2026-03-23T12:28:13.974Z</time></trkpt><trkpt lat="44.9643817" lon="10.6805317"><ele>24.0</ele><time>2026-03-23T12:28:14.974Z</time></trkpt><trkpt lat="44.96443" lon="10.6804617"><ele>24.0</ele><time>2026-03-23T12:28:15.974Z</time></trkpt><trkpt lat="44.9644817" lon="10.6804083"><ele>24.0</ele><time>2026-03-23T12:28:16.974Z</time></trkpt><trkpt lat="44.964595" lon="10.680305"><ele>24.2</ele><time>2026-03-23T12:28:18.974Z</time></trkpt><trkpt lat="44.9646483" lon="10.6802517"><ele>24.4</ele><time>2026-03-23T12:28:19.975Z</time></trkpt><trkpt lat="44.9647083" lon="10.680215"><ele>24.6</ele><time>2026-03-23T12:28:20.975Z</time></trkpt><trkpt lat="44.964825" lon="10.68017"><ele>24.8</ele><time>2026-03-23T12:28:22.974Z</time></trkpt><trkpt lat="44.9649367" lon="10.6801017"><ele>25.0</ele><time>2026-03-23T12:28:24.974Z</time></trkpt><trkpt lat="44.96503" lon="10.68004"><ele>25.0</ele><time>2026-03-23T12:28:26.975Z</time></trkpt><trkpt lat="44.9651233" lon="10.6799883"><ele>25.0</ele><time>2026-03-23T12:28:28.974Z</time></trkpt><trkpt lat="44.9652117" lon="10.67993"><ele>25.0</ele><time>2026-03-23T12:28:30.974Z</time></trkpt><trkpt lat="44.9652917" lon="10.6798783"><ele>25.0</ele><time>2026-03-23T12:28:32.975Z</time></trkpt><trkpt lat="44.9653783" lon="10.679825"><ele>25.0</ele><time>2026-03-23T12:28:34.974Z</time></trkpt><trkpt lat="44.96546" lon="10.679785"><ele>25.000000000000004</ele><time>2026-03-23T12:28:36.975Z</time></trkpt><trkpt lat="44.9655433" lon="10.6797367"><ele>25.0</ele><time>2026-03-23T12:28:38.974Z</time></trkpt><trkpt lat="44.9656183" lon="10.679685"><ele>25.0</ele><time>2026-03-23T12:28:40.975Z</time></trkpt><trkpt lat="44.9656833" lon="10.6796233"><ele>25.0</ele><time>2026-03-23T12:28:42.975Z</time></trkpt><trkpt lat="44.9657683" lon="10.6795733"><ele>25.000000000000004</ele><time>2026-03-23T12:28:44.975Z</time></trkpt><trkpt lat="44.96585" lon="10.67953"><ele>25.0</ele><time>2026-03-23T12:28:46.975Z</time></trkpt><trkpt lat="44.96593" lon="10.6794833"><ele>24.833333333333336</ele><time>2026-03-23T12:28:48.974Z</time></trkpt><trkpt lat="44.9660117" lon="10.679435"><ele>24.666666666666668</ele><time>2026-03-23T12:28:50.974Z</time></trkpt><trkpt lat="44.966095" lon="10.6793883"><ele>24.5</ele><time>2026-03-23T12:28:52.975Z</time></trkpt><trkpt lat="44.96617" lon="10.6793433"><ele>24.333333333333336</ele><time>2026-03-23T12:28:54.974Z</time></trkpt><trkpt lat="44.9662467" lon="10.6792967"><ele>24.166666666666668</ele><time>2026-03-23T12:28:56.974Z</time></trkpt><trkpt lat="44.9663217" lon="10.6792417"><ele>24.0</ele><time>2026-03-23T12:28:58.975Z</time></trkpt><trkpt lat="44.9664" lon="10.6791933"><ele>24.0</ele><time>2026-03-23T12:29:00.975Z</time></trkpt><trkpt lat="44.9664767" lon="10.679145"><ele>24.0</ele><time>2026-03-23T12:29:02.974Z</time></trkpt><trkpt lat="44.9665567" lon="10.6791017"><ele>24.0</ele><time>2026-03-23T12:29:04.975Z</time></trkpt><trkpt lat="44.9666317" lon="10.6790383"><ele>24.0</ele><time>2026-03-23T12:29:06.974Z</time></trkpt><trkpt lat="44.9667133" lon="10.6789767"><ele>24.0</ele><time>2026-03-23T12:29:08.974Z</time></trkpt><trkpt lat="44.9667967" lon="10.6789383"><ele>24.0</ele><time>2026-03-23T12:29:10.974Z</time></trkpt><trkpt lat="44.966875" lon="10.6789017"><ele>24.0</ele><time>2026-03-23T12:29:12.975Z</time></trkpt><trkpt lat="44.9669533" lon="10.6788617"><ele>24.0</ele><time>2026-03-23T12:29:14.974Z</time></trkpt><trkpt lat="44.967035" lon="10.6788117"><ele>24.0</ele><time>2026-03-23T12:29:16.974Z</time></trkpt><trkpt lat="44.9671167" lon="10.67876"><ele>24.0</ele><time>2026-03-23T12:29:18.975Z</time></trkpt><trkpt lat="44.9671983" lon="10.6787083"><ele>24.0</ele><time>2026-03-23T12:29:20.975Z</time></trkpt><trkpt lat="44.9672717" lon="10.6786533"><ele>24.0</ele><time>2026-03-23T12:29:22.975Z</time></trkpt><trkpt lat="44.9673483" lon="10.6785967"><ele>24.0</ele><time>2026-03-23T12:29:24.975Z</time></trkpt><trkpt lat="44.9674167" lon="10.67852"><ele>24.0</ele><time>2026-03-23T12:29:26.974Z</time></trkpt><trkpt lat="44.9674817" lon="10.6784433"><ele>24.0</ele><time>2026-03-23T12:29:28.975Z</time></trkpt><trkpt lat="44.967545" lon="10.6783567"><ele>24.0</ele><time>2026-03-23T12:29:30.975Z</time></trkpt><trkpt lat="44.9676033" lon="10.6782633"><ele>24.0</ele><time>2026-03-23T12:29:32.975Z</time></trkpt><trkpt lat="44.967645" lon="10.6781683"><ele>24.0</ele><time>2026-03-23T12:29:34.975Z</time></trkpt><trkpt lat="44.96769" lon="10.6780617"><ele>23.833333333333332</ele><time>2026-03-23T12:29:36.975Z</time></trkpt><trkpt lat="44.967735" lon="10.6779483"><ele>23.666666666666668</ele><time>2026-03-23T12:29:38.974Z</time></trkpt><trkpt lat="44.9677667" lon="10.677835"><ele>23.5</ele><time>2026-03-23T12:29:40.975Z</time></trkpt><trkpt lat="44.9678017" lon="10.6777217"><ele>23.333333333333336</ele><time>2026-03-23T12:29:42.974Z</time></trkpt><trkpt lat="44.9678383" lon="10.677605"><ele>23.166666666666668</ele><time>2026-03-23T12:29:44.974Z</time></trkpt><trkpt lat="44.9678717" lon="10.6774933"><ele>23.0</ele><time>2026-03-23T12:29:46.974Z</time></trkpt><trkpt lat="44.9679067" lon="10.677385"><ele>23.0</ele><time>2026-03-23T12:29:48.975Z</time></trkpt><trkpt lat="44.9679433" lon="10.6772733"><ele>23.0</ele><time>2026-03-23T12:29:50.974Z</time></trkpt><trkpt lat="44.9679833" lon="10.677145"><ele>23.0</ele><time>2026-03-23T12:29:52.975Z</time></trkpt><trkpt lat="44.9680317" lon="10.6770367"><ele>23.0</ele><time>2026-03-23T12:29:54.974Z</time></trkpt><trkpt lat="44.9680667" lon="10.6769133"><ele>23.0</ele><time>2026-03-23T12:29:56.975Z</time></trkpt><trkpt lat="44.96809" lon="10.676795"><ele>23.833333333333336</ele><time>2026-03-23T12:29:58.975Z</time></trkpt><trkpt lat="44.968095" lon="10.67668"><ele>24.666666666666668</ele><time>2026-03-23T12:30:00.974Z</time></trkpt><trkpt lat="44.9681033" lon="10.6765583"><ele>25.5</ele><time>2026-03-23T12:30:02.975Z</time></trkpt><trkpt lat="44.968115" lon="10.67644"><ele>26.333333333333336</ele><time>2026-03-23T12:30:04.974Z</time></trkpt><trkpt lat="44.9681333" lon="10.67632"><ele>27.166666666666668</ele><time>2026-03-23T12:30:06.975Z</time></trkpt><trkpt lat="44.9681383" lon="10.676185"><ele>28.0</ele><time>2026-03-23T12:30:08.975Z</time></trkpt><trkpt lat="44.968145" lon="10.6760667"><ele>28.000000000000004</ele><time>2026-03-23T12:30:10.974Z</time></trkpt><trkpt lat="44.9681533" lon="10.67594"><ele>28.0</ele><time>2026-03-23T12:30:12.975Z</time></trkpt><trkpt lat="44.9681633" lon="10.6758183"><ele>28.0</ele><time>2026-03-23T12:30:14.975Z</time></trkpt><trkpt lat="44.9681667" lon="10.6756983"><ele>28.0</ele><time>2026-03-23T12:30:16.974Z</time></trkpt><trkpt lat="44.9681717" lon="10.6755667"><ele>28.000000000000004</ele><time>2026-03-23T12:30:18.975Z</time></trkpt><trkpt lat="44.9681833" lon="10.6754383"><ele>28.0</ele><time>2026-03-23T12:30:20.975Z</time></trkpt><trkpt lat="44.9681933" lon="10.6753183"><ele>27.666666666666668</ele><time>2026-03-23T12:30:22.975Z</time></trkpt><trkpt lat="44.9682017" lon="10.6751933"><ele>27.333333333333336</ele><time>2026-03-23T12:30:24.974Z</time></trkpt><trkpt lat="44.9682133" lon="10.675065"><ele>27.0</ele><time>2026-03-23T12:30:26.974Z</time></trkpt><trkpt lat="44.9682217" lon="10.6749433"><ele>26.666666666666664</ele><time>2026-03-23T12:30:28.974Z</time></trkpt><trkpt lat="44.9682383" lon="10.67482"><ele>26.333333333333332</ele><time>2026-03-23T12:30:30.974Z</time></trkpt><trkpt lat="44.9682383" lon="10.674695"><ele>26.0</ele><time>2026-03-23T12:30:32.974Z</time></trkpt><trkpt lat="44.968245" lon="10.67457"><ele>25.999999999999996</ele><time>2026-03-23T12:30:34.974Z</time></trkpt><trkpt lat="44.9682583" lon="10.6744483"><ele>26.0</ele><time>2026-03-23T12:30:36.975Z</time></trkpt><trkpt lat="44.9682683" lon="10.6743267"><ele>26.0</ele><time>2026-03-23T12:30:38.975Z</time></trkpt><trkpt lat="44.968275" lon="10.6742083"><ele>26.0</ele><time>2026-03-23T12:30:40.974Z</time></trkpt><trkpt lat="44.968285" lon="10.674085"><ele>25.999999999999996</ele><time>2026-03-23T12:30:42.975Z</time></trkpt><trkpt lat="44.9682967" lon="10.6739667"><ele>26.0</ele><time>2026-03-23T12:30:44.974Z</time></trkpt><trkpt lat="44.9683217" lon="10.6738467"><ele>25.999999999999996</ele><time>2026-03-23T12:30:46.975Z</time></trkpt><trkpt lat="44.9683483" lon="10.6737367"><ele>26.0</ele><time>2026-03-23T12:30:48.975Z</time></trkpt><trkpt lat="44.9683683" lon="10.673615"><ele>26.0</ele><time>2026-03-23T12:30:50.974Z</time></trkpt><trkpt lat="44.968405" lon="10.6734983"><ele>26.0</ele><time>2026-03-23T12:30:52.975Z</time></trkpt><trkpt lat="44.968425" lon="10.6733983"><ele>25.999999999999996</ele><time>2026-03-23T12:30:54.975Z</time></trkpt><trkpt lat="44.9684517" lon="10.6732767"><ele>26.0</ele><time>2026-03-23T12:30:56.974Z</time></trkpt><trkpt lat="44.9684733" lon="10.6731517"><ele>25.833333333333332</ele><time>2026-03-23T12:30:58.974Z</time></trkpt><trkpt lat="44.968495" lon="10.673045"><ele>25.666666666666664</ele><time>2026-03-23T12:31:00.974Z</time></trkpt><trkpt lat="44.9685233" lon="10.67294"><ele>25.5</ele><time>2026-03-23T12:31:02.974Z</time></trkpt><trkpt lat="44.9685383" lon="10.6728367"><ele>25.333333333333336</ele><time>2026-03-23T12:31:04.974Z</time></trkpt><trkpt lat="44.9685633" lon="10.6727283"><ele>25.166666666666668</ele><time>2026-03-23T12:31:06.974Z</time></trkpt><trkpt lat="44.968595" lon="10.6726267"><ele>25.0</ele><time>2026-03-23T12:31:08.974Z</time></trkpt><trkpt lat="44.9686183" lon="10.6725283"><ele>25.000000000000004</ele><time>2026-03-23T12:31:10.974Z</time></trkpt><trkpt lat="44.968645" lon="10.67242"><ele>25.0</ele><time>2026-03-23T12:31:12.975Z</time></trkpt><trkpt lat="44.9686717" lon="10.67232"><ele>25.0</ele><time>2026-03-23T12:31:14.975Z</time></trkpt><trkpt lat="44.9686883" lon="10.6722133"><ele>25.0</ele><time>2026-03-23T12:31:16.974Z</time></trkpt><trkpt lat="44.9687083" lon="10.67211"><ele>25.000000000000004</ele><time>2026-03-23T12:31:18.975Z</time></trkpt><trkpt lat="44.9687367" lon="10.67201"><ele>25.0</ele><time>2026-03-23T12:31:20.974Z</time></trkpt><trkpt lat="44.968765" lon="10.6719133"><ele>25.28571428571429</ele><time>2026-03-23T12:31:22.975Z</time></trkpt><trkpt lat="44.9687933" lon="10.6718167"><ele>25.571428571428573</ele><time>2026-03-23T12:31:24.975Z</time></trkpt><trkpt lat="44.9688067" lon="10.6717133"><ele>25.857142857142858</ele><time>2026-03-23T12:31:26.975Z</time></trkpt><trkpt lat="44.968825" lon="10.6716117"><ele>26.142857142857146</ele><time>2026-03-23T12:31:28.974Z</time></trkpt><trkpt lat="44.9688417" lon="10.6715133"><ele>26.428571428571427</ele><time>2026-03-23T12:31:30.974Z</time></trkpt><trkpt lat="44.968885" lon="10.67144"><ele>26.714285714285715</ele><time>2026-03-23T12:31:32.974Z</time></trkpt><trkpt lat="44.96895" lon="10.6714133"><ele>27.0</ele><time>2026-03-23T12:31:34.975Z</time></trkpt><trkpt lat="44.9690217" lon="10.6714283"><ele>27.0</ele><time>2026-03-23T12:31:36.975Z</time></trkpt><trkpt lat="44.969095" lon="10.671435"><ele>27.0</ele><time>2026-03-23T12:31:38.975Z</time></trkpt><trkpt lat="44.9691783" lon="10.671435"><ele>27.0</ele><time>2026-03-23T12:31:40.975Z</time></trkpt><trkpt lat="44.9692433" lon="10.6714383"><ele>27.0</ele><time>2026-03-23T12:31:42.974Z</time></trkpt><trkpt lat="44.9693217" lon="10.671445"><ele>27.0</ele><time>2026-03-23T12:31:44.975Z</time></trkpt><trkpt lat="44.9693983" lon="10.6714467"><ele>27.0</ele><time>2026-03-23T12:31:46.974Z</time></trkpt><trkpt lat="44.9694733" lon="10.6714583"><ele>26.333333333333332</ele><time>2026-03-23T12:31:48.974Z</time></trkpt><trkpt lat="44.9695533" lon="10.6714767"><ele>25.666666666666668</ele><time>2026-03-23T12:31:50.974Z</time></trkpt><trkpt lat="44.9696317" lon="10.6714917"><ele>25.0</ele><time>2026-03-23T12:31:52.975Z</time></trkpt><trkpt lat="44.9697083" lon="10.6715017"><ele>24.333333333333336</ele><time>2026-03-23T12:31:54.975Z</time></trkpt><trkpt lat="44.9697967" lon="10.6715117"><ele>23.666666666666668</ele><time>2026-03-23T12:31:56.975Z</time></trkpt><trkpt lat="44.9698767" lon="10.6715117"><ele>23.0</ele><time>2026-03-23T12:31:58.974Z</time></trkpt><trkpt lat="44.9699433" lon="10.671515"><ele>23.0</ele><time>2026-03-23T12:32:00.975Z</time></trkpt><trkpt lat="44.9700167" lon="10.6715433"><ele>23.0</ele><time>2026-03-23T12:32:02.974Z</time></trkpt><trkpt lat="44.9700833" lon="10.671575"><ele>19.0</ele><time>2026-03-23T12:32:04.974Z</time></trkpt><trkpt lat="44.9701417" lon="10.6716283"><ele>19.0</ele><time>2026-03-23T12:32:06.975Z</time></trkpt><trkpt lat="44.9702017" lon="10.67166"><ele>19.0</ele><time>2026-03-23T12:32:08.975Z</time></trkpt><trkpt lat="44.9702717" lon="10.6716767"><ele>19.0</ele><time>2026-03-23T12:32:10.975Z</time></trkpt><trkpt lat="44.970265" lon="10.6717917"><ele>19.0</ele><time>2026-03-23T12:32:26.975Z</time></trkpt></trkseg><trkseg><trkpt lat="44.970265" lon="10.6722017"><ele>24.0</ele><time>2026-03-23T13:05:19.235Z</time></trkpt><trkpt lat="44.970155" lon="10.67213"><ele>24.0</ele><time>2026-03-23T13:05:21.235Z</time></trkpt><trkpt lat="44.97026" lon="10.6718883"><ele>24.0</ele><time>2026-03-23T13:05:24.236Z</time></trkpt><trkpt lat="44.97033" lon="10.6718333"><ele>24.0</ele><time>2026-03-23T13:05:33.96Z</time></trkpt><trkpt lat="44.9703317" lon="10.6717367"><ele>23.833333333333332</ele><time>2026-03-23T13:06:02.959Z</time></trkpt><trkpt lat="44.9702767" lon="10.671645"><ele>23.666666666666668</ele><time>2026-03-23T13:06:06.959Z</time></trkpt><trkpt lat="44.970215" lon="10.6715967"><ele>23.5</ele><time>2026-03-23T13:06:08.959Z</time></trkpt><trkpt lat="44.97016" lon="10.6715517"><ele>23.333333333333336</ele><time>2026-03-23T13:06:10.959Z</time></trkpt><trkpt lat="44.970075" lon="10.6714967"><ele>23.166666666666668</ele><time>2026-03-23T13:06:13.96Z</time></trkpt><trkpt lat="44.96999" lon="10.671495"><ele>23.0</ele><time>2026-03-23T13:06:16.959Z</time></trkpt><trkpt lat="44.9699067" lon="10.67148"><ele>23.0</ele><time>2026-03-23T13:06:19.96Z</time></trkpt><trkpt lat="44.9698433" lon="10.6714617"><ele>23.0</ele><time>2026-03-23T13:06:21.96Z</time></trkpt><trkpt lat="44.96978" lon="10.6714417"><ele>23.0</ele><time>2026-03-23T13:06:23.959Z</time></trkpt><trkpt lat="44.96971" lon="10.67143"><ele>23.0</ele><time>2026-03-23T13:06:25.959Z</time></trkpt><trkpt lat="44.9696133" lon="10.6714367"><ele>23.0</ele><time>2026-03-23T13:06:28.96Z</time></trkpt><trkpt lat="44.969545" lon="10.6714367"><ele>23.0</ele><time>2026-03-23T13:06:30.959Z</time></trkpt><trkpt lat="44.969475" lon="10.67144"><ele>23.0</ele><time>2026-03-23T13:06:32.96Z</time></trkpt><trkpt lat="44.9694067" lon="10.6714383"><ele>23.0</ele><time>2026-03-23T13:06:34.959Z</time></trkpt><trkpt lat="44.9693283" lon="10.671425"><ele>23.0</ele><time>2026-03-23T13:06:36.959Z</time></trkpt><trkpt lat="44.9692583" lon="10.6714117"><ele>23.0</ele><time>2026-03-23T13:06:38.96Z</time></trkpt><trkpt lat="44.9691917" lon="10.6714017"><ele>23.0</ele><time>2026-03-23T13:06:40.96Z</time></trkpt><trkpt lat="44.9691267" lon="10.67139"><ele>23.0</ele><time>2026-03-23T13:06:42.96Z</time></trkpt><trkpt lat="44.969055" lon="10.671385"><ele>23.0</ele><time>2026-03-23T13:06:44.959Z</time></trkpt><trkpt lat="44.9689883" lon="10.6713833"><ele>23.0</ele><time>2026-03-23T13:06:46.96Z</time></trkpt><trkpt lat="44.968925" lon="10.6713867"><ele>23.28571428571429</ele><time>2026-03-23T13:06:48.959Z</time></trkpt><trkpt lat="44.9688433" lon="10.6714317"><ele>23.57142857142857</ele><time>2026-03-23T13:06:51.959Z</time></trkpt><trkpt lat="44.968815" lon="10.6715133"><ele>23.857142857142858</ele><time>2026-03-23T13:06:53.96Z</time></trkpt><trkpt lat="44.9688017" lon="10.6716017"><ele>24.142857142857146</ele><time>2026-03-23T13:06:55.959Z</time></trkpt><trkpt lat="44.9687867" lon="10.6717017"><ele>24.42857142857143</ele><time>2026-03-23T13:06:57.96Z</time></trkpt><trkpt lat="44.9687683" lon="10.6717933"><ele>24.714285714285715</ele><time>2026-03-23T13:06:59.96Z</time></trkpt><trkpt lat="44.9687433" lon="10.6718933"><ele>25.0</ele><time>2026-03-23T13:07:01.959Z</time></trkpt><trkpt lat="44.968715" lon="10.671985"><ele>25.000000000000004</ele><time>2026-03-23T13:07:03.96Z</time></trkpt><trkpt lat="44.968695" lon="10.672075"><ele>25.0</ele><time>2026-03-23T13:07:05.959Z</time></trkpt><trkpt lat="44.9686733" lon="10.6721667"><ele>25.0</ele><time>2026-03-23T13:07:07.959Z</time></trkpt><trkpt lat="44.9686517" lon="10.672265"><ele>25.0</ele><time>2026-03-23T13:07:09.96Z</time></trkpt><trkpt lat="44.9686333" lon="10.6723617"><ele>25.0</ele><time>2026-03-23T13:07:11.96Z</time></trkpt><trkpt lat="44.9686083" lon="10.672455"><ele>25.000000000000004</ele><time>2026-03-23T13:07:13.96Z</time></trkpt><trkpt lat="44.968585" lon="10.6725383"><ele>25.0</ele><time>2026-03-23T13:07:15.959Z</time></trkpt><trkpt lat="44.9685567" lon="10.67267"><ele>25.000000000000004</ele><time>2026-03-23T13:07:18.96Z</time></trkpt><trkpt lat="44.96854" lon="10.67276"><ele>25.0</ele><time>2026-03-23T13:07:20.96Z</time></trkpt><trkpt lat="44.9685217" lon="10.67285"><ele>25.0</ele><time>2026-03-23T13:07:22.959Z</time></trkpt><trkpt lat="44.9685033" lon="10.6729383"><ele>25.0</ele><time>2026-03-23T13:07:24.96Z</time></trkpt><trkpt lat="44.9684767" lon="10.6730683"><ele>25.000000000000004</ele><time>2026-03-23T13:07:27.96Z</time></trkpt><trkpt lat="44.9684517" lon="10.6731867"><ele>25.0</ele><time>2026-03-23T13:07:30.959Z</time></trkpt><trkpt lat="44.96842" lon="10.6733117"><ele>25.000000000000004</ele><time>2026-03-23T13:07:33.959Z</time></trkpt><trkpt lat="44.9684" lon="10.6733983"><ele>25.0</ele><time>2026-03-23T13:07:35.959Z</time></trkpt><trkpt lat="44.9683833" lon="10.67353"><ele>25.0</ele><time>2026-03-23T13:07:38.959Z</time></trkpt><trkpt lat="44.9683617" lon="10.6736183"><ele>25.0</ele><time>2026-03-23T13:07:40.96Z</time></trkpt><trkpt lat="44.9683417" lon="10.673705"><ele>25.0</ele><time>2026-03-23T13:07:42.959Z</time></trkpt><trkpt lat="44.9683267" lon="10.6737967"><ele>25.000000000000004</ele><time>2026-03-23T13:07:44.96Z</time></trkpt><trkpt lat="44.96831" lon="10.6738983"><ele>25.0</ele><time>2026-03-23T13:07:46.96Z</time></trkpt><trkpt lat="44.9682983" lon="10.6739967"><ele>25.000000000000004</ele><time>2026-03-23T13:07:48.96Z</time></trkpt><trkpt lat="44.9682767" lon="10.6740917"><ele>25.0</ele><time>2026-03-23T13:07:50.959Z</time></trkpt><trkpt lat="44.9682617" lon="10.674195"><ele>25.0</ele><time>2026-03-23T13:07:52.959Z</time></trkpt><trkpt lat="44.96825" lon="10.6743033"><ele>25.0</ele><time>2026-03-23T13:07:54.959Z</time></trkpt><trkpt lat="44.9682467" lon="10.6744033"><ele>25.0</ele><time>2026-03-23T13:07:56.96Z</time></trkpt><trkpt lat="44.96824" lon="10.6745083"><ele>25.000000000000004</ele><time>2026-03-23T13:07:58.959Z</time></trkpt><trkpt lat="44.9682333" lon="10.674615"><ele>25.0</ele><time>2026-03-23T13:08:00.959Z</time></trkpt><trkpt lat="44.9682233" lon="10.67472"><ele>25.142857142857146</ele><time>2026-03-23T13:08:02.96Z</time></trkpt><trkpt lat="44.968215" lon="10.6748183"><ele>25.285714285714285</ele><time>2026-03-23T13:08:04.959Z</time></trkpt><trkpt lat="44.96821" lon="10.6749167"><ele>25.42857142857143</ele><time>2026-03-23T13:08:06.959Z</time></trkpt><trkpt lat="44.9681983" lon="10.67501"><ele>25.571428571428573</ele><time>2026-03-23T13:08:08.96Z</time></trkpt><trkpt lat="44.96819" lon="10.6751117"><ele>25.714285714285715</ele><time>2026-03-23T13:08:10.959Z</time></trkpt><trkpt lat="44.9681883" lon="10.6752167"><ele>25.857142857142858</ele><time>2026-03-23T13:08:12.96Z</time></trkpt><trkpt lat="44.9681717" lon="10.67532"><ele>26.0</ele><time>2026-03-23T13:08:14.96Z</time></trkpt><trkpt lat="44.9681683" lon="10.675425"><ele>26.285714285714285</ele><time>2026-03-23T13:08:16.96Z</time></trkpt><trkpt lat="44.9681633" lon="10.6755267"><ele>26.571428571428573</ele><time>2026-03-23T13:08:18.959Z</time></trkpt><trkpt lat="44.9681533" lon="10.67563"><ele>26.857142857142858</ele><time>2026-03-23T13:08:20.96Z</time></trkpt><trkpt lat="44.9681433" lon="10.6757367"><ele>27.142857142857142</ele><time>2026-03-23T13:08:22.96Z</time></trkpt><trkpt lat="44.9681333" lon="10.67584"><ele>27.42857142857143</ele><time>2026-03-23T13:08:24.96Z</time></trkpt><trkpt lat="44.9681317" lon="10.67594"><ele>27.714285714285715</ele><time>2026-03-23T13:08:26.96Z</time></trkpt><trkpt lat="44.9681267" lon="10.67604"><ele>28.0</ele><time>2026-03-23T13:08:28.959Z</time></trkpt><trkpt lat="44.9681217" lon="10.6761567"><ele>28.000000000000004</ele><time>2026-03-23T13:08:30.959Z</time></trkpt><trkpt lat="44.96811" lon="10.6762683"><ele>28.0</ele><time>2026-03-23T13:08:32.959Z</time></trkpt><trkpt lat="44.9681033" lon="10.676365"><ele>28.0</ele><time>2026-03-23T13:08:34.959Z</time></trkpt><trkpt lat="44.968095" lon="10.6764733"><ele>28.0</ele><time>2026-03-23T13:08:36.959Z</time></trkpt><trkpt lat="44.9680883" lon="10.6765733"><ele>28.000000000000004</ele><time>2026-03-23T13:08:38.96Z</time></trkpt><trkpt lat="44.9680783" lon="10.6766817"><ele>28.0</ele><time>2026-03-23T13:08:40.959Z</time></trkpt><trkpt lat="44.9680567" lon="10.6767867"><ele>28.0</ele><time>2026-03-23T13:08:42.96Z</time></trkpt><trkpt lat="44.9680317" lon="10.6768917"><ele>28.0</ele><time>2026-03-23T13:08:44.959Z</time></trkpt><trkpt lat="44.9680083" lon="10.6769933"><ele>28.0</ele><time>2026-03-23T13:08:46.959Z</time></trkpt><trkpt lat="44.9679833" lon="10.677095"><ele>28.0</ele><time>2026-03-23T13:08:48.96Z</time></trkpt><trkpt lat="44.9679533" lon="10.677185"><ele>28.0</ele><time>2026-03-23T13:08:50.96Z</time></trkpt><trkpt lat="44.9679267" lon="10.6772817"><ele>28.0</ele><time>2026-03-23T13:08:52.959Z</time></trkpt><trkpt lat="44.9678967" lon="10.6773717"><ele>28.0</ele><time>2026-03-23T13:08:54.96Z</time></trkpt><trkpt lat="44.9678633" lon="10.67747"><ele>27.166666666666668</ele><time>2026-03-23T13:08:56.96Z</time></trkpt><trkpt lat="44.9678317" lon="10.67757"><ele>26.333333333333336</ele><time>2026-03-23T13:08:58.959Z</time></trkpt><trkpt lat="44.9677967" lon="10.677685"><ele>25.5</ele><time>2026-03-23T13:09:00.959Z</time></trkpt><trkpt lat="44.96776" lon="10.67779"><ele>24.666666666666668</ele><time>2026-03-23T13:09:02.96Z</time></trkpt><trkpt lat="44.9677317" lon="10.67789"><ele>23.833333333333336</ele><time>2026-03-23T13:09:04.959Z</time></trkpt><trkpt lat="44.9677033" lon="10.6779783"><ele>23.0</ele><time>2026-03-23T13:09:06.959Z</time></trkpt><trkpt lat="44.9676733" lon="10.678075"><ele>23.0</ele><time>2026-03-23T13:09:08.96Z</time></trkpt><trkpt lat="44.9676417" lon="10.6781633"><ele>23.0</ele><time>2026-03-23T13:09:10.959Z</time></trkpt><trkpt lat="44.967605" lon="10.6782467"><ele>23.0</ele><time>2026-03-23T13:09:12.96Z</time></trkpt><trkpt lat="44.96756" lon="10.6783233"><ele>23.0</ele><time>2026-03-23T13:09:14.96Z</time></trkpt><trkpt lat="44.9674983" lon="10.6783917"><ele>23.0</ele><time>2026-03-23T13:09:16.96Z</time></trkpt><trkpt lat="44.9674333" lon="10.678465"><ele>23.0</ele><time>2026-03-23T13:09:18.959Z</time></trkpt><trkpt lat="44.9673683" lon="10.6785367"><ele>23.0</ele><time>2026-03-23T13:09:20.959Z</time></trkpt><trkpt lat="44.9672983" lon="10.6785917"><ele>23.0</ele><time>2026-03-23T13:09:22.959Z</time></trkpt><trkpt lat="44.9672283" lon="10.6786483"><ele>23.0</ele><time>2026-03-23T13:09:24.96Z</time></trkpt><trkpt lat="44.96716" lon="10.678695"><ele>23.0</ele><time>2026-03-23T13:09:26.96Z</time></trkpt><trkpt lat="44.9670883" lon="10.6787283"><ele>23.0</ele><time>2026-03-23T13:09:28.959Z</time></trkpt><trkpt lat="44.9670217" lon="10.6787617"><ele>23.0</ele><time>2026-03-23T13:09:30.959Z</time></trkpt><trkpt lat="44.966955" lon="10.67881"><ele>23.0</ele><time>2026-03-23T13:09:32.96Z</time></trkpt><trkpt lat="44.9668833" lon="10.6788517"><ele>23.0</ele><time>2026-03-23T13:09:34.959Z</time></trkpt><trkpt lat="44.9668133" lon="10.6789033"><ele>23.0</ele><time>2026-03-23T13:09:36.959Z</time></trkpt><trkpt lat="44.966745" lon="10.678945"><ele>23.0</ele><time>2026-03-23T13:09:38.96Z</time></trkpt><trkpt lat="44.9666767" lon="10.6789833"><ele>23.0</ele><time>2026-03-23T13:09:40.959Z</time></trkpt><trkpt lat="44.9666133" lon="10.6790133"><ele>23.0</ele><time>2026-03-23T13:09:42.96Z</time></trkpt><trkpt lat="44.9665433" lon="10.6790533"><ele>23.0</ele><time>2026-03-23T13:09:44.96Z</time></trkpt><trkpt lat="44.96647" lon="10.679105"><ele>23.166666666666668</ele><time>2026-03-23T13:09:46.96Z</time></trkpt><trkpt lat="44.9664017" lon="10.6791417"><ele>23.333333333333336</ele><time>2026-03-23T13:09:48.959Z</time></trkpt><trkpt lat="44.9663367" lon="10.6791833"><ele>23.5</ele><time>2026-03-23T13:09:50.96Z</time></trkpt><trkpt lat="44.9662667" lon="10.67923"><ele>23.666666666666668</ele><time>2026-03-23T13:09:52.96Z</time></trkpt><trkpt lat="44.966195" lon="10.6792783"><ele>23.833333333333332</ele><time>2026-03-23T13:09:54.959Z</time></trkpt><trkpt lat="44.96612" lon="10.6793283"><ele>24.0</ele><time>2026-03-23T13:09:56.959Z</time></trkpt><trkpt lat="44.96605" lon="10.6793733"><ele>24.0</ele><time>2026-03-23T13:09:58.959Z</time></trkpt><trkpt lat="44.9659733" lon="10.6794217"><ele>24.0</ele><time>2026-03-23T13:10:00.959Z</time></trkpt><trkpt lat="44.9659" lon="10.6794717"><ele>24.0</ele><time>2026-03-23T13:10:02.96Z</time></trkpt><trkpt lat="44.9658233" lon="10.6795283"><ele>24.0</ele><time>2026-03-23T13:10:04.96Z</time></trkpt><trkpt lat="44.9657483" lon="10.6795733"><ele>24.0</ele><time>2026-03-23T13:10:06.959Z</time></trkpt><trkpt lat="44.9656717" lon="10.6796217"><ele>24.0</ele><time>2026-03-23T13:10:08.959Z</time></trkpt><trkpt lat="44.9655983" lon="10.6796667"><ele>24.166666666666668</ele><time>2026-03-23T13:10:10.96Z</time></trkpt><trkpt lat="44.9655217" lon="10.67972"><ele>24.333333333333336</ele><time>2026-03-23T13:10:12.959Z</time></trkpt><trkpt lat="44.9654467" lon="10.67977"><ele>24.5</ele><time>2026-03-23T13:10:14.959Z</time></trkpt><trkpt lat="44.9653683" lon="10.6798317"><ele>24.666666666666668</ele><time>2026-03-23T13:10:16.96Z</time></trkpt><trkpt lat="44.9652883" lon="10.6798733"><ele>24.833333333333336</ele><time>2026-03-23T13:10:18.959Z</time></trkpt><trkpt lat="44.96521" lon="10.6799183"><ele>25.0</ele><time>2026-03-23T13:10:20.959Z</time></trkpt><trkpt lat="44.965135" lon="10.679965"><ele>25.000000000000004</ele><time>2026-03-23T13:10:22.96Z</time></trkpt><trkpt lat="44.965055" lon="10.680015"><ele>25.0</ele><time>2026-03-23T13:10:24.959Z</time></trkpt><trkpt lat="44.96497" lon="10.6800667"><ele>25.0</ele><time>2026-03-23T13:10:26.96Z</time></trkpt><trkpt lat="44.9648883" lon="10.6801117"><ele>25.0</ele><time>2026-03-23T13:10:28.96Z</time></trkpt><trkpt lat="44.9648133" lon="10.6801533"><ele>25.000000000000004</ele><time>2026-03-23T13:10:30.959Z</time></trkpt><trkpt lat="44.9647367" lon="10.6801833"><ele>25.0</ele><time>2026-03-23T13:10:32.96Z</time></trkpt><trkpt lat="44.9646633" lon="10.68024"><ele>24.833333333333336</ele><time>2026-03-23T13:10:34.959Z</time></trkpt><trkpt lat="44.9645883" lon="10.68029"><ele>24.666666666666668</ele><time>2026-03-23T13:10:36.959Z</time></trkpt><trkpt lat="44.9645183" lon="10.680345"><ele>24.5</ele><time>2026-03-23T13:10:38.959Z</time></trkpt><trkpt lat="44.9644483" lon="10.6803983"><ele>24.333333333333336</ele><time>2026-03-23T13:10:40.959Z</time></trkpt><trkpt lat="44.9643917" lon="10.6804617"><ele>24.166666666666668</ele><time>2026-03-23T13:10:42.959Z</time></trkpt><trkpt lat="44.9643483" lon="10.6805383"><ele>24.0</ele><time>2026-03-23T13:10:44.959Z</time></trkpt><trkpt lat="44.9643083" lon="10.6806167"><ele>23.999999999999996</ele><time>2026-03-23T13:10:46.96Z</time></trkpt><trkpt lat="44.9642567" lon="10.6806767"><ele>24.0</ele><time>2026-03-23T13:10:48.959Z</time></trkpt><trkpt lat="44.9641967" lon="10.6807067"><ele>24.0</ele><time>2026-03-23T13:10:50.96Z</time></trkpt><trkpt lat="44.9641233" lon="10.6807183"><ele>24.0</ele><time>2026-03-23T13:10:53.959Z</time></trkpt><trkpt lat="44.9640483" lon="10.6806933"><ele>24.0</ele><time>2026-03-23T13:10:57.96Z</time></trkpt><trkpt lat="44.96397" lon="10.6806833"><ele>23.999999999999996</ele><time>2026-03-23T13:11:01.96Z</time></trkpt><trkpt lat="44.9639183" lon="10.6807383"><ele>24.0</ele><time>2026-03-23T13:11:04.959Z</time></trkpt><trkpt lat="44.9639217" lon="10.680835"><ele>24.0</ele><time>2026-03-23T13:11:07.96Z</time></trkpt><trkpt lat="44.9639533" lon="10.6809133"><ele>24.0</ele><time>2026-03-23T13:11:09.96Z</time></trkpt><trkpt lat="44.9639917" lon="10.6810133"><ele>24.0</ele><time>2026-03-23T13:11:11.959Z</time></trkpt><trkpt lat="44.9640117" lon="10.6811433"><ele>24.0</ele><time>2026-03-23T13:11:13.959Z</time></trkpt><trkpt lat="44.96398" lon="10.6813017"><ele>24.0</ele><time>2026-03-23T13:11:15.959Z</time></trkpt><trkpt lat="44.963915" lon="10.6814733"><ele>23.833333333333332</ele><time>2026-03-23T13:11:17.959Z</time></trkpt><trkpt lat="44.9638717" lon="10.6815567"><ele>23.666666666666668</ele><time>2026-03-23T13:11:18.959Z</time></trkpt><trkpt lat="44.9638233" lon="10.68164"><ele>23.5</ele><time>2026-03-23T13:11:19.96Z</time></trkpt><trkpt lat="44.9637833" lon="10.6817167"><ele>23.333333333333336</ele><time>2026-03-23T13:11:20.959Z</time></trkpt><trkpt lat="44.963725" lon="10.6817967"><ele>23.166666666666668</ele><time>2026-03-23T13:11:21.959Z</time></trkpt><trkpt lat="44.9636617" lon="10.6818817"><ele>23.0</ele><time>2026-03-23T13:11:22.96Z</time></trkpt><trkpt lat="44.9636033" lon="10.6819633"><ele>22.857142857142858</ele><time>2026-03-23T13:11:23.96Z</time></trkpt><trkpt lat="44.963545" lon="10.68203"><ele>22.71428571428571</ele><time>2026-03-23T13:11:24.959Z</time></trkpt><trkpt lat="44.9634967" lon="10.6820983"><ele>22.57142857142857</ele><time>2026-03-23T13:11:25.96Z</time></trkpt><trkpt lat="44.96344" lon="10.6821567"><ele>22.42857142857143</ele><time>2026-03-23T13:11:26.959Z</time></trkpt><trkpt lat="44.9633817" lon="10.68222"><ele>22.285714285714285</ele><time>2026-03-23T13:11:27.959Z</time></trkpt><trkpt lat="44.9633267" lon="10.682275"><ele>22.142857142857142</ele><time>2026-03-23T13:11:28.96Z</time></trkpt><trkpt lat="44.9632733" lon="10.6823317"><ele>22.0</ele><time>2026-03-23T13:11:29.96Z</time></trkpt><trkpt lat="44.9632067" lon="10.68249"><ele>22.0</ele><time>2026-03-23T13:11:31.96Z</time></trkpt><trkpt lat="44.9631917" lon="10.6825767"><ele>22.0</ele><time>2026-03-23T13:11:32.959Z</time></trkpt><trkpt lat="44.96316" lon="10.68273"><ele>22.0</ele><time>2026-03-23T13:11:34.96Z</time></trkpt><trkpt lat="44.9631367" lon="10.6828933"><ele>22.0</ele><time>2026-03-23T13:11:36.96Z</time></trkpt><trkpt lat="44.9631183" lon="10.6830583"><ele>22.0</ele><time>2026-03-23T13:11:38.959Z</time></trkpt><trkpt lat="44.9630917" lon="10.6832167"><ele>22.0</ele><time>2026-03-23T13:11:40.959Z</time></trkpt><trkpt lat="44.9630983" lon="10.683355"><ele>22.0</ele><time>2026-03-23T13:11:42.959Z</time></trkpt><trkpt lat="44.9630767" lon="10.683475"><ele>22.0</ele><time>2026-03-23T13:11:44.959Z</time></trkpt><trkpt lat="44.96304" lon="10.6836017"><ele>22.0</ele><time>2026-03-23T13:11:46.959Z</time></trkpt><trkpt lat="44.9630133" lon="10.6837417"><ele>22.0</ele><time>2026-03-23T13:11:48.959Z</time></trkpt><trkpt lat="44.9629783" lon="10.6838617"><ele>22.0</ele><time>2026-03-23T13:11:50.959Z</time></trkpt><trkpt lat="44.9629483" lon="10.683985"><ele>22.0</ele><time>2026-03-23T13:11:52.959Z</time></trkpt><trkpt lat="44.96291" lon="10.6841167"><ele>22.0</ele><time>2026-03-23T13:11:54.959Z</time></trkpt><trkpt lat="44.9628667" lon="10.6842433"><ele>22.0</ele><time>2026-03-23T13:11:56.959Z</time></trkpt><trkpt lat="44.9628383" lon="10.684375"><ele>22.0</ele><time>2026-03-23T13:11:58.96Z</time></trkpt><trkpt lat="44.962815" lon="10.6845083"><ele>22.0</ele><time>2026-03-23T13:12:00.96Z</time></trkpt><trkpt lat="44.9627883" lon="10.6846267"><ele>22.0</ele><time>2026-03-23T13:12:02.96Z</time></trkpt><trkpt lat="44.9627483" lon="10.6847533"><ele>22.0</ele><time>2026-03-23T13:12:04.959Z</time></trkpt><trkpt lat="44.9627033" lon="10.6848917"><ele>22.0</ele><time>2026-03-23T13:12:06.96Z</time></trkpt><trkpt lat="44.9626583" lon="10.68503"><ele>22.0</ele><time>2026-03-23T13:12:08.96Z</time></trkpt><trkpt lat="44.9626167" lon="10.6851617"><ele>22.0</ele><time>2026-03-23T13:12:10.96Z</time></trkpt><trkpt lat="44.96258" lon="10.6852867"><ele>22.0</ele><time>2026-03-23T13:12:12.959Z</time></trkpt><trkpt lat="44.9625567" lon="10.685405"><ele>22.0</ele><time>2026-03-23T13:12:14.959Z</time></trkpt><trkpt lat="44.96253" lon="10.68554"><ele>22.0</ele><time>2026-03-23T13:12:16.96Z</time></trkpt><trkpt lat="44.9624883" lon="10.6856667"><ele>22.0</ele><time>2026-03-23T13:12:18.96Z</time></trkpt><trkpt lat="44.9624533" lon="10.6857933"><ele>22.0</ele><time>2026-03-23T13:12:20.96Z</time></trkpt><trkpt lat="44.9624183" lon="10.6859033"><ele>22.0</ele><time>2026-03-23T13:12:22.96Z</time></trkpt><trkpt lat="44.96236" lon="10.6859967"><ele>22.0</ele><time>2026-03-23T13:12:24.959Z</time></trkpt><trkpt lat="44.9622883" lon="10.6860833"><ele>22.0</ele><time>2026-03-23T13:12:26.959Z</time></trkpt><trkpt lat="44.9622133" lon="10.6861017"><ele>22.0</ele><time>2026-03-23T13:12:28.96Z</time></trkpt><trkpt lat="44.962125" lon="10.686085"><ele>22.0</ele><time>2026-03-23T13:12:30.96Z</time></trkpt><trkpt lat="44.9620433" lon="10.686075"><ele>22.0</ele><time>2026-03-23T13:12:32.959Z</time></trkpt><trkpt lat="44.96196" lon="10.6860483"><ele>22.0</ele><time>2026-03-23T13:12:34.96Z</time></trkpt><trkpt lat="44.9618767" lon="10.6860217"><ele>22.0</ele><time>2026-03-23T13:12:36.959Z</time></trkpt><trkpt lat="44.961805" lon="10.6860017"><ele>22.0</ele><time>2026-03-23T13:12:38.959Z</time></trkpt><trkpt lat="44.961755" lon="10.686105"><ele>22.0</ele><time>2026-03-23T13:12:41.96Z</time></trkpt><trkpt lat="44.9617583" lon="10.6861983"><ele>22.0</ele><time>2026-03-23T13:12:43.959Z</time></trkpt><trkpt lat="44.9617417" lon="10.6862933"><ele>22.0</ele><time>2026-03-23T13:12:45.96Z</time></trkpt><trkpt lat="44.96172" lon="10.6863983"><ele>22.0</ele><time>2026-03-23T13:12:47.959Z</time></trkpt><trkpt lat="44.96171" lon="10.68649"><ele>22.0</ele><time>2026-03-23T13:12:49.959Z</time></trkpt><trkpt lat="44.96169" lon="10.686575"><ele>22.0</ele><time>2026-03-23T13:12:51.96Z</time></trkpt><trkpt lat="44.9616633" lon="10.6866817"><ele>22.0</ele><time>2026-03-23T13:12:53.959Z</time></trkpt><trkpt lat="44.9616383" lon="10.68678"><ele>22.0</ele><time>2026-03-23T13:12:55.959Z</time></trkpt><trkpt lat="44.9616117" lon="10.6868767"><ele>22.0</ele><time>2026-03-23T13:12:57.96Z</time></trkpt><trkpt lat="44.9615717" lon="10.68699"><ele>22.333333333333332</ele><time>2026-03-23T13:13:00.959Z</time></trkpt><trkpt lat="44.9615083" lon="10.6869833"><ele>22.666666666666664</ele><time>2026-03-23T13:13:03.959Z</time></trkpt><trkpt lat="44.96141" lon="10.6869467"><ele>23.0</ele><time>2026-03-23T13:13:06.959Z</time></trkpt><trkpt lat="44.96134" lon="10.6869017"><ele>23.333333333333332</ele><time>2026-03-23T13:13:08.96Z</time></trkpt><trkpt lat="44.9612733" lon="10.686865"><ele>23.666666666666668</ele><time>2026-03-23T13:13:10.959Z</time></trkpt><trkpt lat="44.9612117" lon="10.68682"><ele>24.0</ele><time>2026-03-23T13:13:12.96Z</time></trkpt><trkpt lat="44.9611283" lon="10.6867717"><ele>23.999999999999996</ele><time>2026-03-23T13:13:15.959Z</time></trkpt><trkpt lat="44.96106" lon="10.686735"><ele>24.0</ele><time>2026-03-23T13:13:17.959Z</time></trkpt><trkpt lat="44.960975" lon="10.6866833"><ele>24.0</ele><time>2026-03-23T13:13:20.96Z</time></trkpt><trkpt lat="44.9610417" lon="10.6866583"><ele>24.0</ele><time>2026-03-23T13:14:32.96Z</time></trkpt><trkpt lat="44.9611133" lon="10.686675"><ele>24.0</ele><time>2026-03-23T13:14:37.959Z</time></trkpt><trkpt lat="44.9611767" lon="10.6867283"><ele>23.999999999999996</ele><time>2026-03-23T13:14:43.959Z</time></trkpt><trkpt lat="44.96124" lon="10.68676"><ele>24.0</ele><time>2026-03-23T13:14:48.96Z</time></trkpt><trkpt lat="44.9612933" lon="10.68671"><ele>24.0</ele><time>2026-03-23T13:14:52.959Z</time></trkpt><trkpt lat="44.961335" lon="10.6867783"><ele>24.0</ele><time>2026-03-23T13:15:03.96Z</time></trkpt><trkpt lat="44.9613733" lon="10.68685"><ele>24.0</ele><time>2026-03-23T13:15:09.959Z</time></trkpt><trkpt lat="44.961315" lon="10.686935"><ele>24.0</ele><time>2026-03-23T13:18:24.959Z</time></trkpt><trkpt lat="44.961245" lon="10.6868767"><ele>24.0</ele><time>2026-03-23T13:18:27.959Z</time></trkpt><trkpt lat="44.9611783" lon="10.686785"><ele>24.0</ele><time>2026-03-23T13:18:30.96Z</time></trkpt><trkpt lat="44.9611033" lon="10.6867633"><ele>23.999999999999996</ele><time>2026-03-23T13:18:32.96Z</time></trkpt><trkpt lat="44.961035" lon="10.6867317"><ele>24.0</ele><time>2026-03-23T13:18:34.96Z</time></trkpt><trkpt lat="44.960965" lon="10.6866917"><ele>24.0</ele><time>2026-03-23T13:18:36.959Z</time></trkpt><trkpt lat="44.9609017" lon="10.6866583"><ele>24.0</ele><time>2026-03-23T13:18:38.959Z</time></trkpt><trkpt lat="44.9608433" lon="10.68662"><ele>24.0</ele><time>2026-03-23T13:18:40.96Z</time></trkpt><trkpt lat="44.9607833" lon="10.6865733"><ele>23.999999999999996</ele><time>2026-03-23T13:18:42.959Z</time></trkpt><trkpt lat="44.9607067" lon="10.6864933"><ele>24.0</ele><time>2026-03-23T13:18:45.96Z</time></trkpt><trkpt lat="44.9606533" lon="10.6864383"><ele>24.142857142857142</ele><time>2026-03-23T13:18:47.96Z</time></trkpt><trkpt lat="44.9605933" lon="10.6863917"><ele>24.285714285714285</ele><time>2026-03-23T13:18:49.96Z</time></trkpt><trkpt lat="44.9605333" lon="10.6863233"><ele>24.42857142857143</ele><time>2026-03-23T13:18:51.96Z</time></trkpt><trkpt lat="44.960465" lon="10.6862717"><ele>24.57142857142857</ele><time>2026-03-23T13:18:53.959Z</time></trkpt><trkpt lat="44.960405" lon="10.68621"><ele>24.714285714285715</ele><time>2026-03-23T13:18:55.959Z</time></trkpt><trkpt lat="44.9603517" lon="10.6861483"><ele>24.857142857142858</ele><time>2026-03-23T13:18:57.959Z</time></trkpt><trkpt lat="44.960285" lon="10.6861317"><ele>25.0</ele><time>2026-03-23T13:18:59.959Z</time></trkpt><trkpt lat="44.9602233" lon="10.6861"><ele>24.857142857142858</ele><time>2026-03-23T13:19:01.959Z</time></trkpt><trkpt lat="44.9601633" lon="10.686055"><ele>24.714285714285715</ele><time>2026-03-23T13:19:03.96Z</time></trkpt><trkpt lat="44.9601017" lon="10.6860083"><ele>24.57142857142857</ele><time>2026-03-23T13:19:05.959Z</time></trkpt><trkpt lat="44.9600367" lon="10.6859767"><ele>24.42857142857143</ele><time>2026-03-23T13:19:07.959Z</time></trkpt><trkpt lat="44.959975" lon="10.6859467"><ele>24.285714285714285</ele><time>2026-03-23T13:19:09.959Z</time></trkpt><trkpt lat="44.9599283" lon="10.68586"><ele>24.142857142857142</ele><time>2026-03-23T13:19:11.959Z</time></trkpt><trkpt lat="44.9598417" lon="10.6858633"><ele>24.0</ele><time>2026-03-23T13:19:14.959Z</time></trkpt><trkpt lat="44.9597617" lon="10.6858683"><ele>24.0</ele><time>2026-03-23T13:19:16.959Z</time></trkpt><trkpt lat="44.9596833" lon="10.6858767"><ele>24.0</ele><time>2026-03-23T13:19:18.959Z</time></trkpt><trkpt lat="44.9596033" lon="10.6858733"><ele>24.0</ele><time>2026-03-23T13:19:20.959Z</time></trkpt><trkpt lat="44.9595367" lon="10.6858167"><ele>24.0</ele><time>2026-03-23T13:19:23.96Z</time></trkpt><trkpt lat="44.9595283" lon="10.6857267"><ele>24.0</ele><time>2026-03-23T13:19:25.96Z</time></trkpt><trkpt lat="44.9595583" lon="10.6856067"><ele>24.0</ele><time>2026-03-23T13:19:27.961Z</time></trkpt><trkpt lat="44.9596" lon="10.685515"><ele>24.0</ele><time>2026-03-23T13:19:29.96Z</time></trkpt><trkpt lat="44.9596367" lon="10.68541"><ele>24.0</ele><time>2026-03-23T13:19:31.961Z</time></trkpt><trkpt lat="44.9596817" lon="10.6852917"><ele>24.0</ele><time>2026-03-23T13:19:33.961Z</time></trkpt><trkpt lat="44.959715" lon="10.68517"><ele>24.0</ele><time>2026-03-23T13:19:35.961Z</time></trkpt><trkpt lat="44.9597617" lon="10.6850517"><ele>24.0</ele><time>2026-03-23T13:19:37.96Z</time></trkpt><trkpt lat="44.95979" lon="10.684955"><ele>24.0</ele><time>2026-03-23T13:19:39.961Z</time></trkpt><trkpt lat="44.9598317" lon="10.6848483"><ele>23.666666666666668</ele><time>2026-03-23T13:19:41.961Z</time></trkpt><trkpt lat="44.9598833" lon="10.6847467"><ele>23.333333333333332</ele><time>2026-03-23T13:19:43.96Z</time></trkpt><trkpt lat="44.9599417" lon="10.6846967"><ele>23.0</ele><time>2026-03-23T13:19:45.96Z</time></trkpt><trkpt lat="44.9600117" lon="10.6846833"><ele>22.666666666666664</ele><time>2026-03-23T13:19:47.96Z</time></trkpt><trkpt lat="44.9600917" lon="10.684725"><ele>22.333333333333332</ele><time>2026-03-23T13:19:49.961Z</time></trkpt><trkpt lat="44.9601617" lon="10.68478"><ele>22.0</ele><time>2026-03-23T13:19:51.961Z</time></trkpt><trkpt lat="44.9602417" lon="10.6848317"><ele>21.833333333333332</ele><time>2026-03-23T13:19:53.961Z</time></trkpt><trkpt lat="44.9603183" lon="10.6848817"><ele>21.666666666666664</ele><time>2026-03-23T13:19:55.961Z</time></trkpt><trkpt lat="44.96039" lon="10.68492"><ele>21.5</ele><time>2026-03-23T13:19:57.961Z</time></trkpt><trkpt lat="44.9604817" lon="10.6849633"><ele>21.333333333333332</ele><time>2026-03-23T13:19:59.961Z</time></trkpt><trkpt lat="44.9605633" lon="10.685015"><ele>21.166666666666668</ele><time>2026-03-23T13:20:01.96Z</time></trkpt><trkpt lat="44.9606367" lon="10.68506"><ele>21.0</ele><time>2026-03-23T13:20:03.961Z</time></trkpt><trkpt lat="44.9607217" lon="10.685105"><ele>21.0</ele><time>2026-03-23T13:20:05.961Z</time></trkpt><trkpt lat="44.9608067" lon="10.6851467"><ele>21.0</ele><time>2026-03-23T13:20:07.961Z</time></trkpt><trkpt lat="44.9608883" lon="10.6851917"><ele>21.0</ele><time>2026-03-23T13:20:09.961Z</time></trkpt><trkpt lat="44.9609767" lon="10.6852533"><ele>21.0</ele><time>2026-03-23T13:20:11.96Z</time></trkpt><trkpt lat="44.9610633" lon="10.6852967"><ele>21.0</ele><time>2026-03-23T13:20:13.961Z</time></trkpt><trkpt lat="44.9611433" lon="10.6853383"><ele>21.200000000000003</ele><time>2026-03-23T13:20:15.96Z</time></trkpt><trkpt lat="44.9612183" lon="10.6853817"><ele>21.400000000000002</ele><time>2026-03-23T13:20:17.961Z</time></trkpt><trkpt lat="44.9613" lon="10.68544"><ele>21.6</ele><time>2026-03-23T13:20:19.96Z</time></trkpt><trkpt lat="44.9613833" lon="10.6854983"><ele>21.8</ele><time>2026-03-23T13:20:21.961Z</time></trkpt><trkpt lat="44.96146" lon="10.6855583"><ele>22.0</ele><time>2026-03-23T13:20:23.96Z</time></trkpt><trkpt lat="44.96154" lon="10.685635"><ele>22.0</ele><time>2026-03-23T13:20:25.96Z</time></trkpt><trkpt lat="44.96161" lon="10.6857183"><ele>22.0</ele><time>2026-03-23T13:20:27.96Z</time></trkpt><trkpt lat="44.9616817" lon="10.6858017"><ele>22.0</ele><time>2026-03-23T13:20:29.96Z</time></trkpt><trkpt lat="44.961735" lon="10.6858883"><ele>22.0</ele><time>2026-03-23T13:20:31.961Z</time></trkpt><trkpt lat="44.9617933" lon="10.6859783"><ele>22.0</ele><time>2026-03-23T13:20:33.961Z</time></trkpt><trkpt lat="44.9618583" lon="10.6860383"><ele>22.0</ele><time>2026-03-23T13:20:35.961Z</time></trkpt><trkpt lat="44.9619417" lon="10.6860933"><ele>22.0</ele><time>2026-03-23T13:20:37.96Z</time></trkpt><trkpt lat="44.9620433" lon="10.686115"><ele>22.0</ele><time>2026-03-23T13:20:39.96Z</time></trkpt><trkpt lat="44.9621467" lon="10.686135"><ele>22.0</ele><time>2026-03-23T13:20:41.96Z</time></trkpt><trkpt lat="44.9622433" lon="10.6861717"><ele>22.0</ele><time>2026-03-23T13:20:43.96Z</time></trkpt><trkpt lat="44.9623383" lon="10.6862017"><ele>22.0</ele><time>2026-03-23T13:20:45.96Z</time></trkpt><trkpt lat="44.9624233" lon="10.68626"><ele>22.0</ele><time>2026-03-23T13:20:47.96Z</time></trkpt><trkpt lat="44.9625" lon="10.6863283"><ele>22.0</ele><time>2026-03-23T13:20:49.96Z</time></trkpt><trkpt lat="44.9625767" lon="10.6863633"><ele>22.0</ele><time>2026-03-23T13:20:51.96Z</time></trkpt><trkpt lat="44.9625367" lon="10.68627"><ele>22.0</ele><time>2026-03-23T13:20:55.961Z</time></trkpt><trkpt lat="44.9624767" lon="10.6862317"><ele>22.0</ele><time>2026-03-23T13:20:57.96Z</time></trkpt><trkpt lat="44.9624283" lon="10.686155"><ele>22.0</ele><time>2026-03-23T13:20:59.96Z</time></trkpt><trkpt lat="44.962415" lon="10.6860383"><ele>22.0</ele><time>2026-03-23T13:21:01.96Z</time></trkpt><trkpt lat="44.9624367" lon="10.6859267"><ele>22.0</ele><time>2026-03-23T13:21:03.961Z</time></trkpt><trkpt lat="44.9624683" lon="10.6858067"><ele>22.0</ele><time>2026-03-23T13:21:05.961Z</time></trkpt><trkpt lat="44.962495" lon="10.6856867"><ele>22.0</ele><time>2026-03-23T13:21:07.961Z</time></trkpt><trkpt lat="44.9625283" lon="10.6855617"><ele>22.0</ele><time>2026-03-23T13:21:09.961Z</time></trkpt><trkpt lat="44.9625583" lon="10.6854333"><ele>22.0</ele><time>2026-03-23T13:21:11.96Z</time></trkpt><trkpt lat="44.9625867" lon="10.6853067"><ele>22.0</ele><time>2026-03-23T13:21:13.961Z</time></trkpt><trkpt lat="44.9626183" lon="10.6851833"><ele>22.0</ele><time>2026-03-23T13:21:15.96Z</time></trkpt><trkpt lat="44.9626617" lon="10.6850767"><ele>22.0</ele><time>2026-03-23T13:21:17.96Z</time></trkpt><trkpt lat="44.962705" lon="10.684965"><ele>22.0</ele><time>2026-03-23T13:21:19.961Z</time></trkpt><trkpt lat="44.9627283" lon="10.6848517"><ele>22.0</ele><time>2026-03-23T13:21:21.96Z</time></trkpt><trkpt lat="44.962755" lon="10.6847433"><ele>22.0</ele><time>2026-03-23T13:21:23.96Z</time></trkpt><trkpt lat="44.9627867" lon="10.6846267"><ele>22.0</ele><time>2026-03-23T13:21:25.961Z</time></trkpt><trkpt lat="44.9628233" lon="10.68451"><ele>22.0</ele><time>2026-03-23T13:21:27.96Z</time></trkpt><trkpt lat="44.96286" lon="10.684395"><ele>22.0</ele><time>2026-03-23T13:21:29.96Z</time></trkpt><trkpt lat="44.9628917" lon="10.6842667"><ele>22.0</ele><time>2026-03-23T13:21:31.961Z</time></trkpt><trkpt lat="44.9629333" lon="10.6841483"><ele>22.0</ele><time>2026-03-23T13:21:33.961Z</time></trkpt><trkpt lat="44.9629683" lon="10.6840267"><ele>22.0</ele><time>2026-03-23T13:21:35.961Z</time></trkpt><trkpt lat="44.9629867" lon="10.6838917"><ele>22.0</ele><time>2026-03-23T13:21:37.96Z</time></trkpt><trkpt lat="44.96302" lon="10.6837667"><ele>22.0</ele><time>2026-03-23T13:21:39.96Z</time></trkpt><trkpt lat="44.9630483" lon="10.6836283"><ele>22.0</ele><time>2026-03-23T13:21:41.96Z</time></trkpt><trkpt lat="44.9630767" lon="10.6834983"><ele>22.0</ele><time>2026-03-23T13:21:43.961Z</time></trkpt><trkpt lat="44.963095" lon="10.6833683"><ele>22.0</ele><time>2026-03-23T13:21:45.96Z</time></trkpt><trkpt lat="44.963115" lon="10.68324"><ele>22.0</ele><time>2026-03-23T13:21:47.961Z</time></trkpt><trkpt lat="44.96313" lon="10.6831233"><ele>22.0</ele><time>2026-03-23T13:21:49.96Z</time></trkpt><trkpt lat="44.963145" lon="10.6830117"><ele>22.0</ele><time>2026-03-23T13:21:51.961Z</time></trkpt><trkpt lat="44.9631583" lon="10.682885"><ele>22.0</ele><time>2026-03-23T13:21:53.961Z</time></trkpt><trkpt lat="44.9631783" lon="10.68276"><ele>22.0</ele><time>2026-03-23T13:21:55.96Z</time></trkpt><trkpt lat="44.9632017" lon="10.682635"><ele>22.0</ele><time>2026-03-23T13:21:57.96Z</time></trkpt><trkpt lat="44.9632283" lon="10.6825083"><ele>22.0</ele><time>2026-03-23T13:21:59.961Z</time></trkpt><trkpt lat="44.96326" lon="10.6823883"><ele>22.0</ele><time>2026-03-23T13:22:01.961Z</time></trkpt><trkpt lat="44.96329" lon="10.682285"><ele>22.0</ele><time>2026-03-23T13:22:03.961Z</time></trkpt><trkpt lat="44.9632833" lon="10.6821883"><ele>22.0</ele><time>2026-03-23T13:22:05.96Z</time></trkpt><trkpt lat="44.9632317" lon="10.6821033"><ele>22.0</ele><time>2026-03-23T13:22:07.961Z</time></trkpt><trkpt lat="44.963185" lon="10.68201"><ele>22.0</ele><time>2026-03-23T13:22:09.961Z</time></trkpt><trkpt lat="44.963135" lon="10.6819133"><ele>22.0</ele><time>2026-03-23T13:22:11.96Z</time></trkpt><trkpt lat="44.9630917" lon="10.68183"><ele>22.0</ele><time>2026-03-23T13:22:13.96Z</time></trkpt><trkpt lat="44.9630383" lon="10.6817367"><ele>22.0</ele><time>2026-03-23T13:22:15.961Z</time></trkpt><trkpt lat="44.9629717" lon="10.6816633"><ele>22.0</ele><time>2026-03-23T13:22:17.96Z</time></trkpt><trkpt lat="44.9628967" lon="10.6816167"><ele>22.0</ele><time>2026-03-23T13:22:19.961Z</time></trkpt><trkpt lat="44.9628217" lon="10.6815683"><ele>22.0</ele><time>2026-03-23T13:22:21.96Z</time></trkpt><trkpt lat="44.9627583" lon="10.68151"><ele>22.0</ele><time>2026-03-23T13:22:23.96Z</time></trkpt><trkpt lat="44.9626833" lon="10.681475"><ele>22.0</ele><time>2026-03-23T13:22:25.961Z</time></trkpt><trkpt lat="44.9626167" lon="10.68143"><ele>22.0</ele><time>2026-03-23T13:22:27.96Z</time></trkpt><trkpt lat="44.962545" lon="10.6813933"><ele>22.0</ele><time>2026-03-23T13:22:29.96Z</time></trkpt><trkpt lat="44.96247" lon="10.6813583"><ele>22.0</ele><time>2026-03-23T13:22:31.96Z</time></trkpt><trkpt lat="44.9624" lon="10.6813217"><ele>22.0</ele><time>2026-03-23T13:22:33.96Z</time></trkpt><trkpt lat="44.9623367" lon="10.6812883"><ele>22.0</ele><time>2026-03-23T13:22:35.961Z</time></trkpt><trkpt lat="44.9622733" lon="10.681255"><ele>22.0</ele><time>2026-03-23T13:22:37.961Z</time></trkpt><trkpt lat="44.96221" lon="10.6812333"><ele>22.0</ele><time>2026-03-23T13:22:39.96Z</time></trkpt><trkpt lat="44.9621417" lon="10.681235"><ele>22.0</ele><time>2026-03-23T13:22:41.961Z</time></trkpt><trkpt lat="44.96207" lon="10.6812233"><ele>22.0</ele><time>2026-03-23T13:22:43.96Z</time></trkpt><trkpt lat="44.9620017" lon="10.6811983"><ele>22.0</ele><time>2026-03-23T13:22:45.96Z</time></trkpt><trkpt lat="44.961935" lon="10.6811717"><ele>22.0</ele><time>2026-03-23T13:22:47.961Z</time></trkpt><trkpt lat="44.9618667" lon="10.6811567"><ele>22.0</ele><time>2026-03-23T13:22:49.96Z</time></trkpt><trkpt lat="44.961795" lon="10.6811433"><ele>22.0</ele><time>2026-03-23T13:22:51.961Z</time></trkpt><trkpt lat="44.9617267" lon="10.6811317"><ele>22.0</ele><time>2026-03-23T13:22:53.96Z</time></trkpt><trkpt lat="44.9616583" lon="10.681135"><ele>22.0</ele><time>2026-03-23T13:22:55.96Z</time></trkpt><trkpt lat="44.9615917" lon="10.681115"><ele>22.0</ele><time>2026-03-23T13:22:57.96Z</time></trkpt><trkpt lat="44.9615067" lon="10.6811217"><ele>22.333333333333332</ele><time>2026-03-23T13:22:59.96Z</time></trkpt><trkpt lat="44.9614367" lon="10.6810983"><ele>22.666666666666664</ele><time>2026-03-23T13:23:01.961Z</time></trkpt><trkpt lat="44.9613583" lon="10.6810833"><ele>23.0</ele><time>2026-03-23T13:23:03.96Z</time></trkpt><trkpt lat="44.9612867" lon="10.6810767"><ele>23.333333333333332</ele><time>2026-03-23T13:23:05.96Z</time></trkpt><trkpt lat="44.9612133" lon="10.6810667"><ele>23.666666666666668</ele><time>2026-03-23T13:23:07.961Z</time></trkpt><trkpt lat="44.9611367" lon="10.6810483"><ele>24.0</ele><time>2026-03-23T13:23:09.961Z</time></trkpt><trkpt lat="44.9610583" lon="10.6810317"><ele>24.0</ele><time>2026-03-23T13:23:11.96Z</time></trkpt><trkpt lat="44.9609783" lon="10.6810267"><ele>24.0</ele><time>2026-03-23T13:23:13.96Z</time></trkpt><trkpt lat="44.9609067" lon="10.681025"><ele>24.0</ele><time>2026-03-23T13:23:15.961Z</time></trkpt><trkpt lat="44.9608367" lon="10.68102"><ele>24.0</ele><time>2026-03-23T13:23:17.96Z</time></trkpt><trkpt lat="44.9607633" lon="10.681035"><ele>24.0</ele><time>2026-03-23T13:23:19.96Z</time></trkpt><trkpt lat="44.9606917" lon="10.6810483"><ele>24.0</ele><time>2026-03-23T13:23:21.961Z</time></trkpt><trkpt lat="44.9606017" lon="10.6810617"><ele>23.833333333333332</ele><time>2026-03-23T13:23:23.96Z</time></trkpt><trkpt lat="44.96052" lon="10.681085"><ele>23.666666666666668</ele><time>2026-03-23T13:23:25.96Z</time></trkpt><trkpt lat="44.9604383" lon="10.68111"><ele>23.5</ele><time>2026-03-23T13:23:27.96Z</time></trkpt><trkpt lat="44.9603767" lon="10.68119"><ele>23.333333333333336</ele><time>2026-03-23T13:23:29.96Z</time></trkpt><trkpt lat="44.9603283" lon="10.6812667"><ele>23.166666666666668</ele><time>2026-03-23T13:23:31.961Z</time></trkpt><trkpt lat="44.960285" lon="10.681365"><ele>23.0</ele><time>2026-03-23T13:23:33.96Z</time></trkpt><trkpt lat="44.9602383" lon="10.6814583"><ele>23.0</ele><time>2026-03-23T13:23:35.961Z</time></trkpt><trkpt lat="44.9601867" lon="10.6815583"><ele>23.0</ele><time>2026-03-23T13:23:37.961Z</time></trkpt><trkpt lat="44.9601333" lon="10.68165"><ele>23.0</ele><time>2026-03-23T13:23:39.96Z</time></trkpt><trkpt lat="44.9600783" lon="10.6817367"><ele>23.0</ele><time>2026-03-23T13:23:41.961Z</time></trkpt><trkpt lat="44.960015" lon="10.6818117"><ele>23.0</ele><time>2026-03-23T13:23:43.961Z</time></trkpt><trkpt lat="44.9599633" lon="10.681895"><ele>23.0</ele><time>2026-03-23T13:23:45.961Z</time></trkpt><trkpt lat="44.9599117" lon="10.6819667"><ele>22.666666666666668</ele><time>2026-03-23T13:23:47.96Z</time></trkpt><trkpt lat="44.959865" lon="10.68205"><ele>22.333333333333336</ele><time>2026-03-23T13:23:49.96Z</time></trkpt><trkpt lat="44.9598267" lon="10.68215"><ele>22.0</ele><time>2026-03-23T13:23:51.961Z</time></trkpt><trkpt lat="44.9597717" lon="10.6822233"><ele>21.666666666666668</ele><time>2026-03-23T13:23:53.96Z</time></trkpt><trkpt lat="44.9597117" lon="10.6821867"><ele>21.333333333333332</ele><time>2026-03-23T13:23:55.961Z</time></trkpt><trkpt lat="44.959675" lon="10.6820567"><ele>21.0</ele><time>2026-03-23T13:23:57.96Z</time></trkpt><trkpt lat="44.9596517" lon="10.68193"><ele>21.0</ele><time>2026-03-23T13:23:59.961Z</time></trkpt><trkpt lat="44.959625" lon="10.6818083"><ele>21.0</ele><time>2026-03-23T13:24:01.96Z</time></trkpt><trkpt lat="44.959595" lon="10.68169"><ele>21.0</ele><time>2026-03-23T13:24:03.961Z</time></trkpt><trkpt lat="44.9595567" lon="10.6815767"><ele>21.0</ele><time>2026-03-23T13:24:05.961Z</time></trkpt><trkpt lat="44.9595167" lon="10.6814683"><ele>21.0</ele><time>2026-03-23T13:24:07.961Z</time></trkpt><trkpt lat="44.9594817" lon="10.68136"><ele>21.0</ele><time>2026-03-23T13:24:09.96Z</time></trkpt><trkpt lat="44.95945" lon="10.68124"><ele>21.0</ele><time>2026-03-23T13:24:11.96Z</time></trkpt><trkpt lat="44.9594333" lon="10.6811167"><ele>21.0</ele><time>2026-03-23T13:24:13.96Z</time></trkpt><trkpt lat="44.9594083" lon="10.6809983"><ele>21.0</ele><time>2026-03-23T13:24:15.96Z</time></trkpt><trkpt lat="44.9593833" lon="10.68089"><ele>21.0</ele><time>2026-03-23T13:24:17.96Z</time></trkpt><trkpt lat="44.9593583" lon="10.680775"><ele>21.0</ele><time>2026-03-23T13:24:19.961Z</time></trkpt><trkpt lat="44.9593533" lon="10.6806583"><ele>21.0</ele><time>2026-03-23T13:24:21.96Z</time></trkpt><trkpt lat="44.95934" lon="10.68055"><ele>21.166666666666668</ele><time>2026-03-23T13:24:23.961Z</time></trkpt><trkpt lat="44.9593333" lon="10.6804483"><ele>21.333333333333332</ele><time>2026-03-23T13:24:25.96Z</time></trkpt><trkpt lat="44.9593367" lon="10.6803333"><ele>21.5</ele><time>2026-03-23T13:24:27.961Z</time></trkpt><trkpt lat="44.95933" lon="10.6802183"><ele>21.666666666666664</ele><time>2026-03-23T13:24:29.961Z</time></trkpt><trkpt lat="44.9593117" lon="10.6801"><ele>21.833333333333332</ele><time>2026-03-23T13:24:31.96Z</time></trkpt><trkpt lat="44.9592917" lon="10.6799867"><ele>22.0</ele><time>2026-03-23T13:24:33.96Z</time></trkpt><trkpt lat="44.9592783" lon="10.6798733"><ele>22.0</ele><time>2026-03-23T13:24:35.96Z</time></trkpt><trkpt lat="44.9592667" lon="10.6797433"><ele>22.0</ele><time>2026-03-23T13:24:37.961Z</time></trkpt><trkpt lat="44.95925" lon="10.6796233"><ele>22.0</ele><time>2026-03-23T13:24:39.961Z</time></trkpt><trkpt lat="44.9592283" lon="10.67951"><ele>22.0</ele><time>2026-03-23T13:24:41.961Z</time></trkpt><trkpt lat="44.9592117" lon="10.679405"><ele>22.0</ele><time>2026-03-23T13:24:43.96Z</time></trkpt><trkpt lat="44.9591883" lon="10.6792833"><ele>22.0</ele><time>2026-03-23T13:24:45.96Z</time></trkpt><trkpt lat="44.95917" lon="10.6791667"><ele>21.857142857142858</ele><time>2026-03-23T13:24:47.961Z</time></trkpt><trkpt lat="44.9591583" lon="10.67906"><ele>21.714285714285715</ele><time>2026-03-23T13:24:49.96Z</time></trkpt><trkpt lat="44.9591367" lon="10.6789483"><ele>21.57142857142857</ele><time>2026-03-23T13:24:51.96Z</time></trkpt><trkpt lat="44.9591217" lon="10.6788467"><ele>21.42857142857143</ele><time>2026-03-23T13:24:53.96Z</time></trkpt><trkpt lat="44.95911" lon="10.6787467"><ele>21.285714285714285</ele><time>2026-03-23T13:24:55.961Z</time></trkpt><trkpt lat="44.9591" lon="10.6786533"><ele>21.142857142857142</ele><time>2026-03-23T13:24:57.96Z</time></trkpt><trkpt lat="44.9590833" lon="10.6785667"><ele>21.0</ele><time>2026-03-23T13:24:59.96Z</time></trkpt><trkpt lat="44.95906" lon="10.6784317"><ele>21.333333333333332</ele><time>2026-03-23T13:25:02.96Z</time></trkpt><trkpt lat="44.9590483" lon="10.67834"><ele>21.666666666666668</ele><time>2026-03-23T13:25:04.96Z</time></trkpt><trkpt lat="44.95904" lon="10.6782517"><ele>22.0</ele><time>2026-03-23T13:25:06.96Z</time></trkpt><trkpt lat="44.959025" lon="10.6781283"><ele>22.333333333333336</ele><time>2026-03-23T13:25:09.961Z</time></trkpt><trkpt lat="44.9590083" lon="10.6780183"><ele>22.666666666666668</ele><time>2026-03-23T13:25:12.961Z</time></trkpt><trkpt lat="44.959" lon="10.6779067"><ele>23.0</ele><time>2026-03-23T13:25:15.96Z</time></trkpt><trkpt lat="44.9589767" lon="10.6778067"><ele>23.0</ele><time>2026-03-23T13:25:18.96Z</time></trkpt><trkpt lat="44.9589667" lon="10.6777083"><ele>23.0</ele><time>2026-03-23T13:25:21.96Z</time></trkpt><trkpt lat="44.9589567" lon="10.6776067"><ele>23.0</ele><time>2026-03-23T13:25:24.961Z</time></trkpt><trkpt lat="44.9589317" lon="10.6775"><ele>23.0</ele><time>2026-03-23T13:25:28.961Z</time></trkpt><trkpt lat="44.9588683" lon="10.6774433"><ele>23.0</ele><time>2026-03-23T13:25:31.96Z</time></trkpt><trkpt lat="44.9587833" lon="10.6774233"><ele>23.0</ele><time>2026-03-23T13:25:34.96Z</time></trkpt><trkpt lat="44.9586967" lon="10.6774217"><ele>23.0</ele><time>2026-03-23T13:25:37.96Z</time></trkpt><trkpt lat="44.9586017" lon="10.6774033"><ele>23.0</ele><time>2026-03-23T13:25:40.961Z</time></trkpt><trkpt lat="44.9585333" lon="10.67738"><ele>23.0</ele><time>2026-03-23T13:25:42.96Z</time></trkpt><trkpt lat="44.9584567" lon="10.6773883"><ele>23.0</ele><time>2026-03-23T13:25:44.961Z</time></trkpt><trkpt lat="44.9583817" lon="10.677395"><ele>23.0</ele><time>2026-03-23T13:25:46.961Z</time></trkpt><trkpt lat="44.9583067" lon="10.6774033"><ele>23.0</ele><time>2026-03-23T13:25:48.961Z</time></trkpt><trkpt lat="44.9582367" lon="10.6774083"><ele>23.0</ele><time>2026-03-23T13:25:50.961Z</time></trkpt><trkpt lat="44.9581633" lon="10.6774083"><ele>23.0</ele><time>2026-03-23T13:25:52.96Z</time></trkpt><trkpt lat="44.9580917" lon="10.677415"><ele>23.0</ele><time>2026-03-23T13:25:54.961Z</time></trkpt><trkpt lat="44.9580217" lon="10.677435"><ele>23.0</ele><time>2026-03-23T13:25:56.961Z</time></trkpt><trkpt lat="44.957945" lon="10.6774533"><ele>23.0</ele><time>2026-03-23T13:25:58.961Z</time></trkpt><trkpt lat="44.9578733" lon="10.6774533"><ele>23.0</ele><time>2026-03-23T13:26:00.961Z</time></trkpt><trkpt lat="44.9578" lon="10.6774717"><ele>23.0</ele><time>2026-03-23T13:26:02.96Z</time></trkpt><trkpt lat="44.9577267" lon="10.677505"><ele>23.0</ele><time>2026-03-23T13:26:04.96Z</time></trkpt><trkpt lat="44.9576567" lon="10.6775267"><ele>23.0</ele><time>2026-03-23T13:26:06.96Z</time></trkpt><trkpt lat="44.957585" lon="10.6775533"><ele>23.0</ele><time>2026-03-23T13:26:08.96Z</time></trkpt><trkpt lat="44.957505" lon="10.6775833"><ele>23.0</ele><time>2026-03-23T13:26:10.96Z</time></trkpt><trkpt lat="44.9574267" lon="10.6776033"><ele>23.0</ele><time>2026-03-23T13:26:12.96Z</time></trkpt><trkpt lat="44.9573533" lon="10.6776283"><ele>23.0</ele><time>2026-03-23T13:26:14.96Z</time></trkpt><trkpt lat="44.9572817" lon="10.6776467"><ele>23.0</ele><time>2026-03-23T13:26:16.96Z</time></trkpt><trkpt lat="44.9572117" lon="10.6776633"><ele>23.0</ele><time>2026-03-23T13:26:18.96Z</time></trkpt><trkpt lat="44.9571383" lon="10.6776883"><ele>23.0</ele><time>2026-03-23T13:26:20.96Z</time></trkpt><trkpt lat="44.9570617" lon="10.677725"><ele>23.0</ele><time>2026-03-23T13:26:22.96Z</time></trkpt><trkpt lat="44.9569933" lon="10.6777733"><ele>23.0</ele><time>2026-03-23T13:26:24.961Z</time></trkpt><trkpt lat="44.9569283" lon="10.6778317"><ele>23.0</ele><time>2026-03-23T13:26:26.96Z</time></trkpt><trkpt lat="44.9568667" lon="10.6779083"><ele>23.0</ele><time>2026-03-23T13:26:28.96Z</time></trkpt><trkpt lat="44.9568233" lon="10.6779983"><ele>23.0</ele><time>2026-03-23T13:26:30.961Z</time></trkpt><trkpt lat="44.95677" lon="10.6780817"><ele>23.0</ele><time>2026-03-23T13:26:32.96Z</time></trkpt><trkpt lat="44.956715" lon="10.6781733"><ele>23.0</ele><time>2026-03-23T13:26:34.961Z</time></trkpt><trkpt lat="44.9566683" lon="10.6782667"><ele>23.0</ele><time>2026-03-23T13:26:36.961Z</time></trkpt><trkpt lat="44.956625" lon="10.67836"><ele>23.0</ele><time>2026-03-23T13:26:38.961Z</time></trkpt><trkpt lat="44.9565733" lon="10.6784417"><ele>23.0</ele><time>2026-03-23T13:26:40.961Z</time></trkpt><trkpt lat="44.9565267" lon="10.6785233"><ele>23.0</ele><time>2026-03-23T13:26:42.96Z</time></trkpt><trkpt lat="44.956485" lon="10.678615"><ele>23.0</ele><time>2026-03-23T13:26:44.96Z</time></trkpt><trkpt lat="44.9564317" lon="10.678705"><ele>23.0</ele><time>2026-03-23T13:26:46.96Z</time></trkpt><trkpt lat="44.9563817" lon="10.6787883"><ele>23.0</ele><time>2026-03-23T13:26:48.961Z</time></trkpt><trkpt lat="44.9563333" lon="10.6788683"><ele>23.0</ele><time>2026-03-23T13:26:50.961Z</time></trkpt><trkpt lat="44.9562767" lon="10.678945"><ele>22.833333333333336</ele><time>2026-03-23T13:26:52.96Z</time></trkpt><trkpt lat="44.9562133" lon="10.6790183"><ele>22.666666666666668</ele><time>2026-03-23T13:26:54.96Z</time></trkpt><trkpt lat="44.9561533" lon="10.67908"><ele>22.5</ele><time>2026-03-23T13:26:56.961Z</time></trkpt><trkpt lat="44.95608" lon="10.6791283"><ele>22.333333333333332</ele><time>2026-03-23T13:26:58.96Z</time></trkpt><trkpt lat="44.95601" lon="10.679175"><ele>22.166666666666664</ele><time>2026-03-23T13:27:00.96Z</time></trkpt><trkpt lat="44.9559367" lon="10.6792217"><ele>22.0</ele><time>2026-03-23T13:27:02.96Z</time></trkpt><trkpt lat="44.9558683" lon="10.6792783"><ele>22.0</ele><time>2026-03-23T13:27:04.96Z</time></trkpt><trkpt lat="44.9557967" lon="10.6793267"><ele>22.0</ele><time>2026-03-23T13:27:06.961Z</time></trkpt><trkpt lat="44.9557267" lon="10.6793817"><ele>22.0</ele><time>2026-03-23T13:27:08.961Z</time></trkpt><trkpt lat="44.9556567" lon="10.67944"><ele>22.0</ele><time>2026-03-23T13:27:10.96Z</time></trkpt><trkpt lat="44.9555883" lon="10.6795017"><ele>22.0</ele><time>2026-03-23T13:27:12.96Z</time></trkpt><trkpt lat="44.95552" lon="10.679545"><ele>22.0</ele><time>2026-03-23T13:27:14.96Z</time></trkpt><trkpt lat="44.95545" lon="10.67959"><ele>21.833333333333332</ele><time>2026-03-23T13:27:16.96Z</time></trkpt><trkpt lat="44.9553833" lon="10.6796433"><ele>21.666666666666664</ele><time>2026-03-23T13:27:18.96Z</time></trkpt><trkpt lat="44.9553117" lon="10.6797033"><ele>21.5</ele><time>2026-03-23T13:27:20.96Z</time></trkpt><trkpt lat="44.9552417" lon="10.6797583"><ele>21.333333333333332</ele><time>2026-03-23T13:27:22.961Z</time></trkpt><trkpt lat="44.9551733" lon="10.679805"><ele>21.166666666666668</ele><time>2026-03-23T13:27:24.96Z</time></trkpt><trkpt lat="44.9551067" lon="10.6798483"><ele>21.0</ele><time>2026-03-23T13:27:26.961Z</time></trkpt><trkpt lat="44.95504" lon="10.6799"><ele>21.0</ele><time>2026-03-23T13:27:28.96Z</time></trkpt><trkpt lat="44.9549733" lon="10.6799517"><ele>21.0</ele><time>2026-03-23T13:27:30.96Z</time></trkpt><trkpt lat="44.9548983" lon="10.6799983"><ele>21.0</ele><time>2026-03-23T13:27:32.96Z</time></trkpt><trkpt lat="44.95483" lon="10.6800533"><ele>21.0</ele><time>2026-03-23T13:27:34.96Z</time></trkpt><trkpt lat="44.9547633" lon="10.68011"><ele>21.0</ele><time>2026-03-23T13:27:36.96Z</time></trkpt><trkpt lat="44.9546983" lon="10.6801533"><ele>21.0</ele><time>2026-03-23T13:27:38.961Z</time></trkpt><trkpt lat="44.95463" lon="10.68021"><ele>21.0</ele><time>2026-03-23T13:27:40.96Z</time></trkpt><trkpt lat="44.95456" lon="10.680265"><ele>21.0</ele><time>2026-03-23T13:27:42.961Z</time></trkpt><trkpt lat="44.954495" lon="10.680315"><ele>21.0</ele><time>2026-03-23T13:27:44.96Z</time></trkpt><trkpt lat="44.9544283" lon="10.68037"><ele>21.0</ele><time>2026-03-23T13:27:46.96Z</time></trkpt><trkpt lat="44.95435" lon="10.6804283"><ele>21.0</ele><time>2026-03-23T13:27:48.96Z</time></trkpt><trkpt lat="44.95428" lon="10.6804867"><ele>21.0</ele><time>2026-03-23T13:27:50.961Z</time></trkpt><trkpt lat="44.95421" lon="10.6805383"><ele>21.0</ele><time>2026-03-23T13:27:52.961Z</time></trkpt><trkpt lat="44.9541417" lon="10.6805817"><ele>21.0</ele><time>2026-03-23T13:27:54.961Z</time></trkpt><trkpt lat="44.954065" lon="10.6806167"><ele>21.0</ele><time>2026-03-23T13:27:56.961Z</time></trkpt><trkpt lat="44.9539883" lon="10.6806567"><ele>21.0</ele><time>2026-03-23T13:27:58.96Z</time></trkpt><trkpt lat="44.95391" lon="10.6806867"><ele>21.0</ele><time>2026-03-23T13:28:00.96Z</time></trkpt><trkpt lat="44.9538283" lon="10.6807033"><ele>21.0</ele><time>2026-03-23T13:28:02.961Z</time></trkpt><trkpt lat="44.9537467" lon="10.6807167"><ele>21.0</ele><time>2026-03-23T13:28:04.96Z</time></trkpt><trkpt lat="44.953665" lon="10.68073"><ele>21.0</ele><time>2026-03-23T13:28:06.961Z</time></trkpt><trkpt lat="44.953585" lon="10.6807317"><ele>21.0</ele><time>2026-03-23T13:28:08.96Z</time></trkpt><trkpt lat="44.9535017" lon="10.680735"><ele>21.0</ele><time>2026-03-23T13:28:10.96Z</time></trkpt><trkpt lat="44.9534217" lon="10.6807483"><ele>21.0</ele><time>2026-03-23T13:28:12.96Z</time></trkpt><trkpt lat="44.953335" lon="10.6807483"><ele>21.0</ele><time>2026-03-23T13:28:14.96Z</time></trkpt><trkpt lat="44.9532583" lon="10.6807433"><ele>21.166666666666668</ele><time>2026-03-23T13:28:16.96Z</time></trkpt><trkpt lat="44.95318" lon="10.6807417"><ele>21.333333333333332</ele><time>2026-03-23T13:28:18.96Z</time></trkpt><trkpt lat="44.9531067" lon="10.680745"><ele>21.5</ele><time>2026-03-23T13:28:20.961Z</time></trkpt><trkpt lat="44.953025" lon="10.6807417"><ele>21.666666666666664</ele><time>2026-03-23T13:28:22.961Z</time></trkpt><trkpt lat="44.9529433" lon="10.68073"><ele>21.833333333333332</ele><time>2026-03-23T13:28:24.961Z</time></trkpt><trkpt lat="44.9528683" lon="10.6807283"><ele>22.0</ele><time>2026-03-23T13:28:26.96Z</time></trkpt><trkpt lat="44.95279" lon="10.6807167"><ele>22.0</ele><time>2026-03-23T13:28:28.96Z</time></trkpt><trkpt lat="44.952705" lon="10.6807067"><ele>22.0</ele><time>2026-03-23T13:28:30.96Z</time></trkpt><trkpt lat="44.9526233" lon="10.6806917"><ele>22.0</ele><time>2026-03-23T13:28:32.96Z</time></trkpt><trkpt lat="44.9525367" lon="10.68068"><ele>22.0</ele><time>2026-03-23T13:28:34.961Z</time></trkpt><trkpt lat="44.952455" lon="10.6806667"><ele>22.0</ele><time>2026-03-23T13:28:36.961Z</time></trkpt><trkpt lat="44.9523733" lon="10.6806583"><ele>22.0</ele><time>2026-03-23T13:28:38.961Z</time></trkpt><trkpt lat="44.9522967" lon="10.6806417"><ele>22.333333333333332</ele><time>2026-03-23T13:28:40.961Z</time></trkpt><trkpt lat="44.952215" lon="10.6806233"><ele>22.666666666666664</ele><time>2026-03-23T13:28:42.96Z</time></trkpt><trkpt lat="44.9521267" lon="10.6806133"><ele>23.0</ele><time>2026-03-23T13:28:44.96Z</time></trkpt><trkpt lat="44.95204" lon="10.680595"><ele>23.333333333333332</ele><time>2026-03-23T13:28:46.96Z</time></trkpt><trkpt lat="44.9519617" lon="10.680585"><ele>23.666666666666668</ele><time>2026-03-23T13:28:48.961Z</time></trkpt><trkpt lat="44.9518833" lon="10.68058"><ele>24.0</ele><time>2026-03-23T13:28:50.96Z</time></trkpt><trkpt lat="44.9518033" lon="10.68056"><ele>24.0</ele><time>2026-03-23T13:28:52.961Z</time></trkpt><trkpt lat="44.9517267" lon="10.6805417"><ele>24.0</ele><time>2026-03-23T13:28:54.96Z</time></trkpt><trkpt lat="44.9516467" lon="10.6805233"><ele>24.0</ele><time>2026-03-23T13:28:56.96Z</time></trkpt><trkpt lat="44.9515667" lon="10.6805133"><ele>24.0</ele><time>2026-03-23T13:28:58.96Z</time></trkpt><trkpt lat="44.9514883" lon="10.6805017"><ele>24.0</ele><time>2026-03-23T13:29:00.96Z</time></trkpt><trkpt lat="44.9514017" lon="10.680485"><ele>24.0</ele><time>2026-03-23T13:29:02.961Z</time></trkpt><trkpt lat="44.9513167" lon="10.6804783"><ele>23.833333333333332</ele><time>2026-03-23T13:29:04.96Z</time></trkpt><trkpt lat="44.95124" lon="10.68046"><ele>23.666666666666668</ele><time>2026-03-23T13:29:06.96Z</time></trkpt><trkpt lat="44.95116" lon="10.6804383"><ele>23.5</ele><time>2026-03-23T13:29:08.96Z</time></trkpt><trkpt lat="44.95108" lon="10.680415"><ele>23.333333333333336</ele><time>2026-03-23T13:29:10.961Z</time></trkpt><trkpt lat="44.9510067" lon="10.680395"><ele>23.166666666666668</ele><time>2026-03-23T13:29:12.96Z</time></trkpt><trkpt lat="44.95093" lon="10.680375"><ele>23.0</ele><time>2026-03-23T13:29:14.96Z</time></trkpt><trkpt lat="44.9508483" lon="10.6803567"><ele>23.0</ele><time>2026-03-23T13:29:16.961Z</time></trkpt><trkpt lat="44.9507667" lon="10.6803333"><ele>23.0</ele><time>2026-03-23T13:29:18.961Z</time></trkpt><trkpt lat="44.95069" lon="10.680315"><ele>23.0</ele><time>2026-03-23T13:29:20.96Z</time></trkpt><trkpt lat="44.95062" lon="10.680285"><ele>23.0</ele><time>2026-03-23T13:29:22.961Z</time></trkpt><trkpt lat="44.9505367" lon="10.6802667"><ele>23.0</ele><time>2026-03-23T13:29:24.961Z</time></trkpt><trkpt lat="44.9504583" lon="10.6802417"><ele>23.0</ele><time>2026-03-23T13:29:26.96Z</time></trkpt><trkpt lat="44.950375" lon="10.680215"><ele>23.0</ele><time>2026-03-23T13:29:28.961Z</time></trkpt><trkpt lat="44.9503" lon="10.6801817"><ele>23.0</ele><time>2026-03-23T13:29:30.961Z</time></trkpt><trkpt lat="44.9502183" lon="10.6801433"><ele>23.0</ele><time>2026-03-23T13:29:32.961Z</time></trkpt><trkpt lat="44.9501333" lon="10.6801183"><ele>23.0</ele><time>2026-03-23T13:29:34.96Z</time></trkpt><trkpt lat="44.9500517" lon="10.6800983"><ele>23.0</ele><time>2026-03-23T13:29:36.961Z</time></trkpt><trkpt lat="44.94998" lon="10.68007"><ele>23.0</ele><time>2026-03-23T13:29:38.961Z</time></trkpt><trkpt lat="44.949905" lon="10.6800483"><ele>23.166666666666668</ele><time>2026-03-23T13:29:40.96Z</time></trkpt><trkpt lat="44.949835" lon="10.6800267"><ele>23.333333333333336</ele><time>2026-03-23T13:29:42.96Z</time></trkpt><trkpt lat="44.94976" lon="10.68"><ele>23.5</ele><time>2026-03-23T13:29:44.96Z</time></trkpt><trkpt lat="44.94968" lon="10.6799833"><ele>23.666666666666668</ele><time>2026-03-23T13:29:46.96Z</time></trkpt><trkpt lat="44.9495983" lon="10.6799617"><ele>23.833333333333332</ele><time>2026-03-23T13:29:48.961Z</time></trkpt><trkpt lat="44.9495233" lon="10.6799383"><ele>24.0</ele><time>2026-03-23T13:29:50.961Z</time></trkpt><trkpt lat="44.9494517" lon="10.679915"><ele>24.0</ele><time>2026-03-23T13:29:52.961Z</time></trkpt><trkpt lat="44.94938" lon="10.6798917"><ele>24.0</ele><time>2026-03-23T13:29:54.961Z</time></trkpt><trkpt lat="44.9493067" lon="10.6798767"><ele>24.0</ele><time>2026-03-23T13:29:56.96Z</time></trkpt><trkpt lat="44.9492317" lon="10.6798533"><ele>24.0</ele><time>2026-03-23T13:29:58.961Z</time></trkpt><trkpt lat="44.9491533" lon="10.6798217"><ele>24.0</ele><time>2026-03-23T13:30:00.961Z</time></trkpt><trkpt lat="44.9490783" lon="10.679805"><ele>24.0</ele><time>2026-03-23T13:30:02.961Z</time></trkpt><trkpt lat="44.9490033" lon="10.6797933"><ele>23.666666666666668</ele><time>2026-03-23T13:30:04.96Z</time></trkpt><trkpt lat="44.9489283" lon="10.67977"><ele>23.333333333333332</ele><time>2026-03-23T13:30:06.96Z</time></trkpt><trkpt lat="44.9488433" lon="10.6797417"><ele>23.0</ele><time>2026-03-23T13:30:08.96Z</time></trkpt><trkpt lat="44.9487683" lon="10.6797167"><ele>22.666666666666664</ele><time>2026-03-23T13:30:10.96Z</time></trkpt><trkpt lat="44.9486867" lon="10.67969"><ele>22.333333333333332</ele><time>2026-03-23T13:30:12.961Z</time></trkpt><trkpt lat="44.94861" lon="10.6796617"><ele>22.0</ele><time>2026-03-23T13:30:14.96Z</time></trkpt><trkpt lat="44.9485317" lon="10.67963"><ele>22.0</ele><time>2026-03-23T13:30:16.96Z</time></trkpt><trkpt lat="44.9484467" lon="10.6796083"><ele>22.0</ele><time>2026-03-23T13:30:18.961Z</time></trkpt><trkpt lat="44.948365" lon="10.679585"><ele>22.0</ele><time>2026-03-23T13:30:20.961Z</time></trkpt><trkpt lat="44.9482817" lon="10.6795567"><ele>22.0</ele><time>2026-03-23T13:30:22.961Z</time></trkpt><trkpt lat="44.9482033" lon="10.679525"><ele>22.0</ele><time>2026-03-23T13:30:24.96Z</time></trkpt><trkpt lat="44.9481367" lon="10.6794733"><ele>22.0</ele><time>2026-03-23T13:30:26.96Z</time></trkpt><trkpt lat="44.9480767" lon="10.6794033"><ele>22.0</ele><time>2026-03-23T13:30:28.961Z</time></trkpt><trkpt lat="44.9480233" lon="10.6793067"><ele>22.0</ele><time>2026-03-23T13:30:30.961Z</time></trkpt><trkpt lat="44.9479733" lon="10.679205"><ele>22.0</ele><time>2026-03-23T13:30:32.96Z</time></trkpt><trkpt lat="44.9479267" lon="10.6790983"><ele>22.0</ele><time>2026-03-23T13:30:34.961Z</time></trkpt><trkpt lat="44.9478567" lon="10.6790333"><ele>22.0</ele><time>2026-03-23T13:30:36.961Z</time></trkpt><trkpt lat="44.947775" lon="10.6789983"><ele>22.0</ele><time>2026-03-23T13:30:38.961Z</time></trkpt><trkpt lat="44.9476967" lon="10.6789767"><ele>22.0</ele><time>2026-03-23T13:30:40.961Z</time></trkpt><trkpt lat="44.9476183" lon="10.67895"><ele>22.0</ele><time>2026-03-23T13:30:42.962Z</time></trkpt><trkpt lat="44.947545" lon="10.6789183"><ele>22.0</ele><time>2026-03-23T13:30:44.961Z</time></trkpt><trkpt lat="44.9474733" lon="10.6788833"><ele>22.0</ele><time>2026-03-23T13:30:46.961Z</time></trkpt><trkpt lat="44.9474117" lon="10.6788317"><ele>22.0</ele><time>2026-03-23T13:30:48.961Z</time></trkpt><trkpt lat="44.947345" lon="10.678785"><ele>22.0</ele><time>2026-03-23T13:30:50.962Z</time></trkpt><trkpt lat="44.94728" lon="10.67874"><ele>22.333333333333332</ele><time>2026-03-23T13:30:52.961Z</time></trkpt><trkpt lat="44.9472083" lon="10.6786933"><ele>22.666666666666664</ele><time>2026-03-23T13:30:54.961Z</time></trkpt><trkpt lat="44.947135" lon="10.6786467"><ele>23.0</ele><time>2026-03-23T13:30:56.962Z</time></trkpt><trkpt lat="44.9470633" lon="10.67861"><ele>23.333333333333332</ele><time>2026-03-23T13:30:58.962Z</time></trkpt><trkpt lat="44.9469933" lon="10.67857"><ele>23.666666666666668</ele><time>2026-03-23T13:31:00.962Z</time></trkpt><trkpt lat="44.9469217" lon="10.6785267"><ele>24.0</ele><time>2026-03-23T13:31:02.961Z</time></trkpt><trkpt lat="44.94685" lon="10.6784867"><ele>24.166666666666668</ele><time>2026-03-23T13:31:04.961Z</time></trkpt><trkpt lat="44.9467867" lon="10.678415"><ele>24.333333333333336</ele><time>2026-03-23T13:31:06.962Z</time></trkpt><trkpt lat="44.9467233" lon="10.6783567"><ele>24.5</ele><time>2026-03-23T13:31:08.962Z</time></trkpt><trkpt lat="44.9466583" lon="10.678305"><ele>24.666666666666668</ele><time>2026-03-23T13:31:10.961Z</time></trkpt><trkpt lat="44.9465917" lon="10.6782633"><ele>24.833333333333336</ele><time>2026-03-23T13:31:12.962Z</time></trkpt><trkpt lat="44.9465267" lon="10.6782083"><ele>25.0</ele><time>2026-03-23T13:31:14.962Z</time></trkpt><trkpt lat="44.9464617" lon="10.67815"><ele>25.166666666666668</ele><time>2026-03-23T13:31:16.961Z</time></trkpt><trkpt lat="44.946395" lon="10.6780967"><ele>25.333333333333336</ele><time>2026-03-23T13:31:18.962Z</time></trkpt><trkpt lat="44.9463217" lon="10.6780417"><ele>25.5</ele><time>2026-03-23T13:31:20.961Z</time></trkpt><trkpt lat="44.9462567" lon="10.6779783"><ele>25.666666666666664</ele><time>2026-03-23T13:31:22.961Z</time></trkpt><trkpt lat="44.946195" lon="10.677915"><ele>25.833333333333332</ele><time>2026-03-23T13:31:24.961Z</time></trkpt><trkpt lat="44.9461333" lon="10.6778483"><ele>26.0</ele><time>2026-03-23T13:31:26.962Z</time></trkpt><trkpt lat="44.946065" lon="10.677785"><ele>26.333333333333332</ele><time>2026-03-23T13:31:28.962Z</time></trkpt><trkpt lat="44.946" lon="10.6777283"><ele>26.666666666666664</ele><time>2026-03-23T13:31:30.962Z</time></trkpt><trkpt lat="44.94593" lon="10.6776683"><ele>27.0</ele><time>2026-03-23T13:31:32.961Z</time></trkpt><trkpt lat="44.9458633" lon="10.6776067"><ele>27.333333333333336</ele><time>2026-03-23T13:31:34.961Z</time></trkpt><trkpt lat="44.9458033" lon="10.6775517"><ele>27.666666666666668</ele><time>2026-03-23T13:31:36.961Z</time></trkpt><trkpt lat="44.94574" lon="10.6774883"><ele>28.0</ele><time>2026-03-23T13:31:38.961Z</time></trkpt><trkpt lat="44.9456767" lon="10.6774317"><ele>27.166666666666668</ele><time>2026-03-23T13:31:40.962Z</time></trkpt><trkpt lat="44.9456183" lon="10.6773667"><ele>26.333333333333336</ele><time>2026-03-23T13:31:42.961Z</time></trkpt><trkpt lat="44.9455517" lon="10.6773067"><ele>25.5</ele><time>2026-03-23T13:31:44.962Z</time></trkpt><trkpt lat="44.9454883" lon="10.67724"><ele>24.666666666666668</ele><time>2026-03-23T13:31:46.961Z</time></trkpt><trkpt lat="44.945425" lon="10.67717"><ele>23.833333333333336</ele><time>2026-03-23T13:31:48.962Z</time></trkpt><trkpt lat="44.9453633" lon="10.6771133"><ele>23.0</ele><time>2026-03-23T13:31:50.961Z</time></trkpt><trkpt lat="44.9453" lon="10.6770467"><ele>23.0</ele><time>2026-03-23T13:31:52.961Z</time></trkpt><trkpt lat="44.9452467" lon="10.676975"><ele>23.0</ele><time>2026-03-23T13:31:54.962Z</time></trkpt><trkpt lat="44.9451833" lon="10.6769117"><ele>23.0</ele><time>2026-03-23T13:31:56.962Z</time></trkpt><trkpt lat="44.9451167" lon="10.67685"><ele>23.0</ele><time>2026-03-23T13:31:58.961Z</time></trkpt><trkpt lat="44.9450517" lon="10.67679"><ele>23.0</ele><time>2026-03-23T13:32:00.962Z</time></trkpt><trkpt lat="44.944995" lon="10.6767317"><ele>23.0</ele><time>2026-03-23T13:32:02.962Z</time></trkpt><trkpt lat="44.9449317" lon="10.676665"><ele>22.833333333333336</ele><time>2026-03-23T13:32:04.961Z</time></trkpt><trkpt lat="44.94487" lon="10.67659"><ele>22.666666666666668</ele><time>2026-03-23T13:32:06.961Z</time></trkpt><trkpt lat="44.9448017" lon="10.6765283"><ele>22.5</ele><time>2026-03-23T13:32:08.962Z</time></trkpt><trkpt lat="44.944735" lon="10.67647"><ele>22.333333333333332</ele><time>2026-03-23T13:32:10.961Z</time></trkpt><trkpt lat="44.9446667" lon="10.6764067"><ele>22.166666666666664</ele><time>2026-03-23T13:32:12.962Z</time></trkpt><trkpt lat="44.9446017" lon="10.6763417"><ele>22.0</ele><time>2026-03-23T13:32:14.962Z</time></trkpt><trkpt lat="44.94454" lon="10.676285"><ele>22.0</ele><time>2026-03-23T13:32:16.961Z</time></trkpt><trkpt lat="44.9444767" lon="10.67623"><ele>22.0</ele><time>2026-03-23T13:32:18.961Z</time></trkpt><trkpt lat="44.9443983" lon="10.6761733"><ele>22.0</ele><time>2026-03-23T13:32:20.961Z</time></trkpt><trkpt lat="44.944305" lon="10.6760917"><ele>22.0</ele><time>2026-03-23T13:32:22.962Z</time></trkpt><trkpt lat="44.9441983" lon="10.6760033"><ele>22.0</ele><time>2026-03-23T13:32:24.962Z</time></trkpt><trkpt lat="44.9441517" lon="10.67594"><ele>21.714285714285715</ele><time>2026-03-23T13:32:25.961Z</time></trkpt><trkpt lat="44.9441183" lon="10.6758433"><ele>21.428571428571427</ele><time>2026-03-23T13:32:26.961Z</time></trkpt><trkpt lat="44.9440967" lon="10.6757333"><ele>21.142857142857142</ele><time>2026-03-23T13:32:27.962Z</time></trkpt><trkpt lat="44.9440933" lon="10.6756283"><ele>20.857142857142858</ele><time>2026-03-23T13:32:28.961Z</time></trkpt><trkpt lat="44.94408" lon="10.6755283"><ele>20.571428571428573</ele><time>2026-03-23T13:32:29.961Z</time></trkpt><trkpt lat="44.944045" lon="10.67544"><ele>20.285714285714285</ele><time>2026-03-23T13:32:30.961Z</time></trkpt><trkpt lat="44.9439933" lon="10.6753683"><ele>20.0</ele><time>2026-03-23T13:32:31.962Z</time></trkpt><trkpt lat="44.9439267" lon="10.6753217"><ele>20.0</ele><time>2026-03-23T13:32:32.961Z</time></trkpt><trkpt lat="44.9437983" lon="10.67526"><ele>20.0</ele><time>2026-03-23T13:32:34.962Z</time></trkpt><trkpt lat="44.9437317" lon="10.6752267"><ele>20.0</ele><time>2026-03-23T13:32:35.961Z</time></trkpt><trkpt lat="44.9436083" lon="10.675155"><ele>20.0</ele><time>2026-03-23T13:32:37.962Z</time></trkpt><trkpt lat="44.943545" lon="10.67512"><ele>20.0</ele><time>2026-03-23T13:32:38.962Z</time></trkpt><trkpt lat="44.9434867" lon="10.6750833"><ele>20.0</ele><time>2026-03-23T13:32:39.961Z</time></trkpt><trkpt lat="44.9434333" lon="10.67503"><ele>20.0</ele><time>2026-03-23T13:32:40.962Z</time></trkpt><trkpt lat="44.9433283" lon="10.67495"><ele>20.0</ele><time>2026-03-23T13:32:42.962Z</time></trkpt><trkpt lat="44.9432467" lon="10.6748533"><ele>20.0</ele><time>2026-03-23T13:32:44.961Z</time></trkpt><trkpt lat="44.9431767" lon="10.6747133"><ele>20.0</ele><time>2026-03-23T13:32:46.962Z</time></trkpt><trkpt lat="44.94315" lon="10.67462"><ele>20.166666666666668</ele><time>2026-03-23T13:32:47.961Z</time></trkpt><trkpt lat="44.9431267" lon="10.674535"><ele>20.333333333333336</ele><time>2026-03-23T13:32:48.962Z</time></trkpt><trkpt lat="44.9430783" lon="10.674375"><ele>20.5</ele><time>2026-03-23T13:32:50.961Z</time></trkpt><trkpt lat="44.9430633" lon="10.6742883"><ele>20.666666666666668</ele><time>2026-03-23T13:32:51.961Z</time></trkpt><trkpt lat="44.943045" lon="10.6742"><ele>20.833333333333332</ele><time>2026-03-23T13:32:52.961Z</time></trkpt><trkpt lat="44.94301" lon="10.6740383"><ele>21.0</ele><time>2026-03-23T13:32:54.962Z</time></trkpt><trkpt lat="44.94298" lon="10.6738783"><ele>21.0</ele><time>2026-03-23T13:32:56.961Z</time></trkpt><trkpt lat="44.94295" lon="10.6737217"><ele>21.0</ele><time>2026-03-23T13:32:58.962Z</time></trkpt><trkpt lat="44.9429233" lon="10.6735567"><ele>21.0</ele><time>2026-03-23T13:33:00.961Z</time></trkpt><trkpt lat="44.94289" lon="10.6733883"><ele>21.0</ele><time>2026-03-23T13:33:02.962Z</time></trkpt><trkpt lat="44.94286" lon="10.673225"><ele>21.0</ele><time>2026-03-23T13:33:04.961Z</time></trkpt><trkpt lat="44.9428383" lon="10.6730517"><ele>21.0</ele><time>2026-03-23T13:33:06.962Z</time></trkpt><trkpt lat="44.9428117" lon="10.672875"><ele>21.0</ele><time>2026-03-23T13:33:08.962Z</time></trkpt><trkpt lat="44.9427767" lon="10.67271"><ele>21.0</ele><time>2026-03-23T13:33:10.962Z</time></trkpt><trkpt lat="44.9427667" lon="10.6726167"><ele>21.0</ele><time>2026-03-23T13:33:11.961Z</time></trkpt><trkpt lat="44.942745" lon="10.6724383"><ele>21.0</ele><time>2026-03-23T13:33:13.961Z</time></trkpt><trkpt lat="44.94273" lon="10.6723517"><ele>21.0</ele><time>2026-03-23T13:33:14.962Z</time></trkpt><trkpt lat="44.9427117" lon="10.67226"><ele>21.0</ele><time>2026-03-23T13:33:15.962Z</time></trkpt><trkpt lat="44.942695" lon="10.672155"><ele>21.0</ele><time>2026-03-23T13:33:16.962Z</time></trkpt><trkpt lat="44.9426817" lon="10.6720583"><ele>21.0</ele><time>2026-03-23T13:33:17.961Z</time></trkpt><trkpt lat="44.9426633" lon="10.6719533"><ele>21.0</ele><time>2026-03-23T13:33:18.961Z</time></trkpt><trkpt lat="44.9426483" lon="10.67186"><ele>21.0</ele><time>2026-03-23T13:33:19.961Z</time></trkpt><trkpt lat="44.9426317" lon="10.6717667"><ele>21.166666666666668</ele><time>2026-03-23T13:33:20.961Z</time></trkpt><trkpt lat="44.9426083" lon="10.671665"><ele>21.333333333333332</ele><time>2026-03-23T13:33:21.962Z</time></trkpt><trkpt lat="44.9425817" lon="10.671575"><ele>21.5</ele><time>2026-03-23T13:33:22.961Z</time></trkpt><trkpt lat="44.9425517" lon="10.67149"><ele>21.666666666666664</ele><time>2026-03-23T13:33:23.962Z</time></trkpt><trkpt lat="44.9425183" lon="10.6714"><ele>21.833333333333332</ele><time>2026-03-23T13:33:24.962Z</time></trkpt><trkpt lat="44.9424917" lon="10.6713167"><ele>22.0</ele><time>2026-03-23T13:33:25.961Z</time></trkpt><trkpt lat="44.942445" lon="10.6711833"><ele>22.0</ele><time>2026-03-23T13:33:27.962Z</time></trkpt><trkpt lat="44.9423917" lon="10.6710783"><ele>22.0</ele><time>2026-03-23T13:33:29.962Z</time></trkpt><trkpt lat="44.9423533" lon="10.6709983"><ele>22.0</ele><time>2026-03-23T13:33:31.962Z</time></trkpt><trkpt lat="44.9423033" lon="10.6708933"><ele>22.0</ele><time>2026-03-23T13:33:34.962Z</time></trkpt><trkpt lat="44.94225" lon="10.670785"><ele>22.0</ele><time>2026-03-23T13:33:37.962Z</time></trkpt><trkpt lat="44.9422067" lon="10.6707"><ele>22.0</ele><time>2026-03-23T13:33:39.961Z</time></trkpt><trkpt lat="44.9421717" lon="10.6705933"><ele>22.0</ele><time>2026-03-23T13:33:41.962Z</time></trkpt><trkpt lat="44.9421383" lon="10.6705033"><ele>22.0</ele><time>2026-03-23T13:33:43.961Z</time></trkpt><trkpt lat="44.9421067" lon="10.6704233"><ele>22.0</ele><time>2026-03-23T13:33:45.961Z</time></trkpt><trkpt lat="44.9420683" lon="10.6703367"><ele>22.0</ele><time>2026-03-23T13:33:47.961Z</time></trkpt><trkpt lat="44.942025" lon="10.6702517"><ele>22.0</ele><time>2026-03-23T13:33:49.962Z</time></trkpt><trkpt lat="44.9419683" lon="10.670165"><ele>22.0</ele><time>2026-03-23T13:33:51.961Z</time></trkpt><trkpt lat="44.9419183" lon="10.6700783"><ele>22.0</ele><time>2026-03-23T13:33:53.962Z</time></trkpt><trkpt lat="44.9418683" lon="10.670005"><ele>21.833333333333332</ele><time>2026-03-23T13:33:55.962Z</time></trkpt><trkpt lat="44.9418067" lon="10.6699517"><ele>21.666666666666664</ele><time>2026-03-23T13:33:57.962Z</time></trkpt><trkpt lat="44.94175" lon="10.6698983"><ele>21.5</ele><time>2026-03-23T13:33:59.961Z</time></trkpt><trkpt lat="44.9416767" lon="10.6698217"><ele>21.333333333333332</ele><time>2026-03-23T13:34:02.961Z</time></trkpt><trkpt lat="44.9415967" lon="10.669745"><ele>21.166666666666668</ele><time>2026-03-23T13:34:05.961Z</time></trkpt><trkpt lat="44.9415117" lon="10.669715"><ele>21.0</ele><time>2026-03-23T13:34:08.962Z</time></trkpt><trkpt lat="44.941435" lon="10.6696883"><ele>21.571428571428573</ele><time>2026-03-23T13:34:11.961Z</time></trkpt><trkpt lat="44.9413683" lon="10.6696617"><ele>22.142857142857142</ele><time>2026-03-23T13:34:46.961Z</time></trkpt><trkpt lat="44.941305" lon="10.669635"><ele>22.714285714285715</ele><time>2026-03-23T13:34:48.962Z</time></trkpt><trkpt lat="44.94124" lon="10.6696217"><ele>23.285714285714285</ele><time>2026-03-23T13:34:50.962Z</time></trkpt><trkpt lat="44.9411767" lon="10.6696083"><ele>23.857142857142858</ele><time>2026-03-23T13:34:52.961Z</time></trkpt><trkpt lat="44.9411017" lon="10.6696017"><ele>24.42857142857143</ele><time>2026-03-23T13:34:54.961Z</time></trkpt><trkpt lat="44.94103" lon="10.6695933"><ele>25.0</ele><time>2026-03-23T13:34:56.962Z</time></trkpt><trkpt lat="44.9409533" lon="10.6695867"><ele>24.666666666666668</ele><time>2026-03-23T13:34:58.961Z</time></trkpt><trkpt lat="44.9408767" lon="10.6695683"><ele>24.333333333333336</ele><time>2026-03-23T13:35:00.962Z</time></trkpt><trkpt lat="44.9408" lon="10.6695533"><ele>24.0</ele><time>2026-03-23T13:35:02.962Z</time></trkpt><trkpt lat="44.9407267" lon="10.6695417"><ele>23.666666666666668</ele><time>2026-03-23T13:35:04.961Z</time></trkpt><trkpt lat="44.9406517" lon="10.66954"><ele>23.333333333333336</ele><time>2026-03-23T13:35:06.961Z</time></trkpt><trkpt lat="44.9405733" lon="10.669525"><ele>23.0</ele><time>2026-03-23T13:35:08.961Z</time></trkpt><trkpt lat="44.9404917" lon="10.6695083"><ele>23.0</ele><time>2026-03-23T13:35:10.961Z</time></trkpt><trkpt lat="44.9404083" lon="10.669495"><ele>23.0</ele><time>2026-03-23T13:35:12.961Z</time></trkpt><trkpt lat="44.940325" lon="10.6694767"><ele>23.0</ele><time>2026-03-23T13:35:14.961Z</time></trkpt><trkpt lat="44.9402417" lon="10.66945"><ele>23.0</ele><time>2026-03-23T13:35:16.961Z</time></trkpt><trkpt lat="44.9401583" lon="10.6694267"><ele>23.0</ele><time>2026-03-23T13:35:18.962Z</time></trkpt><trkpt lat="44.9400683" lon="10.6694033"><ele>23.0</ele><time>2026-03-23T13:35:20.961Z</time></trkpt><trkpt lat="44.9399817" lon="10.6693867"><ele>23.0</ele><time>2026-03-23T13:35:22.961Z</time></trkpt><trkpt lat="44.9398967" lon="10.6693717"><ele>23.0</ele><time>2026-03-23T13:35:24.961Z</time></trkpt><trkpt lat="44.9398117" lon="10.6693467"><ele>23.0</ele><time>2026-03-23T13:35:26.961Z</time></trkpt><trkpt lat="44.93973" lon="10.6693167"><ele>23.0</ele><time>2026-03-23T13:35:28.961Z</time></trkpt><trkpt lat="44.9396467" lon="10.6693"><ele>23.0</ele><time>2026-03-23T13:35:30.961Z</time></trkpt><trkpt lat="44.9395667" lon="10.6692733"><ele>23.0</ele><time>2026-03-23T13:35:32.962Z</time></trkpt><trkpt lat="44.939485" lon="10.6692533"><ele>23.0</ele><time>2026-03-23T13:35:34.962Z</time></trkpt><trkpt lat="44.9393933" lon="10.6692267"><ele>23.0</ele><time>2026-03-23T13:35:36.961Z</time></trkpt><trkpt lat="44.9393117" lon="10.6692"><ele>23.0</ele><time>2026-03-23T13:35:38.961Z</time></trkpt><trkpt lat="44.939225" lon="10.6691667"><ele>23.0</ele><time>2026-03-23T13:35:40.961Z</time></trkpt><trkpt lat="44.9391483" lon="10.6691367"><ele>23.0</ele><time>2026-03-23T13:35:42.961Z</time></trkpt><trkpt lat="44.9390617" lon="10.6690983"><ele>23.0</ele><time>2026-03-23T13:35:44.961Z</time></trkpt><trkpt lat="44.93898" lon="10.6690517"><ele>23.0</ele><time>2026-03-23T13:35:46.961Z</time></trkpt><trkpt lat="44.9389" lon="10.6690133"><ele>23.0</ele><time>2026-03-23T13:35:48.961Z</time></trkpt><trkpt lat="44.9388233" lon="10.668965"><ele>23.0</ele><time>2026-03-23T13:35:50.962Z</time></trkpt><trkpt lat="44.9387483" lon="10.6689183"><ele>23.0</ele><time>2026-03-23T13:35:52.961Z</time></trkpt><trkpt lat="44.9386683" lon="10.66886"><ele>23.0</ele><time>2026-03-23T13:35:54.961Z</time></trkpt><trkpt lat="44.9385883" lon="10.6687933"><ele>23.0</ele><time>2026-03-23T13:35:56.962Z</time></trkpt><trkpt lat="44.9385083" lon="10.668735"><ele>23.0</ele><time>2026-03-23T13:35:58.961Z</time></trkpt><trkpt lat="44.9384333" lon="10.6686867"><ele>23.0</ele><time>2026-03-23T13:36:00.961Z</time></trkpt><trkpt lat="44.93835" lon="10.66863"><ele>23.0</ele><time>2026-03-23T13:36:02.962Z</time></trkpt><trkpt lat="44.9382717" lon="10.66857"><ele>23.0</ele><time>2026-03-23T13:36:04.962Z</time></trkpt><trkpt lat="44.93819" lon="10.6685133"><ele>23.0</ele><time>2026-03-23T13:36:06.962Z</time></trkpt><trkpt lat="44.938115" lon="10.6684517"><ele>23.0</ele><time>2026-03-23T13:36:08.962Z</time></trkpt><trkpt lat="44.9380367" lon="10.6683983"><ele>23.0</ele><time>2026-03-23T13:36:10.962Z</time></trkpt><trkpt lat="44.937955" lon="10.6683517"><ele>23.0</ele><time>2026-03-23T13:36:12.961Z</time></trkpt><trkpt lat="44.9378833" lon="10.6682867"><ele>23.0</ele><time>2026-03-23T13:36:14.962Z</time></trkpt><trkpt lat="44.937805" lon="10.668235"><ele>23.0</ele><time>2026-03-23T13:36:16.961Z</time></trkpt><trkpt lat="44.937725" lon="10.6681667"><ele>23.0</ele><time>2026-03-23T13:36:18.961Z</time></trkpt><trkpt lat="44.9376533" lon="10.6681083"><ele>23.0</ele><time>2026-03-23T13:36:20.961Z</time></trkpt><trkpt lat="44.9375767" lon="10.66805"><ele>23.0</ele><time>2026-03-23T13:36:22.961Z</time></trkpt><trkpt lat="44.9374983" lon="10.66798"><ele>23.0</ele><time>2026-03-23T13:36:24.962Z</time></trkpt><trkpt lat="44.937425" lon="10.66791"><ele>23.0</ele><time>2026-03-23T13:36:26.961Z</time></trkpt><trkpt lat="44.9373517" lon="10.6678433"><ele>23.0</ele><time>2026-03-23T13:36:28.961Z</time></trkpt><trkpt lat="44.9372783" lon="10.66777"><ele>23.0</ele><time>2026-03-23T13:36:30.961Z</time></trkpt><trkpt lat="44.9372083" lon="10.6677017"><ele>23.0</ele><time>2026-03-23T13:36:32.961Z</time></trkpt><trkpt lat="44.9371383" lon="10.6676233"><ele>23.0</ele><time>2026-03-23T13:36:34.961Z</time></trkpt><trkpt lat="44.9370667" lon="10.6675667"><ele>23.0</ele><time>2026-03-23T13:36:36.962Z</time></trkpt><trkpt lat="44.9369917" lon="10.6674967"><ele>23.0</ele><time>2026-03-23T13:36:38.962Z</time></trkpt><trkpt lat="44.9369183" lon="10.6674233"><ele>23.0</ele><time>2026-03-23T13:36:40.962Z</time></trkpt><trkpt lat="44.9368533" lon="10.6673483"><ele>23.0</ele><time>2026-03-23T13:36:42.962Z</time></trkpt><trkpt lat="44.93679" lon="10.6672817"><ele>23.0</ele><time>2026-03-23T13:36:44.961Z</time></trkpt><trkpt lat="44.936725" lon="10.6672033"><ele>23.166666666666668</ele><time>2026-03-23T13:36:46.961Z</time></trkpt><trkpt lat="44.93667" lon="10.6671283"><ele>23.333333333333336</ele><time>2026-03-23T13:36:48.962Z</time></trkpt><trkpt lat="44.9366017" lon="10.667065"><ele>23.5</ele><time>2026-03-23T13:36:50.961Z</time></trkpt><trkpt lat="44.93654" lon="10.666995"><ele>23.666666666666668</ele><time>2026-03-23T13:36:52.961Z</time></trkpt><trkpt lat="44.9364717" lon="10.66692"><ele>23.833333333333332</ele><time>2026-03-23T13:36:54.962Z</time></trkpt><trkpt lat="44.9364017" lon="10.6668467"><ele>24.0</ele><time>2026-03-23T13:36:56.962Z</time></trkpt><trkpt lat="44.9363367" lon="10.66677"><ele>24.166666666666668</ele><time>2026-03-23T13:36:58.961Z</time></trkpt><trkpt lat="44.9362733" lon="10.6666817"><ele>24.333333333333336</ele><time>2026-03-23T13:37:00.961Z</time></trkpt><trkpt lat="44.9362183" lon="10.6666017"><ele>24.5</ele><time>2026-03-23T13:37:02.962Z</time></trkpt><trkpt lat="44.93616" lon="10.6665167"><ele>24.666666666666668</ele><time>2026-03-23T13:37:04.962Z</time></trkpt><trkpt lat="44.9361033" lon="10.66643"><ele>24.833333333333336</ele><time>2026-03-23T13:37:06.962Z</time></trkpt><trkpt lat="44.9360467" lon="10.6663283"><ele>25.0</ele><time>2026-03-23T13:37:08.962Z</time></trkpt><trkpt lat="44.9359833" lon="10.66624"><ele>25.000000000000004</ele><time>2026-03-23T13:37:10.961Z</time></trkpt><trkpt lat="44.93593" lon="10.6661717"><ele>25.0</ele><time>2026-03-23T13:37:12.961Z</time></trkpt><trkpt lat="44.9358683" lon="10.6660933"><ele>25.0</ele><time>2026-03-23T13:37:14.962Z</time></trkpt><trkpt lat="44.93581" lon="10.6660117"><ele>25.0</ele><time>2026-03-23T13:37:16.962Z</time></trkpt><trkpt lat="44.9357517" lon="10.6659083"><ele>25.000000000000004</ele><time>2026-03-23T13:37:18.962Z</time></trkpt><trkpt lat="44.9356967" lon="10.665805"><ele>25.0</ele><time>2026-03-23T13:37:20.962Z</time></trkpt><trkpt lat="44.9356483" lon="10.665715"><ele>25.000000000000004</ele><time>2026-03-23T13:37:22.961Z</time></trkpt><trkpt lat="44.9355983" lon="10.6656333"><ele>25.0</ele><time>2026-03-23T13:37:24.961Z</time></trkpt><trkpt lat="44.9355483" lon="10.6655517"><ele>25.0</ele><time>2026-03-23T13:37:26.962Z</time></trkpt><trkpt lat="44.9354967" lon="10.6654717"><ele>25.0</ele><time>2026-03-23T13:37:28.962Z</time></trkpt><trkpt lat="44.9354483" lon="10.665375"><ele>25.000000000000004</ele><time>2026-03-23T13:37:30.961Z</time></trkpt><trkpt lat="44.9354083" lon="10.6652717"><ele>25.0</ele><time>2026-03-23T13:37:32.961Z</time></trkpt><trkpt lat="44.9353617" lon="10.6651783"><ele>25.000000000000004</ele><time>2026-03-23T13:37:34.961Z</time></trkpt><trkpt lat="44.9353233" lon="10.6650883"><ele>25.0</ele><time>2026-03-23T13:37:36.962Z</time></trkpt><trkpt lat="44.9352783" lon="10.665"><ele>25.0</ele><time>2026-03-23T13:37:38.962Z</time></trkpt><trkpt lat="44.9352283" lon="10.6648933"><ele>25.0</ele><time>2026-03-23T13:37:40.962Z</time></trkpt><trkpt lat="44.9351833" lon="10.664785"><ele>25.000000000000004</ele><time>2026-03-23T13:37:42.962Z</time></trkpt><trkpt lat="44.93514" lon="10.6646717"><ele>25.0</ele><time>2026-03-23T13:37:44.961Z</time></trkpt><trkpt lat="44.9351083" lon="10.664575"><ele>25.000000000000004</ele><time>2026-03-23T13:37:46.962Z</time></trkpt><trkpt lat="44.9350667" lon="10.6644733"><ele>25.0</ele><time>2026-03-23T13:37:48.961Z</time></trkpt><trkpt lat="44.9350233" lon="10.6643667"><ele>25.0</ele><time>2026-03-23T13:37:50.961Z</time></trkpt><trkpt lat="44.93499" lon="10.6642617"><ele>25.0</ele><time>2026-03-23T13:37:52.962Z</time></trkpt><trkpt lat="44.93495" lon="10.6641533"><ele>25.000000000000004</ele><time>2026-03-23T13:37:54.962Z</time></trkpt><trkpt lat="44.9349133" lon="10.6640367"><ele>25.0</ele><time>2026-03-23T13:37:56.962Z</time></trkpt><trkpt lat="44.9348817" lon="10.663915"><ele>24.833333333333336</ele><time>2026-03-23T13:37:58.962Z</time></trkpt><trkpt lat="44.93485" lon="10.6638017"><ele>24.666666666666668</ele><time>2026-03-23T13:38:00.961Z</time></trkpt><trkpt lat="44.9348217" lon="10.6637"><ele>24.5</ele><time>2026-03-23T13:38:02.961Z</time></trkpt><trkpt lat="44.934785" lon="10.663585"><ele>24.333333333333336</ele><time>2026-03-23T13:38:04.961Z</time></trkpt><trkpt lat="44.9347533" lon="10.663475"><ele>24.166666666666668</ele><time>2026-03-23T13:38:06.962Z</time></trkpt><trkpt lat="44.9347183" lon="10.6633683"><ele>24.0</ele><time>2026-03-23T13:38:08.961Z</time></trkpt><trkpt lat="44.9346833" lon="10.6632617"><ele>24.166666666666668</ele><time>2026-03-23T13:38:10.961Z</time></trkpt><trkpt lat="44.9346517" lon="10.66315"><ele>24.333333333333336</ele><time>2026-03-23T13:38:12.962Z</time></trkpt><trkpt lat="44.93462" lon="10.6630417"><ele>24.5</ele><time>2026-03-23T13:38:14.962Z</time></trkpt><trkpt lat="44.9345883" lon="10.662935"><ele>24.666666666666668</ele><time>2026-03-23T13:38:16.962Z</time></trkpt><trkpt lat="44.93456" lon="10.66283"><ele>24.833333333333336</ele><time>2026-03-23T13:38:18.962Z</time></trkpt><trkpt lat="44.9345283" lon="10.66271"><ele>25.0</ele><time>2026-03-23T13:38:20.962Z</time></trkpt><trkpt lat="44.934505" lon="10.6626067"><ele>25.000000000000004</ele><time>2026-03-23T13:38:22.961Z</time></trkpt><trkpt lat="44.93448" lon="10.6624917"><ele>25.0</ele><time>2026-03-23T13:38:24.961Z</time></trkpt><trkpt lat="44.934455" lon="10.6623817"><ele>25.0</ele><time>2026-03-23T13:38:26.962Z</time></trkpt><trkpt lat="44.9344233" lon="10.66228"><ele>25.0</ele><time>2026-03-23T13:38:28.961Z</time></trkpt><trkpt lat="44.9344" lon="10.66217"><ele>25.000000000000004</ele><time>2026-03-23T13:38:30.961Z</time></trkpt><trkpt lat="44.9343733" lon="10.6620583"><ele>25.0</ele><time>2026-03-23T13:38:32.961Z</time></trkpt><trkpt lat="44.93435" lon="10.66194"><ele>24.833333333333336</ele><time>2026-03-23T13:38:34.961Z</time></trkpt><trkpt lat="44.9343217" lon="10.661835"><ele>24.666666666666668</ele><time>2026-03-23T13:38:36.962Z</time></trkpt><trkpt lat="44.9342933" lon="10.66174"><ele>24.5</ele><time>2026-03-23T13:38:38.962Z</time></trkpt><trkpt lat="44.9342667" lon="10.6616333"><ele>24.333333333333336</ele><time>2026-03-23T13:38:40.961Z</time></trkpt><trkpt lat="44.9342317" lon="10.66154"><ele>24.166666666666668</ele><time>2026-03-23T13:38:42.961Z</time></trkpt><trkpt lat="44.9341833" lon="10.6614617"><ele>24.0</ele><time>2026-03-23T13:38:44.962Z</time></trkpt><trkpt lat="44.934125" lon="10.6614033"><ele>24.0</ele><time>2026-03-23T13:38:46.962Z</time></trkpt><trkpt lat="44.9340617" lon="10.6613617"><ele>24.0</ele><time>2026-03-23T13:38:48.961Z</time></trkpt><trkpt lat="44.9339833" lon="10.6613183"><ele>24.0</ele><time>2026-03-23T13:38:50.961Z</time></trkpt><trkpt lat="44.9339017" lon="10.66128"><ele>24.0</ele><time>2026-03-23T13:38:52.961Z</time></trkpt><trkpt lat="44.933815" lon="10.6612483"><ele>24.0</ele><time>2026-03-23T13:38:54.962Z</time></trkpt><trkpt lat="44.9337383" lon="10.661205"><ele>24.0</ele><time>2026-03-23T13:38:56.962Z</time></trkpt><trkpt lat="44.9336583" lon="10.6611683"><ele>24.0</ele><time>2026-03-23T13:38:58.962Z</time></trkpt><trkpt lat="44.9335867" lon="10.6611267"><ele>24.0</ele><time>2026-03-23T13:39:00.961Z</time></trkpt><trkpt lat="44.93351" lon="10.6610817"><ele>24.0</ele><time>2026-03-23T13:39:02.962Z</time></trkpt><trkpt lat="44.9334333" lon="10.6610433"><ele>24.0</ele><time>2026-03-23T13:39:04.962Z</time></trkpt><trkpt lat="44.9333583" lon="10.66099"><ele>24.0</ele><time>2026-03-23T13:39:06.961Z</time></trkpt><trkpt lat="44.933285" lon="10.6609483"><ele>24.0</ele><time>2026-03-23T13:39:08.962Z</time></trkpt><trkpt lat="44.9332183" lon="10.6609033"><ele>24.166666666666668</ele><time>2026-03-23T13:39:10.961Z</time></trkpt><trkpt lat="44.93315" lon="10.6608633"><ele>24.333333333333336</ele><time>2026-03-23T13:39:12.962Z</time></trkpt><trkpt lat="44.9330867" lon="10.6608133"><ele>24.5</ele><time>2026-03-23T13:39:14.962Z</time></trkpt><trkpt lat="44.9330167" lon="10.6607683"><ele>24.666666666666668</ele><time>2026-03-23T13:39:16.962Z</time></trkpt><trkpt lat="44.9329467" lon="10.6607283"><ele>24.833333333333336</ele><time>2026-03-23T13:39:18.962Z</time></trkpt><trkpt lat="44.9328783" lon="10.660675"><ele>25.0</ele><time>2026-03-23T13:39:20.962Z</time></trkpt><trkpt lat="44.9328033" lon="10.66063"><ele>25.000000000000004</ele><time>2026-03-23T13:39:22.961Z</time></trkpt><trkpt lat="44.9327433" lon="10.660585"><ele>25.0</ele><time>2026-03-23T13:39:24.962Z</time></trkpt><trkpt lat="44.93267" lon="10.6605383"><ele>25.0</ele><time>2026-03-23T13:39:26.961Z</time></trkpt><trkpt lat="44.932595" lon="10.6604967"><ele>25.0</ele><time>2026-03-23T13:39:28.961Z</time></trkpt><trkpt lat="44.9325233" lon="10.6604517"><ele>25.000000000000004</ele><time>2026-03-23T13:39:30.961Z</time></trkpt><trkpt lat="44.93245" lon="10.6604083"><ele>25.0</ele><time>2026-03-23T13:39:32.962Z</time></trkpt><trkpt lat="44.9323717" lon="10.6603583"><ele>24.500000000000004</ele><time>2026-03-23T13:39:34.961Z</time></trkpt><trkpt lat="44.9323083" lon="10.6603033"><ele>24.0</ele><time>2026-03-23T13:39:36.961Z</time></trkpt><trkpt lat="44.9322417" lon="10.6602467"><ele>23.5</ele><time>2026-03-23T13:39:38.962Z</time></trkpt><trkpt lat="44.9321717" lon="10.660205"><ele>23.0</ele><time>2026-03-23T13:39:40.962Z</time></trkpt><trkpt lat="44.932105" lon="10.6601517"><ele>22.5</ele><time>2026-03-23T13:39:42.961Z</time></trkpt><trkpt lat="44.9320417" lon="10.660085"><ele>22.0</ele><time>2026-03-23T13:39:44.962Z</time></trkpt><trkpt lat="44.9319833" lon="10.6600183"><ele>21.857142857142858</ele><time>2026-03-23T13:39:46.962Z</time></trkpt><trkpt lat="44.9319317" lon="10.6599467"><ele>21.714285714285715</ele><time>2026-03-23T13:39:48.961Z</time></trkpt><trkpt lat="44.9318817" lon="10.6598733"><ele>21.57142857142857</ele><time>2026-03-23T13:39:50.961Z</time></trkpt><trkpt lat="44.9318367" lon="10.6597933"><ele>21.42857142857143</ele><time>2026-03-23T13:39:52.961Z</time></trkpt><trkpt lat="44.9317883" lon="10.65971"><ele>21.285714285714285</ele><time>2026-03-23T13:39:54.961Z</time></trkpt><trkpt lat="44.931755" lon="10.6596183"><ele>21.142857142857142</ele><time>2026-03-23T13:39:56.962Z</time></trkpt><trkpt lat="44.93172" lon="10.6595117"><ele>21.0</ele><time>2026-03-23T13:39:58.961Z</time></trkpt><trkpt lat="44.9316917" lon="10.659415"><ele>20.833333333333332</ele><time>2026-03-23T13:40:00.961Z</time></trkpt><trkpt lat="44.9316617" lon="10.65932"><ele>20.666666666666668</ele><time>2026-03-23T13:40:02.962Z</time></trkpt><trkpt lat="44.9316333" lon="10.6592117"><ele>20.5</ele><time>2026-03-23T13:40:04.961Z</time></trkpt><trkpt lat="44.9316117" lon="10.6591067"><ele>20.333333333333336</ele><time>2026-03-23T13:40:06.962Z</time></trkpt><trkpt lat="44.9315883" lon="10.6590017"><ele>20.166666666666668</ele><time>2026-03-23T13:40:08.962Z</time></trkpt><trkpt lat="44.9315567" lon="10.658905"><ele>20.0</ele><time>2026-03-23T13:40:10.961Z</time></trkpt><trkpt lat="44.9315433" lon="10.6587917"><ele>20.0</ele><time>2026-03-23T13:40:12.961Z</time></trkpt><trkpt lat="44.9315167" lon="10.6586783"><ele>20.0</ele><time>2026-03-23T13:40:14.962Z</time></trkpt><trkpt lat="44.9314983" lon="10.6585617"><ele>20.0</ele><time>2026-03-23T13:40:16.962Z</time></trkpt><trkpt lat="44.93147" lon="10.6584567"><ele>20.0</ele><time>2026-03-23T13:40:18.961Z</time></trkpt><trkpt lat="44.9314517" lon="10.6583483"><ele>20.0</ele><time>2026-03-23T13:40:20.962Z</time></trkpt><trkpt lat="44.9314333" lon="10.65824"><ele>20.0</ele><time>2026-03-23T13:40:22.962Z</time></trkpt><trkpt lat="44.93141" lon="10.658135"><ele>20.166666666666668</ele><time>2026-03-23T13:40:24.961Z</time></trkpt><trkpt lat="44.9313917" lon="10.6580333"><ele>20.333333333333336</ele><time>2026-03-23T13:40:26.962Z</time></trkpt><trkpt lat="44.9313733" lon="10.657925"><ele>20.5</ele><time>2026-03-23T13:40:28.962Z</time></trkpt><trkpt lat="44.9313417" lon="10.6578267"><ele>20.666666666666668</ele><time>2026-03-23T13:40:30.963Z</time></trkpt><trkpt lat="44.9313167" lon="10.6577167"><ele>20.833333333333332</ele><time>2026-03-23T13:40:32.962Z</time></trkpt><trkpt lat="44.931285" lon="10.657615"><ele>21.0</ele><time>2026-03-23T13:40:34.962Z</time></trkpt><trkpt lat="44.9312467" lon="10.6575167"><ele>21.666666666666668</ele><time>2026-03-23T13:40:36.963Z</time></trkpt><trkpt lat="44.9312017" lon="10.6574233"><ele>22.333333333333336</ele><time>2026-03-23T13:40:38.962Z</time></trkpt><trkpt lat="44.931155" lon="10.6573367"><ele>23.0</ele><time>2026-03-23T13:40:40.963Z</time></trkpt><trkpt lat="44.9311067" lon="10.6572567"><ele>23.666666666666668</ele><time>2026-03-23T13:40:42.962Z</time></trkpt><trkpt lat="44.9310633" lon="10.65717"><ele>24.333333333333336</ele><time>2026-03-23T13:40:44.963Z</time></trkpt><trkpt lat="44.9310167" lon="10.657085"><ele>25.0</ele><time>2026-03-23T13:40:46.962Z</time></trkpt><trkpt lat="44.9309617" lon="10.6569917"><ele>25.000000000000004</ele><time>2026-03-23T13:40:48.962Z</time></trkpt><trkpt lat="44.9309217" lon="10.6569083"><ele>25.0</ele><time>2026-03-23T13:40:50.963Z</time></trkpt><trkpt lat="44.930885" lon="10.6568283"><ele>25.0</ele><time>2026-03-23T13:40:52.963Z</time></trkpt><trkpt lat="44.9308333" lon="10.6567533"><ele>25.0</ele><time>2026-03-23T13:40:54.963Z</time></trkpt><trkpt lat="44.9307883" lon="10.6566783"><ele>25.0</ele><time>2026-03-23T13:40:56.962Z</time></trkpt><trkpt lat="44.9307383" lon="10.6565933"><ele>25.000000000000004</ele><time>2026-03-23T13:40:58.962Z</time></trkpt><trkpt lat="44.9306933" lon="10.6565033"><ele>25.0</ele><time>2026-03-23T13:41:00.963Z</time></trkpt><trkpt lat="44.9306383" lon="10.65643"><ele>25.000000000000004</ele><time>2026-03-23T13:41:02.963Z</time></trkpt><trkpt lat="44.9305917" lon="10.6563417"><ele>25.0</ele><time>2026-03-23T13:41:04.963Z</time></trkpt><trkpt lat="44.9305483" lon="10.656265"><ele>25.0</ele><time>2026-03-23T13:41:06.962Z</time></trkpt><trkpt lat="44.9305017" lon="10.65618"><ele>25.0</ele><time>2026-03-23T13:41:08.963Z</time></trkpt><trkpt lat="44.9304617" lon="10.6560867"><ele>25.000000000000004</ele><time>2026-03-23T13:41:10.962Z</time></trkpt><trkpt lat="44.930405" lon="10.6559967"><ele>25.0</ele><time>2026-03-23T13:41:12.962Z</time></trkpt><trkpt lat="44.9303683" lon="10.6559167"><ele>25.166666666666668</ele><time>2026-03-23T13:41:14.962Z</time></trkpt><trkpt lat="44.9303183" lon="10.6558267"><ele>25.333333333333336</ele><time>2026-03-23T13:41:16.962Z</time></trkpt><trkpt lat="44.9302733" lon="10.65573"><ele>25.5</ele><time>2026-03-23T13:41:18.962Z</time></trkpt><trkpt lat="44.9302283" lon="10.6556383"><ele>25.666666666666664</ele><time>2026-03-23T13:41:20.962Z</time></trkpt><trkpt lat="44.930205" lon="10.6555233"><ele>25.833333333333332</ele><time>2026-03-23T13:41:22.963Z</time></trkpt><trkpt lat="44.9302133" lon="10.6553867"><ele>26.0</ele><time>2026-03-23T13:41:24.962Z</time></trkpt><trkpt lat="44.93025" lon="10.65523"><ele>25.166666666666664</ele><time>2026-03-23T13:41:26.962Z</time></trkpt><trkpt lat="44.9302733" lon="10.6550467"><ele>24.333333333333332</ele><time>2026-03-23T13:41:28.963Z</time></trkpt><trkpt lat="44.930285" lon="10.6549483"><ele>23.5</ele><time>2026-03-23T13:41:29.963Z</time></trkpt><trkpt lat="44.9302933" lon="10.6548467"><ele>22.666666666666664</ele><time>2026-03-23T13:41:30.963Z</time></trkpt><trkpt lat="44.9302983" lon="10.6547383"><ele>21.833333333333332</ele><time>2026-03-23T13:41:31.963Z</time></trkpt><trkpt lat="44.930305" lon="10.65463"><ele>21.0</ele><time>2026-03-23T13:41:32.962Z</time></trkpt><trkpt lat="44.9303183" lon="10.654535"><ele>21.0</ele><time>2026-03-23T13:41:33.963Z</time></trkpt><trkpt lat="44.9303283" lon="10.6544433"><ele>21.0</ele><time>2026-03-23T13:41:34.963Z</time></trkpt><trkpt lat="44.9303367" lon="10.6543517"><ele>21.0</ele><time>2026-03-23T13:41:35.962Z</time></trkpt><trkpt lat="44.9303533" lon="10.6541967"><ele>21.0</ele><time>2026-03-23T13:41:37.962Z</time></trkpt><trkpt lat="44.9303617" lon="10.6540433"><ele>21.0</ele><time>2026-03-23T13:41:39.962Z</time></trkpt><trkpt lat="44.9303717" lon="10.6539"><ele>21.0</ele><time>2026-03-23T13:41:41.963Z</time></trkpt><trkpt lat="44.930375" lon="10.65376"><ele>21.0</ele><time>2026-03-23T13:41:43.963Z</time></trkpt><trkpt lat="44.9303883" lon="10.6536367"><ele>21.0</ele><time>2026-03-23T13:41:45.962Z</time></trkpt><trkpt lat="44.9304017" lon="10.6535067"><ele>21.0</ele><time>2026-03-23T13:41:47.963Z</time></trkpt><trkpt lat="44.930415" lon="10.65337"><ele>21.0</ele><time>2026-03-23T13:41:49.962Z</time></trkpt><trkpt lat="44.93043" lon="10.6532283"><ele>21.333333333333332</ele><time>2026-03-23T13:41:51.962Z</time></trkpt><trkpt lat="44.9304233" lon="10.6531083"><ele>21.666666666666668</ele><time>2026-03-23T13:41:53.962Z</time></trkpt><trkpt lat="44.9303717" lon="10.6530133"><ele>22.0</ele><time>2026-03-23T13:41:55.963Z</time></trkpt><trkpt lat="44.930305" lon="10.65296"><ele>22.333333333333336</ele><time>2026-03-23T13:41:57.962Z</time></trkpt><trkpt lat="44.9302333" lon="10.6529683"><ele>22.666666666666668</ele><time>2026-03-23T13:41:59.962Z</time></trkpt><trkpt lat="44.9301933" lon="10.6530533"><ele>23.0</ele><time>2026-03-23T13:42:01.963Z</time></trkpt><trkpt lat="44.9301467" lon="10.6531383"><ele>23.0</ele><time>2026-03-23T13:42:03.963Z</time></trkpt><trkpt lat="44.9300667" lon="10.6531817"><ele>23.0</ele><time>2026-03-23T13:42:06.962Z</time></trkpt><trkpt lat="44.9299967" lon="10.6531833"><ele>23.0</ele><time>2026-03-23T13:42:08.962Z</time></trkpt><trkpt lat="44.929925" lon="10.6531667"><ele>23.0</ele><time>2026-03-23T13:42:10.963Z</time></trkpt><trkpt lat="44.929855" lon="10.6531533"><ele>23.0</ele><time>2026-03-23T13:42:12.962Z</time></trkpt><trkpt lat="44.92978" lon="10.6531483"><ele>23.0</ele><time>2026-03-23T13:42:14.963Z</time></trkpt><trkpt lat="44.9297033" lon="10.6531267"><ele>23.666666666666668</ele><time>2026-03-23T13:42:16.962Z</time></trkpt><trkpt lat="44.9296467" lon="10.6530667"><ele>24.333333333333336</ele><time>2026-03-23T13:42:18.962Z</time></trkpt><trkpt lat="44.9296283" lon="10.6529617"><ele>25.0</ele><time>2026-03-23T13:42:20.962Z</time></trkpt><trkpt lat="44.929605" lon="10.6528383"><ele>25.666666666666668</ele><time>2026-03-23T13:42:22.962Z</time></trkpt><trkpt lat="44.929595" lon="10.6526817"><ele>26.333333333333332</ele><time>2026-03-23T13:42:24.962Z</time></trkpt><trkpt lat="44.9295833" lon="10.6525417"><ele>27.0</ele><time>2026-03-23T13:42:26.962Z</time></trkpt><trkpt lat="44.9295633" lon="10.6523933"><ele>27.6</ele><time>2026-03-23T13:42:28.962Z</time></trkpt><trkpt lat="44.9295417" lon="10.65224"><ele>28.200000000000003</ele><time>2026-03-23T13:42:30.963Z</time></trkpt><trkpt lat="44.9295233" lon="10.6520917"><ele>28.8</ele><time>2026-03-23T13:42:32.962Z</time></trkpt><trkpt lat="44.9294967" lon="10.6519467"><ele>29.4</ele><time>2026-03-23T13:42:34.962Z</time></trkpt><trkpt lat="44.9294817" lon="10.651795"><ele>30.0</ele><time>2026-03-23T13:42:36.962Z</time></trkpt><trkpt lat="44.9294667" lon="10.6516517"><ele>30.0</ele><time>2026-03-23T13:42:38.963Z</time></trkpt><trkpt lat="44.9294417" lon="10.651525"><ele>30.0</ele><time>2026-03-23T13:42:40.962Z</time></trkpt><trkpt lat="44.9294133" lon="10.6513917"><ele>30.0</ele><time>2026-03-23T13:42:42.962Z</time></trkpt><trkpt lat="44.9294" lon="10.651265"><ele>30.0</ele><time>2026-03-23T13:42:44.963Z</time></trkpt><trkpt lat="44.9293917" lon="10.651135"><ele>30.0</ele><time>2026-03-23T13:42:46.963Z</time></trkpt><trkpt lat="44.9293783" lon="10.651015"><ele>29.8</ele><time>2026-03-23T13:42:48.963Z</time></trkpt><trkpt lat="44.9293633" lon="10.6508933"><ele>29.6</ele><time>2026-03-23T13:42:50.962Z</time></trkpt><trkpt lat="44.9293417" lon="10.6507633"><ele>29.4</ele><time>2026-03-23T13:42:52.962Z</time></trkpt><trkpt lat="44.9293367" lon="10.6506417"><ele>29.2</ele><time>2026-03-23T13:42:54.963Z</time></trkpt><trkpt lat="44.92933" lon="10.650505"><ele>29.0</ele><time>2026-03-23T13:42:56.963Z</time></trkpt><trkpt lat="44.92932" lon="10.6503833"><ele>28.833333333333332</ele><time>2026-03-23T13:42:58.962Z</time></trkpt><trkpt lat="44.92931" lon="10.6502683"><ele>28.666666666666664</ele><time>2026-03-23T13:43:00.962Z</time></trkpt><trkpt lat="44.929305" lon="10.65015"><ele>28.5</ele><time>2026-03-23T13:43:02.962Z</time></trkpt><trkpt lat="44.9293083" lon="10.6500217"><ele>28.333333333333336</ele><time>2026-03-23T13:43:04.962Z</time></trkpt><trkpt lat="44.929305" lon="10.6499017"><ele>28.166666666666668</ele><time>2026-03-23T13:43:06.962Z</time></trkpt><trkpt lat="44.929305" lon="10.6497833"><ele>28.0</ele><time>2026-03-23T13:43:08.962Z</time></trkpt><trkpt lat="44.9293067" lon="10.6496683"><ele>28.000000000000004</ele><time>2026-03-23T13:43:10.962Z</time></trkpt><trkpt lat="44.9293117" lon="10.6495467"><ele>28.0</ele><time>2026-03-23T13:43:12.962Z</time></trkpt><trkpt lat="44.929315" lon="10.6494167"><ele>28.0</ele><time>2026-03-23T13:43:14.963Z</time></trkpt><trkpt lat="44.9293167" lon="10.6492967"><ele>28.0</ele><time>2026-03-23T13:43:16.962Z</time></trkpt><trkpt lat="44.929315" lon="10.6491767"><ele>28.000000000000004</ele><time>2026-03-23T13:43:18.963Z</time></trkpt><trkpt lat="44.9293117" lon="10.6490533"><ele>28.0</ele><time>2026-03-23T13:43:20.963Z</time></trkpt><trkpt lat="44.92931" lon="10.6489267"><ele>28.166666666666668</ele><time>2026-03-23T13:43:22.962Z</time></trkpt><trkpt lat="44.92931" lon="10.6488067"><ele>28.333333333333336</ele><time>2026-03-23T13:43:24.962Z</time></trkpt><trkpt lat="44.9293" lon="10.648695"><ele>28.5</ele><time>2026-03-23T13:43:26.962Z</time></trkpt><trkpt lat="44.9292933" lon="10.64857"><ele>28.666666666666664</ele><time>2026-03-23T13:43:28.963Z</time></trkpt><trkpt lat="44.92929" lon="10.6484483"><ele>28.833333333333332</ele><time>2026-03-23T13:43:30.963Z</time></trkpt><trkpt lat="44.929295" lon="10.648315"><ele>29.0</ele><time>2026-03-23T13:43:32.963Z</time></trkpt><trkpt lat="44.92929" lon="10.6481983"><ele>29.166666666666664</ele><time>2026-03-23T13:43:34.962Z</time></trkpt><trkpt lat="44.929285" lon="10.64808"><ele>29.333333333333332</ele><time>2026-03-23T13:43:36.962Z</time></trkpt><trkpt lat="44.929275" lon="10.64796"><ele>29.5</ele><time>2026-03-23T13:43:38.963Z</time></trkpt><trkpt lat="44.9292767" lon="10.6478367"><ele>29.666666666666664</ele><time>2026-03-23T13:43:40.962Z</time></trkpt><trkpt lat="44.929275" lon="10.647715"><ele>29.833333333333332</ele><time>2026-03-23T13:43:42.963Z</time></trkpt><trkpt lat="44.92927" lon="10.647595"><ele>30.0</ele><time>2026-03-23T13:43:44.962Z</time></trkpt><trkpt lat="44.9292633" lon="10.6474733"><ele>29.5</ele><time>2026-03-23T13:43:46.962Z</time></trkpt><trkpt lat="44.9292667" lon="10.6473517"><ele>29.0</ele><time>2026-03-23T13:43:48.963Z</time></trkpt><trkpt lat="44.9292667" lon="10.6472333"><ele>28.5</ele><time>2026-03-23T13:43:50.962Z</time></trkpt><trkpt lat="44.92926" lon="10.6471017"><ele>28.0</ele><time>2026-03-23T13:43:52.962Z</time></trkpt><trkpt lat="44.9292533" lon="10.64697"><ele>27.5</ele><time>2026-03-23T13:43:54.963Z</time></trkpt><trkpt lat="44.929245" lon="10.6468467"><ele>27.0</ele><time>2026-03-23T13:43:56.963Z</time></trkpt><trkpt lat="44.9292433" lon="10.64672"><ele>27.0</ele><time>2026-03-23T13:43:58.962Z</time></trkpt><trkpt lat="44.9292433" lon="10.64659"><ele>27.000000000000004</ele><time>2026-03-23T13:44:00.962Z</time></trkpt><trkpt lat="44.9292383" lon="10.6464583"><ele>27.000000000000004</ele><time>2026-03-23T13:44:02.962Z</time></trkpt><trkpt lat="44.9292267" lon="10.646335"><ele>27.0</ele><time>2026-03-23T13:44:04.963Z</time></trkpt><trkpt lat="44.9292233" lon="10.6462067"><ele>27.0</ele><time>2026-03-23T13:44:06.963Z</time></trkpt><trkpt lat="44.9292183" lon="10.6460733"><ele>27.0</ele><time>2026-03-23T13:44:08.962Z</time></trkpt><trkpt lat="44.9292083" lon="10.6459583"><ele>27.0</ele><time>2026-03-23T13:44:10.963Z</time></trkpt><trkpt lat="44.9292033" lon="10.6458317"><ele>27.0</ele><time>2026-03-23T13:44:12.962Z</time></trkpt><trkpt lat="44.9291967" lon="10.6457033"><ele>27.0</ele><time>2026-03-23T13:44:14.962Z</time></trkpt><trkpt lat="44.929195" lon="10.64558"><ele>27.0</ele><time>2026-03-23T13:44:16.963Z</time></trkpt><trkpt lat="44.929185" lon="10.6454567"><ele>27.0</ele><time>2026-03-23T13:44:18.962Z</time></trkpt><trkpt lat="44.9291883" lon="10.6453383"><ele>26.666666666666668</ele><time>2026-03-23T13:44:20.963Z</time></trkpt><trkpt lat="44.9291883" lon="10.6452383"><ele>26.333333333333336</ele><time>2026-03-23T13:44:22.962Z</time></trkpt><trkpt lat="44.9292017" lon="10.6451217"><ele>26.0</ele><time>2026-03-23T13:44:24.962Z</time></trkpt><trkpt lat="44.929215" lon="10.6449967"><ele>25.666666666666668</ele><time>2026-03-23T13:44:26.962Z</time></trkpt><trkpt lat="44.9292317" lon="10.6448683"><ele>25.333333333333336</ele><time>2026-03-23T13:44:28.963Z</time></trkpt><trkpt lat="44.929255" lon="10.6447517"><ele>25.0</ele><time>2026-03-23T13:44:30.962Z</time></trkpt><trkpt lat="44.9292783" lon="10.6446367"><ele>24.833333333333336</ele><time>2026-03-23T13:44:32.963Z</time></trkpt><trkpt lat="44.9292883" lon="10.6445167"><ele>24.666666666666668</ele><time>2026-03-23T13:44:34.962Z</time></trkpt><trkpt lat="44.9292933" lon="10.6443983"><ele>24.5</ele><time>2026-03-23T13:44:36.962Z</time></trkpt><trkpt lat="44.92931" lon="10.644275"><ele>24.333333333333336</ele><time>2026-03-23T13:44:38.963Z</time></trkpt><trkpt lat="44.9293317" lon="10.6441533"><ele>24.166666666666668</ele><time>2026-03-23T13:44:40.963Z</time></trkpt><trkpt lat="44.9293583" lon="10.644035"><ele>24.0</ele><time>2026-03-23T13:44:42.962Z</time></trkpt><trkpt lat="44.9293783" lon="10.643905"><ele>23.2</ele><time>2026-03-23T13:44:44.962Z</time></trkpt><trkpt lat="44.9294183" lon="10.643785"><ele>22.4</ele><time>2026-03-23T13:44:46.963Z</time></trkpt><trkpt lat="44.929455" lon="10.6436783"><ele>21.6</ele><time>2026-03-23T13:44:48.963Z</time></trkpt><trkpt lat="44.9294883" lon="10.64356"><ele>20.8</ele><time>2026-03-23T13:44:50.963Z</time></trkpt><trkpt lat="44.9295133" lon="10.643425"><ele>20.0</ele><time>2026-03-23T13:44:52.963Z</time></trkpt><trkpt lat="44.9295383" lon="10.6432983"><ele>20.0</ele><time>2026-03-23T13:44:54.962Z</time></trkpt><trkpt lat="44.929565" lon="10.6431717"><ele>20.0</ele><time>2026-03-23T13:44:56.962Z</time></trkpt><trkpt lat="44.9295817" lon="10.6430467"><ele>20.0</ele><time>2026-03-23T13:44:58.962Z</time></trkpt><trkpt lat="44.92961" lon="10.64292"><ele>20.0</ele><time>2026-03-23T13:45:00.962Z</time></trkpt><trkpt lat="44.92964" lon="10.6427933"><ele>20.0</ele><time>2026-03-23T13:45:02.963Z</time></trkpt><trkpt lat="44.9296733" lon="10.6426483"><ele>20.6</ele><time>2026-03-23T13:45:04.963Z</time></trkpt><trkpt lat="44.9296967" lon="10.642505"><ele>21.2</ele><time>2026-03-23T13:45:06.963Z</time></trkpt><trkpt lat="44.929715" lon="10.6423717"><ele>21.799999999999997</ele><time>2026-03-23T13:45:08.963Z</time></trkpt><trkpt lat="44.9297483" lon="10.6422533"><ele>22.4</ele><time>2026-03-23T13:45:10.963Z</time></trkpt><trkpt lat="44.9297617" lon="10.6421167"><ele>23.0</ele><time>2026-03-23T13:45:12.963Z</time></trkpt><trkpt lat="44.929775" lon="10.6419983"><ele>23.166666666666668</ele><time>2026-03-23T13:45:14.963Z</time></trkpt><trkpt lat="44.9297967" lon="10.6418817"><ele>23.333333333333336</ele><time>2026-03-23T13:45:16.963Z</time></trkpt><trkpt lat="44.9298167" lon="10.64176"><ele>23.5</ele><time>2026-03-23T13:45:18.962Z</time></trkpt><trkpt lat="44.9298267" lon="10.641635"><ele>23.666666666666668</ele><time>2026-03-23T13:45:20.962Z</time></trkpt><trkpt lat="44.92984" lon="10.6415033"><ele>23.833333333333332</ele><time>2026-03-23T13:45:22.962Z</time></trkpt><trkpt lat="44.929835" lon="10.641375"><ele>24.0</ele><time>2026-03-23T13:45:24.962Z</time></trkpt><trkpt lat="44.92983" lon="10.6412467"><ele>24.166666666666668</ele><time>2026-03-23T13:45:26.962Z</time></trkpt><trkpt lat="44.9298133" lon="10.64112"><ele>24.333333333333336</ele><time>2026-03-23T13:45:28.962Z</time></trkpt><trkpt lat="44.929795" lon="10.64099"><ele>24.5</ele><time>2026-03-23T13:45:30.962Z</time></trkpt><trkpt lat="44.9297833" lon="10.6408733"><ele>24.666666666666668</ele><time>2026-03-23T13:45:32.963Z</time></trkpt><trkpt lat="44.9297667" lon="10.6407483"><ele>24.833333333333336</ele><time>2026-03-23T13:45:34.963Z</time></trkpt><trkpt lat="44.9297533" lon="10.6406233"><ele>25.0</ele><time>2026-03-23T13:45:36.963Z</time></trkpt><trkpt lat="44.9297383" lon="10.6405"><ele>25.000000000000004</ele><time>2026-03-23T13:45:38.962Z</time></trkpt><trkpt lat="44.9297233" lon="10.64037"><ele>25.0</ele><time>2026-03-23T13:45:40.962Z</time></trkpt><trkpt lat="44.9297167" lon="10.6402533"><ele>25.0</ele><time>2026-03-23T13:45:42.962Z</time></trkpt><trkpt lat="44.9297083" lon="10.6401333"><ele>25.0</ele><time>2026-03-23T13:45:44.962Z</time></trkpt><trkpt lat="44.9297" lon="10.6400117"><ele>25.000000000000004</ele><time>2026-03-23T13:45:46.962Z</time></trkpt><trkpt lat="44.9296833" lon="10.639885"><ele>25.0</ele><time>2026-03-23T13:45:48.962Z</time></trkpt><trkpt lat="44.9296683" lon="10.639765"><ele>25.4</ele><time>2026-03-23T13:45:50.963Z</time></trkpt><trkpt lat="44.92966" lon="10.6396333"><ele>25.8</ele><time>2026-03-23T13:45:52.962Z</time></trkpt><trkpt lat="44.929635" lon="10.6395017"><ele>26.200000000000003</ele><time>2026-03-23T13:45:54.962Z</time></trkpt><trkpt lat="44.929625" lon="10.639385"><ele>26.6</ele><time>2026-03-23T13:45:56.962Z</time></trkpt><trkpt lat="44.9296233" lon="10.639255"><ele>27.0</ele><time>2026-03-23T13:45:58.963Z</time></trkpt><trkpt lat="44.92962" lon="10.6391283"><ele>27.0</ele><time>2026-03-23T13:46:00.962Z</time></trkpt><trkpt lat="44.9296" lon="10.639005"><ele>27.0</ele><time>2026-03-23T13:46:02.963Z</time></trkpt><trkpt lat="44.9295833" lon="10.6388817"><ele>27.0</ele><time>2026-03-23T13:46:04.963Z</time></trkpt><trkpt lat="44.9295683" lon="10.638765"><ele>27.0</ele><time>2026-03-23T13:46:06.963Z</time></trkpt><trkpt lat="44.9295667" lon="10.6386467"><ele>27.0</ele><time>2026-03-23T13:46:08.962Z</time></trkpt><trkpt lat="44.9295733" lon="10.6385133"><ele>27.0</ele><time>2026-03-23T13:46:10.963Z</time></trkpt><trkpt lat="44.9295917" lon="10.6384033"><ele>26.666666666666668</ele><time>2026-03-23T13:46:12.962Z</time></trkpt><trkpt lat="44.9296383" lon="10.6383"><ele>26.333333333333336</ele><time>2026-03-23T13:46:14.962Z</time></trkpt><trkpt lat="44.929695" lon="10.6382"><ele>26.0</ele><time>2026-03-23T13:46:16.962Z</time></trkpt><trkpt lat="44.9297533" lon="10.6381083"><ele>25.666666666666668</ele><time>2026-03-23T13:46:18.963Z</time></trkpt><trkpt lat="44.92981" lon="10.6380083"><ele>25.333333333333336</ele><time>2026-03-23T13:46:20.963Z</time></trkpt><trkpt lat="44.9298683" lon="10.6379333"><ele>25.0</ele><time>2026-03-23T13:46:22.963Z</time></trkpt><trkpt lat="44.9299217" lon="10.637855"><ele>25.000000000000004</ele><time>2026-03-23T13:46:24.962Z</time></trkpt><trkpt lat="44.929985" lon="10.6377733"><ele>25.0</ele><time>2026-03-23T13:46:26.963Z</time></trkpt><trkpt lat="44.9300383" lon="10.6376733"><ele>25.0</ele><time>2026-03-23T13:46:28.962Z</time></trkpt><trkpt lat="44.9300983" lon="10.6375817"><ele>25.0</ele><time>2026-03-23T13:46:30.962Z</time></trkpt><trkpt lat="44.9301683" lon="10.6374933"><ele>25.000000000000004</ele><time>2026-03-23T13:46:32.963Z</time></trkpt><trkpt lat="44.9302267" lon="10.6374117"><ele>25.0</ele><time>2026-03-23T13:46:34.963Z</time></trkpt><trkpt lat="44.9302867" lon="10.63732"><ele>25.166666666666668</ele><time>2026-03-23T13:46:36.962Z</time></trkpt><trkpt lat="44.9303367" lon="10.6372233"><ele>25.333333333333336</ele><time>2026-03-23T13:46:38.962Z</time></trkpt><trkpt lat="44.930395" lon="10.6371333"><ele>25.5</ele><time>2026-03-23T13:46:40.963Z</time></trkpt><trkpt lat="44.9304583" lon="10.637045"><ele>25.666666666666664</ele><time>2026-03-23T13:46:42.962Z</time></trkpt><trkpt lat="44.9305167" lon="10.6369567"><ele>25.833333333333332</ele><time>2026-03-23T13:46:44.962Z</time></trkpt><trkpt lat="44.930575" lon="10.63687"><ele>26.0</ele><time>2026-03-23T13:46:46.963Z</time></trkpt><trkpt lat="44.9306317" lon="10.6367883"><ele>26.333333333333332</ele><time>2026-03-23T13:46:48.963Z</time></trkpt><trkpt lat="44.930695" lon="10.636715"><ele>26.666666666666664</ele><time>2026-03-23T13:46:50.963Z</time></trkpt><trkpt lat="44.9307533" lon="10.63663"><ele>27.0</ele><time>2026-03-23T13:46:52.963Z</time></trkpt><trkpt lat="44.9308067" lon="10.6365433"><ele>27.333333333333336</ele><time>2026-03-23T13:46:54.962Z</time></trkpt><trkpt lat="44.9308667" lon="10.6364617"><ele>27.666666666666668</ele><time>2026-03-23T13:46:56.963Z</time></trkpt><trkpt lat="44.9309233" lon="10.636365"><ele>28.0</ele><time>2026-03-23T13:46:58.963Z</time></trkpt><trkpt lat="44.93093" lon="10.63627"><ele>27.500000000000004</ele><time>2026-03-23T13:47:00.962Z</time></trkpt><trkpt lat="44.930975" lon="10.6361533"><ele>27.0</ele><time>2026-03-23T13:47:03.963Z</time></trkpt><trkpt lat="44.9310317" lon="10.6360883"><ele>26.5</ele><time>2026-03-23T13:47:05.963Z</time></trkpt><trkpt lat="44.93109" lon="10.6359983"><ele>26.0</ele><time>2026-03-23T13:47:07.962Z</time></trkpt><trkpt lat="44.9311417" lon="10.6359033"><ele>25.500000000000004</ele><time>2026-03-23T13:47:09.962Z</time></trkpt><trkpt lat="44.9311933" lon="10.6358117"><ele>25.0</ele><time>2026-03-23T13:47:11.963Z</time></trkpt><trkpt lat="44.93126" lon="10.6357317"><ele>25.000000000000004</ele><time>2026-03-23T13:47:13.962Z</time></trkpt><trkpt lat="44.9313233" lon="10.6356533"><ele>25.0</ele><time>2026-03-23T13:47:15.962Z</time></trkpt><trkpt lat="44.9313833" lon="10.6355717"><ele>25.0</ele><time>2026-03-23T13:47:17.962Z</time></trkpt><trkpt lat="44.9314383" lon="10.6354833"><ele>25.0</ele><time>2026-03-23T13:47:19.962Z</time></trkpt><trkpt lat="44.931505" lon="10.635395"><ele>25.000000000000004</ele><time>2026-03-23T13:47:21.963Z</time></trkpt><trkpt lat="44.9315567" lon="10.6353017"><ele>25.0</ele><time>2026-03-23T13:47:23.963Z</time></trkpt><trkpt lat="44.93159" lon="10.635205"><ele>24.333333333333336</ele><time>2026-03-23T13:47:25.962Z</time></trkpt><trkpt lat="44.9315767" lon="10.63511"><ele>23.666666666666668</ele><time>2026-03-23T13:47:27.962Z</time></trkpt><trkpt lat="44.9315133" lon="10.6350683"><ele>23.0</ele><time>2026-03-23T13:47:29.962Z</time></trkpt><trkpt lat="44.9314367" lon="10.63507"><ele>22.333333333333336</ele><time>2026-03-23T13:47:31.962Z</time></trkpt><trkpt lat="44.9313467" lon="10.63507"><ele>21.666666666666668</ele><time>2026-03-23T13:47:34.962Z</time></trkpt><trkpt lat="44.9312517" lon="10.63505"><ele>21.0</ele><time>2026-03-23T13:47:37.962Z</time></trkpt><trkpt lat="44.9311867" lon="10.6350133"><ele>21.0</ele><time>2026-03-23T13:47:39.963Z</time></trkpt><trkpt lat="44.9311233" lon="10.634975"><ele>21.0</ele><time>2026-03-23T13:47:41.962Z</time></trkpt><trkpt lat="44.9310617" lon="10.63494"><ele>21.0</ele><time>2026-03-23T13:47:43.963Z</time></trkpt><trkpt lat="44.930985" lon="10.6349083"><ele>21.0</ele><time>2026-03-23T13:47:45.962Z</time></trkpt><trkpt lat="44.9309167" lon="10.63488"><ele>21.0</ele><time>2026-03-23T13:47:47.963Z</time></trkpt><trkpt lat="44.9308483" lon="10.634845"><ele>21.0</ele><time>2026-03-23T13:47:49.963Z</time></trkpt><trkpt lat="44.93078" lon="10.6348117"><ele>21.0</ele><time>2026-03-23T13:47:51.963Z</time></trkpt><trkpt lat="44.9307133" lon="10.634775"><ele>21.333333333333332</ele><time>2026-03-23T13:47:53.962Z</time></trkpt><trkpt lat="44.9306467" lon="10.6347433"><ele>21.666666666666668</ele><time>2026-03-23T13:47:55.962Z</time></trkpt><trkpt lat="44.9305833" lon="10.6347233"><ele>22.0</ele><time>2026-03-23T13:47:57.963Z</time></trkpt><trkpt lat="44.93051" lon="10.6346933"><ele>22.333333333333336</ele><time>2026-03-23T13:47:59.962Z</time></trkpt><trkpt lat="44.9304267" lon="10.6346583"><ele>22.666666666666668</ele><time>2026-03-23T13:48:01.963Z</time></trkpt><trkpt lat="44.9303517" lon="10.63462"><ele>23.0</ele><time>2026-03-23T13:48:03.963Z</time></trkpt><trkpt lat="44.9302767" lon="10.6346017"><ele>23.0</ele><time>2026-03-23T13:48:05.962Z</time></trkpt><trkpt lat="44.9302067" lon="10.6346267"><ele>23.0</ele><time>2026-03-23T13:48:07.963Z</time></trkpt><trkpt lat="44.9301383" lon="10.6346983"><ele>23.0</ele><time>2026-03-23T13:48:09.962Z</time></trkpt><trkpt lat="44.9300817" lon="10.63477"><ele>23.0</ele><time>2026-03-23T13:48:11.962Z</time></trkpt><trkpt lat="44.93002" lon="10.634835"><ele>23.0</ele><time>2026-03-23T13:48:13.963Z</time></trkpt><trkpt lat="44.9299583" lon="10.6349117"><ele>23.0</ele><time>2026-03-23T13:48:15.962Z</time></trkpt><trkpt lat="44.9299" lon="10.6349867"><ele>22.5</ele><time>2026-03-23T13:48:17.962Z</time></trkpt><trkpt lat="44.9298433" lon="10.6350567"><ele>22.0</ele><time>2026-03-23T13:48:19.962Z</time></trkpt><trkpt lat="44.92978" lon="10.63513"><ele>21.5</ele><time>2026-03-23T13:48:21.962Z</time></trkpt><trkpt lat="44.929725" lon="10.6352067"><ele>21.0</ele><time>2026-03-23T13:48:23.963Z</time></trkpt><trkpt lat="44.92964" lon="10.635135"><ele>20.5</ele><time>2026-03-23T13:48:26.962Z</time></trkpt><trkpt lat="44.9296017" lon="10.6350283"><ele>20.0</ele><time>2026-03-23T13:48:28.963Z</time></trkpt><trkpt lat="44.92955" lon="10.6349517"><ele>20.0</ele><time>2026-03-23T13:48:30.963Z</time></trkpt><trkpt lat="44.9295117" lon="10.6348367"><ele>20.0</ele><time>2026-03-23T13:48:33.963Z</time></trkpt><trkpt lat="44.929485" lon="10.634755"><ele>20.0</ele><time>2026-03-23T13:48:35.962Z</time></trkpt><trkpt lat="44.9294417" lon="10.6346367"><ele>20.0</ele><time>2026-03-23T13:48:38.963Z</time></trkpt><trkpt lat="44.92941" lon="10.6345367"><ele>20.0</ele><time>2026-03-23T13:48:40.962Z</time></trkpt><trkpt lat="44.9293667" lon="10.6344117"><ele>20.0</ele><time>2026-03-23T13:48:42.962Z</time></trkpt><trkpt lat="44.9293583" lon="10.634275"><ele>19.666666666666668</ele><time>2026-03-23T13:48:44.962Z</time></trkpt><trkpt lat="44.9293983" lon="10.634165"><ele>19.333333333333336</ele><time>2026-03-23T13:48:46.962Z</time></trkpt><trkpt lat="44.9293867" lon="10.6340617"><ele>19.0</ele><time>2026-03-23T13:48:48.962Z</time></trkpt><trkpt lat="44.92933" lon="10.634"><ele>18.666666666666668</ele><time>2026-03-23T13:48:50.963Z</time></trkpt><trkpt lat="44.9292617" lon="10.63395"><ele>18.333333333333332</ele><time>2026-03-23T13:48:52.963Z</time></trkpt><trkpt lat="44.929195" lon="10.633905"><ele>18.0</ele><time>2026-03-23T13:48:54.963Z</time></trkpt><trkpt lat="44.92912" lon="10.6338633"><ele>18.166666666666668</ele><time>2026-03-23T13:48:56.963Z</time></trkpt><trkpt lat="44.9290533" lon="10.6338117"><ele>18.333333333333332</ele><time>2026-03-23T13:48:58.963Z</time></trkpt><trkpt lat="44.9289833" lon="10.63375"><ele>18.5</ele><time>2026-03-23T13:49:00.963Z</time></trkpt><trkpt lat="44.9289133" lon="10.6336967"><ele>18.666666666666664</ele><time>2026-03-23T13:49:02.963Z</time></trkpt><trkpt lat="44.9288367" lon="10.6336383"><ele>18.833333333333332</ele><time>2026-03-23T13:49:04.963Z</time></trkpt><trkpt lat="44.92876" lon="10.6335867"><ele>19.0</ele><time>2026-03-23T13:49:06.964Z</time></trkpt><trkpt lat="44.9286867" lon="10.6335233"><ele>19.0</ele><time>2026-03-23T13:49:08.963Z</time></trkpt><trkpt lat="44.9286017" lon="10.6334567"><ele>19.0</ele><time>2026-03-23T13:49:10.964Z</time></trkpt><trkpt lat="44.9285333" lon="10.6333967"><ele>19.0</ele><time>2026-03-23T13:49:12.964Z</time></trkpt><trkpt lat="44.92846" lon="10.63335"><ele>19.0</ele><time>2026-03-23T13:49:14.963Z</time></trkpt><trkpt lat="44.9283867" lon="10.633285"><ele>19.0</ele><time>2026-03-23T13:49:16.963Z</time></trkpt><trkpt lat="44.9283183" lon="10.6332233"><ele>19.0</ele><time>2026-03-23T13:49:18.964Z</time></trkpt><trkpt lat="44.9282433" lon="10.6331433"><ele>19.0</ele><time>2026-03-23T13:49:20.964Z</time></trkpt><trkpt lat="44.9281717" lon="10.6330767"><ele>19.0</ele><time>2026-03-23T13:49:22.963Z</time></trkpt><trkpt lat="44.9281" lon="10.633015"><ele>19.0</ele><time>2026-03-23T13:49:24.964Z</time></trkpt><trkpt lat="44.9280333" lon="10.6329533"><ele>19.0</ele><time>2026-03-23T13:49:26.963Z</time></trkpt><trkpt lat="44.9279633" lon="10.6328817"><ele>19.0</ele><time>2026-03-23T13:49:28.964Z</time></trkpt><trkpt lat="44.92788" lon="10.632815"><ele>19.0</ele><time>2026-03-23T13:49:30.963Z</time></trkpt><trkpt lat="44.9278033" lon="10.6327533"><ele>19.0</ele><time>2026-03-23T13:49:32.963Z</time></trkpt><trkpt lat="44.927735" lon="10.6326817"><ele>19.0</ele><time>2026-03-23T13:49:34.963Z</time></trkpt><trkpt lat="44.9276633" lon="10.6326"><ele>19.0</ele><time>2026-03-23T13:49:36.964Z</time></trkpt><trkpt lat="44.92758" lon="10.6325333"><ele>19.0</ele><time>2026-03-23T13:49:38.963Z</time></trkpt><trkpt lat="44.9274983" lon="10.6324783"><ele>19.0</ele><time>2026-03-23T13:49:40.963Z</time></trkpt><trkpt lat="44.92743" lon="10.632415"><ele>19.0</ele><time>2026-03-23T13:49:42.964Z</time></trkpt><trkpt lat="44.927365" lon="10.6323467"><ele>19.0</ele><time>2026-03-23T13:49:44.963Z</time></trkpt><trkpt lat="44.9272917" lon="10.6322767"><ele>19.0</ele><time>2026-03-23T13:49:46.963Z</time></trkpt><trkpt lat="44.9272183" lon="10.6322017"><ele>19.0</ele><time>2026-03-23T13:49:48.964Z</time></trkpt><trkpt lat="44.92715" lon="10.632115"><ele>19.0</ele><time>2026-03-23T13:49:50.963Z</time></trkpt><trkpt lat="44.92709" lon="10.6320333"><ele>19.0</ele><time>2026-03-23T13:49:52.964Z</time></trkpt><trkpt lat="44.927025" lon="10.63196"><ele>19.0</ele><time>2026-03-23T13:49:54.964Z</time></trkpt><trkpt lat="44.9269517" lon="10.631885"><ele>19.0</ele><time>2026-03-23T13:49:56.964Z</time></trkpt><trkpt lat="44.926885" lon="10.6318217"><ele>19.0</ele><time>2026-03-23T13:49:58.963Z</time></trkpt><trkpt lat="44.9268183" lon="10.6317567"><ele>19.0</ele><time>2026-03-23T13:50:00.963Z</time></trkpt><trkpt lat="44.9267517" lon="10.6316967"><ele>19.0</ele><time>2026-03-23T13:50:02.964Z</time></trkpt><trkpt lat="44.9266917" lon="10.6316217"><ele>19.0</ele><time>2026-03-23T13:50:04.964Z</time></trkpt><trkpt lat="44.92663" lon="10.631545"><ele>19.0</ele><time>2026-03-23T13:50:06.963Z</time></trkpt><trkpt lat="44.9265667" lon="10.63147"><ele>19.333333333333332</ele><time>2026-03-23T13:50:08.964Z</time></trkpt><trkpt lat="44.9265033" lon="10.63138"><ele>19.666666666666664</ele><time>2026-03-23T13:50:10.964Z</time></trkpt><trkpt lat="44.9264433" lon="10.63128"><ele>20.0</ele><time>2026-03-23T13:50:12.963Z</time></trkpt><trkpt lat="44.9263917" lon="10.6311817"><ele>20.333333333333332</ele><time>2026-03-23T13:50:14.963Z</time></trkpt><trkpt lat="44.92634" lon="10.6310917"><ele>20.666666666666668</ele><time>2026-03-23T13:50:16.963Z</time></trkpt><trkpt lat="44.9262767" lon="10.6310083"><ele>21.0</ele><time>2026-03-23T13:50:18.964Z</time></trkpt><trkpt lat="44.926215" lon="10.6309283"><ele>21.0</ele><time>2026-03-23T13:50:20.964Z</time></trkpt><trkpt lat="44.9261583" lon="10.6308483"><ele>21.0</ele><time>2026-03-23T13:50:22.963Z</time></trkpt><trkpt lat="44.9261083" lon="10.63076"><ele>21.0</ele><time>2026-03-23T13:50:24.964Z</time></trkpt><trkpt lat="44.9260517" lon="10.6306767"><ele>21.0</ele><time>2026-03-23T13:50:26.964Z</time></trkpt><trkpt lat="44.9259983" lon="10.63059"><ele>21.0</ele><time>2026-03-23T13:50:28.964Z</time></trkpt><trkpt lat="44.925935" lon="10.6305033"><ele>21.0</ele><time>2026-03-23T13:50:30.964Z</time></trkpt><trkpt lat="44.9258733" lon="10.6304117"><ele>21.166666666666668</ele><time>2026-03-23T13:50:32.963Z</time></trkpt><trkpt lat="44.925815" lon="10.6303183"><ele>21.333333333333332</ele><time>2026-03-23T13:50:34.963Z</time></trkpt><trkpt lat="44.925765" lon="10.6302283"><ele>21.5</ele><time>2026-03-23T13:50:36.964Z</time></trkpt><trkpt lat="44.9257067" lon="10.6301367"><ele>21.666666666666664</ele><time>2026-03-23T13:50:38.963Z</time></trkpt><trkpt lat="44.925645" lon="10.6300317"><ele>21.833333333333332</ele><time>2026-03-23T13:50:40.963Z</time></trkpt><trkpt lat="44.92559" lon="10.6299417"><ele>22.0</ele><time>2026-03-23T13:50:42.963Z</time></trkpt><trkpt lat="44.9255367" lon="10.629835"><ele>22.0</ele><time>2026-03-23T13:50:44.964Z</time></trkpt><trkpt lat="44.9254967" lon="10.629725"><ele>22.0</ele><time>2026-03-23T13:50:46.964Z</time></trkpt><trkpt lat="44.9254383" lon="10.62961"><ele>22.0</ele><time>2026-03-23T13:50:48.964Z</time></trkpt><trkpt lat="44.9253883" lon="10.6295083"><ele>22.0</ele><time>2026-03-23T13:50:50.963Z</time></trkpt><trkpt lat="44.9253367" lon="10.6294267"><ele>22.0</ele><time>2026-03-23T13:50:52.964Z</time></trkpt><trkpt lat="44.92528" lon="10.6293417"><ele>22.0</ele><time>2026-03-23T13:50:54.963Z</time></trkpt><trkpt lat="44.9252267" lon="10.629245"><ele>21.6</ele><time>2026-03-23T13:50:56.963Z</time></trkpt><trkpt lat="44.9251733" lon="10.6291367"><ele>21.200000000000003</ele><time>2026-03-23T13:50:58.964Z</time></trkpt><trkpt lat="44.9251183" lon="10.6290283"><ele>20.8</ele><time>2026-03-23T13:51:00.964Z</time></trkpt><trkpt lat="44.9250633" lon="10.62892"><ele>20.4</ele><time>2026-03-23T13:51:02.964Z</time></trkpt><trkpt lat="44.92501" lon="10.6288183"><ele>20.0</ele><time>2026-03-23T13:51:04.964Z</time></trkpt><trkpt lat="44.9249567" lon="10.628715"><ele>20.166666666666668</ele><time>2026-03-23T13:51:06.964Z</time></trkpt><trkpt lat="44.9249083" lon="10.6286033"><ele>20.333333333333336</ele><time>2026-03-23T13:51:08.964Z</time></trkpt><trkpt lat="44.9248583" lon="10.6285183"><ele>20.5</ele><time>2026-03-23T13:51:10.964Z</time></trkpt><trkpt lat="44.9248067" lon="10.6284317"><ele>20.666666666666668</ele><time>2026-03-23T13:51:12.964Z</time></trkpt><trkpt lat="44.9247533" lon="10.6283217"><ele>20.833333333333332</ele><time>2026-03-23T13:51:14.964Z</time></trkpt><trkpt lat="44.924705" lon="10.6281983"><ele>21.0</ele><time>2026-03-23T13:51:16.963Z</time></trkpt><trkpt lat="44.9246567" lon="10.6280917"><ele>21.0</ele><time>2026-03-23T13:51:18.963Z</time></trkpt><trkpt lat="44.92461" lon="10.6279833"><ele>21.0</ele><time>2026-03-23T13:51:20.964Z</time></trkpt><trkpt lat="44.92457" lon="10.6278783"><ele>21.0</ele><time>2026-03-23T13:51:22.964Z</time></trkpt><trkpt lat="44.92453" lon="10.6277767"><ele>21.0</ele><time>2026-03-23T13:51:24.964Z</time></trkpt><trkpt lat="44.9244933" lon="10.6276733"><ele>21.0</ele><time>2026-03-23T13:51:26.963Z</time></trkpt><trkpt lat="44.9244483" lon="10.62758"><ele>21.0</ele><time>2026-03-23T13:51:28.963Z</time></trkpt><trkpt lat="44.9244033" lon="10.6274917"><ele>20.666666666666668</ele><time>2026-03-23T13:51:30.963Z</time></trkpt><trkpt lat="44.9243667" lon="10.627385"><ele>20.333333333333332</ele><time>2026-03-23T13:51:32.963Z</time></trkpt><trkpt lat="44.92433" lon="10.6272617"><ele>20.0</ele><time>2026-03-23T13:51:34.964Z</time></trkpt><trkpt lat="44.92428" lon="10.6271517"><ele>19.666666666666664</ele><time>2026-03-23T13:51:36.963Z</time></trkpt><trkpt lat="44.9242317" lon="10.6270483"><ele>19.333333333333332</ele><time>2026-03-23T13:51:38.963Z</time></trkpt><trkpt lat="44.9241833" lon="10.6269467"><ele>19.0</ele><time>2026-03-23T13:51:40.964Z</time></trkpt><trkpt lat="44.9241167" lon="10.626835"><ele>19.799999999999997</ele><time>2026-03-23T13:51:42.964Z</time></trkpt><trkpt lat="44.9240567" lon="10.62671"><ele>20.599999999999998</ele><time>2026-03-23T13:51:44.964Z</time></trkpt><trkpt lat="44.923995" lon="10.6265833"><ele>21.4</ele><time>2026-03-23T13:51:46.964Z</time></trkpt><trkpt lat="44.92394" lon="10.6264633"><ele>22.2</ele><time>2026-03-23T13:51:48.964Z</time></trkpt><trkpt lat="44.923885" lon="10.6263517"><ele>23.0</ele><time>2026-03-23T13:51:50.964Z</time></trkpt><trkpt lat="44.9238283" lon="10.6262683"><ele>23.0</ele><time>2026-03-23T13:51:52.963Z</time></trkpt><trkpt lat="44.9237567" lon="10.626175"><ele>23.0</ele><time>2026-03-23T13:51:54.964Z</time></trkpt><trkpt lat="44.9237" lon="10.626085"><ele>23.0</ele><time>2026-03-23T13:51:56.963Z</time></trkpt><trkpt lat="44.9236467" lon="10.6260017"><ele>23.0</ele><time>2026-03-23T13:51:58.963Z</time></trkpt><trkpt lat="44.9235683" lon="10.6259167"><ele>23.0</ele><time>2026-03-23T13:52:00.964Z</time></trkpt><trkpt lat="44.9234883" lon="10.6258633"><ele>23.333333333333336</ele><time>2026-03-23T13:52:02.963Z</time></trkpt><trkpt lat="44.9234117" lon="10.6258133"><ele>23.666666666666668</ele><time>2026-03-23T13:52:04.963Z</time></trkpt><trkpt lat="44.92333" lon="10.6257833"><ele>24.0</ele><time>2026-03-23T13:52:06.964Z</time></trkpt><trkpt lat="44.9232433" lon="10.6257667"><ele>24.333333333333336</ele><time>2026-03-23T13:52:08.963Z</time></trkpt><trkpt lat="44.9231667" lon="10.6257583"><ele>24.666666666666668</ele><time>2026-03-23T13:52:10.964Z</time></trkpt><trkpt lat="44.9230917" lon="10.6257467"><ele>25.0</ele><time>2026-03-23T13:52:12.963Z</time></trkpt><trkpt lat="44.9230133" lon="10.6257533"><ele>25.000000000000004</ele><time>2026-03-23T13:52:14.963Z</time></trkpt><trkpt lat="44.9229367" lon="10.6257633"><ele>25.0</ele><time>2026-03-23T13:52:16.963Z</time></trkpt><trkpt lat="44.9228533" lon="10.62578"><ele>25.0</ele><time>2026-03-23T13:52:18.964Z</time></trkpt><trkpt lat="44.9227667" lon="10.625795"><ele>25.0</ele><time>2026-03-23T13:52:20.963Z</time></trkpt><trkpt lat="44.92268" lon="10.625815"><ele>25.000000000000004</ele><time>2026-03-23T13:52:22.963Z</time></trkpt><trkpt lat="44.9225933" lon="10.6258317"><ele>25.0</ele><time>2026-03-23T13:52:24.963Z</time></trkpt><trkpt lat="44.92251" lon="10.625855"><ele>25.000000000000004</ele><time>2026-03-23T13:52:26.963Z</time></trkpt><trkpt lat="44.9224317" lon="10.6258733"><ele>25.0</ele><time>2026-03-23T13:52:28.963Z</time></trkpt><trkpt lat="44.9223483" lon="10.6258867"><ele>25.0</ele><time>2026-03-23T13:52:30.964Z</time></trkpt><trkpt lat="44.92227" lon="10.6258933"><ele>25.0</ele><time>2026-03-23T13:52:32.963Z</time></trkpt><trkpt lat="44.9221917" lon="10.6259"><ele>25.000000000000004</ele><time>2026-03-23T13:52:34.964Z</time></trkpt><trkpt lat="44.922115" lon="10.6259217"><ele>25.0</ele><time>2026-03-23T13:52:36.963Z</time></trkpt><trkpt lat="44.92204" lon="10.6259367"><ele>25.000000000000004</ele><time>2026-03-23T13:52:38.963Z</time></trkpt><trkpt lat="44.9219533" lon="10.6259483"><ele>25.0</ele><time>2026-03-23T13:52:40.963Z</time></trkpt><trkpt lat="44.9218767" lon="10.625945"><ele>25.0</ele><time>2026-03-23T13:52:42.963Z</time></trkpt><trkpt lat="44.921805" lon="10.6259417"><ele>25.0</ele><time>2026-03-23T13:52:44.963Z</time></trkpt><trkpt lat="44.9217317" lon="10.625955"><ele>25.000000000000004</ele><time>2026-03-23T13:52:46.963Z</time></trkpt><trkpt lat="44.9216517" lon="10.6259683"><ele>25.0</ele><time>2026-03-23T13:52:48.963Z</time></trkpt><trkpt lat="44.9215717" lon="10.6259833"><ele>25.000000000000004</ele><time>2026-03-23T13:52:50.963Z</time></trkpt><trkpt lat="44.921495" lon="10.6260067"><ele>25.0</ele><time>2026-03-23T13:52:52.964Z</time></trkpt><trkpt lat="44.92141" lon="10.6260117"><ele>25.0</ele><time>2026-03-23T13:52:54.964Z</time></trkpt><trkpt lat="44.9213317" lon="10.6260067"><ele>25.0</ele><time>2026-03-23T13:52:56.964Z</time></trkpt><trkpt lat="44.9212583" lon="10.6260167"><ele>25.000000000000004</ele><time>2026-03-23T13:52:58.964Z</time></trkpt><trkpt lat="44.921175" lon="10.6260333"><ele>25.0</ele><time>2026-03-23T13:53:00.963Z</time></trkpt><trkpt lat="44.9210917" lon="10.6260417"><ele>25.000000000000004</ele><time>2026-03-23T13:53:02.963Z</time></trkpt><trkpt lat="44.92101" lon="10.6260583"><ele>25.0</ele><time>2026-03-23T13:53:04.964Z</time></trkpt><trkpt lat="44.9209283" lon="10.62607"><ele>25.0</ele><time>2026-03-23T13:53:06.964Z</time></trkpt><trkpt lat="44.9208483" lon="10.62609"><ele>25.0</ele><time>2026-03-23T13:53:08.963Z</time></trkpt><trkpt lat="44.9207683" lon="10.6261083"><ele>25.000000000000004</ele><time>2026-03-23T13:53:10.963Z</time></trkpt><trkpt lat="44.9206883" lon="10.6261217"><ele>25.0</ele><time>2026-03-23T13:53:12.964Z</time></trkpt><trkpt lat="44.9206033" lon="10.6261417"><ele>24.333333333333336</ele><time>2026-03-23T13:53:14.963Z</time></trkpt><trkpt lat="44.92052" lon="10.62616"><ele>23.666666666666668</ele><time>2026-03-23T13:53:16.963Z</time></trkpt><trkpt lat="44.9204417" lon="10.6261517"><ele>23.0</ele><time>2026-03-23T13:53:18.964Z</time></trkpt><trkpt lat="44.92036" lon="10.6261633"><ele>22.333333333333336</ele><time>2026-03-23T13:53:20.963Z</time></trkpt><trkpt lat="44.9202767" lon="10.626165"><ele>21.666666666666668</ele><time>2026-03-23T13:53:22.964Z</time></trkpt><trkpt lat="44.9201967" lon="10.6261617"><ele>21.0</ele><time>2026-03-23T13:53:24.964Z</time></trkpt><trkpt lat="44.920115" lon="10.6261667"><ele>21.166666666666668</ele><time>2026-03-23T13:53:26.964Z</time></trkpt><trkpt lat="44.920035" lon="10.6261833"><ele>21.333333333333332</ele><time>2026-03-23T13:53:28.963Z</time></trkpt><trkpt lat="44.9199517" lon="10.6261933"><ele>21.5</ele><time>2026-03-23T13:53:30.963Z</time></trkpt><trkpt lat="44.91987" lon="10.6262133"><ele>21.666666666666664</ele><time>2026-03-23T13:53:32.964Z</time></trkpt><trkpt lat="44.9197817" lon="10.6262333"><ele>21.833333333333332</ele><time>2026-03-23T13:53:34.963Z</time></trkpt><trkpt lat="44.9196983" lon="10.6262467"><ele>22.0</ele><time>2026-03-23T13:53:36.964Z</time></trkpt><trkpt lat="44.91962" lon="10.6262633"><ele>22.0</ele><time>2026-03-23T13:53:38.964Z</time></trkpt><trkpt lat="44.919535" lon="10.6262633"><ele>22.0</ele><time>2026-03-23T13:53:40.964Z</time></trkpt><trkpt lat="44.9194517" lon="10.6262667"><ele>22.0</ele><time>2026-03-23T13:53:42.964Z</time></trkpt><trkpt lat="44.9193717" lon="10.62628"><ele>22.0</ele><time>2026-03-23T13:53:44.964Z</time></trkpt><trkpt lat="44.9192917" lon="10.626295"><ele>22.0</ele><time>2026-03-23T13:53:46.963Z</time></trkpt><trkpt lat="44.9191983" lon="10.6263083"><ele>22.0</ele><time>2026-03-23T13:53:48.963Z</time></trkpt><trkpt lat="44.91911" lon="10.6263183"><ele>22.0</ele><time>2026-03-23T13:53:50.963Z</time></trkpt><trkpt lat="44.9190267" lon="10.626345"><ele>22.0</ele><time>2026-03-23T13:53:52.963Z</time></trkpt><trkpt lat="44.91896" lon="10.6262983"><ele>22.0</ele><time>2026-03-23T13:53:54.964Z</time></trkpt><trkpt lat="44.9189233" lon="10.6261917"><ele>22.0</ele><time>2026-03-23T13:53:56.963Z</time></trkpt><trkpt lat="44.9189183" lon="10.6260867"><ele>22.0</ele><time>2026-03-23T13:53:58.963Z</time></trkpt><trkpt lat="44.918915" lon="10.6259883"><ele>22.0</ele><time>2026-03-23T13:54:00.963Z</time></trkpt><trkpt lat="44.91891" lon="10.625865"><ele>22.0</ele><time>2026-03-23T13:54:03.963Z</time></trkpt><trkpt lat="44.9188967" lon="10.6257717"><ele>22.0</ele><time>2026-03-23T13:54:05.963Z</time></trkpt><trkpt lat="44.9188833" lon="10.6256483"><ele>22.0</ele><time>2026-03-23T13:54:08.963Z</time></trkpt><trkpt lat="44.9188783" lon="10.6255383"><ele>22.0</ele><time>2026-03-23T13:54:11.963Z</time></trkpt><trkpt lat="44.9188833" lon="10.62543"><ele>22.0</ele><time>2026-03-23T13:54:14.963Z</time></trkpt><trkpt lat="44.9188717" lon="10.6253217"><ele>22.0</ele><time>2026-03-23T13:54:17.964Z</time></trkpt><trkpt lat="44.9188633" lon="10.6252067"><ele>22.0</ele><time>2026-03-23T13:54:20.963Z</time></trkpt><trkpt lat="44.9188567" lon="10.6251133"><ele>22.0</ele><time>2026-03-23T13:54:22.964Z</time></trkpt><trkpt lat="44.918845" lon="10.6250183"><ele>22.0</ele><time>2026-03-23T13:54:24.963Z</time></trkpt><trkpt lat="44.91885" lon="10.6249083"><ele>22.0</ele><time>2026-03-23T13:54:27.964Z</time></trkpt><trkpt lat="44.9188333" lon="10.62501"><ele>22.0</ele><time>2026-03-23T13:54:33.964Z</time></trkpt><trkpt lat="44.9188467" lon="10.6251117"><ele>22.0</ele><time>2026-03-23T13:54:35.963Z</time></trkpt><trkpt lat="44.9188567" lon="10.6252217"><ele>22.0</ele><time>2026-03-23T13:54:37.963Z</time></trkpt><trkpt lat="44.918865" lon="10.6253283"><ele>22.0</ele><time>2026-03-23T13:54:39.963Z</time></trkpt><trkpt lat="44.9188783" lon="10.6254233"><ele>22.0</ele><time>2026-03-23T13:54:41.964Z</time></trkpt><trkpt lat="44.91889" lon="10.6255433"><ele>22.0</ele><time>2026-03-23T13:54:43.964Z</time></trkpt><trkpt lat="44.918895" lon="10.6256567"><ele>22.0</ele><time>2026-03-23T13:54:45.964Z</time></trkpt><trkpt lat="44.9188967" lon="10.6257733"><ele>22.0</ele><time>2026-03-23T13:54:47.964Z</time></trkpt><trkpt lat="44.918905" lon="10.6258817"><ele>22.0</ele><time>2026-03-23T13:54:49.963Z</time></trkpt><trkpt lat="44.9189217" lon="10.62599"><ele>22.0</ele><time>2026-03-23T13:54:51.963Z</time></trkpt><trkpt lat="44.91893" lon="10.6261"><ele>22.0</ele><time>2026-03-23T13:54:53.963Z</time></trkpt><trkpt lat="44.9189317" lon="10.6262067"><ele>22.0</ele><time>2026-03-23T13:54:55.964Z</time></trkpt><trkpt lat="44.9189133" lon="10.626305"><ele>22.0</ele><time>2026-03-23T13:54:57.963Z</time></trkpt><trkpt lat="44.9188367" lon="10.626365"><ele>22.0</ele><time>2026-03-23T13:55:00.964Z</time></trkpt><trkpt lat="44.9187667" lon="10.6263533"><ele>22.0</ele><time>2026-03-23T13:55:02.963Z</time></trkpt><trkpt lat="44.9187017" lon="10.6263533"><ele>22.0</ele><time>2026-03-23T13:55:04.963Z</time></trkpt><trkpt lat="44.9186267" lon="10.6263783"><ele>22.5</ele><time>2026-03-23T13:55:07.963Z</time></trkpt><trkpt lat="44.9185433" lon="10.6264"><ele>23.0</ele><time>2026-03-23T13:55:17.964Z</time></trkpt><trkpt lat="44.918475" lon="10.6264083"><ele>23.5</ele><time>2026-03-23T13:55:19.964Z</time></trkpt><trkpt lat="44.9184" lon="10.6264267"><ele>24.0</ele><time>2026-03-23T13:55:21.964Z</time></trkpt><trkpt lat="44.9183217" lon="10.62644"><ele>24.500000000000004</ele><time>2026-03-23T13:55:23.963Z</time></trkpt><trkpt lat="44.9182333" lon="10.6264433"><ele>25.0</ele><time>2026-03-23T13:55:25.963Z</time></trkpt><trkpt lat="44.9181517" lon="10.6264433"><ele>25.166666666666668</ele><time>2026-03-23T13:55:27.964Z</time></trkpt><trkpt lat="44.9180767" lon="10.6264583"><ele>25.333333333333336</ele><time>2026-03-23T13:55:29.963Z</time></trkpt><trkpt lat="44.9180017" lon="10.6264683"><ele>25.5</ele><time>2026-03-23T13:55:31.964Z</time></trkpt><trkpt lat="44.9179183" lon="10.6264767"><ele>25.666666666666664</ele><time>2026-03-23T13:55:33.963Z</time></trkpt><trkpt lat="44.9178333" lon="10.6264833"><ele>25.833333333333332</ele><time>2026-03-23T13:55:35.963Z</time></trkpt><trkpt lat="44.9177533" lon="10.6265033"><ele>26.0</ele><time>2026-03-23T13:55:37.963Z</time></trkpt><trkpt lat="44.9176717" lon="10.6265167"><ele>25.999999999999996</ele><time>2026-03-23T13:55:39.963Z</time></trkpt><trkpt lat="44.9175883" lon="10.6265417"><ele>26.0</ele><time>2026-03-23T13:55:41.963Z</time></trkpt><trkpt lat="44.9175" lon="10.6265583"><ele>26.0</ele><time>2026-03-23T13:55:43.964Z</time></trkpt><trkpt lat="44.9174183" lon="10.62657"><ele>26.0</ele><time>2026-03-23T13:55:45.964Z</time></trkpt><trkpt lat="44.9173367" lon="10.6265733"><ele>25.999999999999996</ele><time>2026-03-23T13:55:47.964Z</time></trkpt><trkpt lat="44.9172583" lon="10.62659"><ele>26.0</ele><time>2026-03-23T13:55:49.964Z</time></trkpt><trkpt lat="44.9171683" lon="10.626605"><ele>25.999999999999996</ele><time>2026-03-23T13:55:51.963Z</time></trkpt><trkpt lat="44.917085" lon="10.6266183"><ele>26.0</ele><time>2026-03-23T13:55:53.964Z</time></trkpt><trkpt lat="44.9169983" lon="10.62664"><ele>26.0</ele><time>2026-03-23T13:55:55.964Z</time></trkpt><trkpt lat="44.9169133" lon="10.6266583"><ele>26.0</ele><time>2026-03-23T13:55:57.963Z</time></trkpt><trkpt lat="44.91683" lon="10.6266617"><ele>25.999999999999996</ele><time>2026-03-23T13:55:59.964Z</time></trkpt><trkpt lat="44.91674" lon="10.6266733"><ele>26.0</ele><time>2026-03-23T13:56:01.963Z</time></trkpt><trkpt lat="44.9166567" lon="10.6266817"><ele>25.999999999999996</ele><time>2026-03-23T13:56:03.964Z</time></trkpt><trkpt lat="44.9165717" lon="10.6266967"><ele>26.0</ele><time>2026-03-23T13:56:05.964Z</time></trkpt><trkpt lat="44.9164867" lon="10.6267183"><ele>26.0</ele><time>2026-03-23T13:56:07.964Z</time></trkpt><trkpt lat="44.9164" lon="10.62673"><ele>26.0</ele><time>2026-03-23T13:56:09.963Z</time></trkpt><trkpt lat="44.91632" lon="10.626745"><ele>25.999999999999996</ele><time>2026-03-23T13:56:11.963Z</time></trkpt><trkpt lat="44.9162383" lon="10.626755"><ele>26.0</ele><time>2026-03-23T13:56:13.963Z</time></trkpt><trkpt lat="44.91616" lon="10.6267733"><ele>25.999999999999996</ele><time>2026-03-23T13:56:15.963Z</time></trkpt><trkpt lat="44.9160783" lon="10.62679"><ele>26.0</ele><time>2026-03-23T13:56:17.964Z</time></trkpt><trkpt lat="44.9159967" lon="10.6267933"><ele>26.0</ele><time>2026-03-23T13:56:19.964Z</time></trkpt><trkpt lat="44.9159217" lon="10.6267983"><ele>26.0</ele><time>2026-03-23T13:56:21.964Z</time></trkpt><trkpt lat="44.915835" lon="10.626815"><ele>25.999999999999996</ele><time>2026-03-23T13:56:23.964Z</time></trkpt><trkpt lat="44.915755" lon="10.6268317"><ele>26.0</ele><time>2026-03-23T13:56:25.963Z</time></trkpt><trkpt lat="44.9156667" lon="10.6268367"><ele>26.499999999999996</ele><time>2026-03-23T13:56:27.963Z</time></trkpt><trkpt lat="44.91559" lon="10.626845"><ele>27.0</ele><time>2026-03-23T13:56:29.964Z</time></trkpt><trkpt lat="44.91551" lon="10.6268583"><ele>27.5</ele><time>2026-03-23T13:56:31.963Z</time></trkpt><trkpt lat="44.9154267" lon="10.6268783"><ele>28.0</ele><time>2026-03-23T13:56:33.963Z</time></trkpt><trkpt lat="44.9153517" lon="10.626885"><ele>28.499999999999996</ele><time>2026-03-23T13:56:35.964Z</time></trkpt><trkpt lat="44.91527" lon="10.6268967"><ele>29.0</ele><time>2026-03-23T13:56:37.963Z</time></trkpt><trkpt lat="44.91519" lon="10.6269133"><ele>28.999999999999996</ele><time>2026-03-23T13:56:39.963Z</time></trkpt><trkpt lat="44.915115" lon="10.6269233"><ele>29.0</ele><time>2026-03-23T13:56:41.964Z</time></trkpt><trkpt lat="44.9150383" lon="10.6269483"><ele>29.0</ele><time>2026-03-23T13:56:43.963Z</time></trkpt><trkpt lat="44.9149517" lon="10.626955"><ele>29.0</ele><time>2026-03-23T13:56:45.963Z</time></trkpt><trkpt lat="44.9148683" lon="10.6269667"><ele>28.999999999999996</ele><time>2026-03-23T13:56:47.963Z</time></trkpt><trkpt lat="44.9147933" lon="10.6269867"><ele>29.0</ele><time>2026-03-23T13:56:49.964Z</time></trkpt><trkpt lat="44.914715" lon="10.627"><ele>28.999999999999996</ele><time>2026-03-23T13:56:51.963Z</time></trkpt><trkpt lat="44.9146333" lon="10.6270117"><ele>29.0</ele><time>2026-03-23T13:56:53.964Z</time></trkpt><trkpt lat="44.91456" lon="10.6270333"><ele>29.0</ele><time>2026-03-23T13:56:55.964Z</time></trkpt><trkpt lat="44.91448" lon="10.6270483"><ele>29.0</ele><time>2026-03-23T13:56:57.963Z</time></trkpt><trkpt lat="44.9144" lon="10.6270583"><ele>28.999999999999996</ele><time>2026-03-23T13:56:59.964Z</time></trkpt><trkpt lat="44.9143233" lon="10.6270717"><ele>29.0</ele><time>2026-03-23T13:57:01.964Z</time></trkpt><trkpt lat="44.91425" lon="10.62707"><ele>28.71428571428572</ele><time>2026-03-23T13:57:03.964Z</time></trkpt><trkpt lat="44.914175" lon="10.6270767"><ele>28.42857142857143</ele><time>2026-03-23T13:57:05.964Z</time></trkpt><trkpt lat="44.9140983" lon="10.6270933"><ele>28.142857142857146</ele><time>2026-03-23T13:57:07.963Z</time></trkpt><trkpt lat="44.914025" lon="10.6271067"><ele>27.85714285714286</ele><time>2026-03-23T13:57:09.963Z</time></trkpt><trkpt lat="44.913955" lon="10.62712"><ele>27.57142857142857</ele><time>2026-03-23T13:57:11.964Z</time></trkpt><trkpt lat="44.9138883" lon="10.6271317"><ele>27.285714285714285</ele><time>2026-03-23T13:57:13.964Z</time></trkpt><trkpt lat="44.9138183" lon="10.6271333"><ele>27.0</ele><time>2026-03-23T13:57:15.963Z</time></trkpt><trkpt lat="44.91375" lon="10.6271483"><ele>27.0</ele><time>2026-03-23T13:57:17.963Z</time></trkpt><trkpt lat="44.9136617" lon="10.6271417"><ele>27.0</ele><time>2026-03-23T13:57:20.963Z</time></trkpt><trkpt lat="44.91362" lon="10.6270717"><ele>27.0</ele><time>2026-03-23T13:57:22.963Z</time></trkpt><trkpt lat="44.9135983" lon="10.626975"><ele>27.0</ele><time>2026-03-23T13:57:24.963Z</time></trkpt><trkpt lat="44.9135983" lon="10.62687"><ele>27.0</ele><time>2026-03-23T13:57:26.964Z</time></trkpt><trkpt lat="44.9135983" lon="10.6267617"><ele>27.0</ele><time>2026-03-23T13:57:28.964Z</time></trkpt><trkpt lat="44.9136033" lon="10.6266633"><ele>27.0</ele><time>2026-03-23T13:57:30.963Z</time></trkpt><trkpt lat="44.9136033" lon="10.6265583"><ele>26.5</ele><time>2026-03-23T13:57:32.963Z</time></trkpt><trkpt lat="44.9136033" lon="10.6264417"><ele>26.0</ele><time>2026-03-23T13:57:34.963Z</time></trkpt><trkpt lat="44.9136083" lon="10.626335"><ele>25.5</ele><time>2026-03-23T13:57:36.964Z</time></trkpt><trkpt lat="44.91362" lon="10.6262233"><ele>25.0</ele><time>2026-03-23T13:57:38.964Z</time></trkpt><trkpt lat="44.9136233" lon="10.6261133"><ele>24.5</ele><time>2026-03-23T13:57:40.963Z</time></trkpt><trkpt lat="44.9136183" lon="10.6259933"><ele>24.0</ele><time>2026-03-23T13:57:42.963Z</time></trkpt><trkpt lat="44.9136233" lon="10.6258683"><ele>23.5</ele><time>2026-03-23T13:57:44.963Z</time></trkpt><trkpt lat="44.9136217" lon="10.625745"><ele>23.0</ele><time>2026-03-23T13:57:46.963Z</time></trkpt><trkpt lat="44.9136233" lon="10.6256283"><ele>22.5</ele><time>2026-03-23T13:57:48.965Z</time></trkpt><trkpt lat="44.91363" lon="10.6255117"><ele>22.0</ele><time>2026-03-23T13:57:50.964Z</time></trkpt><trkpt lat="44.913625" lon="10.6253983"><ele>21.5</ele><time>2026-03-23T13:57:52.964Z</time></trkpt><trkpt lat="44.913625" lon="10.625275"><ele>21.0</ele><time>2026-03-23T13:57:54.965Z</time></trkpt><trkpt lat="44.91363" lon="10.62515"><ele>21.0</ele><time>2026-03-23T13:57:56.964Z</time></trkpt><trkpt lat="44.9136317" lon="10.6250367"><ele>21.0</ele><time>2026-03-23T13:57:58.964Z</time></trkpt><trkpt lat="44.9136383" lon="10.6249183"><ele>21.0</ele><time>2026-03-23T13:58:00.965Z</time></trkpt><trkpt lat="44.9136367" lon="10.6248033"><ele>21.0</ele><time>2026-03-23T13:58:02.965Z</time></trkpt><trkpt lat="44.9136467" lon="10.62469"><ele>21.0</ele><time>2026-03-23T13:58:04.964Z</time></trkpt><trkpt lat="44.91365" lon="10.6245717"><ele>21.0</ele><time>2026-03-23T13:58:06.965Z</time></trkpt><trkpt lat="44.9136517" lon="10.6244533"><ele>21.166666666666668</ele><time>2026-03-23T13:58:08.964Z</time></trkpt><trkpt lat="44.9136617" lon="10.62433"><ele>21.333333333333332</ele><time>2026-03-23T13:58:10.965Z</time></trkpt><trkpt lat="44.9136617" lon="10.6242133"><ele>21.5</ele><time>2026-03-23T13:58:12.964Z</time></trkpt><trkpt lat="44.9136667" lon="10.624095"><ele>21.666666666666664</ele><time>2026-03-23T13:58:14.965Z</time></trkpt><trkpt lat="44.9136667" lon="10.6239733"><ele>21.833333333333332</ele><time>2026-03-23T13:58:16.964Z</time></trkpt><trkpt lat="44.9136683" lon="10.62386"><ele>22.0</ele><time>2026-03-23T13:58:18.965Z</time></trkpt><trkpt lat="44.9136817" lon="10.6237483"><ele>22.0</ele><time>2026-03-23T13:58:20.964Z</time></trkpt><trkpt lat="44.9136967" lon="10.6236367"><ele>22.0</ele><time>2026-03-23T13:58:22.965Z</time></trkpt><trkpt lat="44.9136983" lon="10.623525"><ele>22.0</ele><time>2026-03-23T13:58:24.964Z</time></trkpt><trkpt lat="44.9137183" lon="10.6234233"><ele>22.0</ele><time>2026-03-23T13:58:26.965Z</time></trkpt><trkpt lat="44.9137183" lon="10.6233167"><ele>22.0</ele><time>2026-03-23T13:58:28.964Z</time></trkpt><trkpt lat="44.9137317" lon="10.62322"><ele>22.0</ele><time>2026-03-23T13:58:30.964Z</time></trkpt><trkpt lat="44.91374" lon="10.623115"><ele>22.0</ele><time>2026-03-23T13:58:32.964Z</time></trkpt><trkpt lat="44.913765" lon="10.6230117"><ele>22.0</ele><time>2026-03-23T13:58:34.964Z</time></trkpt><trkpt lat="44.91378" lon="10.62291"><ele>22.0</ele><time>2026-03-23T13:58:36.964Z</time></trkpt><trkpt lat="44.9137933" lon="10.6228083"><ele>22.0</ele><time>2026-03-23T13:58:38.965Z</time></trkpt><trkpt lat="44.9138017" lon="10.6227"><ele>22.0</ele><time>2026-03-23T13:58:40.964Z</time></trkpt><trkpt lat="44.9138183" lon="10.622585"><ele>22.0</ele><time>2026-03-23T13:58:42.964Z</time></trkpt><trkpt lat="44.9138317" lon="10.6224817"><ele>21.833333333333332</ele><time>2026-03-23T13:58:44.964Z</time></trkpt><trkpt lat="44.9138383" lon="10.622365"><ele>21.666666666666664</ele><time>2026-03-23T13:58:46.965Z</time></trkpt><trkpt lat="44.9138583" lon="10.6222533"><ele>21.5</ele><time>2026-03-23T13:58:48.965Z</time></trkpt><trkpt lat="44.9138783" lon="10.6221417"><ele>21.333333333333332</ele><time>2026-03-23T13:58:50.964Z</time></trkpt><trkpt lat="44.9138883" lon="10.622025"><ele>21.166666666666668</ele><time>2026-03-23T13:58:52.965Z</time></trkpt><trkpt lat="44.91393" lon="10.62193"><ele>21.0</ele><time>2026-03-23T13:58:54.965Z</time></trkpt><trkpt lat="44.9139883" lon="10.6218483"><ele>21.5</ele><time>2026-03-23T13:58:56.964Z</time></trkpt><trkpt lat="44.9140517" lon="10.621775"><ele>22.0</ele><time>2026-03-23T13:58:58.964Z</time></trkpt><trkpt lat="44.9141033" lon="10.6217017"><ele>22.5</ele><time>2026-03-23T13:59:00.964Z</time></trkpt><trkpt lat="44.914155" lon="10.6216267"><ele>23.0</ele><time>2026-03-23T13:59:02.964Z</time></trkpt><trkpt lat="44.9142017" lon="10.621555"><ele>23.5</ele><time>2026-03-23T13:59:04.965Z</time></trkpt><trkpt lat="44.9142583" lon="10.6214633"><ele>24.0</ele><time>2026-03-23T13:59:06.964Z</time></trkpt><trkpt lat="44.9143183" lon="10.6213883"><ele>24.166666666666668</ele><time>2026-03-23T13:59:08.964Z</time></trkpt><trkpt lat="44.914355" lon="10.621295"><ele>24.333333333333336</ele><time>2026-03-23T13:59:10.964Z</time></trkpt><trkpt lat="44.9143517" lon="10.62118"><ele>24.5</ele><time>2026-03-23T13:59:12.964Z</time></trkpt><trkpt lat="44.9143467" lon="10.6210617"><ele>24.666666666666668</ele><time>2026-03-23T13:59:14.964Z</time></trkpt><trkpt lat="44.91434" lon="10.6209383"><ele>24.833333333333336</ele><time>2026-03-23T13:59:16.965Z</time></trkpt><trkpt lat="44.914325" lon="10.6208267"><ele>25.0</ele><time>2026-03-23T13:59:18.964Z</time></trkpt><trkpt lat="44.9143133" lon="10.6207117"><ele>24.833333333333336</ele><time>2026-03-23T13:59:20.965Z</time></trkpt><trkpt lat="44.9143017" lon="10.6205933"><ele>24.666666666666668</ele><time>2026-03-23T13:59:22.965Z</time></trkpt><trkpt lat="44.9142833" lon="10.6204867"><ele>24.5</ele><time>2026-03-23T13:59:24.964Z</time></trkpt><trkpt lat="44.9142667" lon="10.6203883"><ele>24.333333333333336</ele><time>2026-03-23T13:59:26.964Z</time></trkpt><trkpt lat="44.91425" lon="10.6202883"><ele>24.166666666666668</ele><time>2026-03-23T13:59:28.964Z</time></trkpt><trkpt lat="44.9142333" lon="10.6201767"><ele>24.0</ele><time>2026-03-23T13:59:30.964Z</time></trkpt><trkpt lat="44.9142133" lon="10.6200833"><ele>24.666666666666668</ele><time>2026-03-23T13:59:32.965Z</time></trkpt><trkpt lat="44.91419" lon="10.6199683"><ele>25.333333333333336</ele><time>2026-03-23T13:59:34.965Z</time></trkpt><trkpt lat="44.9141733" lon="10.6198617"><ele>26.0</ele><time>2026-03-23T13:59:36.965Z</time></trkpt><trkpt lat="44.9141567" lon="10.6197517"><ele>26.666666666666668</ele><time>2026-03-23T13:59:38.965Z</time></trkpt><trkpt lat="44.9141483" lon="10.619635"><ele>27.333333333333336</ele><time>2026-03-23T13:59:40.964Z</time></trkpt><trkpt lat="44.9141333" lon="10.6195167"><ele>28.0</ele><time>2026-03-23T13:59:42.965Z</time></trkpt><trkpt lat="44.914115" lon="10.6194083"><ele>28.166666666666668</ele><time>2026-03-23T13:59:44.965Z</time></trkpt><trkpt lat="44.9140883" lon="10.6193033"><ele>28.333333333333336</ele><time>2026-03-23T13:59:46.964Z</time></trkpt><trkpt lat="44.9140567" lon="10.6192033"><ele>28.5</ele><time>2026-03-23T13:59:48.964Z</time></trkpt><trkpt lat="44.9140083" lon="10.61911"><ele>28.666666666666664</ele><time>2026-03-23T13:59:50.964Z</time></trkpt><trkpt lat="44.9139633" lon="10.6190267"><ele>28.833333333333332</ele><time>2026-03-23T13:59:52.964Z</time></trkpt><trkpt lat="44.9139083" lon="10.6189333"><ele>29.0</ele><time>2026-03-23T13:59:54.965Z</time></trkpt><trkpt lat="44.9138533" lon="10.61886"><ele>28.999999999999996</ele><time>2026-03-23T13:59:56.964Z</time></trkpt><trkpt lat="44.9138017" lon="10.6187667"><ele>29.0</ele><time>2026-03-23T13:59:58.964Z</time></trkpt><trkpt lat="44.9137683" lon="10.618655"><ele>29.0</ele><time>2026-03-23T14:00:00.964Z</time></trkpt><trkpt lat="44.9137683" lon="10.61854"><ele>29.0</ele><time>2026-03-23T14:00:02.964Z</time></trkpt><trkpt lat="44.9137817" lon="10.6184317"><ele>28.999999999999996</ele><time>2026-03-23T14:00:04.965Z</time></trkpt><trkpt lat="44.9138033" lon="10.6183217"><ele>29.0</ele><time>2026-03-23T14:00:06.964Z</time></trkpt><trkpt lat="44.913825" lon="10.6182167"><ele>28.499999999999996</ele><time>2026-03-23T14:00:08.965Z</time></trkpt><trkpt lat="44.9138533" lon="10.61811"><ele>28.0</ele><time>2026-03-23T14:00:10.964Z</time></trkpt><trkpt lat="44.9138867" lon="10.6180117"><ele>27.5</ele><time>2026-03-23T14:00:12.964Z</time></trkpt><trkpt lat="44.913915" lon="10.61791"><ele>27.0</ele><time>2026-03-23T14:00:14.964Z</time></trkpt><trkpt lat="44.9139433" lon="10.617805"><ele>26.499999999999996</ele><time>2026-03-23T14:00:16.964Z</time></trkpt><trkpt lat="44.9139783" lon="10.6177083"><ele>26.0</ele><time>2026-03-23T14:00:18.964Z</time></trkpt><trkpt lat="44.9140067" lon="10.61761"><ele>25.999999999999996</ele><time>2026-03-23T14:00:20.965Z</time></trkpt><trkpt lat="44.91403" lon="10.617495"><ele>26.0</ele><time>2026-03-23T14:00:22.964Z</time></trkpt><trkpt lat="44.9140483" lon="10.6173767"><ele>26.0</ele><time>2026-03-23T14:00:24.965Z</time></trkpt><trkpt lat="44.914045" lon="10.6172667"><ele>26.0</ele><time>2026-03-23T14:00:26.965Z</time></trkpt><trkpt lat="44.9140267" lon="10.6171667"><ele>25.999999999999996</ele><time>2026-03-23T14:00:28.964Z</time></trkpt><trkpt lat="44.914015" lon="10.617065"><ele>26.0</ele><time>2026-03-23T14:00:30.964Z</time></trkpt><trkpt lat="44.9139883" lon="10.6169667"><ele>25.833333333333332</ele><time>2026-03-23T14:00:32.964Z</time></trkpt><trkpt lat="44.9139617" lon="10.6168567"><ele>25.666666666666664</ele><time>2026-03-23T14:00:34.965Z</time></trkpt><trkpt lat="44.91394" lon="10.616745"><ele>25.5</ele><time>2026-03-23T14:00:36.964Z</time></trkpt><trkpt lat="44.91392" lon="10.6166417"><ele>25.333333333333336</ele><time>2026-03-23T14:00:38.964Z</time></trkpt><trkpt lat="44.9138983" lon="10.6165383"><ele>25.166666666666668</ele><time>2026-03-23T14:00:40.965Z</time></trkpt><trkpt lat="44.91388" lon="10.6164417"><ele>25.0</ele><time>2026-03-23T14:00:42.965Z</time></trkpt><trkpt lat="44.9138683" lon="10.61633"><ele>25.000000000000004</ele><time>2026-03-23T14:00:44.965Z</time></trkpt><trkpt lat="44.9138783" lon="10.61622"><ele>25.0</ele><time>2026-03-23T14:00:46.964Z</time></trkpt><trkpt lat="44.91391" lon="10.6161283"><ele>25.0</ele><time>2026-03-23T14:00:48.964Z</time></trkpt><trkpt lat="44.9139517" lon="10.6160317"><ele>25.0</ele><time>2026-03-23T14:00:50.965Z</time></trkpt><trkpt lat="44.9139883" lon="10.6159217"><ele>25.000000000000004</ele><time>2026-03-23T14:00:52.964Z</time></trkpt><trkpt lat="44.9140233" lon="10.6158267"><ele>25.0</ele><time>2026-03-23T14:00:54.964Z</time></trkpt><trkpt lat="44.9140583" lon="10.6157333"><ele>24.714285714285715</ele><time>2026-03-23T14:00:56.965Z</time></trkpt><trkpt lat="44.9140933" lon="10.61565"><ele>24.42857142857143</ele><time>2026-03-23T14:00:58.964Z</time></trkpt><trkpt lat="44.9141267" lon="10.6155567"><ele>24.142857142857146</ele><time>2026-03-23T14:01:00.964Z</time></trkpt><trkpt lat="44.9141667" lon="10.6154467"><ele>23.857142857142858</ele><time>2026-03-23T14:01:03.965Z</time></trkpt><trkpt lat="44.9141917" lon="10.615365"><ele>23.57142857142857</ele><time>2026-03-23T14:01:05.964Z</time></trkpt><trkpt lat="44.9142183" lon="10.6152733"><ele>23.28571428571429</ele><time>2026-03-23T14:01:07.965Z</time></trkpt><trkpt lat="44.9142583" lon="10.615175"><ele>23.0</ele><time>2026-03-23T14:01:09.965Z</time></trkpt><trkpt lat="44.9142967" lon="10.6150783"><ele>23.0</ele><time>2026-03-23T14:01:11.965Z</time></trkpt><trkpt lat="44.9143333" lon="10.61498"><ele>23.0</ele><time>2026-03-23T14:01:13.965Z</time></trkpt><trkpt lat="44.914365" lon="10.614885"><ele>23.0</ele><time>2026-03-23T14:01:15.965Z</time></trkpt><trkpt lat="44.9143967" lon="10.6147917"><ele>23.0</ele><time>2026-03-23T14:01:17.965Z</time></trkpt><trkpt lat="44.9144333" lon="10.6146933"><ele>23.0</ele><time>2026-03-23T14:01:19.964Z</time></trkpt><trkpt lat="44.9144683" lon="10.614585"><ele>23.0</ele><time>2026-03-23T14:01:21.964Z</time></trkpt><trkpt lat="44.9145083" lon="10.6144867"><ele>23.5</ele><time>2026-03-23T14:01:23.964Z</time></trkpt><trkpt lat="44.9145517" lon="10.61439"><ele>24.0</ele><time>2026-03-23T14:01:25.965Z</time></trkpt><trkpt lat="44.9145733" lon="10.6142833"><ele>24.5</ele><time>2026-03-23T14:01:27.965Z</time></trkpt><trkpt lat="44.914585" lon="10.6141867"><ele>25.0</ele><time>2026-03-23T14:01:29.964Z</time></trkpt><trkpt lat="44.91457" lon="10.614085"><ele>25.499999999999996</ele><time>2026-03-23T14:01:31.965Z</time></trkpt><trkpt lat="44.91455" lon="10.61398"><ele>26.0</ele><time>2026-03-23T14:01:33.965Z</time></trkpt><trkpt lat="44.91452" lon="10.61386"><ele>25.999999999999996</ele><time>2026-03-23T14:01:35.965Z</time></trkpt><trkpt lat="44.9144833" lon="10.6137617"><ele>26.0</ele><time>2026-03-23T14:01:37.965Z</time></trkpt><trkpt lat="44.9144417" lon="10.6136683"><ele>26.0</ele><time>2026-03-23T14:01:39.965Z</time></trkpt><trkpt lat="44.91441" lon="10.6135733"><ele>26.0</ele><time>2026-03-23T14:01:41.964Z</time></trkpt><trkpt lat="44.9143817" lon="10.61347"><ele>25.999999999999996</ele><time>2026-03-23T14:01:43.964Z</time></trkpt><trkpt lat="44.914355" lon="10.61337"><ele>26.0</ele><time>2026-03-23T14:01:45.964Z</time></trkpt><trkpt lat="44.9143317" lon="10.61328"><ele>26.0</ele><time>2026-03-23T14:01:47.964Z</time></trkpt><trkpt lat="44.914305" lon="10.6131967"><ele>26.0</ele><time>2026-03-23T14:01:49.965Z</time></trkpt><trkpt lat="44.9142617" lon="10.613085"><ele>26.0</ele><time>2026-03-23T14:02:15.964Z</time></trkpt><trkpt lat="44.91423" lon="10.6129783"><ele>26.0</ele><time>2026-03-23T14:02:18.964Z</time></trkpt><trkpt lat="44.9142017" lon="10.61289"><ele>26.0</ele><time>2026-03-23T14:02:20.965Z</time></trkpt><trkpt lat="44.9141733" lon="10.6128017"><ele>26.0</ele><time>2026-03-23T14:02:22.965Z</time></trkpt><trkpt lat="44.9141567" lon="10.6127067"><ele>26.0</ele><time>2026-03-23T14:02:24.965Z</time></trkpt><trkpt lat="44.9141283" lon="10.6126183"><ele>26.285714285714285</ele><time>2026-03-23T14:02:26.964Z</time></trkpt><trkpt lat="44.914105" lon="10.6125333"><ele>26.571428571428573</ele><time>2026-03-23T14:02:28.964Z</time></trkpt><trkpt lat="44.9140867" lon="10.6124367"><ele>26.857142857142858</ele><time>2026-03-23T14:02:30.965Z</time></trkpt><trkpt lat="44.9140633" lon="10.6123367"><ele>27.142857142857142</ele><time>2026-03-23T14:02:32.965Z</time></trkpt><trkpt lat="44.9140367" lon="10.6122383"><ele>27.42857142857143</ele><time>2026-03-23T14:02:34.964Z</time></trkpt><trkpt lat="44.9140067" lon="10.61214"><ele>27.714285714285715</ele><time>2026-03-23T14:02:36.964Z</time></trkpt><trkpt lat="44.91398" lon="10.6120433"><ele>28.0</ele><time>2026-03-23T14:02:38.965Z</time></trkpt><trkpt lat="44.9139533" lon="10.61196"><ele>28.142857142857142</ele><time>2026-03-23T14:02:40.964Z</time></trkpt><trkpt lat="44.91393" lon="10.6118717"><ele>28.285714285714285</ele><time>2026-03-23T14:02:42.965Z</time></trkpt><trkpt lat="44.9139067" lon="10.61177"><ele>28.42857142857143</ele><time>2026-03-23T14:02:44.964Z</time></trkpt><trkpt lat="44.91388" lon="10.61167"><ele>28.571428571428573</ele><time>2026-03-23T14:02:46.965Z</time></trkpt><trkpt lat="44.9138567" lon="10.6115767"><ele>28.714285714285715</ele><time>2026-03-23T14:02:48.964Z</time></trkpt><trkpt lat="44.91383" lon="10.6114783"><ele>28.85714285714286</ele><time>2026-03-23T14:02:50.964Z</time></trkpt><trkpt lat="44.913805" lon="10.6113783"><ele>29.000000000000004</ele><time>2026-03-23T14:02:52.964Z</time></trkpt><trkpt lat="44.91379" lon="10.6112783"><ele>28.999999999999996</ele><time>2026-03-23T14:02:54.964Z</time></trkpt><trkpt lat="44.9137717" lon="10.6111867"><ele>29.0</ele><time>2026-03-23T14:02:56.965Z</time></trkpt><trkpt lat="44.9137417" lon="10.6110867"><ele>29.0</ele><time>2026-03-23T14:02:58.964Z</time></trkpt><trkpt lat="44.9137167" lon="10.6109817"><ele>29.0</ele><time>2026-03-23T14:03:00.965Z</time></trkpt><trkpt lat="44.91369" lon="10.6108683"><ele>28.999999999999996</ele><time>2026-03-23T14:03:02.965Z</time></trkpt><trkpt lat="44.91367" lon="10.6107783"><ele>29.0</ele><time>2026-03-23T14:03:04.964Z</time></trkpt><trkpt lat="44.91365" lon="10.6106733"><ele>28.999999999999996</ele><time>2026-03-23T14:03:06.965Z</time></trkpt><trkpt lat="44.91363" lon="10.6105683"><ele>29.0</ele><time>2026-03-23T14:03:08.964Z</time></trkpt><trkpt lat="44.9136183" lon="10.6104683"><ele>29.0</ele><time>2026-03-23T14:03:10.964Z</time></trkpt><trkpt lat="44.913615" lon="10.6103533"><ele>29.0</ele><time>2026-03-23T14:03:12.964Z</time></trkpt><trkpt lat="44.9136133" lon="10.6102333"><ele>28.999999999999996</ele><time>2026-03-23T14:03:14.965Z</time></trkpt><trkpt lat="44.9136167" lon="10.610125"><ele>29.0</ele><time>2026-03-23T14:03:16.965Z</time></trkpt><trkpt lat="44.913615" lon="10.6100217"><ele>28.666666666666664</ele><time>2026-03-23T14:03:18.964Z</time></trkpt><trkpt lat="44.9136183" lon="10.60991"><ele>28.333333333333332</ele><time>2026-03-23T14:03:20.965Z</time></trkpt><trkpt lat="44.913625" lon="10.6097983"><ele>28.0</ele><time>2026-03-23T14:03:22.964Z</time></trkpt><trkpt lat="44.9136283" lon="10.6096883"><ele>27.666666666666664</ele><time>2026-03-23T14:03:24.964Z</time></trkpt><trkpt lat="44.9136267" lon="10.609585"><ele>27.333333333333332</ele><time>2026-03-23T14:03:26.964Z</time></trkpt><trkpt lat="44.9136333" lon="10.609485"><ele>27.0</ele><time>2026-03-23T14:03:28.964Z</time></trkpt><trkpt lat="44.9136333" lon="10.6093817"><ele>26.428571428571427</ele><time>2026-03-23T14:03:30.965Z</time></trkpt><trkpt lat="44.913635" lon="10.6092767"><ele>25.857142857142854</ele><time>2026-03-23T14:03:32.964Z</time></trkpt><trkpt lat="44.913635" lon="10.6091717"><ele>25.285714285714285</ele><time>2026-03-23T14:03:34.965Z</time></trkpt><trkpt lat="44.9136183" lon="10.6090717"><ele>24.714285714285715</ele><time>2026-03-23T14:03:36.965Z</time></trkpt><trkpt lat="44.9136017" lon="10.60897"><ele>24.142857142857142</ele><time>2026-03-23T14:03:38.965Z</time></trkpt><trkpt lat="44.913585" lon="10.6088667"><ele>23.571428571428573</ele><time>2026-03-23T14:03:40.964Z</time></trkpt><trkpt lat="44.9135633" lon="10.6087667"><ele>23.0</ele><time>2026-03-23T14:03:42.965Z</time></trkpt><trkpt lat="44.9135467" lon="10.6086683"><ele>23.333333333333336</ele><time>2026-03-23T14:03:44.965Z</time></trkpt><trkpt lat="44.9135183" lon="10.6085783"><ele>23.666666666666668</ele><time>2026-03-23T14:03:46.964Z</time></trkpt><trkpt lat="44.9134783" lon="10.6084767"><ele>24.0</ele><time>2026-03-23T14:03:48.964Z</time></trkpt><trkpt lat="44.91344" lon="10.6083733"><ele>24.333333333333336</ele><time>2026-03-23T14:03:50.964Z</time></trkpt><trkpt lat="44.9134017" lon="10.6082767"><ele>24.666666666666668</ele><time>2026-03-23T14:03:52.964Z</time></trkpt><trkpt lat="44.9133533" lon="10.6081767"><ele>25.0</ele><time>2026-03-23T14:03:54.965Z</time></trkpt><trkpt lat="44.9133117" lon="10.6080867"><ele>25.000000000000004</ele><time>2026-03-23T14:03:56.964Z</time></trkpt><trkpt lat="44.9132667" lon="10.6079983"><ele>25.0</ele><time>2026-03-23T14:03:58.965Z</time></trkpt><trkpt lat="44.913225" lon="10.6078967"><ele>25.0</ele><time>2026-03-23T14:04:00.965Z</time></trkpt><trkpt lat="44.9131733" lon="10.6077883"><ele>25.0</ele><time>2026-03-23T14:04:02.964Z</time></trkpt><trkpt lat="44.9131217" lon="10.607685"><ele>25.000000000000004</ele><time>2026-03-23T14:04:04.964Z</time></trkpt><trkpt lat="44.9130667" lon="10.607595"><ele>25.0</ele><time>2026-03-23T14:04:06.964Z</time></trkpt><trkpt lat="44.9130067" lon="10.6075017"><ele>25.166666666666668</ele><time>2026-03-23T14:04:08.964Z</time></trkpt><trkpt lat="44.9129533" lon="10.6074133"><ele>25.333333333333336</ele><time>2026-03-23T14:04:10.965Z</time></trkpt><trkpt lat="44.91289" lon="10.60733"><ele>25.5</ele><time>2026-03-23T14:04:12.964Z</time></trkpt><trkpt lat="44.912835" lon="10.6072417"><ele>25.666666666666664</ele><time>2026-03-23T14:04:14.965Z</time></trkpt><trkpt lat="44.9127783" lon="10.6071467"><ele>25.833333333333332</ele><time>2026-03-23T14:04:16.964Z</time></trkpt><trkpt lat="44.9127183" lon="10.6070517"><ele>26.0</ele><time>2026-03-23T14:04:18.964Z</time></trkpt><trkpt lat="44.912655" lon="10.606965"><ele>25.666666666666664</ele><time>2026-03-23T14:04:20.964Z</time></trkpt><trkpt lat="44.9126" lon="10.6068783"><ele>25.333333333333332</ele><time>2026-03-23T14:04:22.964Z</time></trkpt><trkpt lat="44.9125417" lon="10.606795"><ele>25.0</ele><time>2026-03-23T14:04:24.965Z</time></trkpt><trkpt lat="44.9124767" lon="10.6067117"><ele>24.666666666666664</ele><time>2026-03-23T14:04:26.965Z</time></trkpt><trkpt lat="44.9124167" lon="10.6066133"><ele>24.333333333333332</ele><time>2026-03-23T14:04:28.965Z</time></trkpt><trkpt lat="44.91236" lon="10.6065283"><ele>24.0</ele><time>2026-03-23T14:04:30.964Z</time></trkpt><trkpt lat="44.9123033" lon="10.6064383"><ele>24.0</ele><time>2026-03-23T14:04:32.965Z</time></trkpt><trkpt lat="44.9122467" lon="10.6063533"><ele>24.0</ele><time>2026-03-23T14:04:34.964Z</time></trkpt><trkpt lat="44.9122067" lon="10.6062533"><ele>24.0</ele><time>2026-03-23T14:04:36.964Z</time></trkpt><trkpt lat="44.912165" lon="10.6061483"><ele>24.0</ele><time>2026-03-23T14:04:38.964Z</time></trkpt><trkpt lat="44.912125" lon="10.606045"><ele>24.0</ele><time>2026-03-23T14:04:40.965Z</time></trkpt><trkpt lat="44.9120917" lon="10.605925"><ele>24.0</ele><time>2026-03-23T14:04:42.964Z</time></trkpt><trkpt lat="44.9120617" lon="10.6058183"><ele>24.0</ele><time>2026-03-23T14:04:44.964Z</time></trkpt><trkpt lat="44.912035" lon="10.6057067"><ele>24.0</ele><time>2026-03-23T14:04:46.964Z</time></trkpt><trkpt lat="44.9120067" lon="10.6055917"><ele>24.0</ele><time>2026-03-23T14:04:48.964Z</time></trkpt><trkpt lat="44.9119783" lon="10.60548"><ele>24.0</ele><time>2026-03-23T14:04:50.965Z</time></trkpt><trkpt lat="44.911945" lon="10.605365"><ele>24.0</ele><time>2026-03-23T14:04:52.964Z</time></trkpt><trkpt lat="44.9119133" lon="10.6052517"><ele>24.0</ele><time>2026-03-23T14:04:54.964Z</time></trkpt><trkpt lat="44.9118867" lon="10.6051367"><ele>23.666666666666668</ele><time>2026-03-23T14:04:56.965Z</time></trkpt><trkpt lat="44.911855" lon="10.60502"><ele>23.333333333333332</ele><time>2026-03-23T14:04:58.964Z</time></trkpt><trkpt lat="44.9118217" lon="10.60491"><ele>23.0</ele><time>2026-03-23T14:05:00.965Z</time></trkpt><trkpt lat="44.9117967" lon="10.6047983"><ele>22.666666666666664</ele><time>2026-03-23T14:05:02.964Z</time></trkpt><trkpt lat="44.9117717" lon="10.6046933"><ele>22.333333333333332</ele><time>2026-03-23T14:05:04.965Z</time></trkpt><trkpt lat="44.9117433" lon="10.60458"><ele>22.0</ele><time>2026-03-23T14:05:06.964Z</time></trkpt><trkpt lat="44.9116917" lon="10.6044967"><ele>22.0</ele><time>2026-03-23T14:05:08.964Z</time></trkpt><trkpt lat="44.9116133" lon="10.6044567"><ele>22.0</ele><time>2026-03-23T14:05:10.965Z</time></trkpt><trkpt lat="44.9115367" lon="10.6044233"><ele>22.0</ele><time>2026-03-23T14:05:12.964Z</time></trkpt><trkpt lat="44.9114583" lon="10.604385"><ele>22.0</ele><time>2026-03-23T14:05:14.964Z</time></trkpt><trkpt lat="44.911375" lon="10.60435"><ele>22.0</ele><time>2026-03-23T14:05:16.965Z</time></trkpt><trkpt lat="44.9112883" lon="10.6043283"><ele>22.0</ele><time>2026-03-23T14:05:18.965Z</time></trkpt><trkpt lat="44.911205" lon="10.6042867"><ele>22.0</ele><time>2026-03-23T14:05:20.965Z</time></trkpt><trkpt lat="44.9111233" lon="10.6042667"><ele>22.0</ele><time>2026-03-23T14:05:22.965Z</time></trkpt><trkpt lat="44.91105" lon="10.60424"><ele>22.0</ele><time>2026-03-23T14:05:24.965Z</time></trkpt><trkpt lat="44.910975" lon="10.604195"><ele>22.0</ele><time>2026-03-23T14:05:26.964Z</time></trkpt><trkpt lat="44.9109033" lon="10.6041267"><ele>22.0</ele><time>2026-03-23T14:05:28.965Z</time></trkpt><trkpt lat="44.9108467" lon="10.6040417"><ele>22.0</ele><time>2026-03-23T14:05:30.964Z</time></trkpt><trkpt lat="44.9108133" lon="10.6039467"><ele>22.333333333333332</ele><time>2026-03-23T14:05:32.965Z</time></trkpt><trkpt lat="44.910795" lon="10.60384"><ele>22.666666666666664</ele><time>2026-03-23T14:05:35.964Z</time></trkpt><trkpt lat="44.910775" lon="10.603755"><ele>23.0</ele><time>2026-03-23T14:05:38.965Z</time></trkpt><trkpt lat="44.910755" lon="10.6036167"><ele>23.333333333333332</ele><time>2026-03-23T14:05:41.965Z</time></trkpt><trkpt lat="44.9107567" lon="10.60349"><ele>23.666666666666668</ele><time>2026-03-23T14:05:43.964Z</time></trkpt><trkpt lat="44.9107517" lon="10.6033767"><ele>24.0</ele><time>2026-03-23T14:05:45.964Z</time></trkpt><trkpt lat="44.9107533" lon="10.6032583"><ele>24.0</ele><time>2026-03-23T14:05:47.965Z</time></trkpt><trkpt lat="44.91075" lon="10.6031383"><ele>24.0</ele><time>2026-03-23T14:05:49.964Z</time></trkpt><trkpt lat="44.9107467" lon="10.60302"><ele>24.0</ele><time>2026-03-23T14:05:51.965Z</time></trkpt><trkpt lat="44.9107367" lon="10.6029083"><ele>24.0</ele><time>2026-03-23T14:05:53.965Z</time></trkpt><trkpt lat="44.9107233" lon="10.60281"><ele>24.0</ele><time>2026-03-23T14:05:55.965Z</time></trkpt><trkpt lat="44.9107183" lon="10.6026817"><ele>24.0</ele><time>2026-03-23T14:05:57.965Z</time></trkpt><trkpt lat="44.9107167" lon="10.6025617"><ele>24.0</ele><time>2026-03-23T14:05:59.965Z</time></trkpt><trkpt lat="44.9107" lon="10.6024483"><ele>24.0</ele><time>2026-03-23T14:06:01.964Z</time></trkpt><trkpt lat="44.9106933" lon="10.6023317"><ele>24.0</ele><time>2026-03-23T14:06:03.964Z</time></trkpt><trkpt lat="44.9106867" lon="10.6022217"><ele>24.0</ele><time>2026-03-23T14:06:05.965Z</time></trkpt><trkpt lat="44.9106683" lon="10.60211"><ele>24.0</ele><time>2026-03-23T14:06:07.964Z</time></trkpt><trkpt lat="44.9106617" lon="10.601985"><ele>24.0</ele><time>2026-03-23T14:06:09.964Z</time></trkpt><trkpt lat="44.9106217" lon="10.6018783"><ele>24.0</ele><time>2026-03-23T14:06:11.964Z</time></trkpt><trkpt lat="44.9105683" lon="10.6018117"><ele>24.0</ele><time>2026-03-23T14:06:13.964Z</time></trkpt><trkpt lat="44.9104983" lon="10.6017733"><ele>24.0</ele><time>2026-03-23T14:06:15.965Z</time></trkpt><trkpt lat="44.91042" lon="10.6017467"><ele>24.0</ele><time>2026-03-23T14:06:17.964Z</time></trkpt><trkpt lat="44.9103333" lon="10.6017133"><ele>24.0</ele><time>2026-03-23T14:06:19.964Z</time></trkpt><trkpt lat="44.9102617" lon="10.6016667"><ele>24.0</ele><time>2026-03-23T14:06:21.965Z</time></trkpt><trkpt lat="44.9101817" lon="10.6016383"><ele>24.0</ele><time>2026-03-23T14:06:23.965Z</time></trkpt><trkpt lat="44.9101083" lon="10.601595"><ele>24.0</ele><time>2026-03-23T14:06:25.964Z</time></trkpt><trkpt lat="44.910035" lon="10.6015517"><ele>24.0</ele><time>2026-03-23T14:06:27.964Z</time></trkpt><trkpt lat="44.9099517" lon="10.6015167"><ele>24.0</ele><time>2026-03-23T14:06:29.965Z</time></trkpt><trkpt lat="44.9098817" lon="10.6014683"><ele>24.0</ele><time>2026-03-23T14:06:31.964Z</time></trkpt><trkpt lat="44.9097983" lon="10.601435"><ele>24.0</ele><time>2026-03-23T14:06:33.964Z</time></trkpt><trkpt lat="44.9097217" lon="10.6013883"><ele>23.833333333333332</ele><time>2026-03-23T14:06:35.964Z</time></trkpt><trkpt lat="44.9096383" lon="10.6013617"><ele>23.666666666666668</ele><time>2026-03-23T14:06:37.964Z</time></trkpt><trkpt lat="44.9095617" lon="10.6013217"><ele>23.5</ele><time>2026-03-23T14:06:39.964Z</time></trkpt><trkpt lat="44.9094917" lon="10.60129"><ele>23.333333333333336</ele><time>2026-03-23T14:06:41.965Z</time></trkpt><trkpt lat="44.90943" lon="10.60124"><ele>23.166666666666668</ele><time>2026-03-23T14:06:43.965Z</time></trkpt><trkpt lat="44.9093717" lon="10.60117"><ele>23.0</ele><time>2026-03-23T14:06:45.965Z</time></trkpt><trkpt lat="44.9093167" lon="10.6010933"><ele>22.833333333333336</ele><time>2026-03-23T14:06:47.965Z</time></trkpt><trkpt lat="44.9092717" lon="10.6010067"><ele>22.666666666666668</ele><time>2026-03-23T14:06:49.964Z</time></trkpt><trkpt lat="44.9092283" lon="10.6009083"><ele>22.5</ele><time>2026-03-23T14:06:51.965Z</time></trkpt><trkpt lat="44.90918" lon="10.60081"><ele>22.333333333333332</ele><time>2026-03-23T14:06:53.964Z</time></trkpt><trkpt lat="44.909135" lon="10.60071"><ele>22.166666666666664</ele><time>2026-03-23T14:06:55.966Z</time></trkpt><trkpt lat="44.9091" lon="10.6006133"><ele>22.0</ele><time>2026-03-23T14:06:57.966Z</time></trkpt><trkpt lat="44.9090533" lon="10.6005167"><ele>22.166666666666664</ele><time>2026-03-23T14:06:59.966Z</time></trkpt><trkpt lat="44.9090083" lon="10.6004267"><ele>22.333333333333332</ele><time>2026-03-23T14:07:01.966Z</time></trkpt><trkpt lat="44.9089683" lon="10.6003383"><ele>22.5</ele><time>2026-03-23T14:07:03.966Z</time></trkpt><trkpt lat="44.9089217" lon="10.600255"><ele>22.666666666666668</ele><time>2026-03-23T14:07:05.965Z</time></trkpt><trkpt lat="44.908875" lon="10.6001617"><ele>22.833333333333336</ele><time>2026-03-23T14:07:07.965Z</time></trkpt><trkpt lat="44.9088267" lon="10.6000767"><ele>23.0</ele><time>2026-03-23T14:07:09.966Z</time></trkpt><trkpt lat="44.9087767" lon="10.6000033"><ele>23.0</ele><time>2026-03-23T14:07:11.965Z</time></trkpt><trkpt lat="44.9087133" lon="10.5999383"><ele>23.0</ele><time>2026-03-23T14:07:13.966Z</time></trkpt><trkpt lat="44.9086417" lon="10.5998833"><ele>23.0</ele><time>2026-03-23T14:07:15.966Z</time></trkpt><trkpt lat="44.9085583" lon="10.5998533"><ele>23.0</ele><time>2026-03-23T14:07:17.965Z</time></trkpt><trkpt lat="44.9084767" lon="10.5998183"><ele>23.0</ele><time>2026-03-23T14:07:19.966Z</time></trkpt><trkpt lat="44.9084033" lon="10.5997867"><ele>23.0</ele><time>2026-03-23T14:07:21.966Z</time></trkpt><trkpt lat="44.90833" lon="10.599745"><ele>22.833333333333336</ele><time>2026-03-23T14:07:23.966Z</time></trkpt><trkpt lat="44.9082567" lon="10.59972"><ele>22.666666666666668</ele><time>2026-03-23T14:07:25.966Z</time></trkpt><trkpt lat="44.9081833" lon="10.5996983"><ele>22.5</ele><time>2026-03-23T14:07:27.966Z</time></trkpt><trkpt lat="44.9080983" lon="10.599665"><ele>22.333333333333332</ele><time>2026-03-23T14:07:29.966Z</time></trkpt><trkpt lat="44.9080183" lon="10.5996333"><ele>22.166666666666664</ele><time>2026-03-23T14:07:31.965Z</time></trkpt><trkpt lat="44.9079467" lon="10.5996033"><ele>22.0</ele><time>2026-03-23T14:07:33.965Z</time></trkpt><trkpt lat="44.9078667" lon="10.5995767"><ele>22.0</ele><time>2026-03-23T14:07:35.966Z</time></trkpt><trkpt lat="44.9077917" lon="10.5995483"><ele>22.0</ele><time>2026-03-23T14:07:37.966Z</time></trkpt><trkpt lat="44.9077117" lon="10.5995067"><ele>22.0</ele><time>2026-03-23T14:07:39.966Z</time></trkpt><trkpt lat="44.907645" lon="10.5994433"><ele>22.0</ele><time>2026-03-23T14:07:41.966Z</time></trkpt><trkpt lat="44.9075983" lon="10.599345"><ele>22.0</ele><time>2026-03-23T14:07:43.966Z</time></trkpt><trkpt lat="44.9075717" lon="10.5992367"><ele>22.0</ele><time>2026-03-23T14:07:45.965Z</time></trkpt><trkpt lat="44.9075467" lon="10.5991217"><ele>22.166666666666664</ele><time>2026-03-23T14:07:47.966Z</time></trkpt><trkpt lat="44.9075183" lon="10.5990233"><ele>22.333333333333332</ele><time>2026-03-23T14:07:49.966Z</time></trkpt><trkpt lat="44.907485" lon="10.5989217"><ele>22.5</ele><time>2026-03-23T14:07:51.966Z</time></trkpt><trkpt lat="44.9074483" lon="10.5988317"><ele>22.666666666666668</ele><time>2026-03-23T14:07:53.966Z</time></trkpt><trkpt lat="44.907425" lon="10.598735"><ele>22.833333333333336</ele><time>2026-03-23T14:07:55.965Z</time></trkpt><trkpt lat="44.9073917" lon="10.598635"><ele>23.0</ele><time>2026-03-23T14:07:57.966Z</time></trkpt><trkpt lat="44.9073583" lon="10.5985383"><ele>23.166666666666668</ele><time>2026-03-23T14:07:59.966Z</time></trkpt><trkpt lat="44.9073283" lon="10.59844"><ele>23.333333333333336</ele><time>2026-03-23T14:08:01.966Z</time></trkpt><trkpt lat="44.9072917" lon="10.5983433"><ele>23.5</ele><time>2026-03-23T14:08:03.966Z</time></trkpt><trkpt lat="44.907255" lon="10.5982517"><ele>23.666666666666668</ele><time>2026-03-23T14:08:05.965Z</time></trkpt><trkpt lat="44.90721" lon="10.5981617"><ele>23.833333333333332</ele><time>2026-03-23T14:08:07.965Z</time></trkpt><trkpt lat="44.907165" lon="10.5980717"><ele>24.0</ele><time>2026-03-23T14:08:09.965Z</time></trkpt><trkpt lat="44.9071267" lon="10.59797"><ele>24.0</ele><time>2026-03-23T14:08:11.966Z</time></trkpt><trkpt lat="44.90709" lon="10.5978667"><ele>24.0</ele><time>2026-03-23T14:08:13.966Z</time></trkpt><trkpt lat="44.9070467" lon="10.5977817"><ele>24.0</ele><time>2026-03-23T14:08:15.965Z</time></trkpt><trkpt lat="44.906985" lon="10.5977033"><ele>24.0</ele><time>2026-03-23T14:08:17.965Z</time></trkpt><trkpt lat="44.9069317" lon="10.5976183"><ele>24.0</ele><time>2026-03-23T14:08:19.965Z</time></trkpt><trkpt lat="44.9068783" lon="10.59753"><ele>24.0</ele><time>2026-03-23T14:08:21.965Z</time></trkpt><trkpt lat="44.9068133" lon="10.5974583"><ele>23.999999999999996</ele><time>2026-03-23T14:08:23.966Z</time></trkpt><trkpt lat="44.90675" lon="10.5973833"><ele>24.0</ele><time>2026-03-23T14:08:25.965Z</time></trkpt><trkpt lat="44.906695" lon="10.5973067"><ele>24.0</ele><time>2026-03-23T14:08:27.965Z</time></trkpt><trkpt lat="44.90665" lon="10.5972233"><ele>24.0</ele><time>2026-03-23T14:08:29.965Z</time></trkpt><trkpt lat="44.9066067" lon="10.59715"><ele>24.0</ele><time>2026-03-23T14:08:31.965Z</time></trkpt><trkpt lat="44.90656" lon="10.5970717"><ele>23.999999999999996</ele><time>2026-03-23T14:08:33.965Z</time></trkpt><trkpt lat="44.9065067" lon="10.5970067"><ele>24.0</ele><time>2026-03-23T14:08:35.965Z</time></trkpt><trkpt lat="44.9064383" lon="10.5969867"><ele>23.833333333333332</ele><time>2026-03-23T14:08:38.965Z</time></trkpt><trkpt lat="44.9064133" lon="10.5970817"><ele>23.666666666666668</ele><time>2026-03-23T14:08:42.965Z</time></trkpt><trkpt lat="44.9063917" lon="10.597185"><ele>23.5</ele><time>2026-03-23T14:08:45.965Z</time></trkpt><trkpt lat="44.9063583" lon="10.59727"><ele>23.333333333333336</ele><time>2026-03-23T14:08:48.965Z</time></trkpt><trkpt lat="44.9062817" lon="10.59722"><ele>23.166666666666668</ele><time>2026-03-23T14:08:52.965Z</time></trkpt><trkpt lat="44.9062517" lon="10.5971383"><ele>23.0</ele><time>2026-03-23T14:08:54.966Z</time></trkpt><trkpt lat="44.906235" lon="10.5970233"><ele>23.0</ele><time>2026-03-23T14:08:57.965Z</time></trkpt><trkpt lat="44.90623" lon="10.5968933"><ele>23.0</ele><time>2026-03-23T14:09:00.965Z</time></trkpt><trkpt lat="44.9062383" lon="10.5968"><ele>23.0</ele><time>2026-03-23T14:09:02.966Z</time></trkpt><trkpt lat="44.906235" lon="10.5966917"><ele>23.0</ele><time>2026-03-23T14:09:05.965Z</time></trkpt><trkpt lat="44.9062417" lon="10.5965783"><ele>23.0</ele><time>2026-03-23T14:09:08.966Z</time></trkpt><trkpt lat="44.90624" lon="10.5964583"><ele>23.0</ele><time>2026-03-23T14:09:11.966Z</time></trkpt><trkpt lat="44.9062417" lon="10.5963367"><ele>23.0</ele><time>2026-03-23T14:09:14.965Z</time></trkpt><trkpt lat="44.9062417" lon="10.59621"><ele>23.0</ele><time>2026-03-23T14:09:17.966Z</time></trkpt><trkpt lat="44.9062317" lon="10.596105"><ele>23.0</ele><time>2026-03-23T14:09:20.965Z</time></trkpt><trkpt lat="44.9062183" lon="10.5959967"><ele>23.0</ele><time>2026-03-23T14:09:23.965Z</time></trkpt><trkpt lat="44.906165" lon="10.5959167"><ele>23.0</ele><time>2026-03-23T14:09:26.966Z</time></trkpt><trkpt lat="44.9060767" lon="10.5959033"><ele>23.0</ele><time>2026-03-23T14:09:29.965Z</time></trkpt><trkpt lat="44.9059917" lon="10.5958633"><ele>23.142857142857142</ele><time>2026-03-23T14:09:32.966Z</time></trkpt><trkpt lat="44.9059217" lon="10.595855"><ele>23.285714285714285</ele><time>2026-03-23T14:09:34.965Z</time></trkpt><trkpt lat="44.9058483" lon="10.5958467"><ele>23.428571428571427</ele><time>2026-03-23T14:09:36.965Z</time></trkpt><trkpt lat="44.905785" lon="10.595815"><ele>23.57142857142857</ele><time>2026-03-23T14:09:38.965Z</time></trkpt><trkpt lat="44.90572" lon="10.59579"><ele>23.714285714285715</ele><time>2026-03-23T14:09:40.966Z</time></trkpt><trkpt lat="44.9056583" lon="10.5957667"><ele>23.857142857142854</ele><time>2026-03-23T14:09:42.965Z</time></trkpt><trkpt lat="44.9055917" lon="10.5957483"><ele>24.0</ele><time>2026-03-23T14:09:44.966Z</time></trkpt><trkpt lat="44.9055233" lon="10.59573"><ele>24.166666666666668</ele><time>2026-03-23T14:09:46.966Z</time></trkpt><trkpt lat="44.905455" lon="10.5957117"><ele>24.333333333333336</ele><time>2026-03-23T14:09:48.966Z</time></trkpt><trkpt lat="44.9053783" lon="10.5956767"><ele>24.5</ele><time>2026-03-23T14:09:51.965Z</time></trkpt><trkpt lat="44.9052917" lon="10.59566"><ele>24.666666666666668</ele><time>2026-03-23T14:09:54.965Z</time></trkpt><trkpt lat="44.905225" lon="10.59565"><ele>24.833333333333336</ele><time>2026-03-23T14:09:56.965Z</time></trkpt><trkpt lat="44.905135" lon="10.5956233"><ele>25.0</ele><time>2026-03-23T14:09:59.965Z</time></trkpt><trkpt lat="44.90505" lon="10.5955717"><ele>25.000000000000004</ele><time>2026-03-23T14:10:02.965Z</time></trkpt><trkpt lat="44.9049867" lon="10.5955533"><ele>25.0</ele><time>2026-03-23T14:10:04.965Z</time></trkpt><trkpt lat="44.9049133" lon="10.59555"><ele>25.0</ele><time>2026-03-23T14:10:06.966Z</time></trkpt><trkpt lat="44.9048467" lon="10.5955333"><ele>25.0</ele><time>2026-03-23T14:10:08.965Z</time></trkpt><trkpt lat="44.9047867" lon="10.5954983"><ele>25.0</ele><time>2026-03-23T14:10:10.965Z</time></trkpt><trkpt lat="44.904695" lon="10.5954617"><ele>25.000000000000004</ele><time>2026-03-23T14:10:13.965Z</time></trkpt><trkpt lat="44.9046233" lon="10.5954583"><ele>25.0</ele><time>2026-03-23T14:10:15.965Z</time></trkpt><trkpt lat="44.90456" lon="10.5954267"><ele>25.000000000000004</ele><time>2026-03-23T14:10:17.965Z</time></trkpt><trkpt lat="44.9044883" lon="10.5954"><ele>25.0</ele><time>2026-03-23T14:10:19.965Z</time></trkpt><trkpt lat="44.9044167" lon="10.595375"><ele>25.0</ele><time>2026-03-23T14:10:21.965Z</time></trkpt><trkpt lat="44.9043483" lon="10.5953633"><ele>25.0</ele><time>2026-03-23T14:10:23.966Z</time></trkpt><trkpt lat="44.90428" lon="10.595345"><ele>25.0</ele><time>2026-03-23T14:10:25.966Z</time></trkpt><trkpt lat="44.9042167" lon="10.5953167"><ele>25.000000000000004</ele><time>2026-03-23T14:10:27.965Z</time></trkpt><trkpt lat="44.904155" lon="10.5952867"><ele>25.0</ele><time>2026-03-23T14:10:29.966Z</time></trkpt><trkpt lat="44.904085" lon="10.59527"><ele>24.857142857142858</ele><time>2026-03-23T14:10:31.965Z</time></trkpt><trkpt lat="44.9039967" lon="10.5952233"><ele>24.714285714285715</ele><time>2026-03-23T14:10:34.966Z</time></trkpt><trkpt lat="44.90393" lon="10.5952"><ele>24.57142857142857</ele><time>2026-03-23T14:10:36.966Z</time></trkpt><trkpt lat="44.9038667" lon="10.595175"><ele>24.42857142857143</ele><time>2026-03-23T14:10:38.965Z</time></trkpt><trkpt lat="44.903795" lon="10.5951617"><ele>24.285714285714285</ele><time>2026-03-23T14:10:40.965Z</time></trkpt><trkpt lat="44.9037283" lon="10.5951333"><ele>24.142857142857142</ele><time>2026-03-23T14:10:42.966Z</time></trkpt><trkpt lat="44.903655" lon="10.5951083"><ele>24.0</ele><time>2026-03-23T14:10:44.966Z</time></trkpt><trkpt lat="44.9035817" lon="10.59508"><ele>24.0</ele><time>2026-03-23T14:10:46.966Z</time></trkpt><trkpt lat="44.9035133" lon="10.5950683"><ele>24.0</ele><time>2026-03-23T14:10:48.966Z</time></trkpt><trkpt lat="44.9034333" lon="10.5950567"><ele>24.0</ele><time>2026-03-23T14:10:50.966Z</time></trkpt><trkpt lat="44.90336" lon="10.5950417"><ele>24.0</ele><time>2026-03-23T14:10:52.965Z</time></trkpt><trkpt lat="44.90329" lon="10.5950217"><ele>24.0</ele><time>2026-03-23T14:10:54.965Z</time></trkpt><trkpt lat="44.9032083" lon="10.59501"><ele>24.0</ele><time>2026-03-23T14:10:56.965Z</time></trkpt><trkpt lat="44.9031367" lon="10.5949733"><ele>23.857142857142854</ele><time>2026-03-23T14:10:58.966Z</time></trkpt><trkpt lat="44.9030633" lon="10.5949533"><ele>23.714285714285715</ele><time>2026-03-23T14:11:00.965Z</time></trkpt><trkpt lat="44.9029867" lon="10.5949483"><ele>23.57142857142857</ele><time>2026-03-23T14:11:02.966Z</time></trkpt><trkpt lat="44.9029217" lon="10.5949217"><ele>23.428571428571427</ele><time>2026-03-23T14:11:04.965Z</time></trkpt><trkpt lat="44.9028483" lon="10.5949017"><ele>23.285714285714285</ele><time>2026-03-23T14:11:06.965Z</time></trkpt><trkpt lat="44.9027817" lon="10.5948817"><ele>23.142857142857142</ele><time>2026-03-23T14:11:08.965Z</time></trkpt><trkpt lat="44.9027183" lon="10.5948617"><ele>23.0</ele><time>2026-03-23T14:11:10.966Z</time></trkpt><trkpt lat="44.9026267" lon="10.5948333"><ele>23.142857142857142</ele><time>2026-03-23T14:11:13.966Z</time></trkpt><trkpt lat="44.9025617" lon="10.594815"><ele>23.285714285714285</ele><time>2026-03-23T14:11:15.965Z</time></trkpt><trkpt lat="44.9024867" lon="10.594785"><ele>23.428571428571427</ele><time>2026-03-23T14:11:18.966Z</time></trkpt><trkpt lat="44.9024067" lon="10.594765"><ele>23.57142857142857</ele><time>2026-03-23T14:11:21.965Z</time></trkpt><trkpt lat="44.9023367" lon="10.59474"><ele>23.714285714285715</ele><time>2026-03-23T14:11:24.966Z</time></trkpt><trkpt lat="44.9022733" lon="10.594685"><ele>23.857142857142854</ele><time>2026-03-23T14:11:27.965Z</time></trkpt><trkpt lat="44.9022367" lon="10.594595"><ele>24.0</ele><time>2026-03-23T14:11:30.966Z</time></trkpt><trkpt lat="44.902225" lon="10.594485"><ele>23.666666666666668</ele><time>2026-03-23T14:11:33.966Z</time></trkpt><trkpt lat="44.9022283" lon="10.5943883"><ele>23.333333333333332</ele><time>2026-03-23T14:11:36.966Z</time></trkpt><trkpt lat="44.9022367" lon="10.5942967"><ele>23.0</ele><time>2026-03-23T14:11:39.965Z</time></trkpt><trkpt lat="44.9022483" lon="10.5941817"><ele>22.666666666666664</ele><time>2026-03-23T14:11:43.965Z</time></trkpt><trkpt lat="44.902245" lon="10.594075"><ele>22.333333333333332</ele><time>2026-03-23T14:11:47.965Z</time></trkpt><trkpt lat="44.9022517" lon="10.59398"><ele>22.0</ele><time>2026-03-23T14:11:50.965Z</time></trkpt><trkpt lat="44.902275" lon="10.59384"><ele>22.0</ele><time>2026-03-23T14:11:53.965Z</time></trkpt><trkpt lat="44.90229" lon="10.593715"><ele>22.0</ele><time>2026-03-23T14:11:55.965Z</time></trkpt><trkpt lat="44.90231" lon="10.5935767"><ele>22.0</ele><time>2026-03-23T14:11:57.965Z</time></trkpt><trkpt lat="44.9023517" lon="10.5934583"><ele>22.0</ele><time>2026-03-23T14:11:59.965Z</time></trkpt><trkpt lat="44.90237" lon="10.593315"><ele>22.0</ele><time>2026-03-23T14:12:01.965Z</time></trkpt><trkpt lat="44.9023933" lon="10.5931933"><ele>22.0</ele><time>2026-03-23T14:12:03.966Z</time></trkpt><trkpt lat="44.90237" lon="10.5931083"><ele>22.0</ele><time>2026-03-23T14:12:06.965Z</time></trkpt><trkpt lat="44.9023283" lon="10.5932033"><ele>22.0</ele><time>2026-03-23T14:12:08.966Z</time></trkpt><trkpt lat="44.9022917" lon="10.59331"><ele>22.0</ele><time>2026-03-23T14:12:10.966Z</time></trkpt><trkpt lat="44.90224" lon="10.59343"><ele>22.0</ele><time>2026-03-23T14:12:12.965Z</time></trkpt><trkpt lat="44.9021767" lon="10.5935517"><ele>22.0</ele><time>2026-03-23T14:12:14.966Z</time></trkpt><trkpt lat="44.902125" lon="10.5936767"><ele>22.0</ele><time>2026-03-23T14:12:16.965Z</time></trkpt><trkpt lat="44.9020717" lon="10.5938133"><ele>22.0</ele><time>2026-03-23T14:12:18.966Z</time></trkpt><trkpt lat="44.9020083" lon="10.5939483"><ele>22.0</ele><time>2026-03-23T14:12:20.965Z</time></trkpt><trkpt lat="44.9019467" lon="10.594105"><ele>22.0</ele><time>2026-03-23T14:12:22.966Z</time></trkpt><trkpt lat="44.901915" lon="10.5941867"><ele>22.0</ele><time>2026-03-23T14:12:23.966Z</time></trkpt><trkpt lat="44.9018617" lon="10.59435"><ele>22.0</ele><time>2026-03-23T14:12:25.966Z</time></trkpt><trkpt lat="44.9018267" lon="10.594425"><ele>22.0</ele><time>2026-03-23T14:12:26.966Z</time></trkpt><trkpt lat="44.9017767" lon="10.594485"><ele>22.0</ele><time>2026-03-23T14:12:27.966Z</time></trkpt><trkpt lat="44.901715" lon="10.594535"><ele>22.0</ele><time>2026-03-23T14:12:28.966Z</time></trkpt><trkpt lat="44.901655" lon="10.5945733"><ele>22.0</ele><time>2026-03-23T14:12:29.965Z</time></trkpt><trkpt lat="44.90159" lon="10.5946067"><ele>22.0</ele><time>2026-03-23T14:12:30.966Z</time></trkpt><trkpt lat="44.9014733" lon="10.5946417"><ele>22.0</ele><time>2026-03-23T14:12:32.965Z</time></trkpt><trkpt lat="44.9014117" lon="10.5946617"><ele>22.0</ele><time>2026-03-23T14:12:33.965Z</time></trkpt><trkpt lat="44.9013467" lon="10.5946817"><ele>22.0</ele><time>2026-03-23T14:12:34.965Z</time></trkpt><trkpt lat="44.9012333" lon="10.5947167"><ele>22.0</ele><time>2026-03-23T14:12:36.966Z</time></trkpt><trkpt lat="44.9011233" lon="10.5947283"><ele>22.0</ele><time>2026-03-23T14:12:38.966Z</time></trkpt><trkpt lat="44.90104" lon="10.5947067"><ele>22.0</ele><time>2026-03-23T14:12:40.965Z</time></trkpt><trkpt lat="44.9009417" lon="10.5946667"><ele>22.0</ele><time>2026-03-23T14:12:42.966Z</time></trkpt><trkpt lat="44.9008433" lon="10.59465"><ele>23.0</ele><time>2026-03-23T14:12:44.966Z</time></trkpt><trkpt lat="44.9007633" lon="10.5946183"><ele>23.0</ele><time>2026-03-23T14:12:46.965Z</time></trkpt><trkpt lat="44.9007467" lon="10.5945317"><ele>23.0</ele><time>2026-03-23T14:12:48.966Z</time></trkpt><trkpt lat="44.9007817" lon="10.59442"><ele>22.0</ele><time>2026-03-23T14:12:51.965Z</time></trkpt></trkseg></trk></gpx>